<?xml version="1.0" encoding="utf-8"?>
<gpx xmlns:xsi="http://www.w3.org/2001/XMLSchema-instance" xmlns:xsd="http://www.w3.org/2001/XMLSchema" version="1.1" creator="Shapelink.com" xmlns="http://www.topografix.com/GPX/1/1" xmlns:gpxtpx="http://www.garmin.com/xmlschemas/TrackPointExtension/v1">
  <metadata>
    <name>Ciclismo 21.50 km, 2019-11-26</name>
    <desc></desc>
    <author><name>Peter Littke</name></author> 
    <time>2019-11-26T15:55:21Z</time>
  </metadata>
  <trk>
    <name>Ciclismo 21.50 km, 2019-11-26</name>
    <trkseg>
      <trkpt lat="59.173642" lon="18.143425">
        <ele>0</ele>
        <time>2019-11-26T15:55:21Z</time>
      </trkpt>
      <trkpt lat="59.173647" lon="18.143465">
        <ele>77</ele>
        <time>2019-11-26T15:55:33Z</time>
      </trkpt>
      <trkpt lat="59.173675" lon="18.143457">
        <ele>76</ele>
        <time>2019-11-26T15:55:35Z</time>
      </trkpt>
      <trkpt lat="59.173701" lon="18.143452">
        <ele>75</ele>
        <time>2019-11-26T15:55:37Z</time>
      </trkpt>
      <trkpt lat="59.173724" lon="18.143468">
        <ele>74</ele>
        <time>2019-11-26T15:55:39Z</time>
      </trkpt>
      <trkpt lat="59.173759" lon="18.143467">
        <ele>71</ele>
        <time>2019-11-26T15:55:41Z</time>
      </trkpt>
      <trkpt lat="59.173781" lon="18.143416">
        <ele>71</ele>
        <time>2019-11-26T15:55:42Z</time>
      </trkpt>
      <trkpt lat="59.173805" lon="18.143344">
        <ele>70</ele>
        <time>2019-11-26T15:55:43Z</time>
      </trkpt>
      <trkpt lat="59.173815" lon="18.14327">
        <ele>70</ele>
        <time>2019-11-26T15:55:44Z</time>
      </trkpt>
      <trkpt lat="59.173821" lon="18.143203">
        <ele>69</ele>
        <time>2019-11-26T15:55:45Z</time>
      </trkpt>
      <trkpt lat="59.173825" lon="18.143136">
        <ele>69</ele>
        <time>2019-11-26T15:55:46Z</time>
      </trkpt>
      <trkpt lat="59.17383" lon="18.143076">
        <ele>69</ele>
        <time>2019-11-26T15:55:47Z</time>
      </trkpt>
      <trkpt lat="59.173843" lon="18.143023">
        <ele>68</ele>
        <time>2019-11-26T15:55:48Z</time>
      </trkpt>
      <trkpt lat="59.173874" lon="18.142975">
        <ele>68</ele>
        <time>2019-11-26T15:55:49Z</time>
      </trkpt>
      <trkpt lat="59.173912" lon="18.142942">
        <ele>67</ele>
        <time>2019-11-26T15:55:50Z</time>
      </trkpt>
      <trkpt lat="59.173953" lon="18.142928">
        <ele>0</ele>
        <time>2019-11-26T15:55:51Z</time>
      </trkpt>
      <trkpt lat="59.17399" lon="18.14291">
        <ele>66</ele>
        <time>2019-11-26T15:55:52Z</time>
      </trkpt>
      <trkpt lat="59.174022" lon="18.14288">
        <ele>65</ele>
        <time>2019-11-26T15:55:53Z</time>
      </trkpt>
      <trkpt lat="59.17406" lon="18.142845">
        <ele>64</ele>
        <time>2019-11-26T15:55:54Z</time>
      </trkpt>
      <trkpt lat="59.174101" lon="18.142832">
        <ele>63</ele>
        <time>2019-11-26T15:55:55Z</time>
      </trkpt>
      <trkpt lat="59.174139" lon="18.142838">
        <ele>63</ele>
        <time>2019-11-26T15:55:56Z</time>
      </trkpt>
      <trkpt lat="59.17418" lon="18.142856">
        <ele>62</ele>
        <time>2019-11-26T15:55:57Z</time>
      </trkpt>
      <trkpt lat="59.174222" lon="18.142878">
        <ele>61</ele>
        <time>2019-11-26T15:55:58Z</time>
      </trkpt>
      <trkpt lat="59.17427" lon="18.142899">
        <ele>60</ele>
        <time>2019-11-26T15:55:59Z</time>
      </trkpt>
      <trkpt lat="59.174321" lon="18.142921">
        <ele>59</ele>
        <time>2019-11-26T15:56:00Z</time>
      </trkpt>
      <trkpt lat="59.17437" lon="18.142941">
        <ele>59</ele>
        <time>2019-11-26T15:56:01Z</time>
      </trkpt>
      <trkpt lat="59.174417" lon="18.14296">
        <ele>58</ele>
        <time>2019-11-26T15:56:03Z</time>
      </trkpt>
      <trkpt lat="59.17446" lon="18.142976">
        <ele>57</ele>
        <time>2019-11-26T15:56:03Z</time>
      </trkpt>
      <trkpt lat="59.174499" lon="18.142988">
        <ele>57</ele>
        <time>2019-11-26T15:56:04Z</time>
      </trkpt>
      <trkpt lat="59.174535" lon="18.142994">
        <ele>56</ele>
        <time>2019-11-26T15:56:05Z</time>
      </trkpt>
      <trkpt lat="59.17457" lon="18.142982">
        <ele>56</ele>
        <time>2019-11-26T15:56:06Z</time>
      </trkpt>
      <trkpt lat="59.174594" lon="18.142948">
        <ele>55</ele>
        <time>2019-11-26T15:56:07Z</time>
      </trkpt>
      <trkpt lat="59.174611" lon="18.142897">
        <ele>54</ele>
        <time>2019-11-26T15:56:08Z</time>
      </trkpt>
      <trkpt lat="59.174631" lon="18.142843">
        <ele>54</ele>
        <time>2019-11-26T15:56:10Z</time>
      </trkpt>
      <trkpt lat="59.174655" lon="18.142796">
        <ele>53</ele>
        <time>2019-11-26T15:56:11Z</time>
      </trkpt>
      <trkpt lat="59.174684" lon="18.142765">
        <ele>53</ele>
        <time>2019-11-26T15:56:11Z</time>
      </trkpt>
      <trkpt lat="59.174719" lon="18.142749">
        <ele>53</ele>
        <time>2019-11-26T15:56:12Z</time>
      </trkpt>
      <trkpt lat="59.174758" lon="18.142738">
        <ele>53</ele>
        <time>2019-11-26T15:56:13Z</time>
      </trkpt>
      <trkpt lat="59.174797" lon="18.142726">
        <ele>52</ele>
        <time>2019-11-26T15:56:14Z</time>
      </trkpt>
      <trkpt lat="59.174841" lon="18.142711">
        <ele>52</ele>
        <time>2019-11-26T15:56:15Z</time>
      </trkpt>
      <trkpt lat="59.174884" lon="18.142693">
        <ele>52</ele>
        <time>2019-11-26T15:56:17Z</time>
      </trkpt>
      <trkpt lat="59.174925" lon="18.14267">
        <ele>51</ele>
        <time>2019-11-26T15:56:17Z</time>
      </trkpt>
      <trkpt lat="59.174964" lon="18.142644">
        <ele>51</ele>
        <time>2019-11-26T15:56:18Z</time>
      </trkpt>
      <trkpt lat="59.175" lon="18.142613">
        <ele>51</ele>
        <time>2019-11-26T15:56:19Z</time>
      </trkpt>
      <trkpt lat="59.175032" lon="18.142575">
        <ele>50</ele>
        <time>2019-11-26T15:56:20Z</time>
      </trkpt>
      <trkpt lat="59.175055" lon="18.142526">
        <ele>50</ele>
        <time>2019-11-26T15:56:21Z</time>
      </trkpt>
      <trkpt lat="59.175074" lon="18.142471">
        <ele>50</ele>
        <time>2019-11-26T15:56:22Z</time>
      </trkpt>
      <trkpt lat="59.175093" lon="18.142415">
        <ele>50</ele>
        <time>2019-11-26T15:56:23Z</time>
      </trkpt>
      <trkpt lat="59.175107" lon="18.142369">
        <ele>50</ele>
        <time>2019-11-26T15:56:24Z</time>
      </trkpt>
      <trkpt lat="59.175121" lon="18.142322">
        <ele>50</ele>
        <time>2019-11-26T15:56:25Z</time>
      </trkpt>
      <trkpt lat="59.17513" lon="18.142274">
        <ele>50</ele>
        <time>2019-11-26T15:56:26Z</time>
      </trkpt>
      <trkpt lat="59.17514" lon="18.142219">
        <ele>49</ele>
        <time>2019-11-26T15:56:27Z</time>
      </trkpt>
      <trkpt lat="59.175165" lon="18.142156">
        <ele>49</ele>
        <time>2019-11-26T15:56:28Z</time>
      </trkpt>
      <trkpt lat="59.175194" lon="18.142091">
        <ele>49</ele>
        <time>2019-11-26T15:56:30Z</time>
      </trkpt>
      <trkpt lat="59.175228" lon="18.14203">
        <ele>49</ele>
        <time>2019-11-26T15:56:31Z</time>
      </trkpt>
      <trkpt lat="59.175258" lon="18.141966">
        <ele>49</ele>
        <time>2019-11-26T15:56:31Z</time>
      </trkpt>
      <trkpt lat="59.175288" lon="18.141907">
        <ele>48</ele>
        <time>2019-11-26T15:56:32Z</time>
      </trkpt>
      <trkpt lat="59.175319" lon="18.141855">
        <ele>48</ele>
        <time>2019-11-26T15:56:33Z</time>
      </trkpt>
      <trkpt lat="59.175346" lon="18.141808">
        <ele>48</ele>
        <time>2019-11-26T15:56:34Z</time>
      </trkpt>
      <trkpt lat="59.175367" lon="18.141764">
        <ele>48</ele>
        <time>2019-11-26T15:56:35Z</time>
      </trkpt>
      <trkpt lat="59.175383" lon="18.141728">
        <ele>47</ele>
        <time>2019-11-26T15:56:36Z</time>
      </trkpt>
      <trkpt lat="59.175398" lon="18.141697">
        <ele>47</ele>
        <time>2019-11-26T15:56:37Z</time>
      </trkpt>
      <trkpt lat="59.175412" lon="18.141662">
        <ele>47</ele>
        <time>2019-11-26T15:56:38Z</time>
      </trkpt>
      <trkpt lat="59.175421" lon="18.141623">
        <ele>46</ele>
        <time>2019-11-26T15:56:39Z</time>
      </trkpt>
      <trkpt lat="59.175432" lon="18.141588">
        <ele>46</ele>
        <time>2019-11-26T15:56:40Z</time>
      </trkpt>
      <trkpt lat="59.175437" lon="18.141574">
        <ele>0</ele>
        <time>2019-11-26T15:56:45Z</time>
      </trkpt>
      <trkpt lat="59.175498" lon="18.141461">
        <ele>45</ele>
        <time>2019-11-26T15:56:57Z</time>
      </trkpt>
      <trkpt lat="59.175528" lon="18.141397">
        <ele>45</ele>
        <time>2019-11-26T15:56:57Z</time>
      </trkpt>
      <trkpt lat="59.175558" lon="18.141331">
        <ele>45</ele>
        <time>2019-11-26T15:56:58Z</time>
      </trkpt>
      <trkpt lat="59.175592" lon="18.141273">
        <ele>44</ele>
        <time>2019-11-26T15:56:59Z</time>
      </trkpt>
      <trkpt lat="59.175633" lon="18.141235">
        <ele>44</ele>
        <time>2019-11-26T15:57:00Z</time>
      </trkpt>
      <trkpt lat="59.175679" lon="18.141214">
        <ele>44</ele>
        <time>2019-11-26T15:57:02Z</time>
      </trkpt>
      <trkpt lat="59.175724" lon="18.141203">
        <ele>44</ele>
        <time>2019-11-26T15:57:02Z</time>
      </trkpt>
      <trkpt lat="59.175765" lon="18.1412">
        <ele>44</ele>
        <time>2019-11-26T15:57:03Z</time>
      </trkpt>
      <trkpt lat="59.175801" lon="18.141209">
        <ele>44</ele>
        <time>2019-11-26T15:57:04Z</time>
      </trkpt>
      <trkpt lat="59.175837" lon="18.141224">
        <ele>44</ele>
        <time>2019-11-26T15:57:05Z</time>
      </trkpt>
      <trkpt lat="59.175875" lon="18.141238">
        <ele>44</ele>
        <time>2019-11-26T15:57:06Z</time>
      </trkpt>
      <trkpt lat="59.175915" lon="18.14125">
        <ele>44</ele>
        <time>2019-11-26T15:57:07Z</time>
      </trkpt>
      <trkpt lat="59.175956" lon="18.141262">
        <ele>44</ele>
        <time>2019-11-26T15:57:08Z</time>
      </trkpt>
      <trkpt lat="59.175997" lon="18.141275">
        <ele>43</ele>
        <time>2019-11-26T15:57:09Z</time>
      </trkpt>
      <trkpt lat="59.176041" lon="18.141285">
        <ele>43</ele>
        <time>2019-11-26T15:57:10Z</time>
      </trkpt>
      <trkpt lat="59.176087" lon="18.141294">
        <ele>43</ele>
        <time>2019-11-26T15:57:11Z</time>
      </trkpt>
      <trkpt lat="59.176135" lon="18.141301">
        <ele>43</ele>
        <time>2019-11-26T15:57:12Z</time>
      </trkpt>
      <trkpt lat="59.176184" lon="18.141307">
        <ele>43</ele>
        <time>2019-11-26T15:57:14Z</time>
      </trkpt>
      <trkpt lat="59.176234" lon="18.141309">
        <ele>43</ele>
        <time>2019-11-26T15:57:14Z</time>
      </trkpt>
      <trkpt lat="59.176287" lon="18.141308">
        <ele>43</ele>
        <time>2019-11-26T15:57:16Z</time>
      </trkpt>
      <trkpt lat="59.176342" lon="18.141305">
        <ele>43</ele>
        <time>2019-11-26T15:57:16Z</time>
      </trkpt>
      <trkpt lat="59.176399" lon="18.141307">
        <ele>43</ele>
        <time>2019-11-26T15:57:17Z</time>
      </trkpt>
      <trkpt lat="59.176457" lon="18.141315">
        <ele>42</ele>
        <time>2019-11-26T15:57:18Z</time>
      </trkpt>
      <trkpt lat="59.176516" lon="18.141328">
        <ele>42</ele>
        <time>2019-11-26T15:57:19Z</time>
      </trkpt>
      <trkpt lat="59.176574" lon="18.141348">
        <ele>42</ele>
        <time>2019-11-26T15:57:20Z</time>
      </trkpt>
      <trkpt lat="59.176634" lon="18.141373">
        <ele>42</ele>
        <time>2019-11-26T15:57:22Z</time>
      </trkpt>
      <trkpt lat="59.176695" lon="18.141402">
        <ele>42</ele>
        <time>2019-11-26T15:57:22Z</time>
      </trkpt>
      <trkpt lat="59.176756" lon="18.141431">
        <ele>42</ele>
        <time>2019-11-26T15:57:23Z</time>
      </trkpt>
      <trkpt lat="59.176817" lon="18.141459">
        <ele>42</ele>
        <time>2019-11-26T15:57:24Z</time>
      </trkpt>
      <trkpt lat="59.176879" lon="18.141487">
        <ele>42</ele>
        <time>2019-11-26T15:57:25Z</time>
      </trkpt>
      <trkpt lat="59.176942" lon="18.141515">
        <ele>42</ele>
        <time>2019-11-26T15:57:26Z</time>
      </trkpt>
      <trkpt lat="59.177002" lon="18.141542">
        <ele>42</ele>
        <time>2019-11-26T15:57:27Z</time>
      </trkpt>
      <trkpt lat="59.17706" lon="18.141567">
        <ele>42</ele>
        <time>2019-11-26T15:57:28Z</time>
      </trkpt>
      <trkpt lat="59.177114" lon="18.141586">
        <ele>42</ele>
        <time>2019-11-26T15:57:29Z</time>
      </trkpt>
      <trkpt lat="59.177162" lon="18.14159">
        <ele>42</ele>
        <time>2019-11-26T15:57:31Z</time>
      </trkpt>
      <trkpt lat="59.177204" lon="18.141579">
        <ele>42</ele>
        <time>2019-11-26T15:57:31Z</time>
      </trkpt>
      <trkpt lat="59.177243" lon="18.141565">
        <ele>42</ele>
        <time>2019-11-26T15:57:32Z</time>
      </trkpt>
      <trkpt lat="59.177278" lon="18.14156">
        <ele>42</ele>
        <time>2019-11-26T15:57:33Z</time>
      </trkpt>
      <trkpt lat="59.177303" lon="18.141567">
        <ele>42</ele>
        <time>2019-11-26T15:57:35Z</time>
      </trkpt>
      <trkpt lat="59.177333" lon="18.141584">
        <ele>42</ele>
        <time>2019-11-26T15:57:36Z</time>
      </trkpt>
      <trkpt lat="59.177357" lon="18.141598">
        <ele>42</ele>
        <time>2019-11-26T15:57:37Z</time>
      </trkpt>
      <trkpt lat="59.17739" lon="18.141613">
        <ele>42</ele>
        <time>2019-11-26T15:57:38Z</time>
      </trkpt>
      <trkpt lat="59.177431" lon="18.141625">
        <ele>42</ele>
        <time>2019-11-26T15:57:39Z</time>
      </trkpt>
      <trkpt lat="59.17748" lon="18.14164">
        <ele>41</ele>
        <time>2019-11-26T15:57:40Z</time>
      </trkpt>
      <trkpt lat="59.177539" lon="18.141651">
        <ele>41</ele>
        <time>2019-11-26T15:57:41Z</time>
      </trkpt>
      <trkpt lat="59.177602" lon="18.141664">
        <ele>41</ele>
        <time>2019-11-26T15:57:43Z</time>
      </trkpt>
      <trkpt lat="59.177665" lon="18.141682">
        <ele>41</ele>
        <time>2019-11-26T15:57:43Z</time>
      </trkpt>
      <trkpt lat="59.177737" lon="18.141711">
        <ele>40</ele>
        <time>2019-11-26T15:57:44Z</time>
      </trkpt>
      <trkpt lat="59.177815" lon="18.141759">
        <ele>40</ele>
        <time>2019-11-26T15:57:45Z</time>
      </trkpt>
      <trkpt lat="59.177893" lon="18.141812">
        <ele>40</ele>
        <time>2019-11-26T15:57:46Z</time>
      </trkpt>
      <trkpt lat="59.177967" lon="18.141862">
        <ele>41</ele>
        <time>2019-11-26T15:57:47Z</time>
      </trkpt>
      <trkpt lat="59.178033" lon="18.141909">
        <ele>41</ele>
        <time>2019-11-26T15:57:48Z</time>
      </trkpt>
      <trkpt lat="59.178092" lon="18.141953">
        <ele>41</ele>
        <time>2019-11-26T15:57:50Z</time>
      </trkpt>
      <trkpt lat="59.178146" lon="18.141997">
        <ele>41</ele>
        <time>2019-11-26T15:57:50Z</time>
      </trkpt>
      <trkpt lat="59.178197" lon="18.142042">
        <ele>40</ele>
        <time>2019-11-26T15:57:51Z</time>
      </trkpt>
      <trkpt lat="59.178248" lon="18.142086">
        <ele>40</ele>
        <time>2019-11-26T15:57:52Z</time>
      </trkpt>
      <trkpt lat="59.178299" lon="18.142139">
        <ele>40</ele>
        <time>2019-11-26T15:57:54Z</time>
      </trkpt>
      <trkpt lat="59.178348" lon="18.142198">
        <ele>39</ele>
        <time>2019-11-26T15:57:54Z</time>
      </trkpt>
      <trkpt lat="59.178396" lon="18.142259">
        <ele>39</ele>
        <time>2019-11-26T15:57:55Z</time>
      </trkpt>
      <trkpt lat="59.178446" lon="18.142309">
        <ele>39</ele>
        <time>2019-11-26T15:57:56Z</time>
      </trkpt>
      <trkpt lat="59.178499" lon="18.14235">
        <ele>39</ele>
        <time>2019-11-26T15:57:57Z</time>
      </trkpt>
      <trkpt lat="59.178554" lon="18.142387">
        <ele>38</ele>
        <time>2019-11-26T15:57:59Z</time>
      </trkpt>
      <trkpt lat="59.178608" lon="18.142423">
        <ele>38</ele>
        <time>2019-11-26T15:57:59Z</time>
      </trkpt>
      <trkpt lat="59.178664" lon="18.142462">
        <ele>38</ele>
        <time>2019-11-26T15:58:00Z</time>
      </trkpt>
      <trkpt lat="59.178719" lon="18.1425">
        <ele>38</ele>
        <time>2019-11-26T15:58:01Z</time>
      </trkpt>
      <trkpt lat="59.178774" lon="18.142538">
        <ele>37</ele>
        <time>2019-11-26T15:58:02Z</time>
      </trkpt>
      <trkpt lat="59.178829" lon="18.142574">
        <ele>37</ele>
        <time>2019-11-26T15:58:03Z</time>
      </trkpt>
      <trkpt lat="59.178882" lon="18.142611">
        <ele>37</ele>
        <time>2019-11-26T15:58:04Z</time>
      </trkpt>
      <trkpt lat="59.178934" lon="18.142649">
        <ele>37</ele>
        <time>2019-11-26T15:58:05Z</time>
      </trkpt>
      <trkpt lat="59.178985" lon="18.142687">
        <ele>37</ele>
        <time>2019-11-26T15:58:06Z</time>
      </trkpt>
      <trkpt lat="59.179036" lon="18.142726">
        <ele>37</ele>
        <time>2019-11-26T15:58:08Z</time>
      </trkpt>
      <trkpt lat="59.17909" lon="18.142766">
        <ele>37</ele>
        <time>2019-11-26T15:58:08Z</time>
      </trkpt>
      <trkpt lat="59.179146" lon="18.142805">
        <ele>36</ele>
        <time>2019-11-26T15:58:09Z</time>
      </trkpt>
      <trkpt lat="59.179203" lon="18.142846">
        <ele>36</ele>
        <time>2019-11-26T15:58:10Z</time>
      </trkpt>
      <trkpt lat="59.17926" lon="18.14289">
        <ele>36</ele>
        <time>2019-11-26T15:58:12Z</time>
      </trkpt>
      <trkpt lat="59.179317" lon="18.142935">
        <ele>36</ele>
        <time>2019-11-26T15:58:13Z</time>
      </trkpt>
      <trkpt lat="59.179375" lon="18.142978">
        <ele>36</ele>
        <time>2019-11-26T15:58:13Z</time>
      </trkpt>
      <trkpt lat="59.179432" lon="18.143024">
        <ele>36</ele>
        <time>2019-11-26T15:58:14Z</time>
      </trkpt>
      <trkpt lat="59.179488" lon="18.143072">
        <ele>36</ele>
        <time>2019-11-26T15:58:16Z</time>
      </trkpt>
      <trkpt lat="59.179544" lon="18.143126">
        <ele>36</ele>
        <time>2019-11-26T15:58:16Z</time>
      </trkpt>
      <trkpt lat="59.1796" lon="18.143182">
        <ele>36</ele>
        <time>2019-11-26T15:58:17Z</time>
      </trkpt>
      <trkpt lat="59.179655" lon="18.143242">
        <ele>36</ele>
        <time>2019-11-26T15:58:18Z</time>
      </trkpt>
      <trkpt lat="59.179709" lon="18.143299">
        <ele>36</ele>
        <time>2019-11-26T15:58:19Z</time>
      </trkpt>
      <trkpt lat="59.179761" lon="18.143356">
        <ele>36</ele>
        <time>2019-11-26T15:58:20Z</time>
      </trkpt>
      <trkpt lat="59.17981" lon="18.143416">
        <ele>36</ele>
        <time>2019-11-26T15:58:21Z</time>
      </trkpt>
      <trkpt lat="59.179856" lon="18.143474">
        <ele>36</ele>
        <time>2019-11-26T15:58:22Z</time>
      </trkpt>
      <trkpt lat="59.179897" lon="18.143548">
        <ele>36</ele>
        <time>2019-11-26T15:58:23Z</time>
      </trkpt>
      <trkpt lat="59.17993" lon="18.143638">
        <ele>36</ele>
        <time>2019-11-26T15:58:25Z</time>
      </trkpt>
      <trkpt lat="59.179957" lon="18.143731">
        <ele>36</ele>
        <time>2019-11-26T15:58:25Z</time>
      </trkpt>
      <trkpt lat="59.179984" lon="18.14381">
        <ele>36</ele>
        <time>2019-11-26T15:58:26Z</time>
      </trkpt>
      <trkpt lat="59.180013" lon="18.143878">
        <ele>36</ele>
        <time>2019-11-26T15:58:27Z</time>
      </trkpt>
      <trkpt lat="59.180047" lon="18.143935">
        <ele>36</ele>
        <time>2019-11-26T15:58:28Z</time>
      </trkpt>
      <trkpt lat="59.180089" lon="18.143984">
        <ele>36</ele>
        <time>2019-11-26T15:58:29Z</time>
      </trkpt>
      <trkpt lat="59.180132" lon="18.144032">
        <ele>36</ele>
        <time>2019-11-26T15:58:30Z</time>
      </trkpt>
      <trkpt lat="59.180176" lon="18.14408">
        <ele>36</ele>
        <time>2019-11-26T15:58:32Z</time>
      </trkpt>
      <trkpt lat="59.18022" lon="18.144132">
        <ele>36</ele>
        <time>2019-11-26T15:58:32Z</time>
      </trkpt>
      <trkpt lat="59.180265" lon="18.14419">
        <ele>36</ele>
        <time>2019-11-26T15:58:33Z</time>
      </trkpt>
      <trkpt lat="59.18031" lon="18.144246">
        <ele>36</ele>
        <time>2019-11-26T15:58:35Z</time>
      </trkpt>
      <trkpt lat="59.180358" lon="18.144301">
        <ele>36</ele>
        <time>2019-11-26T15:58:35Z</time>
      </trkpt>
      <trkpt lat="59.180405" lon="18.144356">
        <ele>36</ele>
        <time>2019-11-26T15:58:36Z</time>
      </trkpt>
      <trkpt lat="59.180451" lon="18.144414">
        <ele>36</ele>
        <time>2019-11-26T15:58:37Z</time>
      </trkpt>
      <trkpt lat="59.180497" lon="18.144472">
        <ele>37</ele>
        <time>2019-11-26T15:58:38Z</time>
      </trkpt>
      <trkpt lat="59.180543" lon="18.144532">
        <ele>37</ele>
        <time>2019-11-26T15:58:39Z</time>
      </trkpt>
      <trkpt lat="59.180587" lon="18.144594">
        <ele>37</ele>
        <time>2019-11-26T15:58:40Z</time>
      </trkpt>
      <trkpt lat="59.180629" lon="18.144661">
        <ele>37</ele>
        <time>2019-11-26T15:58:41Z</time>
      </trkpt>
      <trkpt lat="59.180671" lon="18.144728">
        <ele>37</ele>
        <time>2019-11-26T15:58:42Z</time>
      </trkpt>
      <trkpt lat="59.180716" lon="18.144792">
        <ele>37</ele>
        <time>2019-11-26T15:58:44Z</time>
      </trkpt>
      <trkpt lat="59.180764" lon="18.144848">
        <ele>37</ele>
        <time>2019-11-26T15:58:45Z</time>
      </trkpt>
      <trkpt lat="59.180814" lon="18.144896">
        <ele>37</ele>
        <time>2019-11-26T15:58:45Z</time>
      </trkpt>
      <trkpt lat="59.180863" lon="18.144944">
        <ele>37</ele>
        <time>2019-11-26T15:58:46Z</time>
      </trkpt>
      <trkpt lat="59.180912" lon="18.144993">
        <ele>37</ele>
        <time>2019-11-26T15:58:47Z</time>
      </trkpt>
      <trkpt lat="59.18096" lon="18.145046">
        <ele>37</ele>
        <time>2019-11-26T15:58:48Z</time>
      </trkpt>
      <trkpt lat="59.181006" lon="18.1451">
        <ele>37</ele>
        <time>2019-11-26T15:58:49Z</time>
      </trkpt>
      <trkpt lat="59.181053" lon="18.145154">
        <ele>37</ele>
        <time>2019-11-26T15:58:51Z</time>
      </trkpt>
      <trkpt lat="59.1811" lon="18.145206">
        <ele>38</ele>
        <time>2019-11-26T15:58:51Z</time>
      </trkpt>
      <trkpt lat="59.18115" lon="18.145254">
        <ele>38</ele>
        <time>2019-11-26T15:58:53Z</time>
      </trkpt>
      <trkpt lat="59.1812" lon="18.145304">
        <ele>38</ele>
        <time>2019-11-26T15:58:53Z</time>
      </trkpt>
      <trkpt lat="59.18125" lon="18.145354">
        <ele>38</ele>
        <time>2019-11-26T15:58:54Z</time>
      </trkpt>
      <trkpt lat="59.181301" lon="18.145404">
        <ele>38</ele>
        <time>2019-11-26T15:58:55Z</time>
      </trkpt>
      <trkpt lat="59.181352" lon="18.145456">
        <ele>38</ele>
        <time>2019-11-26T15:58:56Z</time>
      </trkpt>
      <trkpt lat="59.181403" lon="18.14551">
        <ele>38</ele>
        <time>2019-11-26T15:58:57Z</time>
      </trkpt>
      <trkpt lat="59.181453" lon="18.14557">
        <ele>38</ele>
        <time>2019-11-26T15:58:58Z</time>
      </trkpt>
      <trkpt lat="59.181503" lon="18.14563">
        <ele>38</ele>
        <time>2019-11-26T15:58:59Z</time>
      </trkpt>
      <trkpt lat="59.181555" lon="18.145694">
        <ele>38</ele>
        <time>2019-11-26T15:59:01Z</time>
      </trkpt>
      <trkpt lat="59.18161" lon="18.145757">
        <ele>38</ele>
        <time>2019-11-26T15:59:01Z</time>
      </trkpt>
      <trkpt lat="59.181666" lon="18.145821">
        <ele>38</ele>
        <time>2019-11-26T15:59:02Z</time>
      </trkpt>
      <trkpt lat="59.181725" lon="18.145888">
        <ele>38</ele>
        <time>2019-11-26T15:59:03Z</time>
      </trkpt>
      <trkpt lat="59.181784" lon="18.145958">
        <ele>38</ele>
        <time>2019-11-26T15:59:04Z</time>
      </trkpt>
      <trkpt lat="59.181846" lon="18.14603">
        <ele>38</ele>
        <time>2019-11-26T15:59:05Z</time>
      </trkpt>
      <trkpt lat="59.181909" lon="18.146101">
        <ele>38</ele>
        <time>2019-11-26T15:59:06Z</time>
      </trkpt>
      <trkpt lat="59.181971" lon="18.146172">
        <ele>38</ele>
        <time>2019-11-26T15:59:08Z</time>
      </trkpt>
      <trkpt lat="59.182034" lon="18.146246">
        <ele>38</ele>
        <time>2019-11-26T15:59:08Z</time>
      </trkpt>
      <trkpt lat="59.182098" lon="18.14632">
        <ele>38</ele>
        <time>2019-11-26T15:59:10Z</time>
      </trkpt>
      <trkpt lat="59.182161" lon="18.146395">
        <ele>38</ele>
        <time>2019-11-26T15:59:10Z</time>
      </trkpt>
      <trkpt lat="59.182223" lon="18.146465">
        <ele>38</ele>
        <time>2019-11-26T15:59:11Z</time>
      </trkpt>
      <trkpt lat="59.182283" lon="18.146532">
        <ele>38</ele>
        <time>2019-11-26T15:59:12Z</time>
      </trkpt>
      <trkpt lat="59.182344" lon="18.146602">
        <ele>38</ele>
        <time>2019-11-26T15:59:13Z</time>
      </trkpt>
      <trkpt lat="59.182405" lon="18.146669">
        <ele>38</ele>
        <time>2019-11-26T15:59:15Z</time>
      </trkpt>
      <trkpt lat="59.182467" lon="18.14673">
        <ele>38</ele>
        <time>2019-11-26T15:59:15Z</time>
      </trkpt>
      <trkpt lat="59.182529" lon="18.146786">
        <ele>38</ele>
        <time>2019-11-26T15:59:16Z</time>
      </trkpt>
      <trkpt lat="59.182592" lon="18.146841">
        <ele>38</ele>
        <time>2019-11-26T15:59:17Z</time>
      </trkpt>
      <trkpt lat="59.182657" lon="18.146895">
        <ele>38</ele>
        <time>2019-11-26T15:59:18Z</time>
      </trkpt>
      <trkpt lat="59.182721" lon="18.146945">
        <ele>38</ele>
        <time>2019-11-26T15:59:19Z</time>
      </trkpt>
      <trkpt lat="59.182788" lon="18.14699">
        <ele>38</ele>
        <time>2019-11-26T15:59:20Z</time>
      </trkpt>
      <trkpt lat="59.182856" lon="18.147033">
        <ele>39</ele>
        <time>2019-11-26T15:59:22Z</time>
      </trkpt>
      <trkpt lat="59.182925" lon="18.147072">
        <ele>38</ele>
        <time>2019-11-26T15:59:22Z</time>
      </trkpt>
      <trkpt lat="59.182996" lon="18.147106">
        <ele>38</ele>
        <time>2019-11-26T15:59:23Z</time>
      </trkpt>
      <trkpt lat="59.183066" lon="18.147135">
        <ele>38</ele>
        <time>2019-11-26T15:59:24Z</time>
      </trkpt>
      <trkpt lat="59.183132" lon="18.14716">
        <ele>38</ele>
        <time>2019-11-26T15:59:25Z</time>
      </trkpt>
      <trkpt lat="59.183194" lon="18.147181">
        <ele>38</ele>
        <time>2019-11-26T15:59:26Z</time>
      </trkpt>
      <trkpt lat="59.183251" lon="18.147203">
        <ele>38</ele>
        <time>2019-11-26T15:59:27Z</time>
      </trkpt>
      <trkpt lat="59.183305" lon="18.147234">
        <ele>38</ele>
        <time>2019-11-26T15:59:29Z</time>
      </trkpt>
      <trkpt lat="59.183355" lon="18.147277">
        <ele>37</ele>
        <time>2019-11-26T15:59:29Z</time>
      </trkpt>
      <trkpt lat="59.183402" lon="18.147319">
        <ele>37</ele>
        <time>2019-11-26T15:59:31Z</time>
      </trkpt>
      <trkpt lat="59.183453" lon="18.147347">
        <ele>37</ele>
        <time>2019-11-26T15:59:31Z</time>
      </trkpt>
      <trkpt lat="59.183507" lon="18.147352">
        <ele>37</ele>
        <time>2019-11-26T15:59:32Z</time>
      </trkpt>
      <trkpt lat="59.183562" lon="18.147336">
        <ele>37</ele>
        <time>2019-11-26T15:59:33Z</time>
      </trkpt>
      <trkpt lat="59.183619" lon="18.147311">
        <ele>37</ele>
        <time>2019-11-26T15:59:34Z</time>
      </trkpt>
      <trkpt lat="59.183678" lon="18.147291">
        <ele>36</ele>
        <time>2019-11-26T15:59:35Z</time>
      </trkpt>
      <trkpt lat="59.183738" lon="18.14728">
        <ele>36</ele>
        <time>2019-11-26T15:59:36Z</time>
      </trkpt>
      <trkpt lat="59.1838" lon="18.147273">
        <ele>36</ele>
        <time>2019-11-26T15:59:37Z</time>
      </trkpt>
      <trkpt lat="59.183864" lon="18.147264">
        <ele>36</ele>
        <time>2019-11-26T15:59:39Z</time>
      </trkpt>
      <trkpt lat="59.18393" lon="18.147254">
        <ele>36</ele>
        <time>2019-11-26T15:59:39Z</time>
      </trkpt>
      <trkpt lat="59.183998" lon="18.147241">
        <ele>35</ele>
        <time>2019-11-26T15:59:40Z</time>
      </trkpt>
      <trkpt lat="59.184068" lon="18.147225">
        <ele>35</ele>
        <time>2019-11-26T15:59:41Z</time>
      </trkpt>
      <trkpt lat="59.18414" lon="18.147206">
        <ele>35</ele>
        <time>2019-11-26T15:59:42Z</time>
      </trkpt>
      <trkpt lat="59.184214" lon="18.147187">
        <ele>35</ele>
        <time>2019-11-26T15:59:43Z</time>
      </trkpt>
      <trkpt lat="59.184291" lon="18.14717">
        <ele>34</ele>
        <time>2019-11-26T15:59:44Z</time>
      </trkpt>
      <trkpt lat="59.184368" lon="18.147153">
        <ele>34</ele>
        <time>2019-11-26T15:59:46Z</time>
      </trkpt>
      <trkpt lat="59.184447" lon="18.147135">
        <ele>34</ele>
        <time>2019-11-26T15:59:46Z</time>
      </trkpt>
      <trkpt lat="59.184528" lon="18.147116">
        <ele>34</ele>
        <time>2019-11-26T15:59:48Z</time>
      </trkpt>
      <trkpt lat="59.18461" lon="18.147094">
        <ele>33</ele>
        <time>2019-11-26T15:59:48Z</time>
      </trkpt>
      <trkpt lat="59.184693" lon="18.147073">
        <ele>33</ele>
        <time>2019-11-26T15:59:49Z</time>
      </trkpt>
      <trkpt lat="59.184774" lon="18.147052">
        <ele>33</ele>
        <time>2019-11-26T15:59:50Z</time>
      </trkpt>
      <trkpt lat="59.184851" lon="18.147023">
        <ele>33</ele>
        <time>2019-11-26T15:59:52Z</time>
      </trkpt>
      <trkpt lat="59.184923" lon="18.146985">
        <ele>33</ele>
        <time>2019-11-26T15:59:52Z</time>
      </trkpt>
      <trkpt lat="59.18499" lon="18.146939">
        <ele>32</ele>
        <time>2019-11-26T15:59:53Z</time>
      </trkpt>
      <trkpt lat="59.185052" lon="18.146885">
        <ele>32</ele>
        <time>2019-11-26T15:59:54Z</time>
      </trkpt>
      <trkpt lat="59.185111" lon="18.146829">
        <ele>32</ele>
        <time>2019-11-26T15:59:55Z</time>
      </trkpt>
      <trkpt lat="59.185165" lon="18.146778">
        <ele>32</ele>
        <time>2019-11-26T15:59:56Z</time>
      </trkpt>
      <trkpt lat="59.185216" lon="18.146744">
        <ele>31</ele>
        <time>2019-11-26T15:59:57Z</time>
      </trkpt>
      <trkpt lat="59.185264" lon="18.146725">
        <ele>31</ele>
        <time>2019-11-26T15:59:58Z</time>
      </trkpt>
      <trkpt lat="59.185309" lon="18.146726">
        <ele>31</ele>
        <time>2019-11-26T15:59:59Z</time>
      </trkpt>
      <trkpt lat="59.185349" lon="18.146756">
        <ele>0</ele>
        <time>2019-11-26T16:00:00Z</time>
      </trkpt>
      <trkpt lat="59.18538" lon="18.146814">
        <ele>30</ele>
        <time>2019-11-26T16:00:01Z</time>
      </trkpt>
      <trkpt lat="59.185408" lon="18.146879">
        <ele>30</ele>
        <time>2019-11-26T16:00:02Z</time>
      </trkpt>
      <trkpt lat="59.18544" lon="18.146923">
        <ele>29</ele>
        <time>2019-11-26T16:00:03Z</time>
      </trkpt>
      <trkpt lat="59.185479" lon="18.146933">
        <ele>29</ele>
        <time>2019-11-26T16:00:04Z</time>
      </trkpt>
      <trkpt lat="59.185524" lon="18.146924">
        <ele>29</ele>
        <time>2019-11-26T16:00:05Z</time>
      </trkpt>
      <trkpt lat="59.185574" lon="18.146918">
        <ele>29</ele>
        <time>2019-11-26T16:00:07Z</time>
      </trkpt>
      <trkpt lat="59.185632" lon="18.146918">
        <ele>29</ele>
        <time>2019-11-26T16:00:07Z</time>
      </trkpt>
      <trkpt lat="59.185696" lon="18.146911">
        <ele>29</ele>
        <time>2019-11-26T16:00:08Z</time>
      </trkpt>
      <trkpt lat="59.185762" lon="18.146901">
        <ele>28</ele>
        <time>2019-11-26T16:00:10Z</time>
      </trkpt>
      <trkpt lat="59.185827" lon="18.146891">
        <ele>28</ele>
        <time>2019-11-26T16:00:10Z</time>
      </trkpt>
      <trkpt lat="59.185891" lon="18.146874">
        <ele>28</ele>
        <time>2019-11-26T16:00:11Z</time>
      </trkpt>
      <trkpt lat="59.185957" lon="18.146855">
        <ele>28</ele>
        <time>2019-11-26T16:00:12Z</time>
      </trkpt>
      <trkpt lat="59.186023" lon="18.146844">
        <ele>28</ele>
        <time>2019-11-26T16:00:13Z</time>
      </trkpt>
      <trkpt lat="59.186091" lon="18.14684">
        <ele>28</ele>
        <time>2019-11-26T16:00:14Z</time>
      </trkpt>
      <trkpt lat="59.18616" lon="18.146838">
        <ele>28</ele>
        <time>2019-11-26T16:00:15Z</time>
      </trkpt>
      <trkpt lat="59.186228" lon="18.146831">
        <ele>27</ele>
        <time>2019-11-26T16:00:16Z</time>
      </trkpt>
      <trkpt lat="59.18629" lon="18.146818">
        <ele>27</ele>
        <time>2019-11-26T16:00:18Z</time>
      </trkpt>
      <trkpt lat="59.186341" lon="18.146805">
        <ele>27</ele>
        <time>2019-11-26T16:00:18Z</time>
      </trkpt>
      <trkpt lat="59.186387" lon="18.146793">
        <ele>27</ele>
        <time>2019-11-26T16:00:19Z</time>
      </trkpt>
      <trkpt lat="59.186437" lon="18.146779">
        <ele>27</ele>
        <time>2019-11-26T16:00:20Z</time>
      </trkpt>
      <trkpt lat="59.186492" lon="18.146763">
        <ele>27</ele>
        <time>2019-11-26T16:00:21Z</time>
      </trkpt>
      <trkpt lat="59.186552" lon="18.146747">
        <ele>27</ele>
        <time>2019-11-26T16:00:22Z</time>
      </trkpt>
      <trkpt lat="59.186615" lon="18.14673">
        <ele>27</ele>
        <time>2019-11-26T16:00:23Z</time>
      </trkpt>
      <trkpt lat="59.18668" lon="18.146713">
        <ele>27</ele>
        <time>2019-11-26T16:00:24Z</time>
      </trkpt>
      <trkpt lat="59.186746" lon="18.1467">
        <ele>26</ele>
        <time>2019-11-26T16:00:26Z</time>
      </trkpt>
      <trkpt lat="59.186813" lon="18.146686">
        <ele>26</ele>
        <time>2019-11-26T16:00:27Z</time>
      </trkpt>
      <trkpt lat="59.186881" lon="18.146667">
        <ele>26</ele>
        <time>2019-11-26T16:00:27Z</time>
      </trkpt>
      <trkpt lat="59.186949" lon="18.146646">
        <ele>26</ele>
        <time>2019-11-26T16:00:28Z</time>
      </trkpt>
      <trkpt lat="59.187018" lon="18.146628">
        <ele>26</ele>
        <time>2019-11-26T16:00:29Z</time>
      </trkpt>
      <trkpt lat="59.187087" lon="18.14661">
        <ele>26</ele>
        <time>2019-11-26T16:00:30Z</time>
      </trkpt>
      <trkpt lat="59.187156" lon="18.146592">
        <ele>26</ele>
        <time>2019-11-26T16:00:31Z</time>
      </trkpt>
      <trkpt lat="59.187227" lon="18.146574">
        <ele>26</ele>
        <time>2019-11-26T16:00:32Z</time>
      </trkpt>
      <trkpt lat="59.187297" lon="18.146557">
        <ele>26</ele>
        <time>2019-11-26T16:00:34Z</time>
      </trkpt>
      <trkpt lat="59.187369" lon="18.146539">
        <ele>26</ele>
        <time>2019-11-26T16:00:34Z</time>
      </trkpt>
      <trkpt lat="59.18744" lon="18.146519">
        <ele>25</ele>
        <time>2019-11-26T16:00:35Z</time>
      </trkpt>
      <trkpt lat="59.18751" lon="18.146494">
        <ele>25</ele>
        <time>2019-11-26T16:00:36Z</time>
      </trkpt>
      <trkpt lat="59.187579" lon="18.146462">
        <ele>25</ele>
        <time>2019-11-26T16:00:37Z</time>
      </trkpt>
      <trkpt lat="59.187646" lon="18.146426">
        <ele>25</ele>
        <time>2019-11-26T16:00:38Z</time>
      </trkpt>
      <trkpt lat="59.187712" lon="18.146388">
        <ele>25</ele>
        <time>2019-11-26T16:00:39Z</time>
      </trkpt>
      <trkpt lat="59.187775" lon="18.146346">
        <ele>25</ele>
        <time>2019-11-26T16:00:41Z</time>
      </trkpt>
      <trkpt lat="59.187837" lon="18.146301">
        <ele>25</ele>
        <time>2019-11-26T16:00:41Z</time>
      </trkpt>
      <trkpt lat="59.187899" lon="18.146253">
        <ele>25</ele>
        <time>2019-11-26T16:00:42Z</time>
      </trkpt>
      <trkpt lat="59.187958" lon="18.146202">
        <ele>25</ele>
        <time>2019-11-26T16:00:43Z</time>
      </trkpt>
      <trkpt lat="59.188018" lon="18.14615">
        <ele>25</ele>
        <time>2019-11-26T16:00:45Z</time>
      </trkpt>
      <trkpt lat="59.188079" lon="18.146105">
        <ele>25</ele>
        <time>2019-11-26T16:00:45Z</time>
      </trkpt>
      <trkpt lat="59.188141" lon="18.146067">
        <ele>25</ele>
        <time>2019-11-26T16:00:46Z</time>
      </trkpt>
      <trkpt lat="59.188202" lon="18.146029">
        <ele>25</ele>
        <time>2019-11-26T16:00:48Z</time>
      </trkpt>
      <trkpt lat="59.188262" lon="18.145994">
        <ele>25</ele>
        <time>2019-11-26T16:00:48Z</time>
      </trkpt>
      <trkpt lat="59.18832" lon="18.145949">
        <ele>25</ele>
        <time>2019-11-26T16:00:49Z</time>
      </trkpt>
      <trkpt lat="59.188378" lon="18.145905">
        <ele>25</ele>
        <time>2019-11-26T16:00:50Z</time>
      </trkpt>
      <trkpt lat="59.188434" lon="18.145861">
        <ele>25</ele>
        <time>2019-11-26T16:00:51Z</time>
      </trkpt>
      <trkpt lat="59.18849" lon="18.145816">
        <ele>25</ele>
        <time>2019-11-26T16:00:52Z</time>
      </trkpt>
      <trkpt lat="59.188546" lon="18.145771">
        <ele>26</ele>
        <time>2019-11-26T16:00:53Z</time>
      </trkpt>
      <trkpt lat="59.1886" lon="18.145724">
        <ele>26</ele>
        <time>2019-11-26T16:00:54Z</time>
      </trkpt>
      <trkpt lat="59.188654" lon="18.145672">
        <ele>26</ele>
        <time>2019-11-26T16:00:55Z</time>
      </trkpt>
      <trkpt lat="59.188706" lon="18.145617">
        <ele>26</ele>
        <time>2019-11-26T16:00:57Z</time>
      </trkpt>
      <trkpt lat="59.188758" lon="18.145556">
        <ele>27</ele>
        <time>2019-11-26T16:00:57Z</time>
      </trkpt>
      <trkpt lat="59.188808" lon="18.145495">
        <ele>27</ele>
        <time>2019-11-26T16:00:58Z</time>
      </trkpt>
      <trkpt lat="59.188858" lon="18.145433">
        <ele>27</ele>
        <time>2019-11-26T16:00:59Z</time>
      </trkpt>
      <trkpt lat="59.188906" lon="18.145369">
        <ele>27</ele>
        <time>2019-11-26T16:01:00Z</time>
      </trkpt>
      <trkpt lat="59.188955" lon="18.145303">
        <ele>28</ele>
        <time>2019-11-26T16:01:01Z</time>
      </trkpt>
      <trkpt lat="59.189003" lon="18.145234">
        <ele>28</ele>
        <time>2019-11-26T16:01:02Z</time>
      </trkpt>
      <trkpt lat="59.189052" lon="18.145163">
        <ele>28</ele>
        <time>2019-11-26T16:01:04Z</time>
      </trkpt>
      <trkpt lat="59.1891" lon="18.145091">
        <ele>28</ele>
        <time>2019-11-26T16:01:05Z</time>
      </trkpt>
      <trkpt lat="59.189148" lon="18.145018">
        <ele>28</ele>
        <time>2019-11-26T16:01:05Z</time>
      </trkpt>
      <trkpt lat="59.189197" lon="18.144947">
        <ele>28</ele>
        <time>2019-11-26T16:01:06Z</time>
      </trkpt>
      <trkpt lat="59.189247" lon="18.144881">
        <ele>28</ele>
        <time>2019-11-26T16:01:07Z</time>
      </trkpt>
      <trkpt lat="59.1893" lon="18.144821">
        <ele>28</ele>
        <time>2019-11-26T16:01:08Z</time>
      </trkpt>
      <trkpt lat="59.189356" lon="18.144764">
        <ele>28</ele>
        <time>2019-11-26T16:01:09Z</time>
      </trkpt>
      <trkpt lat="59.189414" lon="18.14471">
        <ele>28</ele>
        <time>2019-11-26T16:01:10Z</time>
      </trkpt>
      <trkpt lat="59.189473" lon="18.14466">
        <ele>28</ele>
        <time>2019-11-26T16:01:11Z</time>
      </trkpt>
      <trkpt lat="59.189536" lon="18.144611">
        <ele>28</ele>
        <time>2019-11-26T16:01:13Z</time>
      </trkpt>
      <trkpt lat="59.189601" lon="18.144565">
        <ele>28</ele>
        <time>2019-11-26T16:01:13Z</time>
      </trkpt>
      <trkpt lat="59.189669" lon="18.144518">
        <ele>27</ele>
        <time>2019-11-26T16:01:14Z</time>
      </trkpt>
      <trkpt lat="59.189739" lon="18.144471">
        <ele>27</ele>
        <time>2019-11-26T16:01:15Z</time>
      </trkpt>
      <trkpt lat="59.189811" lon="18.144426">
        <ele>27</ele>
        <time>2019-11-26T16:01:16Z</time>
      </trkpt>
      <trkpt lat="59.189884" lon="18.144385">
        <ele>27</ele>
        <time>2019-11-26T16:01:17Z</time>
      </trkpt>
      <trkpt lat="59.189955" lon="18.14434">
        <ele>27</ele>
        <time>2019-11-26T16:01:18Z</time>
      </trkpt>
      <trkpt lat="59.190021" lon="18.144286">
        <ele>27</ele>
        <time>2019-11-26T16:01:20Z</time>
      </trkpt>
      <trkpt lat="59.190089" lon="18.144239">
        <ele>27</ele>
        <time>2019-11-26T16:01:20Z</time>
      </trkpt>
      <trkpt lat="59.190157" lon="18.144196">
        <ele>27</ele>
        <time>2019-11-26T16:01:21Z</time>
      </trkpt>
      <trkpt lat="59.190231" lon="18.144179">
        <ele>27</ele>
        <time>2019-11-26T16:01:23Z</time>
      </trkpt>
      <trkpt lat="59.190349" lon="18.14423">
        <ele>27</ele>
        <time>2019-11-26T16:01:24Z</time>
      </trkpt>
      <trkpt lat="59.190467" lon="18.144244">
        <ele>28</ele>
        <time>2019-11-26T16:01:27Z</time>
      </trkpt>
      <trkpt lat="59.190536" lon="18.144228">
        <ele>28</ele>
        <time>2019-11-26T16:01:27Z</time>
      </trkpt>
      <trkpt lat="59.190605" lon="18.144215">
        <ele>28</ele>
        <time>2019-11-26T16:01:28Z</time>
      </trkpt>
      <trkpt lat="59.190683" lon="18.144204">
        <ele>29</ele>
        <time>2019-11-26T16:01:29Z</time>
      </trkpt>
      <trkpt lat="59.190749" lon="18.144196">
        <ele>29</ele>
        <time>2019-11-26T16:01:30Z</time>
      </trkpt>
      <trkpt lat="59.190805" lon="18.144189">
        <ele>29</ele>
        <time>2019-11-26T16:01:31Z</time>
      </trkpt>
      <trkpt lat="59.190857" lon="18.144183">
        <ele>29</ele>
        <time>2019-11-26T16:01:32Z</time>
      </trkpt>
      <trkpt lat="59.190905" lon="18.144177">
        <ele>30</ele>
        <time>2019-11-26T16:01:33Z</time>
      </trkpt>
      <trkpt lat="59.19095" lon="18.144172">
        <ele>30</ele>
        <time>2019-11-26T16:01:34Z</time>
      </trkpt>
      <trkpt lat="59.19099" lon="18.144167">
        <ele>30</ele>
        <time>2019-11-26T16:01:35Z</time>
      </trkpt>
      <trkpt lat="59.191027" lon="18.144163">
        <ele>31</ele>
        <time>2019-11-26T16:01:37Z</time>
      </trkpt>
      <trkpt lat="59.191062" lon="18.144155">
        <ele>31</ele>
        <time>2019-11-26T16:01:37Z</time>
      </trkpt>
      <trkpt lat="59.191092" lon="18.144143">
        <ele>31</ele>
        <time>2019-11-26T16:01:38Z</time>
      </trkpt>
      <trkpt lat="59.191123" lon="18.144132">
        <ele>31</ele>
        <time>2019-11-26T16:01:39Z</time>
      </trkpt>
      <trkpt lat="59.191157" lon="18.144124">
        <ele>32</ele>
        <time>2019-11-26T16:01:40Z</time>
      </trkpt>
      <trkpt lat="59.19119" lon="18.144116">
        <ele>32</ele>
        <time>2019-11-26T16:01:42Z</time>
      </trkpt>
      <trkpt lat="59.191223" lon="18.144111">
        <ele>32</ele>
        <time>2019-11-26T16:01:42Z</time>
      </trkpt>
      <trkpt lat="59.191255" lon="18.144101">
        <ele>32</ele>
        <time>2019-11-26T16:01:43Z</time>
      </trkpt>
      <trkpt lat="59.191288" lon="18.144088">
        <ele>32</ele>
        <time>2019-11-26T16:01:44Z</time>
      </trkpt>
      <trkpt lat="59.191325" lon="18.144075">
        <ele>32</ele>
        <time>2019-11-26T16:01:45Z</time>
      </trkpt>
      <trkpt lat="59.191359" lon="18.144065">
        <ele>32</ele>
        <time>2019-11-26T16:01:46Z</time>
      </trkpt>
      <trkpt lat="59.19139" lon="18.144052">
        <ele>32</ele>
        <time>2019-11-26T16:01:47Z</time>
      </trkpt>
      <trkpt lat="59.191419" lon="18.144041">
        <ele>33</ele>
        <time>2019-11-26T16:01:48Z</time>
      </trkpt>
      <trkpt lat="59.19145" lon="18.144029">
        <ele>33</ele>
        <time>2019-11-26T16:01:49Z</time>
      </trkpt>
      <trkpt lat="59.191479" lon="18.144018">
        <ele>33</ele>
        <time>2019-11-26T16:01:50Z</time>
      </trkpt>
      <trkpt lat="59.191506" lon="18.144008">
        <ele>33</ele>
        <time>2019-11-26T16:01:52Z</time>
      </trkpt>
      <trkpt lat="59.19153" lon="18.143997">
        <ele>33</ele>
        <time>2019-11-26T16:01:52Z</time>
      </trkpt>
      <trkpt lat="59.191553" lon="18.143982">
        <ele>33</ele>
        <time>2019-11-26T16:01:53Z</time>
      </trkpt>
      <trkpt lat="59.191574" lon="18.143967">
        <ele>33</ele>
        <time>2019-11-26T16:01:54Z</time>
      </trkpt>
      <trkpt lat="59.191595" lon="18.143954">
        <ele>34</ele>
        <time>2019-11-26T16:01:55Z</time>
      </trkpt>
      <trkpt lat="59.191618" lon="18.143936">
        <ele>34</ele>
        <time>2019-11-26T16:01:56Z</time>
      </trkpt>
      <trkpt lat="59.191642" lon="18.143921">
        <ele>34</ele>
        <time>2019-11-26T16:01:57Z</time>
      </trkpt>
      <trkpt lat="59.191669" lon="18.143905">
        <ele>34</ele>
        <time>2019-11-26T16:01:58Z</time>
      </trkpt>
      <trkpt lat="59.191698" lon="18.143885">
        <ele>34</ele>
        <time>2019-11-26T16:01:59Z</time>
      </trkpt>
      <trkpt lat="59.191728" lon="18.143864">
        <ele>34</ele>
        <time>2019-11-26T16:02:01Z</time>
      </trkpt>
      <trkpt lat="59.191759" lon="18.143844">
        <ele>34</ele>
        <time>2019-11-26T16:02:01Z</time>
      </trkpt>
      <trkpt lat="59.19179" lon="18.143823">
        <ele>34</ele>
        <time>2019-11-26T16:02:02Z</time>
      </trkpt>
      <trkpt lat="59.19182" lon="18.143799">
        <ele>34</ele>
        <time>2019-11-26T16:02:03Z</time>
      </trkpt>
      <trkpt lat="59.191851" lon="18.143776">
        <ele>35</ele>
        <time>2019-11-26T16:02:04Z</time>
      </trkpt>
      <trkpt lat="59.191883" lon="18.14375">
        <ele>35</ele>
        <time>2019-11-26T16:02:05Z</time>
      </trkpt>
      <trkpt lat="59.191913" lon="18.143724">
        <ele>35</ele>
        <time>2019-11-26T16:02:06Z</time>
      </trkpt>
      <trkpt lat="59.191941" lon="18.143697">
        <ele>35</ele>
        <time>2019-11-26T16:02:07Z</time>
      </trkpt>
      <trkpt lat="59.191971" lon="18.143672">
        <ele>35</ele>
        <time>2019-11-26T16:02:09Z</time>
      </trkpt>
      <trkpt lat="59.192001" lon="18.143645">
        <ele>35</ele>
        <time>2019-11-26T16:02:09Z</time>
      </trkpt>
      <trkpt lat="59.192032" lon="18.143618">
        <ele>35</ele>
        <time>2019-11-26T16:02:10Z</time>
      </trkpt>
      <trkpt lat="59.192062" lon="18.143591">
        <ele>36</ele>
        <time>2019-11-26T16:02:11Z</time>
      </trkpt>
      <trkpt lat="59.192094" lon="18.143558">
        <ele>36</ele>
        <time>2019-11-26T16:02:12Z</time>
      </trkpt>
      <trkpt lat="59.192126" lon="18.143524">
        <ele>36</ele>
        <time>2019-11-26T16:02:13Z</time>
      </trkpt>
      <trkpt lat="59.192158" lon="18.143495">
        <ele>36</ele>
        <time>2019-11-26T16:02:14Z</time>
      </trkpt>
      <trkpt lat="59.19219" lon="18.143467">
        <ele>36</ele>
        <time>2019-11-26T16:02:15Z</time>
      </trkpt>
      <trkpt lat="59.192221" lon="18.143435">
        <ele>36</ele>
        <time>2019-11-26T16:02:16Z</time>
      </trkpt>
      <trkpt lat="59.192252" lon="18.143401">
        <ele>36</ele>
        <time>2019-11-26T16:02:17Z</time>
      </trkpt>
      <trkpt lat="59.192281" lon="18.143367">
        <ele>37</ele>
        <time>2019-11-26T16:02:18Z</time>
      </trkpt>
      <trkpt lat="59.192309" lon="18.143334">
        <ele>37</ele>
        <time>2019-11-26T16:02:20Z</time>
      </trkpt>
      <trkpt lat="59.192336" lon="18.143301">
        <ele>37</ele>
        <time>2019-11-26T16:02:20Z</time>
      </trkpt>
      <trkpt lat="59.192364" lon="18.143273">
        <ele>37</ele>
        <time>2019-11-26T16:02:21Z</time>
      </trkpt>
      <trkpt lat="59.192395" lon="18.143245">
        <ele>37</ele>
        <time>2019-11-26T16:02:22Z</time>
      </trkpt>
      <trkpt lat="59.192426" lon="18.143217">
        <ele>38</ele>
        <time>2019-11-26T16:02:24Z</time>
      </trkpt>
      <trkpt lat="59.192455" lon="18.143188">
        <ele>38</ele>
        <time>2019-11-26T16:02:24Z</time>
      </trkpt>
      <trkpt lat="59.192485" lon="18.143157">
        <ele>38</ele>
        <time>2019-11-26T16:02:25Z</time>
      </trkpt>
      <trkpt lat="59.192514" lon="18.143124">
        <ele>38</ele>
        <time>2019-11-26T16:02:26Z</time>
      </trkpt>
      <trkpt lat="59.192545" lon="18.143093">
        <ele>38</ele>
        <time>2019-11-26T16:02:27Z</time>
      </trkpt>
      <trkpt lat="59.192576" lon="18.143063">
        <ele>39</ele>
        <time>2019-11-26T16:02:28Z</time>
      </trkpt>
      <trkpt lat="59.192607" lon="18.143032">
        <ele>39</ele>
        <time>2019-11-26T16:02:29Z</time>
      </trkpt>
      <trkpt lat="59.192639" lon="18.142998">
        <ele>39</ele>
        <time>2019-11-26T16:02:30Z</time>
      </trkpt>
      <trkpt lat="59.19267" lon="18.142962">
        <ele>39</ele>
        <time>2019-11-26T16:02:31Z</time>
      </trkpt>
      <trkpt lat="59.192701" lon="18.142928">
        <ele>39</ele>
        <time>2019-11-26T16:02:32Z</time>
      </trkpt>
      <trkpt lat="59.192734" lon="18.142896">
        <ele>40</ele>
        <time>2019-11-26T16:02:33Z</time>
      </trkpt>
      <trkpt lat="59.192766" lon="18.142865">
        <ele>40</ele>
        <time>2019-11-26T16:02:34Z</time>
      </trkpt>
      <trkpt lat="59.192799" lon="18.142833">
        <ele>40</ele>
        <time>2019-11-26T16:02:35Z</time>
      </trkpt>
      <trkpt lat="59.192833" lon="18.142801">
        <ele>40</ele>
        <time>2019-11-26T16:02:36Z</time>
      </trkpt>
      <trkpt lat="59.192868" lon="18.142769">
        <ele>40</ele>
        <time>2019-11-26T16:02:38Z</time>
      </trkpt>
      <trkpt lat="59.192903" lon="18.142732">
        <ele>40</ele>
        <time>2019-11-26T16:02:39Z</time>
      </trkpt>
      <trkpt lat="59.192939" lon="18.142691">
        <ele>40</ele>
        <time>2019-11-26T16:02:39Z</time>
      </trkpt>
      <trkpt lat="59.192975" lon="18.142651">
        <ele>41</ele>
        <time>2019-11-26T16:02:40Z</time>
      </trkpt>
      <trkpt lat="59.19301" lon="18.142611">
        <ele>41</ele>
        <time>2019-11-26T16:02:41Z</time>
      </trkpt>
      <trkpt lat="59.193048" lon="18.142572">
        <ele>41</ele>
        <time>2019-11-26T16:02:42Z</time>
      </trkpt>
      <trkpt lat="59.193087" lon="18.142534">
        <ele>41</ele>
        <time>2019-11-26T16:02:43Z</time>
      </trkpt>
      <trkpt lat="59.193125" lon="18.142495">
        <ele>41</ele>
        <time>2019-11-26T16:02:44Z</time>
      </trkpt>
      <trkpt lat="59.193164" lon="18.142458">
        <ele>41</ele>
        <time>2019-11-26T16:02:45Z</time>
      </trkpt>
      <trkpt lat="59.193203" lon="18.142425">
        <ele>41</ele>
        <time>2019-11-26T16:02:46Z</time>
      </trkpt>
      <trkpt lat="59.193242" lon="18.142392">
        <ele>41</ele>
        <time>2019-11-26T16:02:47Z</time>
      </trkpt>
      <trkpt lat="59.193282" lon="18.142362">
        <ele>42</ele>
        <time>2019-11-26T16:02:49Z</time>
      </trkpt>
      <trkpt lat="59.193321" lon="18.142332">
        <ele>42</ele>
        <time>2019-11-26T16:02:49Z</time>
      </trkpt>
      <trkpt lat="59.193359" lon="18.142301">
        <ele>42</ele>
        <time>2019-11-26T16:02:50Z</time>
      </trkpt>
      <trkpt lat="59.193399" lon="18.142272">
        <ele>42</ele>
        <time>2019-11-26T16:02:51Z</time>
      </trkpt>
      <trkpt lat="59.19344" lon="18.142245">
        <ele>42</ele>
        <time>2019-11-26T16:02:52Z</time>
      </trkpt>
      <trkpt lat="59.19348" lon="18.142213">
        <ele>42</ele>
        <time>2019-11-26T16:02:53Z</time>
      </trkpt>
      <trkpt lat="59.193519" lon="18.142181">
        <ele>42</ele>
        <time>2019-11-26T16:02:54Z</time>
      </trkpt>
      <trkpt lat="59.193559" lon="18.14215">
        <ele>42</ele>
        <time>2019-11-26T16:02:55Z</time>
      </trkpt>
      <trkpt lat="59.193599" lon="18.142119">
        <ele>42</ele>
        <time>2019-11-26T16:02:56Z</time>
      </trkpt>
      <trkpt lat="59.19364" lon="18.142084">
        <ele>42</ele>
        <time>2019-11-26T16:02:58Z</time>
      </trkpt>
      <trkpt lat="59.19368" lon="18.142047">
        <ele>42</ele>
        <time>2019-11-26T16:02:58Z</time>
      </trkpt>
      <trkpt lat="59.19372" lon="18.142006">
        <ele>43</ele>
        <time>2019-11-26T16:02:59Z</time>
      </trkpt>
      <trkpt lat="59.19376" lon="18.141959">
        <ele>43</ele>
        <time>2019-11-26T16:03:01Z</time>
      </trkpt>
      <trkpt lat="59.193802" lon="18.141912">
        <ele>43</ele>
        <time>2019-11-26T16:03:01Z</time>
      </trkpt>
      <trkpt lat="59.193846" lon="18.141868">
        <ele>43</ele>
        <time>2019-11-26T16:03:02Z</time>
      </trkpt>
      <trkpt lat="59.193891" lon="18.141823">
        <ele>43</ele>
        <time>2019-11-26T16:03:03Z</time>
      </trkpt>
      <trkpt lat="59.193938" lon="18.141781">
        <ele>42</ele>
        <time>2019-11-26T16:03:04Z</time>
      </trkpt>
      <trkpt lat="59.193986" lon="18.141739">
        <ele>42</ele>
        <time>2019-11-26T16:03:05Z</time>
      </trkpt>
      <trkpt lat="59.194035" lon="18.141693">
        <ele>42</ele>
        <time>2019-11-26T16:03:06Z</time>
      </trkpt>
      <trkpt lat="59.194086" lon="18.141648">
        <ele>42</ele>
        <time>2019-11-26T16:03:07Z</time>
      </trkpt>
      <trkpt lat="59.194139" lon="18.141602">
        <ele>42</ele>
        <time>2019-11-26T16:03:08Z</time>
      </trkpt>
      <trkpt lat="59.194194" lon="18.141551">
        <ele>42</ele>
        <time>2019-11-26T16:03:10Z</time>
      </trkpt>
      <trkpt lat="59.19425" lon="18.141499">
        <ele>42</ele>
        <time>2019-11-26T16:03:10Z</time>
      </trkpt>
      <trkpt lat="59.194306" lon="18.141446">
        <ele>42</ele>
        <time>2019-11-26T16:03:11Z</time>
      </trkpt>
      <trkpt lat="59.194363" lon="18.141392">
        <ele>42</ele>
        <time>2019-11-26T16:03:12Z</time>
      </trkpt>
      <trkpt lat="59.194421" lon="18.141338">
        <ele>42</ele>
        <time>2019-11-26T16:03:13Z</time>
      </trkpt>
      <trkpt lat="59.194477" lon="18.141285">
        <ele>42</ele>
        <time>2019-11-26T16:03:14Z</time>
      </trkpt>
      <trkpt lat="59.194533" lon="18.141229">
        <ele>42</ele>
        <time>2019-11-26T16:03:15Z</time>
      </trkpt>
      <trkpt lat="59.194588" lon="18.141171">
        <ele>42</ele>
        <time>2019-11-26T16:03:17Z</time>
      </trkpt>
      <trkpt lat="59.194639" lon="18.141109">
        <ele>42</ele>
        <time>2019-11-26T16:03:18Z</time>
      </trkpt>
      <trkpt lat="59.194699" lon="18.141051">
        <ele>42</ele>
        <time>2019-11-26T16:03:18Z</time>
      </trkpt>
      <trkpt lat="59.194764" lon="18.140993">
        <ele>41</ele>
        <time>2019-11-26T16:03:19Z</time>
      </trkpt>
      <trkpt lat="59.194837" lon="18.140937">
        <ele>41</ele>
        <time>2019-11-26T16:03:20Z</time>
      </trkpt>
      <trkpt lat="59.194909" lon="18.140879">
        <ele>41</ele>
        <time>2019-11-26T16:03:21Z</time>
      </trkpt>
      <trkpt lat="59.194987" lon="18.140819">
        <ele>40</ele>
        <time>2019-11-26T16:03:22Z</time>
      </trkpt>
      <trkpt lat="59.195071" lon="18.14077">
        <ele>40</ele>
        <time>2019-11-26T16:03:24Z</time>
      </trkpt>
      <trkpt lat="59.195158" lon="18.140736">
        <ele>40</ele>
        <time>2019-11-26T16:03:24Z</time>
      </trkpt>
      <trkpt lat="59.195244" lon="18.140716">
        <ele>40</ele>
        <time>2019-11-26T16:03:25Z</time>
      </trkpt>
      <trkpt lat="59.195333" lon="18.140709">
        <ele>39</ele>
        <time>2019-11-26T16:03:26Z</time>
      </trkpt>
      <trkpt lat="59.195423" lon="18.140709">
        <ele>39</ele>
        <time>2019-11-26T16:03:27Z</time>
      </trkpt>
      <trkpt lat="59.195513" lon="18.14071">
        <ele>39</ele>
        <time>2019-11-26T16:03:28Z</time>
      </trkpt>
      <trkpt lat="59.195601" lon="18.140717">
        <ele>39</ele>
        <time>2019-11-26T16:03:30Z</time>
      </trkpt>
      <trkpt lat="59.19569" lon="18.140732">
        <ele>38</ele>
        <time>2019-11-26T16:03:30Z</time>
      </trkpt>
      <trkpt lat="59.195778" lon="18.140748">
        <ele>38</ele>
        <time>2019-11-26T16:03:31Z</time>
      </trkpt>
      <trkpt lat="59.195867" lon="18.140761">
        <ele>38</ele>
        <time>2019-11-26T16:03:32Z</time>
      </trkpt>
      <trkpt lat="59.195956" lon="18.140777">
        <ele>38</ele>
        <time>2019-11-26T16:03:33Z</time>
      </trkpt>
      <trkpt lat="59.196044" lon="18.140797">
        <ele>37</ele>
        <time>2019-11-26T16:03:34Z</time>
      </trkpt>
      <trkpt lat="59.196132" lon="18.140818">
        <ele>0</ele>
        <time>2019-11-26T16:03:35Z</time>
      </trkpt>
      <trkpt lat="59.196221" lon="18.14084">
        <ele>37</ele>
        <time>2019-11-26T16:03:36Z</time>
      </trkpt>
      <trkpt lat="59.196308" lon="18.140869">
        <ele>37</ele>
        <time>2019-11-26T16:03:37Z</time>
      </trkpt>
      <trkpt lat="59.196395" lon="18.140909">
        <ele>36</ele>
        <time>2019-11-26T16:03:38Z</time>
      </trkpt>
      <trkpt lat="59.19648" lon="18.140962">
        <ele>36</ele>
        <time>2019-11-26T16:03:39Z</time>
      </trkpt>
      <trkpt lat="59.196564" lon="18.141025">
        <ele>35</ele>
        <time>2019-11-26T16:03:41Z</time>
      </trkpt>
      <trkpt lat="59.196646" lon="18.141102">
        <ele>35</ele>
        <time>2019-11-26T16:03:41Z</time>
      </trkpt>
      <trkpt lat="59.196724" lon="18.141189">
        <ele>35</ele>
        <time>2019-11-26T16:03:42Z</time>
      </trkpt>
      <trkpt lat="59.1968" lon="18.141282">
        <ele>34</ele>
        <time>2019-11-26T16:03:43Z</time>
      </trkpt>
      <trkpt lat="59.196874" lon="18.141382">
        <ele>34</ele>
        <time>2019-11-26T16:03:44Z</time>
      </trkpt>
      <trkpt lat="59.196947" lon="18.141491">
        <ele>34</ele>
        <time>2019-11-26T16:03:45Z</time>
      </trkpt>
      <trkpt lat="59.197022" lon="18.141609">
        <ele>33</ele>
        <time>2019-11-26T16:03:47Z</time>
      </trkpt>
      <trkpt lat="59.197097" lon="18.141727">
        <ele>33</ele>
        <time>2019-11-26T16:03:47Z</time>
      </trkpt>
      <trkpt lat="59.197174" lon="18.141845">
        <ele>32</ele>
        <time>2019-11-26T16:03:48Z</time>
      </trkpt>
      <trkpt lat="59.197254" lon="18.141959">
        <ele>32</ele>
        <time>2019-11-26T16:03:49Z</time>
      </trkpt>
      <trkpt lat="59.197335" lon="18.142061">
        <ele>31</ele>
        <time>2019-11-26T16:03:50Z</time>
      </trkpt>
      <trkpt lat="59.197418" lon="18.142154">
        <ele>31</ele>
        <time>2019-11-26T16:03:52Z</time>
      </trkpt>
      <trkpt lat="59.197502" lon="18.142238">
        <ele>31</ele>
        <time>2019-11-26T16:03:52Z</time>
      </trkpt>
      <trkpt lat="59.197589" lon="18.142314">
        <ele>30</ele>
        <time>2019-11-26T16:03:53Z</time>
      </trkpt>
      <trkpt lat="59.197675" lon="18.142382">
        <ele>30</ele>
        <time>2019-11-26T16:03:55Z</time>
      </trkpt>
      <trkpt lat="59.197762" lon="18.142445">
        <ele>30</ele>
        <time>2019-11-26T16:03:55Z</time>
      </trkpt>
      <trkpt lat="59.197847" lon="18.142508">
        <ele>29</ele>
        <time>2019-11-26T16:03:57Z</time>
      </trkpt>
      <trkpt lat="59.197931" lon="18.142572">
        <ele>29</ele>
        <time>2019-11-26T16:03:57Z</time>
      </trkpt>
      <trkpt lat="59.198014" lon="18.142632">
        <ele>29</ele>
        <time>2019-11-26T16:03:58Z</time>
      </trkpt>
      <trkpt lat="59.198095" lon="18.14269">
        <ele>29</ele>
        <time>2019-11-26T16:03:59Z</time>
      </trkpt>
      <trkpt lat="59.198173" lon="18.142749">
        <ele>29</ele>
        <time>2019-11-26T16:04:00Z</time>
      </trkpt>
      <trkpt lat="59.19825" lon="18.142808">
        <ele>28</ele>
        <time>2019-11-26T16:04:01Z</time>
      </trkpt>
      <trkpt lat="59.198326" lon="18.142864">
        <ele>28</ele>
        <time>2019-11-26T16:04:03Z</time>
      </trkpt>
      <trkpt lat="59.1984" lon="18.142916">
        <ele>28</ele>
        <time>2019-11-26T16:04:03Z</time>
      </trkpt>
      <trkpt lat="59.198473" lon="18.142961">
        <ele>28</ele>
        <time>2019-11-26T16:04:04Z</time>
      </trkpt>
      <trkpt lat="59.198547" lon="18.142996">
        <ele>28</ele>
        <time>2019-11-26T16:04:05Z</time>
      </trkpt>
      <trkpt lat="59.19862" lon="18.143018">
        <ele>28</ele>
        <time>2019-11-26T16:04:06Z</time>
      </trkpt>
      <trkpt lat="59.198693" lon="18.143032">
        <ele>28</ele>
        <time>2019-11-26T16:04:07Z</time>
      </trkpt>
      <trkpt lat="59.198765" lon="18.143042">
        <ele>28</ele>
        <time>2019-11-26T16:04:08Z</time>
      </trkpt>
      <trkpt lat="59.198835" lon="18.143048">
        <ele>28</ele>
        <time>2019-11-26T16:04:10Z</time>
      </trkpt>
      <trkpt lat="59.198906" lon="18.143052">
        <ele>27</ele>
        <time>2019-11-26T16:04:10Z</time>
      </trkpt>
      <trkpt lat="59.198978" lon="18.143057">
        <ele>27</ele>
        <time>2019-11-26T16:04:11Z</time>
      </trkpt>
      <trkpt lat="59.19905" lon="18.143064">
        <ele>27</ele>
        <time>2019-11-26T16:04:12Z</time>
      </trkpt>
      <trkpt lat="59.199122" lon="18.143066">
        <ele>27</ele>
        <time>2019-11-26T16:04:14Z</time>
      </trkpt>
      <trkpt lat="59.199192" lon="18.143067">
        <ele>27</ele>
        <time>2019-11-26T16:04:14Z</time>
      </trkpt>
      <trkpt lat="59.199262" lon="18.14307">
        <ele>27</ele>
        <time>2019-11-26T16:04:15Z</time>
      </trkpt>
      <trkpt lat="59.199332" lon="18.143072">
        <ele>26</ele>
        <time>2019-11-26T16:04:17Z</time>
      </trkpt>
      <trkpt lat="59.199401" lon="18.143067">
        <ele>26</ele>
        <time>2019-11-26T16:04:17Z</time>
      </trkpt>
      <trkpt lat="59.199469" lon="18.143044">
        <ele>26</ele>
        <time>2019-11-26T16:04:18Z</time>
      </trkpt>
      <trkpt lat="59.199533" lon="18.142992">
        <ele>26</ele>
        <time>2019-11-26T16:04:19Z</time>
      </trkpt>
      <trkpt lat="59.199591" lon="18.14292">
        <ele>26</ele>
        <time>2019-11-26T16:04:20Z</time>
      </trkpt>
      <trkpt lat="59.199642" lon="18.142832">
        <ele>26</ele>
        <time>2019-11-26T16:04:21Z</time>
      </trkpt>
      <trkpt lat="59.199687" lon="18.142732">
        <ele>26</ele>
        <time>2019-11-26T16:04:22Z</time>
      </trkpt>
      <trkpt lat="59.199729" lon="18.142625">
        <ele>26</ele>
        <time>2019-11-26T16:04:24Z</time>
      </trkpt>
      <trkpt lat="59.199769" lon="18.14252">
        <ele>26</ele>
        <time>2019-11-26T16:04:24Z</time>
      </trkpt>
      <trkpt lat="59.199807" lon="18.142412">
        <ele>26</ele>
        <time>2019-11-26T16:04:25Z</time>
      </trkpt>
      <trkpt lat="59.199851" lon="18.142316">
        <ele>26</ele>
        <time>2019-11-26T16:04:26Z</time>
      </trkpt>
      <trkpt lat="59.199901" lon="18.142232">
        <ele>27</ele>
        <time>2019-11-26T16:04:27Z</time>
      </trkpt>
      <trkpt lat="59.19995" lon="18.14216">
        <ele>27</ele>
        <time>2019-11-26T16:04:28Z</time>
      </trkpt>
      <trkpt lat="59.199999" lon="18.1421">
        <ele>27</ele>
        <time>2019-11-26T16:04:29Z</time>
      </trkpt>
      <trkpt lat="59.200045" lon="18.142042">
        <ele>27</ele>
        <time>2019-11-26T16:04:30Z</time>
      </trkpt>
      <trkpt lat="59.20009" lon="18.141989">
        <ele>27</ele>
        <time>2019-11-26T16:04:32Z</time>
      </trkpt>
      <trkpt lat="59.200135" lon="18.141938">
        <ele>28</ele>
        <time>2019-11-26T16:04:33Z</time>
      </trkpt>
      <trkpt lat="59.20018" lon="18.141888">
        <ele>28</ele>
        <time>2019-11-26T16:04:33Z</time>
      </trkpt>
      <trkpt lat="59.200223" lon="18.14184">
        <ele>28</ele>
        <time>2019-11-26T16:04:34Z</time>
      </trkpt>
      <trkpt lat="59.200267" lon="18.141792">
        <ele>28</ele>
        <time>2019-11-26T16:04:35Z</time>
      </trkpt>
      <trkpt lat="59.20031" lon="18.141744">
        <ele>28</ele>
        <time>2019-11-26T16:04:36Z</time>
      </trkpt>
      <trkpt lat="59.200353" lon="18.141696">
        <ele>28</ele>
        <time>2019-11-26T16:04:37Z</time>
      </trkpt>
      <trkpt lat="59.200397" lon="18.14165">
        <ele>28</ele>
        <time>2019-11-26T16:04:38Z</time>
      </trkpt>
      <trkpt lat="59.20044" lon="18.141606">
        <ele>29</ele>
        <time>2019-11-26T16:04:39Z</time>
      </trkpt>
      <trkpt lat="59.200483" lon="18.14156">
        <ele>29</ele>
        <time>2019-11-26T16:04:40Z</time>
      </trkpt>
      <trkpt lat="59.200526" lon="18.141514">
        <ele>29</ele>
        <time>2019-11-26T16:04:42Z</time>
      </trkpt>
      <trkpt lat="59.200567" lon="18.141468">
        <ele>29</ele>
        <time>2019-11-26T16:04:42Z</time>
      </trkpt>
      <trkpt lat="59.200607" lon="18.141424">
        <ele>29</ele>
        <time>2019-11-26T16:04:43Z</time>
      </trkpt>
      <trkpt lat="59.200649" lon="18.141388">
        <ele>29</ele>
        <time>2019-11-26T16:04:44Z</time>
      </trkpt>
      <trkpt lat="59.200693" lon="18.141366">
        <ele>29</ele>
        <time>2019-11-26T16:04:45Z</time>
      </trkpt>
      <trkpt lat="59.200739" lon="18.14136">
        <ele>30</ele>
        <time>2019-11-26T16:04:46Z</time>
      </trkpt>
      <trkpt lat="59.200784" lon="18.141368">
        <ele>30</ele>
        <time>2019-11-26T16:04:47Z</time>
      </trkpt>
      <trkpt lat="59.200829" lon="18.141386">
        <ele>30</ele>
        <time>2019-11-26T16:04:48Z</time>
      </trkpt>
      <trkpt lat="59.200873" lon="18.141414">
        <ele>30</ele>
        <time>2019-11-26T16:04:49Z</time>
      </trkpt>
      <trkpt lat="59.200916" lon="18.141446">
        <ele>30</ele>
        <time>2019-11-26T16:04:50Z</time>
      </trkpt>
      <trkpt lat="59.200958" lon="18.141481">
        <ele>31</ele>
        <time>2019-11-26T16:04:52Z</time>
      </trkpt>
      <trkpt lat="59.201" lon="18.141518">
        <ele>31</ele>
        <time>2019-11-26T16:04:53Z</time>
      </trkpt>
      <trkpt lat="59.201044" lon="18.141556">
        <ele>31</ele>
        <time>2019-11-26T16:04:53Z</time>
      </trkpt>
      <trkpt lat="59.201086" lon="18.141594">
        <ele>31</ele>
        <time>2019-11-26T16:04:54Z</time>
      </trkpt>
      <trkpt lat="59.201129" lon="18.141632">
        <ele>31</ele>
        <time>2019-11-26T16:04:55Z</time>
      </trkpt>
      <trkpt lat="59.201172" lon="18.141668">
        <ele>31</ele>
        <time>2019-11-26T16:04:56Z</time>
      </trkpt>
      <trkpt lat="59.201213" lon="18.141708">
        <ele>31</ele>
        <time>2019-11-26T16:04:57Z</time>
      </trkpt>
      <trkpt lat="59.201255" lon="18.141746">
        <ele>32</ele>
        <time>2019-11-26T16:04:58Z</time>
      </trkpt>
      <trkpt lat="59.201297" lon="18.141784">
        <ele>31</ele>
        <time>2019-11-26T16:04:59Z</time>
      </trkpt>
      <trkpt lat="59.20134" lon="18.14182">
        <ele>32</ele>
        <time>2019-11-26T16:05:00Z</time>
      </trkpt>
      <trkpt lat="59.201384" lon="18.141853">
        <ele>32</ele>
        <time>2019-11-26T16:05:01Z</time>
      </trkpt>
      <trkpt lat="59.201428" lon="18.141884">
        <ele>32</ele>
        <time>2019-11-26T16:05:02Z</time>
      </trkpt>
      <trkpt lat="59.201472" lon="18.141915">
        <ele>32</ele>
        <time>2019-11-26T16:05:04Z</time>
      </trkpt>
      <trkpt lat="59.201516" lon="18.141942">
        <ele>32</ele>
        <time>2019-11-26T16:05:04Z</time>
      </trkpt>
      <trkpt lat="59.20156" lon="18.141965">
        <ele>32</ele>
        <time>2019-11-26T16:05:05Z</time>
      </trkpt>
      <trkpt lat="59.201605" lon="18.141987">
        <ele>33</ele>
        <time>2019-11-26T16:05:06Z</time>
      </trkpt>
      <trkpt lat="59.201649" lon="18.14201">
        <ele>33</ele>
        <time>2019-11-26T16:05:07Z</time>
      </trkpt>
      <trkpt lat="59.201694" lon="18.142032">
        <ele>33</ele>
        <time>2019-11-26T16:05:08Z</time>
      </trkpt>
      <trkpt lat="59.20174" lon="18.142052">
        <ele>33</ele>
        <time>2019-11-26T16:05:09Z</time>
      </trkpt>
      <trkpt lat="59.201786" lon="18.142071">
        <ele>33</ele>
        <time>2019-11-26T16:05:11Z</time>
      </trkpt>
      <trkpt lat="59.201832" lon="18.14209">
        <ele>33</ele>
        <time>2019-11-26T16:05:11Z</time>
      </trkpt>
      <trkpt lat="59.201879" lon="18.142107">
        <ele>33</ele>
        <time>2019-11-26T16:05:12Z</time>
      </trkpt>
      <trkpt lat="59.201924" lon="18.142126">
        <ele>34</ele>
        <time>2019-11-26T16:05:13Z</time>
      </trkpt>
      <trkpt lat="59.20197" lon="18.142148">
        <ele>34</ele>
        <time>2019-11-26T16:05:15Z</time>
      </trkpt>
      <trkpt lat="59.202015" lon="18.142168">
        <ele>34</ele>
        <time>2019-11-26T16:05:15Z</time>
      </trkpt>
      <trkpt lat="59.20206" lon="18.142187">
        <ele>34</ele>
        <time>2019-11-26T16:05:16Z</time>
      </trkpt>
      <trkpt lat="59.202106" lon="18.142205">
        <ele>34</ele>
        <time>2019-11-26T16:05:17Z</time>
      </trkpt>
      <trkpt lat="59.202152" lon="18.142223">
        <ele>34</ele>
        <time>2019-11-26T16:05:18Z</time>
      </trkpt>
      <trkpt lat="59.202197" lon="18.142241">
        <ele>35</ele>
        <time>2019-11-26T16:05:19Z</time>
      </trkpt>
      <trkpt lat="59.202243" lon="18.142257">
        <ele>35</ele>
        <time>2019-11-26T16:05:20Z</time>
      </trkpt>
      <trkpt lat="59.202289" lon="18.142272">
        <ele>35</ele>
        <time>2019-11-26T16:05:22Z</time>
      </trkpt>
      <trkpt lat="59.202333" lon="18.142286">
        <ele>35</ele>
        <time>2019-11-26T16:05:22Z</time>
      </trkpt>
      <trkpt lat="59.202375" lon="18.142297">
        <ele>35</ele>
        <time>2019-11-26T16:05:23Z</time>
      </trkpt>
      <trkpt lat="59.202414" lon="18.142305">
        <ele>35</ele>
        <time>2019-11-26T16:05:24Z</time>
      </trkpt>
      <trkpt lat="59.202453" lon="18.142304">
        <ele>35</ele>
        <time>2019-11-26T16:05:26Z</time>
      </trkpt>
      <trkpt lat="59.202493" lon="18.142297">
        <ele>35</ele>
        <time>2019-11-26T16:05:26Z</time>
      </trkpt>
      <trkpt lat="59.202536" lon="18.142288">
        <ele>36</ele>
        <time>2019-11-26T16:05:27Z</time>
      </trkpt>
      <trkpt lat="59.202581" lon="18.14228">
        <ele>36</ele>
        <time>2019-11-26T16:05:28Z</time>
      </trkpt>
      <trkpt lat="59.202624" lon="18.142275">
        <ele>36</ele>
        <time>2019-11-26T16:05:30Z</time>
      </trkpt>
      <trkpt lat="59.202667" lon="18.14227">
        <ele>36</ele>
        <time>2019-11-26T16:05:30Z</time>
      </trkpt>
      <trkpt lat="59.202707" lon="18.142265">
        <ele>36</ele>
        <time>2019-11-26T16:05:31Z</time>
      </trkpt>
      <trkpt lat="59.202749" lon="18.142264">
        <ele>36</ele>
        <time>2019-11-26T16:05:32Z</time>
      </trkpt>
      <trkpt lat="59.202795" lon="18.142265">
        <ele>36</ele>
        <time>2019-11-26T16:05:33Z</time>
      </trkpt>
      <trkpt lat="59.202843" lon="18.142267">
        <ele>36</ele>
        <time>2019-11-26T16:05:34Z</time>
      </trkpt>
      <trkpt lat="59.202893" lon="18.14227">
        <ele>36</ele>
        <time>2019-11-26T16:05:35Z</time>
      </trkpt>
      <trkpt lat="59.202944" lon="18.142275">
        <ele>36</ele>
        <time>2019-11-26T16:05:37Z</time>
      </trkpt>
      <trkpt lat="59.202994" lon="18.142282">
        <ele>36</ele>
        <time>2019-11-26T16:05:37Z</time>
      </trkpt>
      <trkpt lat="59.203045" lon="18.14229">
        <ele>36</ele>
        <time>2019-11-26T16:05:38Z</time>
      </trkpt>
      <trkpt lat="59.203097" lon="18.142297">
        <ele>36</ele>
        <time>2019-11-26T16:05:39Z</time>
      </trkpt>
      <trkpt lat="59.203149" lon="18.142305">
        <ele>36</ele>
        <time>2019-11-26T16:05:40Z</time>
      </trkpt>
      <trkpt lat="59.203202" lon="18.142311">
        <ele>36</ele>
        <time>2019-11-26T16:05:41Z</time>
      </trkpt>
      <trkpt lat="59.203255" lon="18.142317">
        <ele>36</ele>
        <time>2019-11-26T16:05:42Z</time>
      </trkpt>
      <trkpt lat="59.203307" lon="18.142323">
        <ele>36</ele>
        <time>2019-11-26T16:05:43Z</time>
      </trkpt>
      <trkpt lat="59.203361" lon="18.142328">
        <ele>36</ele>
        <time>2019-11-26T16:05:44Z</time>
      </trkpt>
      <trkpt lat="59.203416" lon="18.14233">
        <ele>36</ele>
        <time>2019-11-26T16:05:45Z</time>
      </trkpt>
      <trkpt lat="59.203474" lon="18.14233">
        <ele>36</ele>
        <time>2019-11-26T16:05:47Z</time>
      </trkpt>
      <trkpt lat="59.203533" lon="18.142327">
        <ele>36</ele>
        <time>2019-11-26T16:05:47Z</time>
      </trkpt>
      <trkpt lat="59.203592" lon="18.142321">
        <ele>36</ele>
        <time>2019-11-26T16:05:49Z</time>
      </trkpt>
      <trkpt lat="59.20365" lon="18.142312">
        <ele>36</ele>
        <time>2019-11-26T16:05:49Z</time>
      </trkpt>
      <trkpt lat="59.203708" lon="18.142299">
        <ele>36</ele>
        <time>2019-11-26T16:05:50Z</time>
      </trkpt>
      <trkpt lat="59.203766" lon="18.142284">
        <ele>36</ele>
        <time>2019-11-26T16:05:51Z</time>
      </trkpt>
      <trkpt lat="59.203824" lon="18.142268">
        <ele>36</ele>
        <time>2019-11-26T16:05:52Z</time>
      </trkpt>
      <trkpt lat="59.203881" lon="18.142251">
        <ele>36</ele>
        <time>2019-11-26T16:05:53Z</time>
      </trkpt>
      <trkpt lat="59.203938" lon="18.142232">
        <ele>36</ele>
        <time>2019-11-26T16:05:55Z</time>
      </trkpt>
      <trkpt lat="59.203995" lon="18.142213">
        <ele>36</ele>
        <time>2019-11-26T16:05:55Z</time>
      </trkpt>
      <trkpt lat="59.204052" lon="18.142192">
        <ele>36</ele>
        <time>2019-11-26T16:05:56Z</time>
      </trkpt>
      <trkpt lat="59.204109" lon="18.14217">
        <ele>36</ele>
        <time>2019-11-26T16:05:57Z</time>
      </trkpt>
      <trkpt lat="59.204166" lon="18.142148">
        <ele>36</ele>
        <time>2019-11-26T16:05:58Z</time>
      </trkpt>
      <trkpt lat="59.204223" lon="18.142126">
        <ele>37</ele>
        <time>2019-11-26T16:05:59Z</time>
      </trkpt>
      <trkpt lat="59.204278" lon="18.142101">
        <ele>37</ele>
        <time>2019-11-26T16:06:00Z</time>
      </trkpt>
      <trkpt lat="59.204332" lon="18.142078">
        <ele>37</ele>
        <time>2019-11-26T16:06:02Z</time>
      </trkpt>
      <trkpt lat="59.204387" lon="18.142057">
        <ele>37</ele>
        <time>2019-11-26T16:06:02Z</time>
      </trkpt>
      <trkpt lat="59.20444" lon="18.142034">
        <ele>37</ele>
        <time>2019-11-26T16:06:04Z</time>
      </trkpt>
      <trkpt lat="59.204491" lon="18.142008">
        <ele>37</ele>
        <time>2019-11-26T16:06:04Z</time>
      </trkpt>
      <trkpt lat="59.204544" lon="18.141982">
        <ele>37</ele>
        <time>2019-11-26T16:06:05Z</time>
      </trkpt>
      <trkpt lat="59.204594" lon="18.141958">
        <ele>38</ele>
        <time>2019-11-26T16:06:06Z</time>
      </trkpt>
      <trkpt lat="59.204646" lon="18.141932">
        <ele>38</ele>
        <time>2019-11-26T16:06:08Z</time>
      </trkpt>
      <trkpt lat="59.204696" lon="18.141904">
        <ele>38</ele>
        <time>2019-11-26T16:06:08Z</time>
      </trkpt>
      <trkpt lat="59.204743" lon="18.141876">
        <ele>38</ele>
        <time>2019-11-26T16:06:09Z</time>
      </trkpt>
      <trkpt lat="59.204788" lon="18.14185">
        <ele>38</ele>
        <time>2019-11-26T16:06:10Z</time>
      </trkpt>
      <trkpt lat="59.204834" lon="18.141823">
        <ele>38</ele>
        <time>2019-11-26T16:06:11Z</time>
      </trkpt>
      <trkpt lat="59.204882" lon="18.141794">
        <ele>38</ele>
        <time>2019-11-26T16:06:12Z</time>
      </trkpt>
      <trkpt lat="59.204933" lon="18.141764">
        <ele>39</ele>
        <time>2019-11-26T16:06:14Z</time>
      </trkpt>
      <trkpt lat="59.204983" lon="18.141733">
        <ele>39</ele>
        <time>2019-11-26T16:06:15Z</time>
      </trkpt>
      <trkpt lat="59.205032" lon="18.141699">
        <ele>39</ele>
        <time>2019-11-26T16:06:15Z</time>
      </trkpt>
      <trkpt lat="59.20508" lon="18.141666">
        <ele>39</ele>
        <time>2019-11-26T16:06:16Z</time>
      </trkpt>
      <trkpt lat="59.205129" lon="18.141632">
        <ele>39</ele>
        <time>2019-11-26T16:06:17Z</time>
      </trkpt>
      <trkpt lat="59.205175" lon="18.141598">
        <ele>39</ele>
        <time>2019-11-26T16:06:18Z</time>
      </trkpt>
      <trkpt lat="59.205221" lon="18.141562">
        <ele>40</ele>
        <time>2019-11-26T16:06:19Z</time>
      </trkpt>
      <trkpt lat="59.205265" lon="18.141524">
        <ele>40</ele>
        <time>2019-11-26T16:06:20Z</time>
      </trkpt>
      <trkpt lat="59.205304" lon="18.141491">
        <ele>40</ele>
        <time>2019-11-26T16:06:21Z</time>
      </trkpt>
      <trkpt lat="59.20534" lon="18.141464">
        <ele>40</ele>
        <time>2019-11-26T16:06:22Z</time>
      </trkpt>
      <trkpt lat="59.205377" lon="18.141437">
        <ele>40</ele>
        <time>2019-11-26T16:06:24Z</time>
      </trkpt>
      <trkpt lat="59.205412" lon="18.141411">
        <ele>40</ele>
        <time>2019-11-26T16:06:24Z</time>
      </trkpt>
      <trkpt lat="59.205446" lon="18.141382">
        <ele>40</ele>
        <time>2019-11-26T16:06:25Z</time>
      </trkpt>
      <trkpt lat="59.205484" lon="18.141348">
        <ele>41</ele>
        <time>2019-11-26T16:06:27Z</time>
      </trkpt>
      <trkpt lat="59.205526" lon="18.141312">
        <ele>41</ele>
        <time>2019-11-26T16:06:27Z</time>
      </trkpt>
      <trkpt lat="59.205567" lon="18.141276">
        <ele>41</ele>
        <time>2019-11-26T16:06:28Z</time>
      </trkpt>
      <trkpt lat="59.205611" lon="18.141241">
        <ele>41</ele>
        <time>2019-11-26T16:06:29Z</time>
      </trkpt>
      <trkpt lat="59.205654" lon="18.141202">
        <ele>41</ele>
        <time>2019-11-26T16:06:30Z</time>
      </trkpt>
      <trkpt lat="59.205696" lon="18.141162">
        <ele>41</ele>
        <time>2019-11-26T16:06:31Z</time>
      </trkpt>
      <trkpt lat="59.20574" lon="18.141123">
        <ele>41</ele>
        <time>2019-11-26T16:06:32Z</time>
      </trkpt>
      <trkpt lat="59.205784" lon="18.141084">
        <ele>41</ele>
        <time>2019-11-26T16:06:33Z</time>
      </trkpt>
      <trkpt lat="59.20583" lon="18.141048">
        <ele>42</ele>
        <time>2019-11-26T16:06:35Z</time>
      </trkpt>
      <trkpt lat="59.205875" lon="18.141014">
        <ele>42</ele>
        <time>2019-11-26T16:06:35Z</time>
      </trkpt>
      <trkpt lat="59.20592" lon="18.140982">
        <ele>42</ele>
        <time>2019-11-26T16:06:36Z</time>
      </trkpt>
      <trkpt lat="59.205964" lon="18.14095">
        <ele>42</ele>
        <time>2019-11-26T16:06:37Z</time>
      </trkpt>
      <trkpt lat="59.206012" lon="18.140921">
        <ele>42</ele>
        <time>2019-11-26T16:06:38Z</time>
      </trkpt>
      <trkpt lat="59.206058" lon="18.140898">
        <ele>42</ele>
        <time>2019-11-26T16:06:39Z</time>
      </trkpt>
      <trkpt lat="59.206104" lon="18.14088">
        <ele>42</ele>
        <time>2019-11-26T16:06:40Z</time>
      </trkpt>
      <trkpt lat="59.206148" lon="18.140863">
        <ele>42</ele>
        <time>2019-11-26T16:06:41Z</time>
      </trkpt>
      <trkpt lat="59.20619" lon="18.140844">
        <ele>42</ele>
        <time>2019-11-26T16:06:42Z</time>
      </trkpt>
      <trkpt lat="59.206228" lon="18.140809">
        <ele>42</ele>
        <time>2019-11-26T16:06:43Z</time>
      </trkpt>
      <trkpt lat="59.206256" lon="18.140753">
        <ele>43</ele>
        <time>2019-11-26T16:06:44Z</time>
      </trkpt>
      <trkpt lat="59.206276" lon="18.140685">
        <ele>0</ele>
        <time>2019-11-26T16:06:45Z</time>
      </trkpt>
      <trkpt lat="59.206294" lon="18.14061">
        <ele>43</ele>
        <time>2019-11-26T16:06:46Z</time>
      </trkpt>
      <trkpt lat="59.206344" lon="18.140481">
        <ele>43</ele>
        <time>2019-11-26T16:06:48Z</time>
      </trkpt>
      <trkpt lat="59.206378" lon="18.140438">
        <ele>43</ele>
        <time>2019-11-26T16:06:49Z</time>
      </trkpt>
      <trkpt lat="59.206416" lon="18.140406">
        <ele>43</ele>
        <time>2019-11-26T16:06:50Z</time>
      </trkpt>
      <trkpt lat="59.206456" lon="18.140385">
        <ele>43</ele>
        <time>2019-11-26T16:06:51Z</time>
      </trkpt>
      <trkpt lat="59.206498" lon="18.14037">
        <ele>43</ele>
        <time>2019-11-26T16:06:52Z</time>
      </trkpt>
      <trkpt lat="59.206538" lon="18.140359">
        <ele>43</ele>
        <time>2019-11-26T16:06:53Z</time>
      </trkpt>
      <trkpt lat="59.206578" lon="18.140357">
        <ele>43</ele>
        <time>2019-11-26T16:06:54Z</time>
      </trkpt>
      <trkpt lat="59.206616" lon="18.140356">
        <ele>44</ele>
        <time>2019-11-26T16:06:55Z</time>
      </trkpt>
      <trkpt lat="59.206654" lon="18.140356">
        <ele>44</ele>
        <time>2019-11-26T16:06:56Z</time>
      </trkpt>
      <trkpt lat="59.206694" lon="18.140359">
        <ele>44</ele>
        <time>2019-11-26T16:06:57Z</time>
      </trkpt>
      <trkpt lat="59.206734" lon="18.140362">
        <ele>44</ele>
        <time>2019-11-26T16:06:59Z</time>
      </trkpt>
      <trkpt lat="59.206774" lon="18.140367">
        <ele>44</ele>
        <time>2019-11-26T16:06:59Z</time>
      </trkpt>
      <trkpt lat="59.206812" lon="18.140374">
        <ele>44</ele>
        <time>2019-11-26T16:07:00Z</time>
      </trkpt>
      <trkpt lat="59.206852" lon="18.140385">
        <ele>44</ele>
        <time>2019-11-26T16:07:01Z</time>
      </trkpt>
      <trkpt lat="59.206892" lon="18.140396">
        <ele>44</ele>
        <time>2019-11-26T16:07:02Z</time>
      </trkpt>
      <trkpt lat="59.206931" lon="18.140407">
        <ele>44</ele>
        <time>2019-11-26T16:07:03Z</time>
      </trkpt>
      <trkpt lat="59.206971" lon="18.140418">
        <ele>45</ele>
        <time>2019-11-26T16:07:05Z</time>
      </trkpt>
      <trkpt lat="59.20701" lon="18.140431">
        <ele>45</ele>
        <time>2019-11-26T16:07:05Z</time>
      </trkpt>
      <trkpt lat="59.20705" lon="18.140442">
        <ele>45</ele>
        <time>2019-11-26T16:07:06Z</time>
      </trkpt>
      <trkpt lat="59.207091" lon="18.140456">
        <ele>45</ele>
        <time>2019-11-26T16:07:07Z</time>
      </trkpt>
      <trkpt lat="59.207132" lon="18.140471">
        <ele>45</ele>
        <time>2019-11-26T16:07:08Z</time>
      </trkpt>
      <trkpt lat="59.207173" lon="18.14049">
        <ele>46</ele>
        <time>2019-11-26T16:07:09Z</time>
      </trkpt>
      <trkpt lat="59.207215" lon="18.140511">
        <ele>46</ele>
        <time>2019-11-26T16:07:11Z</time>
      </trkpt>
      <trkpt lat="59.207257" lon="18.140533">
        <ele>46</ele>
        <time>2019-11-26T16:07:11Z</time>
      </trkpt>
      <trkpt lat="59.207298" lon="18.140557">
        <ele>46</ele>
        <time>2019-11-26T16:07:12Z</time>
      </trkpt>
      <trkpt lat="59.20734" lon="18.14058">
        <ele>46</ele>
        <time>2019-11-26T16:07:13Z</time>
      </trkpt>
      <trkpt lat="59.207383" lon="18.140604">
        <ele>46</ele>
        <time>2019-11-26T16:07:14Z</time>
      </trkpt>
      <trkpt lat="59.207425" lon="18.140632">
        <ele>46</ele>
        <time>2019-11-26T16:07:15Z</time>
      </trkpt>
      <trkpt lat="59.207466" lon="18.140661">
        <ele>46</ele>
        <time>2019-11-26T16:07:16Z</time>
      </trkpt>
      <trkpt lat="59.207506" lon="18.14069">
        <ele>46</ele>
        <time>2019-11-26T16:07:17Z</time>
      </trkpt>
      <trkpt lat="59.207545" lon="18.140718">
        <ele>46</ele>
        <time>2019-11-26T16:07:18Z</time>
      </trkpt>
      <trkpt lat="59.207584" lon="18.140747">
        <ele>46</ele>
        <time>2019-11-26T16:07:19Z</time>
      </trkpt>
      <trkpt lat="59.207622" lon="18.140775">
        <ele>46</ele>
        <time>2019-11-26T16:07:20Z</time>
      </trkpt>
      <trkpt lat="59.207659" lon="18.140806">
        <ele>46</ele>
        <time>2019-11-26T16:07:21Z</time>
      </trkpt>
      <trkpt lat="59.207695" lon="18.140839">
        <ele>47</ele>
        <time>2019-11-26T16:07:23Z</time>
      </trkpt>
      <trkpt lat="59.207731" lon="18.140873">
        <ele>47</ele>
        <time>2019-11-26T16:07:24Z</time>
      </trkpt>
      <trkpt lat="59.207766" lon="18.140909">
        <ele>47</ele>
        <time>2019-11-26T16:07:24Z</time>
      </trkpt>
      <trkpt lat="59.2078" lon="18.140944">
        <ele>47</ele>
        <time>2019-11-26T16:07:25Z</time>
      </trkpt>
      <trkpt lat="59.207835" lon="18.140979">
        <ele>47</ele>
        <time>2019-11-26T16:07:26Z</time>
      </trkpt>
      <trkpt lat="59.20787" lon="18.141015">
        <ele>47</ele>
        <time>2019-11-26T16:07:27Z</time>
      </trkpt>
      <trkpt lat="59.207903" lon="18.141051">
        <ele>47</ele>
        <time>2019-11-26T16:07:28Z</time>
      </trkpt>
      <trkpt lat="59.207937" lon="18.141087">
        <ele>47</ele>
        <time>2019-11-26T16:07:29Z</time>
      </trkpt>
      <trkpt lat="59.207971" lon="18.141124">
        <ele>48</ele>
        <time>2019-11-26T16:07:30Z</time>
      </trkpt>
      <trkpt lat="59.208003" lon="18.141163">
        <ele>48</ele>
        <time>2019-11-26T16:07:31Z</time>
      </trkpt>
      <trkpt lat="59.208036" lon="18.141201">
        <ele>48</ele>
        <time>2019-11-26T16:07:32Z</time>
      </trkpt>
      <trkpt lat="59.208068" lon="18.14124">
        <ele>48</ele>
        <time>2019-11-26T16:07:33Z</time>
      </trkpt>
      <trkpt lat="59.208099" lon="18.141281">
        <ele>48</ele>
        <time>2019-11-26T16:07:34Z</time>
      </trkpt>
      <trkpt lat="59.208129" lon="18.141323">
        <ele>48</ele>
        <time>2019-11-26T16:07:36Z</time>
      </trkpt>
      <trkpt lat="59.208158" lon="18.141368">
        <ele>49</ele>
        <time>2019-11-26T16:07:36Z</time>
      </trkpt>
      <trkpt lat="59.208188" lon="18.141411">
        <ele>49</ele>
        <time>2019-11-26T16:07:37Z</time>
      </trkpt>
      <trkpt lat="59.208215" lon="18.141454">
        <ele>49</ele>
        <time>2019-11-26T16:07:38Z</time>
      </trkpt>
      <trkpt lat="59.20824" lon="18.141496">
        <ele>49</ele>
        <time>2019-11-26T16:07:39Z</time>
      </trkpt>
      <trkpt lat="59.208266" lon="18.141541">
        <ele>49</ele>
        <time>2019-11-26T16:07:40Z</time>
      </trkpt>
      <trkpt lat="59.208292" lon="18.141585">
        <ele>50</ele>
        <time>2019-11-26T16:07:41Z</time>
      </trkpt>
      <trkpt lat="59.208318" lon="18.141631">
        <ele>50</ele>
        <time>2019-11-26T16:07:43Z</time>
      </trkpt>
      <trkpt lat="59.208344" lon="18.141674">
        <ele>50</ele>
        <time>2019-11-26T16:07:43Z</time>
      </trkpt>
      <trkpt lat="59.208368" lon="18.141718">
        <ele>50</ele>
        <time>2019-11-26T16:07:44Z</time>
      </trkpt>
      <trkpt lat="59.208393" lon="18.141767">
        <ele>50</ele>
        <time>2019-11-26T16:07:45Z</time>
      </trkpt>
      <trkpt lat="59.208415" lon="18.141815">
        <ele>50</ele>
        <time>2019-11-26T16:07:46Z</time>
      </trkpt>
      <trkpt lat="59.208441" lon="18.141864">
        <ele>50</ele>
        <time>2019-11-26T16:07:47Z</time>
      </trkpt>
      <trkpt lat="59.208467" lon="18.141917">
        <ele>51</ele>
        <time>2019-11-26T16:07:48Z</time>
      </trkpt>
      <trkpt lat="59.20849" lon="18.141971">
        <ele>51</ele>
        <time>2019-11-26T16:07:50Z</time>
      </trkpt>
      <trkpt lat="59.208515" lon="18.142025">
        <ele>51</ele>
        <time>2019-11-26T16:07:50Z</time>
      </trkpt>
      <trkpt lat="59.208541" lon="18.142082">
        <ele>51</ele>
        <time>2019-11-26T16:07:51Z</time>
      </trkpt>
      <trkpt lat="59.208571" lon="18.142136">
        <ele>51</ele>
        <time>2019-11-26T16:07:52Z</time>
      </trkpt>
      <trkpt lat="59.208599" lon="18.142194">
        <ele>51</ele>
        <time>2019-11-26T16:07:53Z</time>
      </trkpt>
      <trkpt lat="59.208628" lon="18.142255">
        <ele>51</ele>
        <time>2019-11-26T16:07:54Z</time>
      </trkpt>
      <trkpt lat="59.208655" lon="18.142315">
        <ele>51</ele>
        <time>2019-11-26T16:07:55Z</time>
      </trkpt>
      <trkpt lat="59.208681" lon="18.14238">
        <ele>51</ele>
        <time>2019-11-26T16:07:56Z</time>
      </trkpt>
      <trkpt lat="59.208713" lon="18.142452">
        <ele>51</ele>
        <time>2019-11-26T16:07:57Z</time>
      </trkpt>
      <trkpt lat="59.208743" lon="18.142526">
        <ele>51</ele>
        <time>2019-11-26T16:07:58Z</time>
      </trkpt>
      <trkpt lat="59.208773" lon="18.1426">
        <ele>51</ele>
        <time>2019-11-26T16:07:59Z</time>
      </trkpt>
      <trkpt lat="59.208804" lon="18.142674">
        <ele>51</ele>
        <time>2019-11-26T16:08:01Z</time>
      </trkpt>
      <trkpt lat="59.208832" lon="18.142748">
        <ele>52</ele>
        <time>2019-11-26T16:08:02Z</time>
      </trkpt>
      <trkpt lat="59.208862" lon="18.142823">
        <ele>52</ele>
        <time>2019-11-26T16:08:02Z</time>
      </trkpt>
      <trkpt lat="59.208892" lon="18.142898">
        <ele>52</ele>
        <time>2019-11-26T16:08:03Z</time>
      </trkpt>
      <trkpt lat="59.208923" lon="18.142974">
        <ele>52</ele>
        <time>2019-11-26T16:08:04Z</time>
      </trkpt>
      <trkpt lat="59.208955" lon="18.143052">
        <ele>52</ele>
        <time>2019-11-26T16:08:05Z</time>
      </trkpt>
      <trkpt lat="59.208989" lon="18.143131">
        <ele>52</ele>
        <time>2019-11-26T16:08:06Z</time>
      </trkpt>
      <trkpt lat="59.209023" lon="18.14321">
        <ele>52</ele>
        <time>2019-11-26T16:08:07Z</time>
      </trkpt>
      <trkpt lat="59.209056" lon="18.14329">
        <ele>52</ele>
        <time>2019-11-26T16:08:08Z</time>
      </trkpt>
      <trkpt lat="59.209089" lon="18.143371">
        <ele>52</ele>
        <time>2019-11-26T16:08:09Z</time>
      </trkpt>
      <trkpt lat="59.209124" lon="18.143454">
        <ele>52</ele>
        <time>2019-11-26T16:08:11Z</time>
      </trkpt>
      <trkpt lat="59.209159" lon="18.143538">
        <ele>52</ele>
        <time>2019-11-26T16:08:11Z</time>
      </trkpt>
      <trkpt lat="59.209195" lon="18.143622">
        <ele>52</ele>
        <time>2019-11-26T16:08:12Z</time>
      </trkpt>
      <trkpt lat="59.209231" lon="18.143709">
        <ele>52</ele>
        <time>2019-11-26T16:08:13Z</time>
      </trkpt>
      <trkpt lat="59.209268" lon="18.143796">
        <ele>52</ele>
        <time>2019-11-26T16:08:14Z</time>
      </trkpt>
      <trkpt lat="59.209303" lon="18.143884">
        <ele>52</ele>
        <time>2019-11-26T16:08:15Z</time>
      </trkpt>
      <trkpt lat="59.209339" lon="18.143973">
        <ele>52</ele>
        <time>2019-11-26T16:08:16Z</time>
      </trkpt>
      <trkpt lat="59.209375" lon="18.144062">
        <ele>52</ele>
        <time>2019-11-26T16:08:17Z</time>
      </trkpt>
      <trkpt lat="59.209409" lon="18.144152">
        <ele>52</ele>
        <time>2019-11-26T16:08:18Z</time>
      </trkpt>
      <trkpt lat="59.209441" lon="18.144242">
        <ele>52</ele>
        <time>2019-11-26T16:08:20Z</time>
      </trkpt>
      <trkpt lat="59.209467" lon="18.144335">
        <ele>52</ele>
        <time>2019-11-26T16:08:21Z</time>
      </trkpt>
      <trkpt lat="59.209489" lon="18.14443">
        <ele>52</ele>
        <time>2019-11-26T16:08:21Z</time>
      </trkpt>
      <trkpt lat="59.209504" lon="18.144527">
        <ele>52</ele>
        <time>2019-11-26T16:08:22Z</time>
      </trkpt>
      <trkpt lat="59.209508" lon="18.144621">
        <ele>52</ele>
        <time>2019-11-26T16:08:23Z</time>
      </trkpt>
      <trkpt lat="59.209513" lon="18.144708">
        <ele>52</ele>
        <time>2019-11-26T16:08:24Z</time>
      </trkpt>
      <trkpt lat="59.209533" lon="18.144784">
        <ele>51</ele>
        <time>2019-11-26T16:08:25Z</time>
      </trkpt>
      <trkpt lat="59.209565" lon="18.144851">
        <ele>51</ele>
        <time>2019-11-26T16:08:26Z</time>
      </trkpt>
      <trkpt lat="59.209604" lon="18.14491">
        <ele>52</ele>
        <time>2019-11-26T16:08:27Z</time>
      </trkpt>
      <trkpt lat="59.20965" lon="18.144953">
        <ele>51</ele>
        <time>2019-11-26T16:08:28Z</time>
      </trkpt>
      <trkpt lat="59.209697" lon="18.144993">
        <ele>51</ele>
        <time>2019-11-26T16:08:30Z</time>
      </trkpt>
      <trkpt lat="59.209742" lon="18.145042">
        <ele>51</ele>
        <time>2019-11-26T16:08:30Z</time>
      </trkpt>
      <trkpt lat="59.209786" lon="18.145097">
        <ele>51</ele>
        <time>2019-11-26T16:08:31Z</time>
      </trkpt>
      <trkpt lat="59.20983" lon="18.145161">
        <ele>51</ele>
        <time>2019-11-26T16:08:32Z</time>
      </trkpt>
      <trkpt lat="59.20987" lon="18.145236">
        <ele>51</ele>
        <time>2019-11-26T16:08:33Z</time>
      </trkpt>
      <trkpt lat="59.209906" lon="18.14532">
        <ele>51</ele>
        <time>2019-11-26T16:08:34Z</time>
      </trkpt>
      <trkpt lat="59.209942" lon="18.145407">
        <ele>51</ele>
        <time>2019-11-26T16:08:35Z</time>
      </trkpt>
      <trkpt lat="59.209977" lon="18.145497">
        <ele>51</ele>
        <time>2019-11-26T16:08:36Z</time>
      </trkpt>
      <trkpt lat="59.21001" lon="18.14559">
        <ele>51</ele>
        <time>2019-11-26T16:08:37Z</time>
      </trkpt>
      <trkpt lat="59.210044" lon="18.145684">
        <ele>51</ele>
        <time>2019-11-26T16:08:39Z</time>
      </trkpt>
      <trkpt lat="59.210084" lon="18.145775">
        <ele>51</ele>
        <time>2019-11-26T16:08:40Z</time>
      </trkpt>
      <trkpt lat="59.210131" lon="18.145852">
        <ele>51</ele>
        <time>2019-11-26T16:08:40Z</time>
      </trkpt>
      <trkpt lat="59.210186" lon="18.145914">
        <ele>51</ele>
        <time>2019-11-26T16:08:41Z</time>
      </trkpt>
      <trkpt lat="59.210245" lon="18.145967">
        <ele>51</ele>
        <time>2019-11-26T16:08:42Z</time>
      </trkpt>
      <trkpt lat="59.21031" lon="18.14602">
        <ele>51</ele>
        <time>2019-11-26T16:08:43Z</time>
      </trkpt>
      <trkpt lat="59.210374" lon="18.146082">
        <ele>50</ele>
        <time>2019-11-26T16:08:44Z</time>
      </trkpt>
      <trkpt lat="59.210439" lon="18.146153">
        <ele>50</ele>
        <time>2019-11-26T16:08:46Z</time>
      </trkpt>
      <trkpt lat="59.210507" lon="18.146229">
        <ele>50</ele>
        <time>2019-11-26T16:08:46Z</time>
      </trkpt>
      <trkpt lat="59.210576" lon="18.146305">
        <ele>50</ele>
        <time>2019-11-26T16:08:47Z</time>
      </trkpt>
      <trkpt lat="59.210646" lon="18.146384">
        <ele>50</ele>
        <time>2019-11-26T16:08:48Z</time>
      </trkpt>
      <trkpt lat="59.210718" lon="18.146463">
        <ele>50</ele>
        <time>2019-11-26T16:08:49Z</time>
      </trkpt>
      <trkpt lat="59.210793" lon="18.146543">
        <ele>50</ele>
        <time>2019-11-26T16:08:50Z</time>
      </trkpt>
      <trkpt lat="59.210869" lon="18.14662">
        <ele>50</ele>
        <time>2019-11-26T16:08:52Z</time>
      </trkpt>
      <trkpt lat="59.210946" lon="18.146695">
        <ele>50</ele>
        <time>2019-11-26T16:08:52Z</time>
      </trkpt>
      <trkpt lat="59.211025" lon="18.146767">
        <ele>50</ele>
        <time>2019-11-26T16:08:53Z</time>
      </trkpt>
      <trkpt lat="59.211109" lon="18.146833">
        <ele>50</ele>
        <time>2019-11-26T16:08:54Z</time>
      </trkpt>
      <trkpt lat="59.211195" lon="18.146892">
        <ele>50</ele>
        <time>2019-11-26T16:08:55Z</time>
      </trkpt>
      <trkpt lat="59.211283" lon="18.146945">
        <ele>50</ele>
        <time>2019-11-26T16:08:56Z</time>
      </trkpt>
      <trkpt lat="59.211373" lon="18.146995">
        <ele>50</ele>
        <time>2019-11-26T16:08:58Z</time>
      </trkpt>
      <trkpt lat="59.211465" lon="18.147042">
        <ele>50</ele>
        <time>2019-11-26T16:08:59Z</time>
      </trkpt>
      <trkpt lat="59.211557" lon="18.147083">
        <ele>50</ele>
        <time>2019-11-26T16:08:59Z</time>
      </trkpt>
      <trkpt lat="59.211652" lon="18.147121">
        <ele>50</ele>
        <time>2019-11-26T16:09:00Z</time>
      </trkpt>
      <trkpt lat="59.211748" lon="18.147153">
        <ele>50</ele>
        <time>2019-11-26T16:09:01Z</time>
      </trkpt>
      <trkpt lat="59.211846" lon="18.147177">
        <ele>50</ele>
        <time>2019-11-26T16:09:03Z</time>
      </trkpt>
      <trkpt lat="59.211946" lon="18.147191">
        <ele>49</ele>
        <time>2019-11-26T16:09:03Z</time>
      </trkpt>
      <trkpt lat="59.212047" lon="18.147201">
        <ele>48</ele>
        <time>2019-11-26T16:09:04Z</time>
      </trkpt>
      <trkpt lat="59.212151" lon="18.147212">
        <ele>48</ele>
        <time>2019-11-26T16:09:05Z</time>
      </trkpt>
      <trkpt lat="59.212255" lon="18.147217">
        <ele>47</ele>
        <time>2019-11-26T16:09:06Z</time>
      </trkpt>
      <trkpt lat="59.212361" lon="18.147213">
        <ele>46</ele>
        <time>2019-11-26T16:09:08Z</time>
      </trkpt>
      <trkpt lat="59.212468" lon="18.147202">
        <ele>44</ele>
        <time>2019-11-26T16:09:08Z</time>
      </trkpt>
      <trkpt lat="59.212578" lon="18.147188">
        <ele>43</ele>
        <time>2019-11-26T16:09:09Z</time>
      </trkpt>
      <trkpt lat="59.212687" lon="18.147167">
        <ele>42</ele>
        <time>2019-11-26T16:09:10Z</time>
      </trkpt>
      <trkpt lat="59.212798" lon="18.147139">
        <ele>40</ele>
        <time>2019-11-26T16:09:12Z</time>
      </trkpt>
      <trkpt lat="59.21291" lon="18.147106">
        <ele>39</ele>
        <time>2019-11-26T16:09:12Z</time>
      </trkpt>
      <trkpt lat="59.213019" lon="18.147069">
        <ele>38</ele>
        <time>2019-11-26T16:09:13Z</time>
      </trkpt>
      <trkpt lat="59.213126" lon="18.147026">
        <ele>37</ele>
        <time>2019-11-26T16:09:14Z</time>
      </trkpt>
      <trkpt lat="59.213231" lon="18.146975">
        <ele>37</ele>
        <time>2019-11-26T16:09:15Z</time>
      </trkpt>
      <trkpt lat="59.213335" lon="18.146915">
        <ele>36</ele>
        <time>2019-11-26T16:09:17Z</time>
      </trkpt>
      <trkpt lat="59.213437" lon="18.146848">
        <ele>35</ele>
        <time>2019-11-26T16:09:18Z</time>
      </trkpt>
      <trkpt lat="59.213538" lon="18.146775">
        <ele>35</ele>
        <time>2019-11-26T16:09:18Z</time>
      </trkpt>
      <trkpt lat="59.213636" lon="18.146697">
        <ele>35</ele>
        <time>2019-11-26T16:09:19Z</time>
      </trkpt>
      <trkpt lat="59.213732" lon="18.146611">
        <ele>34</ele>
        <time>2019-11-26T16:09:21Z</time>
      </trkpt>
      <trkpt lat="59.213823" lon="18.146517">
        <ele>34</ele>
        <time>2019-11-26T16:09:21Z</time>
      </trkpt>
      <trkpt lat="59.21391" lon="18.146418">
        <ele>34</ele>
        <time>2019-11-26T16:09:22Z</time>
      </trkpt>
      <trkpt lat="59.213996" lon="18.146317">
        <ele>34</ele>
        <time>2019-11-26T16:09:23Z</time>
      </trkpt>
      <trkpt lat="59.21408" lon="18.146214">
        <ele>33</ele>
        <time>2019-11-26T16:09:24Z</time>
      </trkpt>
      <trkpt lat="59.214162" lon="18.14611">
        <ele>33</ele>
        <time>2019-11-26T16:09:26Z</time>
      </trkpt>
      <trkpt lat="59.214245" lon="18.146005">
        <ele>33</ele>
        <time>2019-11-26T16:09:26Z</time>
      </trkpt>
      <trkpt lat="59.214328" lon="18.145904">
        <ele>33</ele>
        <time>2019-11-26T16:09:27Z</time>
      </trkpt>
      <trkpt lat="59.214412" lon="18.14581">
        <ele>32</ele>
        <time>2019-11-26T16:09:28Z</time>
      </trkpt>
      <trkpt lat="59.214497" lon="18.14572">
        <ele>32</ele>
        <time>2019-11-26T16:09:29Z</time>
      </trkpt>
      <trkpt lat="59.21458" lon="18.145629">
        <ele>32</ele>
        <time>2019-11-26T16:09:30Z</time>
      </trkpt>
      <trkpt lat="59.214661" lon="18.145534">
        <ele>32</ele>
        <time>2019-11-26T16:09:32Z</time>
      </trkpt>
      <trkpt lat="59.214741" lon="18.145439">
        <ele>32</ele>
        <time>2019-11-26T16:09:32Z</time>
      </trkpt>
      <trkpt lat="59.214821" lon="18.145344">
        <ele>32</ele>
        <time>2019-11-26T16:09:33Z</time>
      </trkpt>
      <trkpt lat="59.214898" lon="18.145248">
        <ele>32</ele>
        <time>2019-11-26T16:09:34Z</time>
      </trkpt>
      <trkpt lat="59.214975" lon="18.145154">
        <ele>32</ele>
        <time>2019-11-26T16:09:35Z</time>
      </trkpt>
      <trkpt lat="59.215052" lon="18.145062">
        <ele>0</ele>
        <time>2019-11-26T16:09:36Z</time>
      </trkpt>
      <trkpt lat="59.215127" lon="18.14497">
        <ele>32</ele>
        <time>2019-11-26T16:09:37Z</time>
      </trkpt>
      <trkpt lat="59.215201" lon="18.144875">
        <ele>31</ele>
        <time>2019-11-26T16:09:38Z</time>
      </trkpt>
      <trkpt lat="59.215275" lon="18.144777">
        <ele>31</ele>
        <time>2019-11-26T16:09:39Z</time>
      </trkpt>
      <trkpt lat="59.215349" lon="18.144681">
        <ele>31</ele>
        <time>2019-11-26T16:09:40Z</time>
      </trkpt>
      <trkpt lat="59.215423" lon="18.144585">
        <ele>31</ele>
        <time>2019-11-26T16:09:41Z</time>
      </trkpt>
      <trkpt lat="59.215498" lon="18.144494">
        <ele>31</ele>
        <time>2019-11-26T16:09:43Z</time>
      </trkpt>
      <trkpt lat="59.215573" lon="18.144404">
        <ele>31</ele>
        <time>2019-11-26T16:09:43Z</time>
      </trkpt>
      <trkpt lat="59.21565" lon="18.144316">
        <ele>31</ele>
        <time>2019-11-26T16:09:44Z</time>
      </trkpt>
      <trkpt lat="59.215726" lon="18.14423">
        <ele>31</ele>
        <time>2019-11-26T16:09:45Z</time>
      </trkpt>
      <trkpt lat="59.215801" lon="18.144143">
        <ele>30</ele>
        <time>2019-11-26T16:09:46Z</time>
      </trkpt>
      <trkpt lat="59.215877" lon="18.144053">
        <ele>30</ele>
        <time>2019-11-26T16:09:48Z</time>
      </trkpt>
      <trkpt lat="59.215951" lon="18.143963">
        <ele>30</ele>
        <time>2019-11-26T16:09:48Z</time>
      </trkpt>
      <trkpt lat="59.216027" lon="18.143872">
        <ele>30</ele>
        <time>2019-11-26T16:09:49Z</time>
      </trkpt>
      <trkpt lat="59.216102" lon="18.143784">
        <ele>30</ele>
        <time>2019-11-26T16:09:50Z</time>
      </trkpt>
      <trkpt lat="59.216177" lon="18.143697">
        <ele>30</ele>
        <time>2019-11-26T16:09:51Z</time>
      </trkpt>
      <trkpt lat="59.216252" lon="18.14361">
        <ele>30</ele>
        <time>2019-11-26T16:09:52Z</time>
      </trkpt>
      <trkpt lat="59.216325" lon="18.143521">
        <ele>29</ele>
        <time>2019-11-26T16:09:54Z</time>
      </trkpt>
      <trkpt lat="59.216397" lon="18.143435">
        <ele>29</ele>
        <time>2019-11-26T16:09:54Z</time>
      </trkpt>
      <trkpt lat="59.216469" lon="18.143351">
        <ele>29</ele>
        <time>2019-11-26T16:09:56Z</time>
      </trkpt>
      <trkpt lat="59.21654" lon="18.143269">
        <ele>30</ele>
        <time>2019-11-26T16:09:56Z</time>
      </trkpt>
      <trkpt lat="59.216611" lon="18.143187">
        <ele>30</ele>
        <time>2019-11-26T16:09:57Z</time>
      </trkpt>
      <trkpt lat="59.21668" lon="18.143104">
        <ele>29</ele>
        <time>2019-11-26T16:09:58Z</time>
      </trkpt>
      <trkpt lat="59.216748" lon="18.143025">
        <ele>29</ele>
        <time>2019-11-26T16:10:00Z</time>
      </trkpt>
      <trkpt lat="59.216815" lon="18.142952">
        <ele>29</ele>
        <time>2019-11-26T16:10:00Z</time>
      </trkpt>
      <trkpt lat="59.21688" lon="18.142879">
        <ele>29</ele>
        <time>2019-11-26T16:10:01Z</time>
      </trkpt>
      <trkpt lat="59.216944" lon="18.142807">
        <ele>28</ele>
        <time>2019-11-26T16:10:02Z</time>
      </trkpt>
      <trkpt lat="59.217006" lon="18.142738">
        <ele>28</ele>
        <time>2019-11-26T16:10:03Z</time>
      </trkpt>
      <trkpt lat="59.217067" lon="18.142669">
        <ele>28</ele>
        <time>2019-11-26T16:10:04Z</time>
      </trkpt>
      <trkpt lat="59.217128" lon="18.142602">
        <ele>28</ele>
        <time>2019-11-26T16:10:05Z</time>
      </trkpt>
      <trkpt lat="59.217188" lon="18.142533">
        <ele>28</ele>
        <time>2019-11-26T16:10:07Z</time>
      </trkpt>
      <trkpt lat="59.217248" lon="18.142466">
        <ele>28</ele>
        <time>2019-11-26T16:10:07Z</time>
      </trkpt>
      <trkpt lat="59.217307" lon="18.142399">
        <ele>28</ele>
        <time>2019-11-26T16:10:08Z</time>
      </trkpt>
      <trkpt lat="59.217366" lon="18.142332">
        <ele>28</ele>
        <time>2019-11-26T16:10:09Z</time>
      </trkpt>
      <trkpt lat="59.217425" lon="18.142268">
        <ele>28</ele>
        <time>2019-11-26T16:10:10Z</time>
      </trkpt>
      <trkpt lat="59.217483" lon="18.142202">
        <ele>28</ele>
        <time>2019-11-26T16:10:11Z</time>
      </trkpt>
      <trkpt lat="59.217541" lon="18.142137">
        <ele>28</ele>
        <time>2019-11-26T16:10:12Z</time>
      </trkpt>
      <trkpt lat="59.217599" lon="18.142073">
        <ele>28</ele>
        <time>2019-11-26T16:10:13Z</time>
      </trkpt>
      <trkpt lat="59.217657" lon="18.142009">
        <ele>0</ele>
        <time>2019-11-26T16:10:14Z</time>
      </trkpt>
      <trkpt lat="59.217715" lon="18.141946">
        <ele>28</ele>
        <time>2019-11-26T16:10:15Z</time>
      </trkpt>
      <trkpt lat="59.217773" lon="18.141887">
        <ele>27</ele>
        <time>2019-11-26T16:10:16Z</time>
      </trkpt>
      <trkpt lat="59.21783" lon="18.141827">
        <ele>27</ele>
        <time>2019-11-26T16:10:17Z</time>
      </trkpt>
      <trkpt lat="59.217886" lon="18.141764">
        <ele>27</ele>
        <time>2019-11-26T16:10:18Z</time>
      </trkpt>
      <trkpt lat="59.21794" lon="18.141701">
        <ele>27</ele>
        <time>2019-11-26T16:10:19Z</time>
      </trkpt>
      <trkpt lat="59.217996" lon="18.141637">
        <ele>27</ele>
        <time>2019-11-26T16:10:20Z</time>
      </trkpt>
      <trkpt lat="59.218051" lon="18.141573">
        <ele>27</ele>
        <time>2019-11-26T16:10:22Z</time>
      </trkpt>
      <trkpt lat="59.218107" lon="18.141514">
        <ele>26</ele>
        <time>2019-11-26T16:10:22Z</time>
      </trkpt>
      <trkpt lat="59.218162" lon="18.141474">
        <ele>26</ele>
        <time>2019-11-26T16:10:23Z</time>
      </trkpt>
      <trkpt lat="59.218212" lon="18.14147">
        <ele>26</ele>
        <time>2019-11-26T16:10:24Z</time>
      </trkpt>
      <trkpt lat="59.218256" lon="18.141501">
        <ele>26</ele>
        <time>2019-11-26T16:10:25Z</time>
      </trkpt>
      <trkpt lat="59.218295" lon="18.141552">
        <ele>26</ele>
        <time>2019-11-26T16:10:26Z</time>
      </trkpt>
      <trkpt lat="59.218334" lon="18.141597">
        <ele>26</ele>
        <time>2019-11-26T16:10:27Z</time>
      </trkpt>
      <trkpt lat="59.218374" lon="18.141615">
        <ele>26</ele>
        <time>2019-11-26T16:10:28Z</time>
      </trkpt>
      <trkpt lat="59.21841" lon="18.141606">
        <ele>26</ele>
        <time>2019-11-26T16:10:29Z</time>
      </trkpt>
      <trkpt lat="59.21844" lon="18.141598">
        <ele>26</ele>
        <time>2019-11-26T16:10:30Z</time>
      </trkpt>
      <trkpt lat="59.21847" lon="18.141602">
        <ele>26</ele>
        <time>2019-11-26T16:10:31Z</time>
      </trkpt>
      <trkpt lat="59.218497" lon="18.141592">
        <ele>26</ele>
        <time>2019-11-26T16:10:32Z</time>
      </trkpt>
      <trkpt lat="59.218531" lon="18.141565">
        <ele>26</ele>
        <time>2019-11-26T16:10:34Z</time>
      </trkpt>
      <trkpt lat="59.218569" lon="18.141541">
        <ele>25</ele>
        <time>2019-11-26T16:10:35Z</time>
      </trkpt>
      <trkpt lat="59.218605" lon="18.141499">
        <ele>25</ele>
        <time>2019-11-26T16:10:35Z</time>
      </trkpt>
      <trkpt lat="59.218627" lon="18.141422">
        <ele>25</ele>
        <time>2019-11-26T16:10:36Z</time>
      </trkpt>
      <trkpt lat="59.218634" lon="18.141327">
        <ele>25</ele>
        <time>2019-11-26T16:10:37Z</time>
      </trkpt>
      <trkpt lat="59.218643" lon="18.141222">
        <ele>25</ele>
        <time>2019-11-26T16:10:38Z</time>
      </trkpt>
      <trkpt lat="59.218654" lon="18.141115">
        <ele>25</ele>
        <time>2019-11-26T16:10:39Z</time>
      </trkpt>
      <trkpt lat="59.218667" lon="18.141008">
        <ele>25</ele>
        <time>2019-11-26T16:10:40Z</time>
      </trkpt>
      <trkpt lat="59.218687" lon="18.140907">
        <ele>25</ele>
        <time>2019-11-26T16:10:41Z</time>
      </trkpt>
      <trkpt lat="59.218717" lon="18.140814">
        <ele>25</ele>
        <time>2019-11-26T16:10:43Z</time>
      </trkpt>
      <trkpt lat="59.218753" lon="18.140729">
        <ele>25</ele>
        <time>2019-11-26T16:10:44Z</time>
      </trkpt>
      <trkpt lat="59.218797" lon="18.140651">
        <ele>25</ele>
        <time>2019-11-26T16:10:44Z</time>
      </trkpt>
      <trkpt lat="59.218847" lon="18.140584">
        <ele>25</ele>
        <time>2019-11-26T16:10:45Z</time>
      </trkpt>
      <trkpt lat="59.2189" lon="18.140527">
        <ele>25</ele>
        <time>2019-11-26T16:10:46Z</time>
      </trkpt>
      <trkpt lat="59.218956" lon="18.140468">
        <ele>25</ele>
        <time>2019-11-26T16:10:47Z</time>
      </trkpt>
      <trkpt lat="59.219012" lon="18.140406">
        <ele>25</ele>
        <time>2019-11-26T16:10:48Z</time>
      </trkpt>
      <trkpt lat="59.219066" lon="18.140342">
        <ele>25</ele>
        <time>2019-11-26T16:10:49Z</time>
      </trkpt>
      <trkpt lat="59.21912" lon="18.140278">
        <ele>25</ele>
        <time>2019-11-26T16:10:50Z</time>
      </trkpt>
      <trkpt lat="59.219173" lon="18.140214">
        <ele>25</ele>
        <time>2019-11-26T16:10:52Z</time>
      </trkpt>
      <trkpt lat="59.219227" lon="18.140151">
        <ele>25</ele>
        <time>2019-11-26T16:10:53Z</time>
      </trkpt>
      <trkpt lat="59.219281" lon="18.140087">
        <ele>24</ele>
        <time>2019-11-26T16:10:53Z</time>
      </trkpt>
      <trkpt lat="59.219334" lon="18.140023">
        <ele>24</ele>
        <time>2019-11-26T16:10:54Z</time>
      </trkpt>
      <trkpt lat="59.219388" lon="18.13996">
        <ele>25</ele>
        <time>2019-11-26T16:10:55Z</time>
      </trkpt>
      <trkpt lat="59.219441" lon="18.139896">
        <ele>24</ele>
        <time>2019-11-26T16:10:56Z</time>
      </trkpt>
      <trkpt lat="59.219495" lon="18.139833">
        <ele>24</ele>
        <time>2019-11-26T16:10:57Z</time>
      </trkpt>
      <trkpt lat="59.219549" lon="18.139772">
        <ele>24</ele>
        <time>2019-11-26T16:10:58Z</time>
      </trkpt>
      <trkpt lat="59.219603" lon="18.13971">
        <ele>24</ele>
        <time>2019-11-26T16:11:00Z</time>
      </trkpt>
      <trkpt lat="59.219656" lon="18.139649">
        <ele>25</ele>
        <time>2019-11-26T16:11:00Z</time>
      </trkpt>
      <trkpt lat="59.219708" lon="18.139589">
        <ele>25</ele>
        <time>2019-11-26T16:11:01Z</time>
      </trkpt>
      <trkpt lat="59.219754" lon="18.139531">
        <ele>25</ele>
        <time>2019-11-26T16:11:02Z</time>
      </trkpt>
      <trkpt lat="59.219796" lon="18.139471">
        <ele>25</ele>
        <time>2019-11-26T16:11:03Z</time>
      </trkpt>
      <trkpt lat="59.219848" lon="18.139405">
        <ele>25</ele>
        <time>2019-11-26T16:11:04Z</time>
      </trkpt>
      <trkpt lat="59.219894" lon="18.139347">
        <ele>25</ele>
        <time>2019-11-26T16:11:05Z</time>
      </trkpt>
      <trkpt lat="59.219936" lon="18.139295">
        <ele>25</ele>
        <time>2019-11-26T16:11:06Z</time>
      </trkpt>
      <trkpt lat="59.219985" lon="18.139237">
        <ele>26</ele>
        <time>2019-11-26T16:11:07Z</time>
      </trkpt>
      <trkpt lat="59.220034" lon="18.139174">
        <ele>26</ele>
        <time>2019-11-26T16:11:09Z</time>
      </trkpt>
      <trkpt lat="59.220079" lon="18.139114">
        <ele>26</ele>
        <time>2019-11-26T16:11:09Z</time>
      </trkpt>
      <trkpt lat="59.220123" lon="18.13906">
        <ele>26</ele>
        <time>2019-11-26T16:11:10Z</time>
      </trkpt>
      <trkpt lat="59.220166" lon="18.139008">
        <ele>26</ele>
        <time>2019-11-26T16:11:12Z</time>
      </trkpt>
      <trkpt lat="59.220208" lon="18.138955">
        <ele>27</ele>
        <time>2019-11-26T16:11:12Z</time>
      </trkpt>
      <trkpt lat="59.22025" lon="18.138906">
        <ele>27</ele>
        <time>2019-11-26T16:11:13Z</time>
      </trkpt>
      <trkpt lat="59.220294" lon="18.138861">
        <ele>27</ele>
        <time>2019-11-26T16:11:14Z</time>
      </trkpt>
      <trkpt lat="59.220338" lon="18.138818">
        <ele>27</ele>
        <time>2019-11-26T16:11:15Z</time>
      </trkpt>
      <trkpt lat="59.220383" lon="18.138781">
        <ele>27</ele>
        <time>2019-11-26T16:11:16Z</time>
      </trkpt>
      <trkpt lat="59.220428" lon="18.138749">
        <ele>27</ele>
        <time>2019-11-26T16:11:17Z</time>
      </trkpt>
      <trkpt lat="59.220471" lon="18.138719">
        <ele>28</ele>
        <time>2019-11-26T16:11:19Z</time>
      </trkpt>
      <trkpt lat="59.220513" lon="18.138692">
        <ele>28</ele>
        <time>2019-11-26T16:11:19Z</time>
      </trkpt>
      <trkpt lat="59.220554" lon="18.138667">
        <ele>28</ele>
        <time>2019-11-26T16:11:20Z</time>
      </trkpt>
      <trkpt lat="59.220594" lon="18.13864">
        <ele>28</ele>
        <time>2019-11-26T16:11:21Z</time>
      </trkpt>
      <trkpt lat="59.220635" lon="18.138616">
        <ele>28</ele>
        <time>2019-11-26T16:11:22Z</time>
      </trkpt>
      <trkpt lat="59.220675" lon="18.138595">
        <ele>28</ele>
        <time>2019-11-26T16:11:23Z</time>
      </trkpt>
      <trkpt lat="59.220716" lon="18.138574">
        <ele>28</ele>
        <time>2019-11-26T16:11:24Z</time>
      </trkpt>
      <trkpt lat="59.220758" lon="18.138556">
        <ele>28</ele>
        <time>2019-11-26T16:11:25Z</time>
      </trkpt>
      <trkpt lat="59.2208" lon="18.138538">
        <ele>28</ele>
        <time>2019-11-26T16:11:26Z</time>
      </trkpt>
      <trkpt lat="59.220844" lon="18.138518">
        <ele>28</ele>
        <time>2019-11-26T16:11:27Z</time>
      </trkpt>
      <trkpt lat="59.220887" lon="18.1385">
        <ele>28</ele>
        <time>2019-11-26T16:11:28Z</time>
      </trkpt>
      <trkpt lat="59.22093" lon="18.138481">
        <ele>28</ele>
        <time>2019-11-26T16:11:29Z</time>
      </trkpt>
      <trkpt lat="59.220973" lon="18.138461">
        <ele>0</ele>
        <time>2019-11-26T16:11:30Z</time>
      </trkpt>
      <trkpt lat="59.221016" lon="18.138444">
        <ele>29</ele>
        <time>2019-11-26T16:11:31Z</time>
      </trkpt>
      <trkpt lat="59.221061" lon="18.138428">
        <ele>29</ele>
        <time>2019-11-26T16:11:32Z</time>
      </trkpt>
      <trkpt lat="59.221106" lon="18.138411">
        <ele>29</ele>
        <time>2019-11-26T16:11:33Z</time>
      </trkpt>
      <trkpt lat="59.221153" lon="18.138392">
        <ele>29</ele>
        <time>2019-11-26T16:11:34Z</time>
      </trkpt>
      <trkpt lat="59.2212" lon="18.138373">
        <ele>29</ele>
        <time>2019-11-26T16:11:35Z</time>
      </trkpt>
      <trkpt lat="59.221247" lon="18.138352">
        <ele>29</ele>
        <time>2019-11-26T16:11:36Z</time>
      </trkpt>
      <trkpt lat="59.221295" lon="18.13833">
        <ele>29</ele>
        <time>2019-11-26T16:11:37Z</time>
      </trkpt>
      <trkpt lat="59.221344" lon="18.138309">
        <ele>30</ele>
        <time>2019-11-26T16:11:38Z</time>
      </trkpt>
      <trkpt lat="59.221393" lon="18.138289">
        <ele>30</ele>
        <time>2019-11-26T16:11:39Z</time>
      </trkpt>
      <trkpt lat="59.221442" lon="18.138269">
        <ele>30</ele>
        <time>2019-11-26T16:11:41Z</time>
      </trkpt>
      <trkpt lat="59.221492" lon="18.138247">
        <ele>30</ele>
        <time>2019-11-26T16:11:41Z</time>
      </trkpt>
      <trkpt lat="59.221541" lon="18.138227">
        <ele>30</ele>
        <time>2019-11-26T16:11:42Z</time>
      </trkpt>
      <trkpt lat="59.22159" lon="18.13821">
        <ele>30</ele>
        <time>2019-11-26T16:11:43Z</time>
      </trkpt>
      <trkpt lat="59.22164" lon="18.138191">
        <ele>30</ele>
        <time>2019-11-26T16:11:44Z</time>
      </trkpt>
      <trkpt lat="59.221689" lon="18.13817">
        <ele>30</ele>
        <time>2019-11-26T16:11:45Z</time>
      </trkpt>
      <trkpt lat="59.22174" lon="18.138149">
        <ele>31</ele>
        <time>2019-11-26T16:11:46Z</time>
      </trkpt>
      <trkpt lat="59.221793" lon="18.138129">
        <ele>31</ele>
        <time>2019-11-26T16:11:47Z</time>
      </trkpt>
      <trkpt lat="59.221847" lon="18.138108">
        <ele>31</ele>
        <time>2019-11-26T16:11:48Z</time>
      </trkpt>
      <trkpt lat="59.2219" lon="18.138085">
        <ele>0</ele>
        <time>2019-11-26T16:11:49Z</time>
      </trkpt>
      <trkpt lat="59.221955" lon="18.13806">
        <ele>31</ele>
        <time>2019-11-26T16:11:50Z</time>
      </trkpt>
      <trkpt lat="59.222011" lon="18.138035">
        <ele>31</ele>
        <time>2019-11-26T16:11:51Z</time>
      </trkpt>
      <trkpt lat="59.222066" lon="18.138012">
        <ele>31</ele>
        <time>2019-11-26T16:11:52Z</time>
      </trkpt>
      <trkpt lat="59.222122" lon="18.137986">
        <ele>31</ele>
        <time>2019-11-26T16:11:53Z</time>
      </trkpt>
      <trkpt lat="59.22218" lon="18.137955">
        <ele>31</ele>
        <time>2019-11-26T16:11:54Z</time>
      </trkpt>
      <trkpt lat="59.222239" lon="18.137924">
        <ele>31</ele>
        <time>2019-11-26T16:11:55Z</time>
      </trkpt>
      <trkpt lat="59.222294" lon="18.137894">
        <ele>31</ele>
        <time>2019-11-26T16:11:56Z</time>
      </trkpt>
      <trkpt lat="59.222348" lon="18.137863">
        <ele>31</ele>
        <time>2019-11-26T16:11:57Z</time>
      </trkpt>
      <trkpt lat="59.22241" lon="18.13783">
        <ele>31</ele>
        <time>2019-11-26T16:11:59Z</time>
      </trkpt>
      <trkpt lat="59.222473" lon="18.137793">
        <ele>31</ele>
        <time>2019-11-26T16:11:59Z</time>
      </trkpt>
      <trkpt lat="59.22254" lon="18.137754">
        <ele>31</ele>
        <time>2019-11-26T16:12:00Z</time>
      </trkpt>
      <trkpt lat="59.222605" lon="18.137712">
        <ele>31</ele>
        <time>2019-11-26T16:12:01Z</time>
      </trkpt>
      <trkpt lat="59.222667" lon="18.137668">
        <ele>31</ele>
        <time>2019-11-26T16:12:02Z</time>
      </trkpt>
      <trkpt lat="59.222727" lon="18.137618">
        <ele>31</ele>
        <time>2019-11-26T16:12:03Z</time>
      </trkpt>
      <trkpt lat="59.222787" lon="18.137568">
        <ele>31</ele>
        <time>2019-11-26T16:12:04Z</time>
      </trkpt>
      <trkpt lat="59.222847" lon="18.137514">
        <ele>31</ele>
        <time>2019-11-26T16:12:06Z</time>
      </trkpt>
      <trkpt lat="59.222906" lon="18.137454">
        <ele>31</ele>
        <time>2019-11-26T16:12:06Z</time>
      </trkpt>
      <trkpt lat="59.222965" lon="18.137396">
        <ele>31</ele>
        <time>2019-11-26T16:12:07Z</time>
      </trkpt>
      <trkpt lat="59.223023" lon="18.137334">
        <ele>31</ele>
        <time>2019-11-26T16:12:09Z</time>
      </trkpt>
      <trkpt lat="59.22308" lon="18.137266">
        <ele>31</ele>
        <time>2019-11-26T16:12:09Z</time>
      </trkpt>
      <trkpt lat="59.223133" lon="18.137196">
        <ele>31</ele>
        <time>2019-11-26T16:12:10Z</time>
      </trkpt>
      <trkpt lat="59.223186" lon="18.13712">
        <ele>31</ele>
        <time>2019-11-26T16:12:11Z</time>
      </trkpt>
      <trkpt lat="59.223239" lon="18.137042">
        <ele>31</ele>
        <time>2019-11-26T16:12:12Z</time>
      </trkpt>
      <trkpt lat="59.223292" lon="18.136962">
        <ele>31</ele>
        <time>2019-11-26T16:12:14Z</time>
      </trkpt>
      <trkpt lat="59.223344" lon="18.136882">
        <ele>31</ele>
        <time>2019-11-26T16:12:14Z</time>
      </trkpt>
      <trkpt lat="59.223397" lon="18.1368">
        <ele>31</ele>
        <time>2019-11-26T16:12:15Z</time>
      </trkpt>
      <trkpt lat="59.223447" lon="18.136712">
        <ele>31</ele>
        <time>2019-11-26T16:12:16Z</time>
      </trkpt>
      <trkpt lat="59.223495" lon="18.13662">
        <ele>31</ele>
        <time>2019-11-26T16:12:17Z</time>
      </trkpt>
      <trkpt lat="59.223543" lon="18.13652">
        <ele>31</ele>
        <time>2019-11-26T16:12:18Z</time>
      </trkpt>
      <trkpt lat="59.223591" lon="18.13642">
        <ele>31</ele>
        <time>2019-11-26T16:12:19Z</time>
      </trkpt>
      <trkpt lat="59.223637" lon="18.136318">
        <ele>31</ele>
        <time>2019-11-26T16:12:21Z</time>
      </trkpt>
      <trkpt lat="59.223684" lon="18.136216">
        <ele>31</ele>
        <time>2019-11-26T16:12:21Z</time>
      </trkpt>
      <trkpt lat="59.223729" lon="18.136112">
        <ele>31</ele>
        <time>2019-11-26T16:12:22Z</time>
      </trkpt>
      <trkpt lat="59.22377" lon="18.13601">
        <ele>32</ele>
        <time>2019-11-26T16:12:23Z</time>
      </trkpt>
      <trkpt lat="59.223813" lon="18.135914">
        <ele>32</ele>
        <time>2019-11-26T16:12:24Z</time>
      </trkpt>
      <trkpt lat="59.223856" lon="18.135806">
        <ele>32</ele>
        <time>2019-11-26T16:12:25Z</time>
      </trkpt>
      <trkpt lat="59.223898" lon="18.135696">
        <ele>32</ele>
        <time>2019-11-26T16:12:26Z</time>
      </trkpt>
      <trkpt lat="59.223941" lon="18.135584">
        <ele>0</ele>
        <time>2019-11-26T16:12:27Z</time>
      </trkpt>
      <trkpt lat="59.223984" lon="18.13547">
        <ele>31</ele>
        <time>2019-11-26T16:12:28Z</time>
      </trkpt>
      <trkpt lat="59.224027" lon="18.135358">
        <ele>31</ele>
        <time>2019-11-26T16:12:29Z</time>
      </trkpt>
      <trkpt lat="59.224069" lon="18.135244">
        <ele>31</ele>
        <time>2019-11-26T16:12:30Z</time>
      </trkpt>
      <trkpt lat="59.22411" lon="18.135136">
        <ele>31</ele>
        <time>2019-11-26T16:12:31Z</time>
      </trkpt>
      <trkpt lat="59.224152" lon="18.135029">
        <ele>31</ele>
        <time>2019-11-26T16:12:32Z</time>
      </trkpt>
      <trkpt lat="59.224197" lon="18.134918">
        <ele>31</ele>
        <time>2019-11-26T16:12:33Z</time>
      </trkpt>
      <trkpt lat="59.224241" lon="18.134804">
        <ele>31</ele>
        <time>2019-11-26T16:12:34Z</time>
      </trkpt>
      <trkpt lat="59.224282" lon="18.13469">
        <ele>31</ele>
        <time>2019-11-26T16:12:36Z</time>
      </trkpt>
      <trkpt lat="59.224323" lon="18.134576">
        <ele>31</ele>
        <time>2019-11-26T16:12:36Z</time>
      </trkpt>
      <trkpt lat="59.224365" lon="18.13446">
        <ele>31</ele>
        <time>2019-11-26T16:12:37Z</time>
      </trkpt>
      <trkpt lat="59.224409" lon="18.134348">
        <ele>31</ele>
        <time>2019-11-26T16:12:38Z</time>
      </trkpt>
      <trkpt lat="59.224454" lon="18.134236">
        <ele>31</ele>
        <time>2019-11-26T16:12:39Z</time>
      </trkpt>
      <trkpt lat="59.224497" lon="18.134134">
        <ele>30</ele>
        <time>2019-11-26T16:12:40Z</time>
      </trkpt>
      <trkpt lat="59.22454" lon="18.134032">
        <ele>30</ele>
        <time>2019-11-26T16:12:41Z</time>
      </trkpt>
      <trkpt lat="59.224583" lon="18.133932">
        <ele>30</ele>
        <time>2019-11-26T16:12:43Z</time>
      </trkpt>
      <trkpt lat="59.224624" lon="18.133832">
        <ele>30</ele>
        <time>2019-11-26T16:12:43Z</time>
      </trkpt>
      <trkpt lat="59.224667" lon="18.133736">
        <ele>30</ele>
        <time>2019-11-26T16:12:44Z</time>
      </trkpt>
      <trkpt lat="59.224708" lon="18.133645">
        <ele>30</ele>
        <time>2019-11-26T16:12:45Z</time>
      </trkpt>
      <trkpt lat="59.224749" lon="18.13356">
        <ele>30</ele>
        <time>2019-11-26T16:12:47Z</time>
      </trkpt>
      <trkpt lat="59.224787" lon="18.133482">
        <ele>31</ele>
        <time>2019-11-26T16:12:47Z</time>
      </trkpt>
      <trkpt lat="59.224823" lon="18.133411">
        <ele>31</ele>
        <time>2019-11-26T16:12:48Z</time>
      </trkpt>
      <trkpt lat="59.224857" lon="18.133344">
        <ele>31</ele>
        <time>2019-11-26T16:12:49Z</time>
      </trkpt>
      <trkpt lat="59.22489" lon="18.133278">
        <ele>31</ele>
        <time>2019-11-26T16:12:50Z</time>
      </trkpt>
      <trkpt lat="59.224922" lon="18.133218">
        <ele>31</ele>
        <time>2019-11-26T16:12:52Z</time>
      </trkpt>
      <trkpt lat="59.224954" lon="18.133158">
        <ele>31</ele>
        <time>2019-11-26T16:12:52Z</time>
      </trkpt>
      <trkpt lat="59.224984" lon="18.1331">
        <ele>31</ele>
        <time>2019-11-26T16:12:53Z</time>
      </trkpt>
      <trkpt lat="59.225014" lon="18.133044">
        <ele>32</ele>
        <time>2019-11-26T16:12:54Z</time>
      </trkpt>
      <trkpt lat="59.225045" lon="18.13299">
        <ele>32</ele>
        <time>2019-11-26T16:12:55Z</time>
      </trkpt>
      <trkpt lat="59.225075" lon="18.132936">
        <ele>32</ele>
        <time>2019-11-26T16:12:57Z</time>
      </trkpt>
      <trkpt lat="59.225104" lon="18.132884">
        <ele>32</ele>
        <time>2019-11-26T16:12:57Z</time>
      </trkpt>
      <trkpt lat="59.225131" lon="18.132834">
        <ele>32</ele>
        <time>2019-11-26T16:12:58Z</time>
      </trkpt>
      <trkpt lat="59.225162" lon="18.132786">
        <ele>32</ele>
        <time>2019-11-26T16:12:59Z</time>
      </trkpt>
      <trkpt lat="59.225195" lon="18.132734">
        <ele>33</ele>
        <time>2019-11-26T16:13:00Z</time>
      </trkpt>
      <trkpt lat="59.225229" lon="18.13268">
        <ele>33</ele>
        <time>2019-11-26T16:13:01Z</time>
      </trkpt>
      <trkpt lat="59.225262" lon="18.132625">
        <ele>33</ele>
        <time>2019-11-26T16:13:02Z</time>
      </trkpt>
      <trkpt lat="59.225296" lon="18.132574">
        <ele>33</ele>
        <time>2019-11-26T16:13:04Z</time>
      </trkpt>
      <trkpt lat="59.225329" lon="18.132526">
        <ele>33</ele>
        <time>2019-11-26T16:13:04Z</time>
      </trkpt>
      <trkpt lat="59.225363" lon="18.13248">
        <ele>33</ele>
        <time>2019-11-26T16:13:06Z</time>
      </trkpt>
      <trkpt lat="59.225399" lon="18.132432">
        <ele>33</ele>
        <time>2019-11-26T16:13:06Z</time>
      </trkpt>
      <trkpt lat="59.225433" lon="18.132385">
        <ele>33</ele>
        <time>2019-11-26T16:13:07Z</time>
      </trkpt>
      <trkpt lat="59.225468" lon="18.132337">
        <ele>33</ele>
        <time>2019-11-26T16:13:08Z</time>
      </trkpt>
      <trkpt lat="59.225504" lon="18.132291">
        <ele>33</ele>
        <time>2019-11-26T16:13:09Z</time>
      </trkpt>
      <trkpt lat="59.225539" lon="18.132244">
        <ele>33</ele>
        <time>2019-11-26T16:13:10Z</time>
      </trkpt>
      <trkpt lat="59.225571" lon="18.132193">
        <ele>34</ele>
        <time>2019-11-26T16:13:11Z</time>
      </trkpt>
      <trkpt lat="59.225604" lon="18.132151">
        <ele>34</ele>
        <time>2019-11-26T16:13:13Z</time>
      </trkpt>
      <trkpt lat="59.22563" lon="18.132113">
        <ele>34</ele>
        <time>2019-11-26T16:13:13Z</time>
      </trkpt>
      <trkpt lat="59.225651" lon="18.132071">
        <ele>34</ele>
        <time>2019-11-26T16:13:14Z</time>
      </trkpt>
      <trkpt lat="59.225682" lon="18.132024">
        <ele>34</ele>
        <time>2019-11-26T16:13:16Z</time>
      </trkpt>
      <trkpt lat="59.225711" lon="18.131984">
        <ele>34</ele>
        <time>2019-11-26T16:13:16Z</time>
      </trkpt>
      <trkpt lat="59.225741" lon="18.13195">
        <ele>34</ele>
        <time>2019-11-26T16:13:17Z</time>
      </trkpt>
      <trkpt lat="59.225768" lon="18.131908">
        <ele>35</ele>
        <time>2019-11-26T16:13:18Z</time>
      </trkpt>
      <trkpt lat="59.225784" lon="18.131851">
        <ele>35</ele>
        <time>2019-11-26T16:13:19Z</time>
      </trkpt>
      <trkpt lat="59.225782" lon="18.13178">
        <ele>35</ele>
        <time>2019-11-26T16:13:20Z</time>
      </trkpt>
      <trkpt lat="59.225772" lon="18.131708">
        <ele>35</ele>
        <time>2019-11-26T16:13:21Z</time>
      </trkpt>
      <trkpt lat="59.225766" lon="18.131632">
        <ele>35</ele>
        <time>2019-11-26T16:13:22Z</time>
      </trkpt>
      <trkpt lat="59.225775" lon="18.131557">
        <ele>35</ele>
        <time>2019-11-26T16:13:23Z</time>
      </trkpt>
      <trkpt lat="59.225798" lon="18.131486">
        <ele>35</ele>
        <time>2019-11-26T16:13:25Z</time>
      </trkpt>
      <trkpt lat="59.225826" lon="18.131424">
        <ele>35</ele>
        <time>2019-11-26T16:13:25Z</time>
      </trkpt>
      <trkpt lat="59.225862" lon="18.131367">
        <ele>35</ele>
        <time>2019-11-26T16:13:26Z</time>
      </trkpt>
      <trkpt lat="59.225897" lon="18.131314">
        <ele>35</ele>
        <time>2019-11-26T16:13:27Z</time>
      </trkpt>
      <trkpt lat="59.225935" lon="18.131264">
        <ele>35</ele>
        <time>2019-11-26T16:13:29Z</time>
      </trkpt>
      <trkpt lat="59.225971" lon="18.131214">
        <ele>35</ele>
        <time>2019-11-26T16:13:29Z</time>
      </trkpt>
      <trkpt lat="59.226006" lon="18.131166">
        <ele>35</ele>
        <time>2019-11-26T16:13:30Z</time>
      </trkpt>
      <trkpt lat="59.22604" lon="18.131118">
        <ele>35</ele>
        <time>2019-11-26T16:13:31Z</time>
      </trkpt>
      <trkpt lat="59.226074" lon="18.131067">
        <ele>35</ele>
        <time>2019-11-26T16:13:32Z</time>
      </trkpt>
      <trkpt lat="59.226109" lon="18.131016">
        <ele>35</ele>
        <time>2019-11-26T16:13:33Z</time>
      </trkpt>
      <trkpt lat="59.226145" lon="18.130965">
        <ele>35</ele>
        <time>2019-11-26T16:13:34Z</time>
      </trkpt>
      <trkpt lat="59.22618" lon="18.130914">
        <ele>35</ele>
        <time>2019-11-26T16:13:35Z</time>
      </trkpt>
      <trkpt lat="59.226216" lon="18.130862">
        <ele>35</ele>
        <time>2019-11-26T16:13:36Z</time>
      </trkpt>
      <trkpt lat="59.226252" lon="18.130812">
        <ele>35</ele>
        <time>2019-11-26T16:13:37Z</time>
      </trkpt>
      <trkpt lat="59.226288" lon="18.13076">
        <ele>35</ele>
        <time>2019-11-26T16:13:38Z</time>
      </trkpt>
      <trkpt lat="59.226325" lon="18.130707">
        <ele>35</ele>
        <time>2019-11-26T16:13:40Z</time>
      </trkpt>
      <trkpt lat="59.226359" lon="18.130657">
        <ele>35</ele>
        <time>2019-11-26T16:13:40Z</time>
      </trkpt>
      <trkpt lat="59.226395" lon="18.130604">
        <ele>35</ele>
        <time>2019-11-26T16:13:41Z</time>
      </trkpt>
      <trkpt lat="59.22643" lon="18.13055">
        <ele>35</ele>
        <time>2019-11-26T16:13:42Z</time>
      </trkpt>
      <trkpt lat="59.226465" lon="18.130494">
        <ele>35</ele>
        <time>2019-11-26T16:13:44Z</time>
      </trkpt>
      <trkpt lat="59.226501" lon="18.130437">
        <ele>35</ele>
        <time>2019-11-26T16:13:45Z</time>
      </trkpt>
      <trkpt lat="59.226535" lon="18.130374">
        <ele>35</ele>
        <time>2019-11-26T16:13:45Z</time>
      </trkpt>
      <trkpt lat="59.226566" lon="18.130307">
        <ele>35</ele>
        <time>2019-11-26T16:13:46Z</time>
      </trkpt>
      <trkpt lat="59.226596" lon="18.130232">
        <ele>35</ele>
        <time>2019-11-26T16:13:47Z</time>
      </trkpt>
      <trkpt lat="59.226621" lon="18.130152">
        <ele>36</ele>
        <time>2019-11-26T16:13:48Z</time>
      </trkpt>
      <trkpt lat="59.226646" lon="18.130071">
        <ele>36</ele>
        <time>2019-11-26T16:13:49Z</time>
      </trkpt>
      <trkpt lat="59.226673" lon="18.129991">
        <ele>36</ele>
        <time>2019-11-26T16:13:51Z</time>
      </trkpt>
      <trkpt lat="59.226701" lon="18.129914">
        <ele>36</ele>
        <time>2019-11-26T16:13:51Z</time>
      </trkpt>
      <trkpt lat="59.226729" lon="18.129838">
        <ele>36</ele>
        <time>2019-11-26T16:13:52Z</time>
      </trkpt>
      <trkpt lat="59.226758" lon="18.12976">
        <ele>36</ele>
        <time>2019-11-26T16:13:53Z</time>
      </trkpt>
      <trkpt lat="59.226786" lon="18.129681">
        <ele>36</ele>
        <time>2019-11-26T16:13:54Z</time>
      </trkpt>
      <trkpt lat="59.226816" lon="18.129601">
        <ele>36</ele>
        <time>2019-11-26T16:13:55Z</time>
      </trkpt>
      <trkpt lat="59.226846" lon="18.12952">
        <ele>37</ele>
        <time>2019-11-26T16:13:56Z</time>
      </trkpt>
      <trkpt lat="59.226874" lon="18.129437">
        <ele>37</ele>
        <time>2019-11-26T16:13:57Z</time>
      </trkpt>
      <trkpt lat="59.226903" lon="18.129356">
        <ele>37</ele>
        <time>2019-11-26T16:13:58Z</time>
      </trkpt>
      <trkpt lat="59.226931" lon="18.129272">
        <ele>37</ele>
        <time>2019-11-26T16:13:59Z</time>
      </trkpt>
      <trkpt lat="59.226958" lon="18.12919">
        <ele>37</ele>
        <time>2019-11-26T16:14:01Z</time>
      </trkpt>
      <trkpt lat="59.226985" lon="18.129106">
        <ele>37</ele>
        <time>2019-11-26T16:14:01Z</time>
      </trkpt>
      <trkpt lat="59.22701" lon="18.129023">
        <ele>37</ele>
        <time>2019-11-26T16:14:03Z</time>
      </trkpt>
      <trkpt lat="59.227037" lon="18.128941">
        <ele>38</ele>
        <time>2019-11-26T16:14:03Z</time>
      </trkpt>
      <trkpt lat="59.227061" lon="18.128869">
        <ele>38</ele>
        <time>2019-11-26T16:14:04Z</time>
      </trkpt>
      <trkpt lat="59.227084" lon="18.128796">
        <ele>38</ele>
        <time>2019-11-26T16:14:05Z</time>
      </trkpt>
      <trkpt lat="59.227108" lon="18.128714">
        <ele>38</ele>
        <time>2019-11-26T16:14:06Z</time>
      </trkpt>
      <trkpt lat="59.22713" lon="18.128635">
        <ele>38</ele>
        <time>2019-11-26T16:14:07Z</time>
      </trkpt>
      <trkpt lat="59.227153" lon="18.12856">
        <ele>39</ele>
        <time>2019-11-26T16:14:08Z</time>
      </trkpt>
      <trkpt lat="59.227185" lon="18.128475">
        <ele>39</ele>
        <time>2019-11-26T16:14:09Z</time>
      </trkpt>
      <trkpt lat="59.227217" lon="18.128393">
        <ele>39</ele>
        <time>2019-11-26T16:14:11Z</time>
      </trkpt>
      <trkpt lat="59.227248" lon="18.12831">
        <ele>39</ele>
        <time>2019-11-26T16:14:11Z</time>
      </trkpt>
      <trkpt lat="59.227278" lon="18.128223">
        <ele>39</ele>
        <time>2019-11-26T16:14:12Z</time>
      </trkpt>
      <trkpt lat="59.227313" lon="18.128133">
        <ele>39</ele>
        <time>2019-11-26T16:14:13Z</time>
      </trkpt>
      <trkpt lat="59.227346" lon="18.128048">
        <ele>39</ele>
        <time>2019-11-26T16:14:14Z</time>
      </trkpt>
      <trkpt lat="59.227382" lon="18.127959">
        <ele>39</ele>
        <time>2019-11-26T16:14:15Z</time>
      </trkpt>
      <trkpt lat="59.227414" lon="18.127875">
        <ele>39</ele>
        <time>2019-11-26T16:14:16Z</time>
      </trkpt>
      <trkpt lat="59.227445" lon="18.127793">
        <ele>39</ele>
        <time>2019-11-26T16:14:17Z</time>
      </trkpt>
      <trkpt lat="59.227476" lon="18.127712">
        <ele>39</ele>
        <time>2019-11-26T16:14:18Z</time>
      </trkpt>
      <trkpt lat="59.227507" lon="18.127633">
        <ele>39</ele>
        <time>2019-11-26T16:14:19Z</time>
      </trkpt>
      <trkpt lat="59.227537" lon="18.127557">
        <ele>39</ele>
        <time>2019-11-26T16:14:21Z</time>
      </trkpt>
      <trkpt lat="59.227566" lon="18.127482">
        <ele>39</ele>
        <time>2019-11-26T16:14:22Z</time>
      </trkpt>
      <trkpt lat="59.227595" lon="18.127407">
        <ele>39</ele>
        <time>2019-11-26T16:14:22Z</time>
      </trkpt>
      <trkpt lat="59.227623" lon="18.127331">
        <ele>39</ele>
        <time>2019-11-26T16:14:23Z</time>
      </trkpt>
      <trkpt lat="59.22765" lon="18.127252">
        <ele>39</ele>
        <time>2019-11-26T16:14:24Z</time>
      </trkpt>
      <trkpt lat="59.227675" lon="18.127172">
        <ele>40</ele>
        <time>2019-11-26T16:14:25Z</time>
      </trkpt>
      <trkpt lat="59.227699" lon="18.12709">
        <ele>40</ele>
        <time>2019-11-26T16:14:26Z</time>
      </trkpt>
      <trkpt lat="59.227718" lon="18.127007">
        <ele>40</ele>
        <time>2019-11-26T16:14:27Z</time>
      </trkpt>
      <trkpt lat="59.227734" lon="18.126922">
        <ele>40</ele>
        <time>2019-11-26T16:14:28Z</time>
      </trkpt>
      <trkpt lat="59.227749" lon="18.126831">
        <ele>40</ele>
        <time>2019-11-26T16:14:29Z</time>
      </trkpt>
      <trkpt lat="59.227763" lon="18.126739">
        <ele>40</ele>
        <time>2019-11-26T16:14:31Z</time>
      </trkpt>
      <trkpt lat="59.22778" lon="18.126652">
        <ele>40</ele>
        <time>2019-11-26T16:14:31Z</time>
      </trkpt>
      <trkpt lat="59.22781" lon="18.126576">
        <ele>40</ele>
        <time>2019-11-26T16:14:32Z</time>
      </trkpt>
      <trkpt lat="59.227848" lon="18.126522">
        <ele>40</ele>
        <time>2019-11-26T16:14:33Z</time>
      </trkpt>
      <trkpt lat="59.227894" lon="18.126495">
        <ele>40</ele>
        <time>2019-11-26T16:14:34Z</time>
      </trkpt>
      <trkpt lat="59.227945" lon="18.126486">
        <ele>40</ele>
        <time>2019-11-26T16:14:35Z</time>
      </trkpt>
      <trkpt lat="59.227996" lon="18.126478">
        <ele>40</ele>
        <time>2019-11-26T16:14:36Z</time>
      </trkpt>
      <trkpt lat="59.22805" lon="18.12647">
        <ele>40</ele>
        <time>2019-11-26T16:14:37Z</time>
      </trkpt>
      <trkpt lat="59.228106" lon="18.12646">
        <ele>40</ele>
        <time>2019-11-26T16:14:38Z</time>
      </trkpt>
      <trkpt lat="59.228164" lon="18.126449">
        <ele>40</ele>
        <time>2019-11-26T16:14:40Z</time>
      </trkpt>
      <trkpt lat="59.228226" lon="18.126438">
        <ele>40</ele>
        <time>2019-11-26T16:14:41Z</time>
      </trkpt>
      <trkpt lat="59.228289" lon="18.126427">
        <ele>40</ele>
        <time>2019-11-26T16:14:42Z</time>
      </trkpt>
      <trkpt lat="59.228355" lon="18.126419">
        <ele>39</ele>
        <time>2019-11-26T16:14:42Z</time>
      </trkpt>
      <trkpt lat="59.228424" lon="18.12642">
        <ele>39</ele>
        <time>2019-11-26T16:14:43Z</time>
      </trkpt>
      <trkpt lat="59.228494" lon="18.126426">
        <ele>39</ele>
        <time>2019-11-26T16:14:44Z</time>
      </trkpt>
      <trkpt lat="59.228564" lon="18.126414">
        <ele>39</ele>
        <time>2019-11-26T16:14:45Z</time>
      </trkpt>
      <trkpt lat="59.228628" lon="18.126365">
        <ele>39</ele>
        <time>2019-11-26T16:14:47Z</time>
      </trkpt>
      <trkpt lat="59.228681" lon="18.12628">
        <ele>39</ele>
        <time>2019-11-26T16:14:48Z</time>
      </trkpt>
      <trkpt lat="59.228726" lon="18.12618">
        <ele>38</ele>
        <time>2019-11-26T16:14:48Z</time>
      </trkpt>
      <trkpt lat="59.228773" lon="18.126076">
        <ele>38</ele>
        <time>2019-11-26T16:14:49Z</time>
      </trkpt>
      <trkpt lat="59.228821" lon="18.12597">
        <ele>39</ele>
        <time>2019-11-26T16:14:50Z</time>
      </trkpt>
      <trkpt lat="59.228867" lon="18.125856">
        <ele>39</ele>
        <time>2019-11-26T16:14:51Z</time>
      </trkpt>
      <trkpt lat="59.228918" lon="18.125731">
        <ele>38</ele>
        <time>2019-11-26T16:14:52Z</time>
      </trkpt>
      <trkpt lat="59.228975" lon="18.125607">
        <ele>38</ele>
        <time>2019-11-26T16:14:54Z</time>
      </trkpt>
      <trkpt lat="59.22903" lon="18.125493">
        <ele>38</ele>
        <time>2019-11-26T16:14:54Z</time>
      </trkpt>
      <trkpt lat="59.229085" lon="18.12538">
        <ele>38</ele>
        <time>2019-11-26T16:14:55Z</time>
      </trkpt>
      <trkpt lat="59.229137" lon="18.125263">
        <ele>38</ele>
        <time>2019-11-26T16:14:56Z</time>
      </trkpt>
      <trkpt lat="59.229187" lon="18.125141">
        <ele>38</ele>
        <time>2019-11-26T16:14:57Z</time>
      </trkpt>
      <trkpt lat="59.229222" lon="18.125017">
        <ele>38</ele>
        <time>2019-11-26T16:14:58Z</time>
      </trkpt>
      <trkpt lat="59.229249" lon="18.124903">
        <ele>38</ele>
        <time>2019-11-26T16:15:00Z</time>
      </trkpt>
      <trkpt lat="59.229276" lon="18.124787">
        <ele>0</ele>
        <time>2019-11-26T16:15:00Z</time>
      </trkpt>
      <trkpt lat="59.229298" lon="18.124671">
        <ele>38</ele>
        <time>2019-11-26T16:15:01Z</time>
      </trkpt>
      <trkpt lat="59.2293" lon="18.124546">
        <ele>37</ele>
        <time>2019-11-26T16:15:02Z</time>
      </trkpt>
      <trkpt lat="59.229301" lon="18.124415">
        <ele>37</ele>
        <time>2019-11-26T16:15:03Z</time>
      </trkpt>
      <trkpt lat="59.229309" lon="18.124296">
        <ele>38</ele>
        <time>2019-11-26T16:15:04Z</time>
      </trkpt>
      <trkpt lat="59.229345" lon="18.124183">
        <ele>38</ele>
        <time>2019-11-26T16:15:05Z</time>
      </trkpt>
      <trkpt lat="59.229394" lon="18.124097">
        <ele>38</ele>
        <time>2019-11-26T16:15:06Z</time>
      </trkpt>
      <trkpt lat="59.229447" lon="18.124031">
        <ele>38</ele>
        <time>2019-11-26T16:15:07Z</time>
      </trkpt>
      <trkpt lat="59.229501" lon="18.123973">
        <ele>38</ele>
        <time>2019-11-26T16:15:09Z</time>
      </trkpt>
      <trkpt lat="59.229555" lon="18.123921">
        <ele>38</ele>
        <time>2019-11-26T16:15:09Z</time>
      </trkpt>
      <trkpt lat="59.229609" lon="18.123867">
        <ele>38</ele>
        <time>2019-11-26T16:15:10Z</time>
      </trkpt>
      <trkpt lat="59.229664" lon="18.123811">
        <ele>38</ele>
        <time>2019-11-26T16:15:11Z</time>
      </trkpt>
      <trkpt lat="59.229722" lon="18.123752">
        <ele>38</ele>
        <time>2019-11-26T16:15:12Z</time>
      </trkpt>
      <trkpt lat="59.229781" lon="18.123695">
        <ele>37</ele>
        <time>2019-11-26T16:15:13Z</time>
      </trkpt>
      <trkpt lat="59.22984" lon="18.123641">
        <ele>37</ele>
        <time>2019-11-26T16:15:14Z</time>
      </trkpt>
      <trkpt lat="59.229898" lon="18.123589">
        <ele>37</ele>
        <time>2019-11-26T16:15:15Z</time>
      </trkpt>
      <trkpt lat="59.229954" lon="18.123531">
        <ele>37</ele>
        <time>2019-11-26T16:15:17Z</time>
      </trkpt>
      <trkpt lat="59.230004" lon="18.123453">
        <ele>37</ele>
        <time>2019-11-26T16:15:17Z</time>
      </trkpt>
      <trkpt lat="59.230037" lon="18.123348">
        <ele>36</ele>
        <time>2019-11-26T16:15:19Z</time>
      </trkpt>
      <trkpt lat="59.230051" lon="18.123227">
        <ele>36</ele>
        <time>2019-11-26T16:15:19Z</time>
      </trkpt>
      <trkpt lat="59.230054" lon="18.123097">
        <ele>36</ele>
        <time>2019-11-26T16:15:20Z</time>
      </trkpt>
      <trkpt lat="59.230048" lon="18.122965">
        <ele>36</ele>
        <time>2019-11-26T16:15:21Z</time>
      </trkpt>
      <trkpt lat="59.230028" lon="18.122833">
        <ele>36</ele>
        <time>2019-11-26T16:15:22Z</time>
      </trkpt>
      <trkpt lat="59.23" lon="18.122705">
        <ele>36</ele>
        <time>2019-11-26T16:15:24Z</time>
      </trkpt>
      <trkpt lat="59.229969" lon="18.122579">
        <ele>36</ele>
        <time>2019-11-26T16:15:24Z</time>
      </trkpt>
      <trkpt lat="59.229935" lon="18.122455">
        <ele>36</ele>
        <time>2019-11-26T16:15:25Z</time>
      </trkpt>
      <trkpt lat="59.229898" lon="18.122325">
        <ele>36</ele>
        <time>2019-11-26T16:15:26Z</time>
      </trkpt>
      <trkpt lat="59.229859" lon="18.122193">
        <ele>35</ele>
        <time>2019-11-26T16:15:27Z</time>
      </trkpt>
      <trkpt lat="59.22982" lon="18.122062">
        <ele>35</ele>
        <time>2019-11-26T16:15:28Z</time>
      </trkpt>
      <trkpt lat="59.229791" lon="18.121934">
        <ele>36</ele>
        <time>2019-11-26T16:15:29Z</time>
      </trkpt>
      <trkpt lat="59.22978" lon="18.121806">
        <ele>35</ele>
        <time>2019-11-26T16:15:31Z</time>
      </trkpt>
      <trkpt lat="59.229794" lon="18.121689">
        <ele>36</ele>
        <time>2019-11-26T16:15:31Z</time>
      </trkpt>
      <trkpt lat="59.229827" lon="18.121594">
        <ele>36</ele>
        <time>2019-11-26T16:15:32Z</time>
      </trkpt>
      <trkpt lat="59.229871" lon="18.12153">
        <ele>36</ele>
        <time>2019-11-26T16:15:33Z</time>
      </trkpt>
      <trkpt lat="59.229919" lon="18.121485">
        <ele>35</ele>
        <time>2019-11-26T16:15:34Z</time>
      </trkpt>
      <trkpt lat="59.229963" lon="18.121444">
        <ele>36</ele>
        <time>2019-11-26T16:15:35Z</time>
      </trkpt>
      <trkpt lat="59.229999" lon="18.121411">
        <ele>36</ele>
        <time>2019-11-26T16:15:36Z</time>
      </trkpt>
      <trkpt lat="59.23003" lon="18.121385">
        <ele>36</ele>
        <time>2019-11-26T16:15:38Z</time>
      </trkpt>
      <trkpt lat="59.230067" lon="18.121352">
        <ele>36</ele>
        <time>2019-11-26T16:15:38Z</time>
      </trkpt>
      <trkpt lat="59.230114" lon="18.121312">
        <ele>36</ele>
        <time>2019-11-26T16:15:39Z</time>
      </trkpt>
      <trkpt lat="59.230164" lon="18.121274">
        <ele>36</ele>
        <time>2019-11-26T16:15:41Z</time>
      </trkpt>
      <trkpt lat="59.230214" lon="18.121243">
        <ele>36</ele>
        <time>2019-11-26T16:15:41Z</time>
      </trkpt>
      <trkpt lat="59.230267" lon="18.121216">
        <ele>36</ele>
        <time>2019-11-26T16:15:42Z</time>
      </trkpt>
      <trkpt lat="59.230322" lon="18.121194">
        <ele>36</ele>
        <time>2019-11-26T16:15:43Z</time>
      </trkpt>
      <trkpt lat="59.230371" lon="18.121188">
        <ele>36</ele>
        <time>2019-11-26T16:15:44Z</time>
      </trkpt>
      <trkpt lat="59.23042" lon="18.121187">
        <ele>36</ele>
        <time>2019-11-26T16:15:45Z</time>
      </trkpt>
      <trkpt lat="59.230472" lon="18.121185">
        <ele>36</ele>
        <time>2019-11-26T16:15:46Z</time>
      </trkpt>
      <trkpt lat="59.23052" lon="18.121184">
        <ele>36</ele>
        <time>2019-11-26T16:15:47Z</time>
      </trkpt>
      <trkpt lat="59.230564" lon="18.121182">
        <ele>36</ele>
        <time>2019-11-26T16:15:48Z</time>
      </trkpt>
      <trkpt lat="59.230606" lon="18.121168">
        <ele>36</ele>
        <time>2019-11-26T16:15:49Z</time>
      </trkpt>
      <trkpt lat="59.230655" lon="18.121142">
        <ele>37</ele>
        <time>2019-11-26T16:15:51Z</time>
      </trkpt>
      <trkpt lat="59.230703" lon="18.121112">
        <ele>37</ele>
        <time>2019-11-26T16:15:51Z</time>
      </trkpt>
      <trkpt lat="59.230745" lon="18.121082">
        <ele>37</ele>
        <time>2019-11-26T16:15:52Z</time>
      </trkpt>
      <trkpt lat="59.230787" lon="18.121057">
        <ele>37</ele>
        <time>2019-11-26T16:15:53Z</time>
      </trkpt>
      <trkpt lat="59.230831" lon="18.121035">
        <ele>37</ele>
        <time>2019-11-26T16:15:54Z</time>
      </trkpt>
      <trkpt lat="59.230874" lon="18.121012">
        <ele>37</ele>
        <time>2019-11-26T16:15:55Z</time>
      </trkpt>
      <trkpt lat="59.230919" lon="18.120983">
        <ele>37</ele>
        <time>2019-11-26T16:15:57Z</time>
      </trkpt>
      <trkpt lat="59.230964" lon="18.120954">
        <ele>37</ele>
        <time>2019-11-26T16:15:57Z</time>
      </trkpt>
      <trkpt lat="59.23101" lon="18.120927">
        <ele>37</ele>
        <time>2019-11-26T16:15:58Z</time>
      </trkpt>
      <trkpt lat="59.231058" lon="18.1209">
        <ele>37</ele>
        <time>2019-11-26T16:15:59Z</time>
      </trkpt>
      <trkpt lat="59.2311" lon="18.120874">
        <ele>37</ele>
        <time>2019-11-26T16:16:00Z</time>
      </trkpt>
      <trkpt lat="59.231142" lon="18.120848">
        <ele>37</ele>
        <time>2019-11-26T16:16:02Z</time>
      </trkpt>
      <trkpt lat="59.231189" lon="18.120818">
        <ele>37</ele>
        <time>2019-11-26T16:16:02Z</time>
      </trkpt>
      <trkpt lat="59.231238" lon="18.120788">
        <ele>37</ele>
        <time>2019-11-26T16:16:03Z</time>
      </trkpt>
      <trkpt lat="59.231281" lon="18.12076">
        <ele>37</ele>
        <time>2019-11-26T16:16:04Z</time>
      </trkpt>
      <trkpt lat="59.231326" lon="18.120727">
        <ele>38</ele>
        <time>2019-11-26T16:16:05Z</time>
      </trkpt>
      <trkpt lat="59.231378" lon="18.120684">
        <ele>38</ele>
        <time>2019-11-26T16:16:06Z</time>
      </trkpt>
      <trkpt lat="59.231428" lon="18.120641">
        <ele>38</ele>
        <time>2019-11-26T16:16:07Z</time>
      </trkpt>
      <trkpt lat="59.23148" lon="18.120601">
        <ele>38</ele>
        <time>2019-11-26T16:16:08Z</time>
      </trkpt>
      <trkpt lat="59.23153" lon="18.120567">
        <ele>38</ele>
        <time>2019-11-26T16:16:09Z</time>
      </trkpt>
      <trkpt lat="59.231577" lon="18.120533">
        <ele>38</ele>
        <time>2019-11-26T16:16:10Z</time>
      </trkpt>
      <trkpt lat="59.231619" lon="18.120507">
        <ele>38</ele>
        <time>2019-11-26T16:16:12Z</time>
      </trkpt>
      <trkpt lat="59.231664" lon="18.120477">
        <ele>38</ele>
        <time>2019-11-26T16:16:12Z</time>
      </trkpt>
      <trkpt lat="59.231712" lon="18.120444">
        <ele>38</ele>
        <time>2019-11-26T16:16:13Z</time>
      </trkpt>
      <trkpt lat="59.231768" lon="18.120411">
        <ele>38</ele>
        <time>2019-11-26T16:16:14Z</time>
      </trkpt>
      <trkpt lat="59.23183" lon="18.120378">
        <ele>38</ele>
        <time>2019-11-26T16:16:16Z</time>
      </trkpt>
      <trkpt lat="59.23189" lon="18.120351">
        <ele>38</ele>
        <time>2019-11-26T16:16:16Z</time>
      </trkpt>
      <trkpt lat="59.231951" lon="18.120333">
        <ele>38</ele>
        <time>2019-11-26T16:16:17Z</time>
      </trkpt>
      <trkpt lat="59.232017" lon="18.120322">
        <ele>38</ele>
        <time>2019-11-26T16:16:18Z</time>
      </trkpt>
      <trkpt lat="59.232083" lon="18.120315">
        <ele>38</ele>
        <time>2019-11-26T16:16:20Z</time>
      </trkpt>
      <trkpt lat="59.232149" lon="18.120314">
        <ele>38</ele>
        <time>2019-11-26T16:16:20Z</time>
      </trkpt>
      <trkpt lat="59.232217" lon="18.120319">
        <ele>38</ele>
        <time>2019-11-26T16:16:21Z</time>
      </trkpt>
      <trkpt lat="59.232276" lon="18.120339">
        <ele>39</ele>
        <time>2019-11-26T16:16:22Z</time>
      </trkpt>
      <trkpt lat="59.232328" lon="18.120372">
        <ele>39</ele>
        <time>2019-11-26T16:16:23Z</time>
      </trkpt>
      <trkpt lat="59.232372" lon="18.12042">
        <ele>39</ele>
        <time>2019-11-26T16:16:24Z</time>
      </trkpt>
      <trkpt lat="59.232407" lon="18.120478">
        <ele>39</ele>
        <time>2019-11-26T16:16:25Z</time>
      </trkpt>
      <trkpt lat="59.232433" lon="18.12054">
        <ele>39</ele>
        <time>2019-11-26T16:16:26Z</time>
      </trkpt>
      <trkpt lat="59.232447" lon="18.120602">
        <ele>39</ele>
        <time>2019-11-26T16:16:27Z</time>
      </trkpt>
      <trkpt lat="59.232456" lon="18.120649">
        <ele>39</ele>
        <time>2019-11-26T16:16:28Z</time>
      </trkpt>
      <trkpt lat="59.232469" lon="18.120684">
        <ele>39</ele>
        <time>2019-11-26T16:16:29Z</time>
      </trkpt>
      <trkpt lat="59.232486" lon="18.12072">
        <ele>39</ele>
        <time>2019-11-26T16:16:30Z</time>
      </trkpt>
      <trkpt lat="59.232505" lon="18.120766">
        <ele>39</ele>
        <time>2019-11-26T16:16:32Z</time>
      </trkpt>
      <trkpt lat="59.232528" lon="18.12082">
        <ele>39</ele>
        <time>2019-11-26T16:16:32Z</time>
      </trkpt>
      <trkpt lat="59.232552" lon="18.120881">
        <ele>39</ele>
        <time>2019-11-26T16:16:33Z</time>
      </trkpt>
      <trkpt lat="59.232576" lon="18.120949">
        <ele>39</ele>
        <time>2019-11-26T16:16:35Z</time>
      </trkpt>
      <trkpt lat="59.232605" lon="18.121011">
        <ele>39</ele>
        <time>2019-11-26T16:16:35Z</time>
      </trkpt>
      <trkpt lat="59.232641" lon="18.121056">
        <ele>39</ele>
        <time>2019-11-26T16:16:36Z</time>
      </trkpt>
      <trkpt lat="59.232682" lon="18.121089">
        <ele>39</ele>
        <time>2019-11-26T16:16:37Z</time>
      </trkpt>
      <trkpt lat="59.232723" lon="18.121127">
        <ele>39</ele>
        <time>2019-11-26T16:16:38Z</time>
      </trkpt>
      <trkpt lat="59.232761" lon="18.121177">
        <ele>39</ele>
        <time>2019-11-26T16:16:39Z</time>
      </trkpt>
      <trkpt lat="59.232798" lon="18.121231">
        <ele>39</ele>
        <time>2019-11-26T16:16:40Z</time>
      </trkpt>
      <trkpt lat="59.232838" lon="18.121285">
        <ele>39</ele>
        <time>2019-11-26T16:16:41Z</time>
      </trkpt>
      <trkpt lat="59.232881" lon="18.121335">
        <ele>39</ele>
        <time>2019-11-26T16:16:43Z</time>
      </trkpt>
      <trkpt lat="59.232929" lon="18.121374">
        <ele>39</ele>
        <time>2019-11-26T16:16:43Z</time>
      </trkpt>
      <trkpt lat="59.23298" lon="18.121398">
        <ele>39</ele>
        <time>2019-11-26T16:16:44Z</time>
      </trkpt>
      <trkpt lat="59.233035" lon="18.121405">
        <ele>39</ele>
        <time>2019-11-26T16:16:45Z</time>
      </trkpt>
      <trkpt lat="59.233092" lon="18.121394">
        <ele>39</ele>
        <time>2019-11-26T16:16:46Z</time>
      </trkpt>
      <trkpt lat="59.233152" lon="18.121372">
        <ele>39</ele>
        <time>2019-11-26T16:16:47Z</time>
      </trkpt>
      <trkpt lat="59.233214" lon="18.121339">
        <ele>39</ele>
        <time>2019-11-26T16:16:48Z</time>
      </trkpt>
      <trkpt lat="59.233278" lon="18.121291">
        <ele>39</ele>
        <time>2019-11-26T16:16:49Z</time>
      </trkpt>
      <trkpt lat="59.233348" lon="18.121233">
        <ele>40</ele>
        <time>2019-11-26T16:16:51Z</time>
      </trkpt>
      <trkpt lat="59.233422" lon="18.121175">
        <ele>40</ele>
        <time>2019-11-26T16:16:51Z</time>
      </trkpt>
      <trkpt lat="59.233501" lon="18.121119">
        <ele>40</ele>
        <time>2019-11-26T16:16:52Z</time>
      </trkpt>
      <trkpt lat="59.23358" lon="18.121058">
        <ele>40</ele>
        <time>2019-11-26T16:16:54Z</time>
      </trkpt>
      <trkpt lat="59.233662" lon="18.120997">
        <ele>40</ele>
        <time>2019-11-26T16:16:54Z</time>
      </trkpt>
      <trkpt lat="59.233745" lon="18.120934">
        <ele>40</ele>
        <time>2019-11-26T16:16:55Z</time>
      </trkpt>
      <trkpt lat="59.233829" lon="18.120871">
        <ele>40</ele>
        <time>2019-11-26T16:16:57Z</time>
      </trkpt>
      <trkpt lat="59.233915" lon="18.120809">
        <ele>40</ele>
        <time>2019-11-26T16:16:57Z</time>
      </trkpt>
      <trkpt lat="59.234001" lon="18.120742">
        <ele>40</ele>
        <time>2019-11-26T16:16:58Z</time>
      </trkpt>
      <trkpt lat="59.23409" lon="18.120676">
        <ele>39</ele>
        <time>2019-11-26T16:16:59Z</time>
      </trkpt>
      <trkpt lat="59.234192" lon="18.120608">
        <ele>39</ele>
        <time>2019-11-26T16:17:00Z</time>
      </trkpt>
      <trkpt lat="59.234291" lon="18.120542">
        <ele>38</ele>
        <time>2019-11-26T16:17:02Z</time>
      </trkpt>
      <trkpt lat="59.234388" lon="18.120481">
        <ele>37</ele>
        <time>2019-11-26T16:17:02Z</time>
      </trkpt>
      <trkpt lat="59.234485" lon="18.120427">
        <ele>36</ele>
        <time>2019-11-26T16:17:03Z</time>
      </trkpt>
      <trkpt lat="59.23458" lon="18.120367">
        <ele>35</ele>
        <time>2019-11-26T16:17:04Z</time>
      </trkpt>
      <trkpt lat="59.234673" lon="18.120305">
        <ele>35</ele>
        <time>2019-11-26T16:17:05Z</time>
      </trkpt>
      <trkpt lat="59.234767" lon="18.120244">
        <ele>34</ele>
        <time>2019-11-26T16:17:07Z</time>
      </trkpt>
      <trkpt lat="59.234862" lon="18.120185">
        <ele>33</ele>
        <time>2019-11-26T16:17:07Z</time>
      </trkpt>
      <trkpt lat="59.234956" lon="18.12013">
        <ele>33</ele>
        <time>2019-11-26T16:17:08Z</time>
      </trkpt>
      <trkpt lat="59.235049" lon="18.120088">
        <ele>32</ele>
        <time>2019-11-26T16:17:09Z</time>
      </trkpt>
      <trkpt lat="59.235142" lon="18.12006">
        <ele>32</ele>
        <time>2019-11-26T16:17:10Z</time>
      </trkpt>
      <trkpt lat="59.235234" lon="18.120037">
        <ele>31</ele>
        <time>2019-11-26T16:17:12Z</time>
      </trkpt>
      <trkpt lat="59.235324" lon="18.120011">
        <ele>31</ele>
        <time>2019-11-26T16:17:13Z</time>
      </trkpt>
      <trkpt lat="59.235412" lon="18.119978">
        <ele>30</ele>
        <time>2019-11-26T16:17:13Z</time>
      </trkpt>
      <trkpt lat="59.235498" lon="18.119939">
        <ele>30</ele>
        <time>2019-11-26T16:17:14Z</time>
      </trkpt>
      <trkpt lat="59.23558" lon="18.11989">
        <ele>30</ele>
        <time>2019-11-26T16:17:15Z</time>
      </trkpt>
      <trkpt lat="59.235659" lon="18.119834">
        <ele>30</ele>
        <time>2019-11-26T16:17:16Z</time>
      </trkpt>
      <trkpt lat="59.235736" lon="18.119779">
        <ele>30</ele>
        <time>2019-11-26T16:17:18Z</time>
      </trkpt>
      <trkpt lat="59.235814" lon="18.119731">
        <ele>29</ele>
        <time>2019-11-26T16:17:18Z</time>
      </trkpt>
      <trkpt lat="59.235893" lon="18.119692">
        <ele>29</ele>
        <time>2019-11-26T16:17:19Z</time>
      </trkpt>
      <trkpt lat="59.235973" lon="18.119663">
        <ele>29</ele>
        <time>2019-11-26T16:17:20Z</time>
      </trkpt>
      <trkpt lat="59.236053" lon="18.11964">
        <ele>29</ele>
        <time>2019-11-26T16:17:21Z</time>
      </trkpt>
      <trkpt lat="59.236132" lon="18.119618">
        <ele>29</ele>
        <time>2019-11-26T16:17:22Z</time>
      </trkpt>
      <trkpt lat="59.236211" lon="18.119598">
        <ele>29</ele>
        <time>2019-11-26T16:17:24Z</time>
      </trkpt>
      <trkpt lat="59.236289" lon="18.119581">
        <ele>29</ele>
        <time>2019-11-26T16:17:24Z</time>
      </trkpt>
      <trkpt lat="59.236367" lon="18.119568">
        <ele>28</ele>
        <time>2019-11-26T16:17:25Z</time>
      </trkpt>
      <trkpt lat="59.236445" lon="18.119558">
        <ele>28</ele>
        <time>2019-11-26T16:17:26Z</time>
      </trkpt>
      <trkpt lat="59.236523" lon="18.119552">
        <ele>28</ele>
        <time>2019-11-26T16:17:27Z</time>
      </trkpt>
      <trkpt lat="59.2366" lon="18.119551">
        <ele>28</ele>
        <time>2019-11-26T16:17:28Z</time>
      </trkpt>
      <trkpt lat="59.236676" lon="18.119549">
        <ele>28</ele>
        <time>2019-11-26T16:17:29Z</time>
      </trkpt>
      <trkpt lat="59.236752" lon="18.119546">
        <ele>28</ele>
        <time>2019-11-26T16:17:31Z</time>
      </trkpt>
      <trkpt lat="59.236827" lon="18.119546">
        <ele>28</ele>
        <time>2019-11-26T16:17:32Z</time>
      </trkpt>
      <trkpt lat="59.236902" lon="18.119553">
        <ele>28</ele>
        <time>2019-11-26T16:17:32Z</time>
      </trkpt>
      <trkpt lat="59.236977" lon="18.119562">
        <ele>27</ele>
        <time>2019-11-26T16:17:33Z</time>
      </trkpt>
      <trkpt lat="59.237051" lon="18.119573">
        <ele>27</ele>
        <time>2019-11-26T16:17:34Z</time>
      </trkpt>
      <trkpt lat="59.237124" lon="18.119585">
        <ele>27</ele>
        <time>2019-11-26T16:17:35Z</time>
      </trkpt>
      <trkpt lat="59.237198" lon="18.119595">
        <ele>27</ele>
        <time>2019-11-26T16:17:37Z</time>
      </trkpt>
      <trkpt lat="59.237271" lon="18.119604">
        <ele>27</ele>
        <time>2019-11-26T16:17:37Z</time>
      </trkpt>
      <trkpt lat="59.237343" lon="18.119616">
        <ele>27</ele>
        <time>2019-11-26T16:17:38Z</time>
      </trkpt>
      <trkpt lat="59.237415" lon="18.119628">
        <ele>27</ele>
        <time>2019-11-26T16:17:39Z</time>
      </trkpt>
      <trkpt lat="59.237487" lon="18.119639">
        <ele>27</ele>
        <time>2019-11-26T16:17:40Z</time>
      </trkpt>
      <trkpt lat="59.237559" lon="18.119652">
        <ele>27</ele>
        <time>2019-11-26T16:17:41Z</time>
      </trkpt>
      <trkpt lat="59.237631" lon="18.119666">
        <ele>27</ele>
        <time>2019-11-26T16:17:42Z</time>
      </trkpt>
      <trkpt lat="59.237703" lon="18.119678">
        <ele>27</ele>
        <time>2019-11-26T16:17:44Z</time>
      </trkpt>
      <trkpt lat="59.237775" lon="18.119689">
        <ele>27</ele>
        <time>2019-11-26T16:17:44Z</time>
      </trkpt>
      <trkpt lat="59.237847" lon="18.119699">
        <ele>27</ele>
        <time>2019-11-26T16:17:45Z</time>
      </trkpt>
      <trkpt lat="59.237919" lon="18.119707">
        <ele>27</ele>
        <time>2019-11-26T16:17:46Z</time>
      </trkpt>
      <trkpt lat="59.237992" lon="18.119718">
        <ele>27</ele>
        <time>2019-11-26T16:17:47Z</time>
      </trkpt>
      <trkpt lat="59.238065" lon="18.11973">
        <ele>27</ele>
        <time>2019-11-26T16:17:48Z</time>
      </trkpt>
      <trkpt lat="59.238137" lon="18.11974">
        <ele>27</ele>
        <time>2019-11-26T16:17:49Z</time>
      </trkpt>
      <trkpt lat="59.23821" lon="18.11975">
        <ele>0</ele>
        <time>2019-11-26T16:17:50Z</time>
      </trkpt>
      <trkpt lat="59.238283" lon="18.119761">
        <ele>27</ele>
        <time>2019-11-26T16:17:51Z</time>
      </trkpt>
      <trkpt lat="59.238357" lon="18.119773">
        <ele>28</ele>
        <time>2019-11-26T16:17:52Z</time>
      </trkpt>
      <trkpt lat="59.238431" lon="18.119785">
        <ele>28</ele>
        <time>2019-11-26T16:17:53Z</time>
      </trkpt>
      <trkpt lat="59.238505" lon="18.119796">
        <ele>28</ele>
        <time>2019-11-26T16:17:54Z</time>
      </trkpt>
      <trkpt lat="59.23858" lon="18.119807">
        <ele>28</ele>
        <time>2019-11-26T16:17:55Z</time>
      </trkpt>
      <trkpt lat="59.238656" lon="18.11982">
        <ele>28</ele>
        <time>2019-11-26T16:17:56Z</time>
      </trkpt>
      <trkpt lat="59.238731" lon="18.119835">
        <ele>27</ele>
        <time>2019-11-26T16:17:58Z</time>
      </trkpt>
      <trkpt lat="59.238807" lon="18.119847">
        <ele>27</ele>
        <time>2019-11-26T16:17:58Z</time>
      </trkpt>
      <trkpt lat="59.238884" lon="18.119856">
        <ele>27</ele>
        <time>2019-11-26T16:17:59Z</time>
      </trkpt>
      <trkpt lat="59.23896" lon="18.119863">
        <ele>27</ele>
        <time>2019-11-26T16:18:00Z</time>
      </trkpt>
      <trkpt lat="59.239036" lon="18.119863">
        <ele>27</ele>
        <time>2019-11-26T16:18:01Z</time>
      </trkpt>
      <trkpt lat="59.239113" lon="18.119856">
        <ele>26</ele>
        <time>2019-11-26T16:18:02Z</time>
      </trkpt>
      <trkpt lat="59.239189" lon="18.119845">
        <ele>26</ele>
        <time>2019-11-26T16:18:04Z</time>
      </trkpt>
      <trkpt lat="59.239266" lon="18.119833">
        <ele>26</ele>
        <time>2019-11-26T16:18:04Z</time>
      </trkpt>
      <trkpt lat="59.239342" lon="18.119815">
        <ele>26</ele>
        <time>2019-11-26T16:18:05Z</time>
      </trkpt>
      <trkpt lat="59.239417" lon="18.119792">
        <ele>25</ele>
        <time>2019-11-26T16:18:06Z</time>
      </trkpt>
      <trkpt lat="59.239491" lon="18.119765">
        <ele>25</ele>
        <time>2019-11-26T16:18:07Z</time>
      </trkpt>
      <trkpt lat="59.239563" lon="18.119735">
        <ele>25</ele>
        <time>2019-11-26T16:18:08Z</time>
      </trkpt>
      <trkpt lat="59.239635" lon="18.119703">
        <ele>25</ele>
        <time>2019-11-26T16:18:10Z</time>
      </trkpt>
      <trkpt lat="59.239705" lon="18.119675">
        <ele>25</ele>
        <time>2019-11-26T16:18:11Z</time>
      </trkpt>
      <trkpt lat="59.239772" lon="18.119646">
        <ele>25</ele>
        <time>2019-11-26T16:18:11Z</time>
      </trkpt>
      <trkpt lat="59.239838" lon="18.119617">
        <ele>25</ele>
        <time>2019-11-26T16:18:12Z</time>
      </trkpt>
      <trkpt lat="59.239903" lon="18.119591">
        <ele>25</ele>
        <time>2019-11-26T16:18:13Z</time>
      </trkpt>
      <trkpt lat="59.23997" lon="18.119564">
        <ele>25</ele>
        <time>2019-11-26T16:18:14Z</time>
      </trkpt>
      <trkpt lat="59.240036" lon="18.11954">
        <ele>25</ele>
        <time>2019-11-26T16:18:15Z</time>
      </trkpt>
      <trkpt lat="59.2401" lon="18.119513">
        <ele>25</ele>
        <time>2019-11-26T16:18:16Z</time>
      </trkpt>
      <trkpt lat="59.240161" lon="18.119487">
        <ele>25</ele>
        <time>2019-11-26T16:18:17Z</time>
      </trkpt>
      <trkpt lat="59.240223" lon="18.119463">
        <ele>25</ele>
        <time>2019-11-26T16:18:19Z</time>
      </trkpt>
      <trkpt lat="59.240283" lon="18.119441">
        <ele>25</ele>
        <time>2019-11-26T16:18:19Z</time>
      </trkpt>
      <trkpt lat="59.240339" lon="18.11942">
        <ele>24</ele>
        <time>2019-11-26T16:18:20Z</time>
      </trkpt>
      <trkpt lat="59.240389" lon="18.119408">
        <ele>24</ele>
        <time>2019-11-26T16:18:21Z</time>
      </trkpt>
      <trkpt lat="59.24043" lon="18.119421">
        <ele>24</ele>
        <time>2019-11-26T16:18:22Z</time>
      </trkpt>
      <trkpt lat="59.240461" lon="18.119461">
        <ele>24</ele>
        <time>2019-11-26T16:18:23Z</time>
      </trkpt>
      <trkpt lat="59.240492" lon="18.119511">
        <ele>24</ele>
        <time>2019-11-26T16:18:24Z</time>
      </trkpt>
      <trkpt lat="59.240529" lon="18.119549">
        <ele>24</ele>
        <time>2019-11-26T16:18:25Z</time>
      </trkpt>
      <trkpt lat="59.240572" lon="18.119562">
        <ele>24</ele>
        <time>2019-11-26T16:18:26Z</time>
      </trkpt>
      <trkpt lat="59.240615" lon="18.119557">
        <ele>24</ele>
        <time>2019-11-26T16:18:27Z</time>
      </trkpt>
      <trkpt lat="59.240657" lon="18.11955">
        <ele>24</ele>
        <time>2019-11-26T16:18:29Z</time>
      </trkpt>
      <trkpt lat="59.240698" lon="18.119549">
        <ele>24</ele>
        <time>2019-11-26T16:18:30Z</time>
      </trkpt>
      <trkpt lat="59.240736" lon="18.119555">
        <ele>24</ele>
        <time>2019-11-26T16:18:30Z</time>
      </trkpt>
      <trkpt lat="59.240774" lon="18.119561">
        <ele>24</ele>
        <time>2019-11-26T16:18:31Z</time>
      </trkpt>
      <trkpt lat="59.240809" lon="18.119573">
        <ele>24</ele>
        <time>2019-11-26T16:18:32Z</time>
      </trkpt>
      <trkpt lat="59.240844" lon="18.119593">
        <ele>24</ele>
        <time>2019-11-26T16:18:33Z</time>
      </trkpt>
      <trkpt lat="59.240876" lon="18.119618">
        <ele>24</ele>
        <time>2019-11-26T16:18:34Z</time>
      </trkpt>
      <trkpt lat="59.240906" lon="18.119646">
        <ele>23</ele>
        <time>2019-11-26T16:18:35Z</time>
      </trkpt>
      <trkpt lat="59.240935" lon="18.119678">
        <ele>23</ele>
        <time>2019-11-26T16:18:36Z</time>
      </trkpt>
      <trkpt lat="59.240961" lon="18.119708">
        <ele>23</ele>
        <time>2019-11-26T16:18:37Z</time>
      </trkpt>
      <trkpt lat="59.240985" lon="18.11973">
        <ele>23</ele>
        <time>2019-11-26T16:18:38Z</time>
      </trkpt>
      <trkpt lat="59.241006" lon="18.119747">
        <ele>23</ele>
        <time>2019-11-26T16:18:39Z</time>
      </trkpt>
      <trkpt lat="59.241026" lon="18.119763">
        <ele>23</ele>
        <time>2019-11-26T16:18:40Z</time>
      </trkpt>
      <trkpt lat="59.241049" lon="18.119778">
        <ele>23</ele>
        <time>2019-11-26T16:18:41Z</time>
      </trkpt>
      <trkpt lat="59.24107" lon="18.119792">
        <ele>23</ele>
        <time>2019-11-26T16:18:42Z</time>
      </trkpt>
      <trkpt lat="59.241091" lon="18.119805">
        <ele>23</ele>
        <time>2019-11-26T16:18:43Z</time>
      </trkpt>
      <trkpt lat="59.241119" lon="18.119819">
        <ele>23</ele>
        <time>2019-11-26T16:18:45Z</time>
      </trkpt>
      <trkpt lat="59.241139" lon="18.119815">
        <ele>23</ele>
        <time>2019-11-26T16:18:48Z</time>
      </trkpt>
      <trkpt lat="59.241134" lon="18.119571">
        <ele>23</ele>
        <time>2019-11-26T16:18:52Z</time>
      </trkpt>
      <trkpt lat="59.241124" lon="18.119488">
        <ele>23</ele>
        <time>2019-11-26T16:18:53Z</time>
      </trkpt>
      <trkpt lat="59.241134" lon="18.119396">
        <ele>23</ele>
        <time>2019-11-26T16:18:54Z</time>
      </trkpt>
      <trkpt lat="59.241153" lon="18.119318">
        <ele>23</ele>
        <time>2019-11-26T16:18:55Z</time>
      </trkpt>
      <trkpt lat="59.241178" lon="18.119263">
        <ele>24</ele>
        <time>2019-11-26T16:18:56Z</time>
      </trkpt>
      <trkpt lat="59.241206" lon="18.119227">
        <ele>24</ele>
        <time>2019-11-26T16:18:57Z</time>
      </trkpt>
      <trkpt lat="59.241237" lon="18.119205">
        <ele>24</ele>
        <time>2019-11-26T16:18:58Z</time>
      </trkpt>
      <trkpt lat="59.241269" lon="18.119193">
        <ele>24</ele>
        <time>2019-11-26T16:18:59Z</time>
      </trkpt>
      <trkpt lat="59.241301" lon="18.119191">
        <ele>24</ele>
        <time>2019-11-26T16:19:00Z</time>
      </trkpt>
      <trkpt lat="59.24133" lon="18.119197">
        <ele>24</ele>
        <time>2019-11-26T16:19:01Z</time>
      </trkpt>
      <trkpt lat="59.241358" lon="18.119199">
        <ele>24</ele>
        <time>2019-11-26T16:19:02Z</time>
      </trkpt>
      <trkpt lat="59.241383" lon="18.1192">
        <ele>24</ele>
        <time>2019-11-26T16:19:03Z</time>
      </trkpt>
      <trkpt lat="59.241405" lon="18.119205">
        <ele>24</ele>
        <time>2019-11-26T16:19:05Z</time>
      </trkpt>
      <trkpt lat="59.241427" lon="18.119218">
        <ele>24</ele>
        <time>2019-11-26T16:19:05Z</time>
      </trkpt>
      <trkpt lat="59.241455" lon="18.119248">
        <ele>24</ele>
        <time>2019-11-26T16:19:07Z</time>
      </trkpt>
      <trkpt lat="59.241482" lon="18.119289">
        <ele>23</ele>
        <time>2019-11-26T16:19:07Z</time>
      </trkpt>
      <trkpt lat="59.24151" lon="18.119331">
        <ele>23</ele>
        <time>2019-11-26T16:19:08Z</time>
      </trkpt>
      <trkpt lat="59.241538" lon="18.119371">
        <ele>23</ele>
        <time>2019-11-26T16:19:09Z</time>
      </trkpt>
      <trkpt lat="59.241581" lon="18.119385">
        <ele>23</ele>
        <time>2019-11-26T16:19:10Z</time>
      </trkpt>
      <trkpt lat="59.241631" lon="18.119377">
        <ele>22</ele>
        <time>2019-11-26T16:19:11Z</time>
      </trkpt>
      <trkpt lat="59.241672" lon="18.119374">
        <ele>22</ele>
        <time>2019-11-26T16:19:12Z</time>
      </trkpt>
      <trkpt lat="59.241709" lon="18.119379">
        <ele>23</ele>
        <time>2019-11-26T16:19:13Z</time>
      </trkpt>
      <trkpt lat="59.241739" lon="18.119383">
        <ele>23</ele>
        <time>2019-11-26T16:19:14Z</time>
      </trkpt>
      <trkpt lat="59.241763" lon="18.119382">
        <ele>23</ele>
        <time>2019-11-26T16:19:15Z</time>
      </trkpt>
      <trkpt lat="59.241791" lon="18.119386">
        <ele>23</ele>
        <time>2019-11-26T16:19:16Z</time>
      </trkpt>
      <trkpt lat="59.241824" lon="18.119397">
        <ele>23</ele>
        <time>2019-11-26T16:19:17Z</time>
      </trkpt>
      <trkpt lat="59.241864" lon="18.119405">
        <ele>23</ele>
        <time>2019-11-26T16:19:19Z</time>
      </trkpt>
      <trkpt lat="59.241908" lon="18.119398">
        <ele>23</ele>
        <time>2019-11-26T16:19:19Z</time>
      </trkpt>
      <trkpt lat="59.241956" lon="18.119383">
        <ele>23</ele>
        <time>2019-11-26T16:19:20Z</time>
      </trkpt>
      <trkpt lat="59.242005" lon="18.119363">
        <ele>23</ele>
        <time>2019-11-26T16:19:21Z</time>
      </trkpt>
      <trkpt lat="59.242055" lon="18.119336">
        <ele>23</ele>
        <time>2019-11-26T16:19:22Z</time>
      </trkpt>
      <trkpt lat="59.242106" lon="18.119306">
        <ele>23</ele>
        <time>2019-11-26T16:19:23Z</time>
      </trkpt>
      <trkpt lat="59.242159" lon="18.119273">
        <ele>23</ele>
        <time>2019-11-26T16:19:24Z</time>
      </trkpt>
      <trkpt lat="59.242212" lon="18.119237">
        <ele>23</ele>
        <time>2019-11-26T16:19:26Z</time>
      </trkpt>
      <trkpt lat="59.242265" lon="18.119199">
        <ele>23</ele>
        <time>2019-11-26T16:19:26Z</time>
      </trkpt>
      <trkpt lat="59.242317" lon="18.119155">
        <ele>23</ele>
        <time>2019-11-26T16:19:28Z</time>
      </trkpt>
      <trkpt lat="59.242368" lon="18.119103">
        <ele>24</ele>
        <time>2019-11-26T16:19:28Z</time>
      </trkpt>
      <trkpt lat="59.242417" lon="18.119041">
        <ele>24</ele>
        <time>2019-11-26T16:19:29Z</time>
      </trkpt>
      <trkpt lat="59.242464" lon="18.118973">
        <ele>24</ele>
        <time>2019-11-26T16:19:30Z</time>
      </trkpt>
      <trkpt lat="59.242506" lon="18.118901">
        <ele>24</ele>
        <time>2019-11-26T16:19:31Z</time>
      </trkpt>
      <trkpt lat="59.242546" lon="18.118818">
        <ele>24</ele>
        <time>2019-11-26T16:19:32Z</time>
      </trkpt>
      <trkpt lat="59.242581" lon="18.118728">
        <ele>24</ele>
        <time>2019-11-26T16:19:33Z</time>
      </trkpt>
      <trkpt lat="59.242618" lon="18.118623">
        <ele>24</ele>
        <time>2019-11-26T16:19:34Z</time>
      </trkpt>
      <trkpt lat="59.242652" lon="18.118512">
        <ele>24</ele>
        <time>2019-11-26T16:19:35Z</time>
      </trkpt>
      <trkpt lat="59.242687" lon="18.118399">
        <ele>24</ele>
        <time>2019-11-26T16:19:37Z</time>
      </trkpt>
      <trkpt lat="59.242721" lon="18.118285">
        <ele>24</ele>
        <time>2019-11-26T16:19:37Z</time>
      </trkpt>
      <trkpt lat="59.242757" lon="18.118168">
        <ele>24</ele>
        <time>2019-11-26T16:19:38Z</time>
      </trkpt>
      <trkpt lat="59.242791" lon="18.118055">
        <ele>25</ele>
        <time>2019-11-26T16:19:39Z</time>
      </trkpt>
      <trkpt lat="59.242826" lon="18.117945">
        <ele>24</ele>
        <time>2019-11-26T16:19:40Z</time>
      </trkpt>
      <trkpt lat="59.242865" lon="18.117831">
        <ele>24</ele>
        <time>2019-11-26T16:19:41Z</time>
      </trkpt>
      <trkpt lat="59.242901" lon="18.117721">
        <ele>24</ele>
        <time>2019-11-26T16:19:42Z</time>
      </trkpt>
      <trkpt lat="59.242937" lon="18.117613">
        <ele>25</ele>
        <time>2019-11-26T16:19:44Z</time>
      </trkpt>
      <trkpt lat="59.24297" lon="18.117505">
        <ele>25</ele>
        <time>2019-11-26T16:19:45Z</time>
      </trkpt>
      <trkpt lat="59.243002" lon="18.117397">
        <ele>25</ele>
        <time>2019-11-26T16:19:45Z</time>
      </trkpt>
      <trkpt lat="59.243035" lon="18.117289">
        <ele>25</ele>
        <time>2019-11-26T16:19:46Z</time>
      </trkpt>
      <trkpt lat="59.243068" lon="18.117181">
        <ele>25</ele>
        <time>2019-11-26T16:19:47Z</time>
      </trkpt>
      <trkpt lat="59.243103" lon="18.117073">
        <ele>25</ele>
        <time>2019-11-26T16:19:48Z</time>
      </trkpt>
      <trkpt lat="59.243138" lon="18.116968">
        <ele>25</ele>
        <time>2019-11-26T16:19:49Z</time>
      </trkpt>
      <trkpt lat="59.243173" lon="18.116862">
        <ele>25</ele>
        <time>2019-11-26T16:19:50Z</time>
      </trkpt>
      <trkpt lat="59.243205" lon="18.11676">
        <ele>25</ele>
        <time>2019-11-26T16:19:52Z</time>
      </trkpt>
      <trkpt lat="59.243238" lon="18.11666">
        <ele>25</ele>
        <time>2019-11-26T16:19:52Z</time>
      </trkpt>
      <trkpt lat="59.243272" lon="18.116559">
        <ele>25</ele>
        <time>2019-11-26T16:19:53Z</time>
      </trkpt>
      <trkpt lat="59.243306" lon="18.116456">
        <ele>25</ele>
        <time>2019-11-26T16:19:54Z</time>
      </trkpt>
      <trkpt lat="59.243339" lon="18.116351">
        <ele>25</ele>
        <time>2019-11-26T16:19:55Z</time>
      </trkpt>
      <trkpt lat="59.243371" lon="18.116246">
        <ele>24</ele>
        <time>2019-11-26T16:19:56Z</time>
      </trkpt>
      <trkpt lat="59.243404" lon="18.116143">
        <ele>24</ele>
        <time>2019-11-26T16:19:57Z</time>
      </trkpt>
      <trkpt lat="59.243437" lon="18.11604">
        <ele>24</ele>
        <time>2019-11-26T16:19:58Z</time>
      </trkpt>
      <trkpt lat="59.243471" lon="18.115937">
        <ele>24</ele>
        <time>2019-11-26T16:20:00Z</time>
      </trkpt>
      <trkpt lat="59.243504" lon="18.115833">
        <ele>24</ele>
        <time>2019-11-26T16:20:00Z</time>
      </trkpt>
      <trkpt lat="59.243536" lon="18.11573">
        <ele>24</ele>
        <time>2019-11-26T16:20:01Z</time>
      </trkpt>
      <trkpt lat="59.243566" lon="18.115626">
        <ele>24</ele>
        <time>2019-11-26T16:20:02Z</time>
      </trkpt>
      <trkpt lat="59.24359" lon="18.115517">
        <ele>24</ele>
        <time>2019-11-26T16:20:04Z</time>
      </trkpt>
      <trkpt lat="59.243605" lon="18.115403">
        <ele>24</ele>
        <time>2019-11-26T16:20:04Z</time>
      </trkpt>
      <trkpt lat="59.243614" lon="18.115286">
        <ele>24</ele>
        <time>2019-11-26T16:20:05Z</time>
      </trkpt>
      <trkpt lat="59.243622" lon="18.115171">
        <ele>24</ele>
        <time>2019-11-26T16:20:06Z</time>
      </trkpt>
      <trkpt lat="59.243633" lon="18.115059">
        <ele>24</ele>
        <time>2019-11-26T16:20:08Z</time>
      </trkpt>
      <trkpt lat="59.243648" lon="18.114949">
        <ele>24</ele>
        <time>2019-11-26T16:20:08Z</time>
      </trkpt>
      <trkpt lat="59.243666" lon="18.114842">
        <ele>24</ele>
        <time>2019-11-26T16:20:09Z</time>
      </trkpt>
      <trkpt lat="59.243685" lon="18.114735">
        <ele>24</ele>
        <time>2019-11-26T16:20:10Z</time>
      </trkpt>
      <trkpt lat="59.243704" lon="18.11463">
        <ele>24</ele>
        <time>2019-11-26T16:20:11Z</time>
      </trkpt>
      <trkpt lat="59.243723" lon="18.114524">
        <ele>24</ele>
        <time>2019-11-26T16:20:12Z</time>
      </trkpt>
      <trkpt lat="59.24374" lon="18.114416">
        <ele>24</ele>
        <time>2019-11-26T16:20:13Z</time>
      </trkpt>
      <trkpt lat="59.243756" lon="18.114308">
        <ele>24</ele>
        <time>2019-11-26T16:20:14Z</time>
      </trkpt>
      <trkpt lat="59.243772" lon="18.114198">
        <ele>24</ele>
        <time>2019-11-26T16:20:15Z</time>
      </trkpt>
      <trkpt lat="59.243787" lon="18.114088">
        <ele>25</ele>
        <time>2019-11-26T16:20:17Z</time>
      </trkpt>
      <trkpt lat="59.2438" lon="18.113975">
        <ele>25</ele>
        <time>2019-11-26T16:20:17Z</time>
      </trkpt>
      <trkpt lat="59.243813" lon="18.113864">
        <ele>25</ele>
        <time>2019-11-26T16:20:18Z</time>
      </trkpt>
      <trkpt lat="59.243826" lon="18.113753">
        <ele>25</ele>
        <time>2019-11-26T16:20:19Z</time>
      </trkpt>
      <trkpt lat="59.243837" lon="18.113641">
        <ele>25</ele>
        <time>2019-11-26T16:20:20Z</time>
      </trkpt>
      <trkpt lat="59.243849" lon="18.113533">
        <ele>25</ele>
        <time>2019-11-26T16:20:21Z</time>
      </trkpt>
      <trkpt lat="59.243861" lon="18.113427">
        <ele>25</ele>
        <time>2019-11-26T16:20:23Z</time>
      </trkpt>
      <trkpt lat="59.243872" lon="18.113325">
        <ele>25</ele>
        <time>2019-11-26T16:20:23Z</time>
      </trkpt>
      <trkpt lat="59.243882" lon="18.113217">
        <ele>25</ele>
        <time>2019-11-26T16:20:24Z</time>
      </trkpt>
      <trkpt lat="59.243891" lon="18.113107">
        <ele>26</ele>
        <time>2019-11-26T16:20:26Z</time>
      </trkpt>
      <trkpt lat="59.243898" lon="18.112994">
        <ele>26</ele>
        <time>2019-11-26T16:20:26Z</time>
      </trkpt>
      <trkpt lat="59.243904" lon="18.112881">
        <ele>26</ele>
        <time>2019-11-26T16:20:27Z</time>
      </trkpt>
      <trkpt lat="59.24391" lon="18.112769">
        <ele>26</ele>
        <time>2019-11-26T16:20:28Z</time>
      </trkpt>
      <trkpt lat="59.243913" lon="18.11266">
        <ele>26</ele>
        <time>2019-11-26T16:20:29Z</time>
      </trkpt>
      <trkpt lat="59.243917" lon="18.112551">
        <ele>26</ele>
        <time>2019-11-26T16:20:30Z</time>
      </trkpt>
      <trkpt lat="59.24392" lon="18.112442">
        <ele>26</ele>
        <time>2019-11-26T16:20:31Z</time>
      </trkpt>
      <trkpt lat="59.243921" lon="18.112331">
        <ele>26</ele>
        <time>2019-11-26T16:20:32Z</time>
      </trkpt>
      <trkpt lat="59.243921" lon="18.11222">
        <ele>26</ele>
        <time>2019-11-26T16:20:34Z</time>
      </trkpt>
      <trkpt lat="59.243923" lon="18.112111">
        <ele>26</ele>
        <time>2019-11-26T16:20:34Z</time>
      </trkpt>
      <trkpt lat="59.243924" lon="18.112003">
        <ele>26</ele>
        <time>2019-11-26T16:20:35Z</time>
      </trkpt>
      <trkpt lat="59.243925" lon="18.111895">
        <ele>26</ele>
        <time>2019-11-26T16:20:36Z</time>
      </trkpt>
      <trkpt lat="59.243926" lon="18.11179">
        <ele>26</ele>
        <time>2019-11-26T16:20:37Z</time>
      </trkpt>
      <trkpt lat="59.243925" lon="18.111691">
        <ele>26</ele>
        <time>2019-11-26T16:20:38Z</time>
      </trkpt>
      <trkpt lat="59.243925" lon="18.111595">
        <ele>26</ele>
        <time>2019-11-26T16:20:39Z</time>
      </trkpt>
      <trkpt lat="59.243926" lon="18.111499">
        <ele>26</ele>
        <time>2019-11-26T16:20:40Z</time>
      </trkpt>
      <trkpt lat="59.243928" lon="18.111403">
        <ele>26</ele>
        <time>2019-11-26T16:20:42Z</time>
      </trkpt>
      <trkpt lat="59.243931" lon="18.111306">
        <ele>26</ele>
        <time>2019-11-26T16:20:42Z</time>
      </trkpt>
      <trkpt lat="59.243932" lon="18.111211">
        <ele>26</ele>
        <time>2019-11-26T16:20:44Z</time>
      </trkpt>
      <trkpt lat="59.243934" lon="18.111114">
        <ele>26</ele>
        <time>2019-11-26T16:20:44Z</time>
      </trkpt>
      <trkpt lat="59.243935" lon="18.111019">
        <ele>26</ele>
        <time>2019-11-26T16:20:45Z</time>
      </trkpt>
      <trkpt lat="59.243937" lon="18.110923">
        <ele>26</ele>
        <time>2019-11-26T16:20:46Z</time>
      </trkpt>
      <trkpt lat="59.24394" lon="18.110828">
        <ele>26</ele>
        <time>2019-11-26T16:20:47Z</time>
      </trkpt>
      <trkpt lat="59.243942" lon="18.110734">
        <ele>26</ele>
        <time>2019-11-26T16:20:48Z</time>
      </trkpt>
      <trkpt lat="59.243943" lon="18.110639">
        <ele>26</ele>
        <time>2019-11-26T16:20:49Z</time>
      </trkpt>
      <trkpt lat="59.243945" lon="18.110544">
        <ele>26</ele>
        <time>2019-11-26T16:20:50Z</time>
      </trkpt>
      <trkpt lat="59.243946" lon="18.110452">
        <ele>26</ele>
        <time>2019-11-26T16:20:51Z</time>
      </trkpt>
      <trkpt lat="59.243948" lon="18.110358">
        <ele>26</ele>
        <time>2019-11-26T16:20:52Z</time>
      </trkpt>
      <trkpt lat="59.24395" lon="18.110265">
        <ele>27</ele>
        <time>2019-11-26T16:20:54Z</time>
      </trkpt>
      <trkpt lat="59.243952" lon="18.11017">
        <ele>27</ele>
        <time>2019-11-26T16:20:54Z</time>
      </trkpt>
      <trkpt lat="59.243954" lon="18.110078">
        <ele>27</ele>
        <time>2019-11-26T16:20:55Z</time>
      </trkpt>
      <trkpt lat="59.243956" lon="18.109987">
        <ele>27</ele>
        <time>2019-11-26T16:20:56Z</time>
      </trkpt>
      <trkpt lat="59.243959" lon="18.109895">
        <ele>27</ele>
        <time>2019-11-26T16:20:57Z</time>
      </trkpt>
      <trkpt lat="59.243965" lon="18.109804">
        <ele>27</ele>
        <time>2019-11-26T16:20:58Z</time>
      </trkpt>
      <trkpt lat="59.243973" lon="18.109712">
        <ele>27</ele>
        <time>2019-11-26T16:20:59Z</time>
      </trkpt>
      <trkpt lat="59.243983" lon="18.109621">
        <ele>27</ele>
        <time>2019-11-26T16:21:01Z</time>
      </trkpt>
      <trkpt lat="59.243996" lon="18.109532">
        <ele>27</ele>
        <time>2019-11-26T16:21:01Z</time>
      </trkpt>
      <trkpt lat="59.244011" lon="18.109445">
        <ele>28</ele>
        <time>2019-11-26T16:21:02Z</time>
      </trkpt>
      <trkpt lat="59.244028" lon="18.10936">
        <ele>28</ele>
        <time>2019-11-26T16:21:03Z</time>
      </trkpt>
      <trkpt lat="59.244047" lon="18.109279">
        <ele>28</ele>
        <time>2019-11-26T16:21:05Z</time>
      </trkpt>
      <trkpt lat="59.244069" lon="18.109199">
        <ele>28</ele>
        <time>2019-11-26T16:21:05Z</time>
      </trkpt>
      <trkpt lat="59.244096" lon="18.109122">
        <ele>28</ele>
        <time>2019-11-26T16:21:06Z</time>
      </trkpt>
      <trkpt lat="59.244125" lon="18.109051">
        <ele>28</ele>
        <time>2019-11-26T16:21:07Z</time>
      </trkpt>
      <trkpt lat="59.244155" lon="18.108977">
        <ele>28</ele>
        <time>2019-11-26T16:21:08Z</time>
      </trkpt>
      <trkpt lat="59.244185" lon="18.108905">
        <ele>28</ele>
        <time>2019-11-26T16:21:09Z</time>
      </trkpt>
      <trkpt lat="59.244219" lon="18.108838">
        <ele>28</ele>
        <time>2019-11-26T16:21:10Z</time>
      </trkpt>
      <trkpt lat="59.244255" lon="18.108771">
        <ele>28</ele>
        <time>2019-11-26T16:21:11Z</time>
      </trkpt>
      <trkpt lat="59.244291" lon="18.108707">
        <ele>28</ele>
        <time>2019-11-26T16:21:12Z</time>
      </trkpt>
      <trkpt lat="59.244328" lon="18.108642">
        <ele>28</ele>
        <time>2019-11-26T16:21:13Z</time>
      </trkpt>
      <trkpt lat="59.244364" lon="18.108576">
        <ele>0</ele>
        <time>2019-11-26T16:21:14Z</time>
      </trkpt>
      <trkpt lat="59.2444" lon="18.108508">
        <ele>28</ele>
        <time>2019-11-26T16:21:15Z</time>
      </trkpt>
      <trkpt lat="59.244436" lon="18.10844">
        <ele>28</ele>
        <time>2019-11-26T16:21:16Z</time>
      </trkpt>
      <trkpt lat="59.244471" lon="18.108373">
        <ele>28</ele>
        <time>2019-11-26T16:21:17Z</time>
      </trkpt>
      <trkpt lat="59.244507" lon="18.108305">
        <ele>28</ele>
        <time>2019-11-26T16:21:18Z</time>
      </trkpt>
      <trkpt lat="59.244544" lon="18.108237">
        <ele>28</ele>
        <time>2019-11-26T16:21:20Z</time>
      </trkpt>
      <trkpt lat="59.244579" lon="18.108168">
        <ele>28</ele>
        <time>2019-11-26T16:21:20Z</time>
      </trkpt>
      <trkpt lat="59.244616" lon="18.108104">
        <ele>28</ele>
        <time>2019-11-26T16:21:21Z</time>
      </trkpt>
      <trkpt lat="59.244652" lon="18.108037">
        <ele>28</ele>
        <time>2019-11-26T16:21:22Z</time>
      </trkpt>
      <trkpt lat="59.244688" lon="18.10797">
        <ele>29</ele>
        <time>2019-11-26T16:21:23Z</time>
      </trkpt>
      <trkpt lat="59.244723" lon="18.1079">
        <ele>29</ele>
        <time>2019-11-26T16:21:24Z</time>
      </trkpt>
      <trkpt lat="59.244758" lon="18.10783">
        <ele>29</ele>
        <time>2019-11-26T16:21:26Z</time>
      </trkpt>
      <trkpt lat="59.244793" lon="18.107764">
        <ele>29</ele>
        <time>2019-11-26T16:21:26Z</time>
      </trkpt>
      <trkpt lat="59.244829" lon="18.107697">
        <ele>29</ele>
        <time>2019-11-26T16:21:27Z</time>
      </trkpt>
      <trkpt lat="59.244866" lon="18.10763">
        <ele>29</ele>
        <time>2019-11-26T16:21:28Z</time>
      </trkpt>
      <trkpt lat="59.244904" lon="18.107561">
        <ele>29</ele>
        <time>2019-11-26T16:21:29Z</time>
      </trkpt>
      <trkpt lat="59.244944" lon="18.107493">
        <ele>29</ele>
        <time>2019-11-26T16:21:30Z</time>
      </trkpt>
      <trkpt lat="59.244986" lon="18.107426">
        <ele>29</ele>
        <time>2019-11-26T16:21:31Z</time>
      </trkpt>
      <trkpt lat="59.245029" lon="18.10736">
        <ele>29</ele>
        <time>2019-11-26T16:21:32Z</time>
      </trkpt>
      <trkpt lat="59.245073" lon="18.107292">
        <ele>29</ele>
        <time>2019-11-26T16:21:33Z</time>
      </trkpt>
      <trkpt lat="59.245116" lon="18.107221">
        <ele>29</ele>
        <time>2019-11-26T16:21:35Z</time>
      </trkpt>
      <trkpt lat="59.245157" lon="18.107145">
        <ele>29</ele>
        <time>2019-11-26T16:21:35Z</time>
      </trkpt>
      <trkpt lat="59.245199" lon="18.107064">
        <ele>29</ele>
        <time>2019-11-26T16:21:36Z</time>
      </trkpt>
      <trkpt lat="59.245242" lon="18.106981">
        <ele>29</ele>
        <time>2019-11-26T16:21:37Z</time>
      </trkpt>
      <trkpt lat="59.245287" lon="18.106897">
        <ele>29</ele>
        <time>2019-11-26T16:21:39Z</time>
      </trkpt>
      <trkpt lat="59.245333" lon="18.106812">
        <ele>29</ele>
        <time>2019-11-26T16:21:39Z</time>
      </trkpt>
      <trkpt lat="59.245381" lon="18.106724">
        <ele>29</ele>
        <time>2019-11-26T16:21:40Z</time>
      </trkpt>
      <trkpt lat="59.24543" lon="18.106635">
        <ele>29</ele>
        <time>2019-11-26T16:21:41Z</time>
      </trkpt>
      <trkpt lat="59.245478" lon="18.106545">
        <ele>29</ele>
        <time>2019-11-26T16:21:43Z</time>
      </trkpt>
      <trkpt lat="59.245528" lon="18.106452">
        <ele>29</ele>
        <time>2019-11-26T16:21:43Z</time>
      </trkpt>
      <trkpt lat="59.245579" lon="18.10636">
        <ele>29</ele>
        <time>2019-11-26T16:21:44Z</time>
      </trkpt>
      <trkpt lat="59.245632" lon="18.106271">
        <ele>29</ele>
        <time>2019-11-26T16:21:45Z</time>
      </trkpt>
      <trkpt lat="59.245688" lon="18.106183">
        <ele>29</ele>
        <time>2019-11-26T16:21:46Z</time>
      </trkpt>
      <trkpt lat="59.245744" lon="18.106101">
        <ele>30</ele>
        <time>2019-11-26T16:21:47Z</time>
      </trkpt>
      <trkpt lat="59.245799" lon="18.106024">
        <ele>30</ele>
        <time>2019-11-26T16:21:48Z</time>
      </trkpt>
      <trkpt lat="59.245854" lon="18.105936">
        <ele>30</ele>
        <time>2019-11-26T16:21:50Z</time>
      </trkpt>
      <trkpt lat="59.24591" lon="18.105842">
        <ele>30</ele>
        <time>2019-11-26T16:21:50Z</time>
      </trkpt>
      <trkpt lat="59.245969" lon="18.105752">
        <ele>30</ele>
        <time>2019-11-26T16:21:51Z</time>
      </trkpt>
      <trkpt lat="59.246026" lon="18.105663">
        <ele>30</ele>
        <time>2019-11-26T16:21:52Z</time>
      </trkpt>
      <trkpt lat="59.246081" lon="18.105572">
        <ele>30</ele>
        <time>2019-11-26T16:21:53Z</time>
      </trkpt>
      <trkpt lat="59.246141" lon="18.105488">
        <ele>30</ele>
        <time>2019-11-26T16:21:54Z</time>
      </trkpt>
      <trkpt lat="59.246209" lon="18.105424">
        <ele>29</ele>
        <time>2019-11-26T16:21:55Z</time>
      </trkpt>
      <trkpt lat="59.246282" lon="18.105388">
        <ele>29</ele>
        <time>2019-11-26T16:21:57Z</time>
      </trkpt>
      <trkpt lat="59.246355" lon="18.105367">
        <ele>29</ele>
        <time>2019-11-26T16:21:58Z</time>
      </trkpt>
      <trkpt lat="59.246429" lon="18.105351">
        <ele>28</ele>
        <time>2019-11-26T16:21:58Z</time>
      </trkpt>
      <trkpt lat="59.2465" lon="18.105338">
        <ele>28</ele>
        <time>2019-11-26T16:21:59Z</time>
      </trkpt>
      <trkpt lat="59.246561" lon="18.105309">
        <ele>28</ele>
        <time>2019-11-26T16:22:00Z</time>
      </trkpt>
      <trkpt lat="59.246615" lon="18.105264">
        <ele>28</ele>
        <time>2019-11-26T16:22:01Z</time>
      </trkpt>
      <trkpt lat="59.246666" lon="18.105203">
        <ele>28</ele>
        <time>2019-11-26T16:22:02Z</time>
      </trkpt>
      <trkpt lat="59.246716" lon="18.105129">
        <ele>28</ele>
        <time>2019-11-26T16:22:04Z</time>
      </trkpt>
      <trkpt lat="59.246765" lon="18.105052">
        <ele>27</ele>
        <time>2019-11-26T16:22:04Z</time>
      </trkpt>
      <trkpt lat="59.246818" lon="18.104977">
        <ele>27</ele>
        <time>2019-11-26T16:22:05Z</time>
      </trkpt>
      <trkpt lat="59.246874" lon="18.104902">
        <ele>27</ele>
        <time>2019-11-26T16:22:06Z</time>
      </trkpt>
      <trkpt lat="59.246922" lon="18.104824">
        <ele>27</ele>
        <time>2019-11-26T16:22:07Z</time>
      </trkpt>
      <trkpt lat="59.246952" lon="18.104734">
        <ele>27</ele>
        <time>2019-11-26T16:22:08Z</time>
      </trkpt>
      <trkpt lat="59.246964" lon="18.104629">
        <ele>27</ele>
        <time>2019-11-26T16:22:09Z</time>
      </trkpt>
      <trkpt lat="59.246962" lon="18.10452">
        <ele>27</ele>
        <time>2019-11-26T16:22:10Z</time>
      </trkpt>
      <trkpt lat="59.246955" lon="18.10419">
        <ele>27</ele>
        <time>2019-11-26T16:22:13Z</time>
      </trkpt>
      <trkpt lat="59.24698" lon="18.103973">
        <ele>27</ele>
        <time>2019-11-26T16:22:15Z</time>
      </trkpt>
      <trkpt lat="59.246998" lon="18.103866">
        <ele>27</ele>
        <time>2019-11-26T16:22:17Z</time>
      </trkpt>
      <trkpt lat="59.247026" lon="18.103773">
        <ele>27</ele>
        <time>2019-11-26T16:22:17Z</time>
      </trkpt>
      <trkpt lat="59.247053" lon="18.10369">
        <ele>27</ele>
        <time>2019-11-26T16:22:18Z</time>
      </trkpt>
      <trkpt lat="59.247083" lon="18.103616">
        <ele>27</ele>
        <time>2019-11-26T16:22:19Z</time>
      </trkpt>
      <trkpt lat="59.247113" lon="18.103552">
        <ele>27</ele>
        <time>2019-11-26T16:22:20Z</time>
      </trkpt>
      <trkpt lat="59.247147" lon="18.103496">
        <ele>27</ele>
        <time>2019-11-26T16:22:22Z</time>
      </trkpt>
      <trkpt lat="59.247176" lon="18.10344">
        <ele>27</ele>
        <time>2019-11-26T16:22:22Z</time>
      </trkpt>
      <trkpt lat="59.247207" lon="18.103389">
        <ele>27</ele>
        <time>2019-11-26T16:22:23Z</time>
      </trkpt>
      <trkpt lat="59.247239" lon="18.103339">
        <ele>28</ele>
        <time>2019-11-26T16:22:24Z</time>
      </trkpt>
      <trkpt lat="59.247274" lon="18.10329">
        <ele>28</ele>
        <time>2019-11-26T16:22:25Z</time>
      </trkpt>
      <trkpt lat="59.247309" lon="18.103236">
        <ele>28</ele>
        <time>2019-11-26T16:22:26Z</time>
      </trkpt>
      <trkpt lat="59.247343" lon="18.103179">
        <ele>28</ele>
        <time>2019-11-26T16:22:27Z</time>
      </trkpt>
      <trkpt lat="59.247375" lon="18.103124">
        <ele>28</ele>
        <time>2019-11-26T16:22:28Z</time>
      </trkpt>
      <trkpt lat="59.247405" lon="18.103067">
        <ele>28</ele>
        <time>2019-11-26T16:22:29Z</time>
      </trkpt>
      <trkpt lat="59.247432" lon="18.103008">
        <ele>28</ele>
        <time>2019-11-26T16:22:30Z</time>
      </trkpt>
      <trkpt lat="59.247459" lon="18.102941">
        <ele>28</ele>
        <time>2019-11-26T16:22:31Z</time>
      </trkpt>
      <trkpt lat="59.247484" lon="18.10287">
        <ele>28</ele>
        <time>2019-11-26T16:22:32Z</time>
      </trkpt>
      <trkpt lat="59.247507" lon="18.102797">
        <ele>29</ele>
        <time>2019-11-26T16:22:34Z</time>
      </trkpt>
      <trkpt lat="59.247529" lon="18.102721">
        <ele>29</ele>
        <time>2019-11-26T16:22:34Z</time>
      </trkpt>
      <trkpt lat="59.247551" lon="18.102641">
        <ele>29</ele>
        <time>2019-11-26T16:22:36Z</time>
      </trkpt>
      <trkpt lat="59.247574" lon="18.102557">
        <ele>29</ele>
        <time>2019-11-26T16:22:36Z</time>
      </trkpt>
      <trkpt lat="59.247598" lon="18.102468">
        <ele>29</ele>
        <time>2019-11-26T16:22:37Z</time>
      </trkpt>
      <trkpt lat="59.247619" lon="18.102381">
        <ele>29</ele>
        <time>2019-11-26T16:22:38Z</time>
      </trkpt>
      <trkpt lat="59.247641" lon="18.102292">
        <ele>29</ele>
        <time>2019-11-26T16:22:39Z</time>
      </trkpt>
      <trkpt lat="59.247662" lon="18.102203">
        <ele>30</ele>
        <time>2019-11-26T16:22:40Z</time>
      </trkpt>
      <trkpt lat="59.247684" lon="18.102113">
        <ele>30</ele>
        <time>2019-11-26T16:22:41Z</time>
      </trkpt>
      <trkpt lat="59.247706" lon="18.102024">
        <ele>30</ele>
        <time>2019-11-26T16:22:42Z</time>
      </trkpt>
      <trkpt lat="59.247729" lon="18.101936">
        <ele>30</ele>
        <time>2019-11-26T16:22:44Z</time>
      </trkpt>
      <trkpt lat="59.247752" lon="18.101847">
        <ele>30</ele>
        <time>2019-11-26T16:22:44Z</time>
      </trkpt>
      <trkpt lat="59.247774" lon="18.101755">
        <ele>30</ele>
        <time>2019-11-26T16:22:45Z</time>
      </trkpt>
      <trkpt lat="59.247798" lon="18.101663">
        <ele>30</ele>
        <time>2019-11-26T16:22:46Z</time>
      </trkpt>
      <trkpt lat="59.247826" lon="18.101572">
        <ele>30</ele>
        <time>2019-11-26T16:22:47Z</time>
      </trkpt>
      <trkpt lat="59.247855" lon="18.101481">
        <ele>30</ele>
        <time>2019-11-26T16:22:48Z</time>
      </trkpt>
      <trkpt lat="59.247886" lon="18.101389">
        <ele>31</ele>
        <time>2019-11-26T16:22:49Z</time>
      </trkpt>
      <trkpt lat="59.247918" lon="18.101297">
        <ele>31</ele>
        <time>2019-11-26T16:22:50Z</time>
      </trkpt>
      <trkpt lat="59.247952" lon="18.101205">
        <ele>31</ele>
        <time>2019-11-26T16:22:51Z</time>
      </trkpt>
      <trkpt lat="59.247986" lon="18.101112">
        <ele>31</ele>
        <time>2019-11-26T16:22:53Z</time>
      </trkpt>
      <trkpt lat="59.248023" lon="18.101017">
        <ele>31</ele>
        <time>2019-11-26T16:22:53Z</time>
      </trkpt>
      <trkpt lat="59.248062" lon="18.10092">
        <ele>31</ele>
        <time>2019-11-26T16:22:55Z</time>
      </trkpt>
      <trkpt lat="59.248103" lon="18.100825">
        <ele>31</ele>
        <time>2019-11-26T16:22:55Z</time>
      </trkpt>
      <trkpt lat="59.248148" lon="18.100738">
        <ele>31</ele>
        <time>2019-11-26T16:22:56Z</time>
      </trkpt>
      <trkpt lat="59.248199" lon="18.100662">
        <ele>31</ele>
        <time>2019-11-26T16:22:57Z</time>
      </trkpt>
      <trkpt lat="59.248256" lon="18.100596">
        <ele>30</ele>
        <time>2019-11-26T16:22:58Z</time>
      </trkpt>
      <trkpt lat="59.248317" lon="18.100539">
        <ele>30</ele>
        <time>2019-11-26T16:22:59Z</time>
      </trkpt>
      <trkpt lat="59.248384" lon="18.100484">
        <ele>30</ele>
        <time>2019-11-26T16:23:01Z</time>
      </trkpt>
      <trkpt lat="59.248454" lon="18.100425">
        <ele>30</ele>
        <time>2019-11-26T16:23:01Z</time>
      </trkpt>
      <trkpt lat="59.248524" lon="18.100356">
        <ele>30</ele>
        <time>2019-11-26T16:23:02Z</time>
      </trkpt>
      <trkpt lat="59.248588" lon="18.100278">
        <ele>30</ele>
        <time>2019-11-26T16:23:03Z</time>
      </trkpt>
      <trkpt lat="59.248648" lon="18.100192">
        <ele>30</ele>
        <time>2019-11-26T16:23:04Z</time>
      </trkpt>
      <trkpt lat="59.248705" lon="18.100105">
        <ele>30</ele>
        <time>2019-11-26T16:23:05Z</time>
      </trkpt>
      <trkpt lat="59.248762" lon="18.100022">
        <ele>30</ele>
        <time>2019-11-26T16:23:07Z</time>
      </trkpt>
      <trkpt lat="59.248818" lon="18.099945">
        <ele>30</ele>
        <time>2019-11-26T16:23:07Z</time>
      </trkpt>
      <trkpt lat="59.248877" lon="18.099871">
        <ele>30</ele>
        <time>2019-11-26T16:23:08Z</time>
      </trkpt>
      <trkpt lat="59.248937" lon="18.099803">
        <ele>30</ele>
        <time>2019-11-26T16:23:09Z</time>
      </trkpt>
      <trkpt lat="59.249" lon="18.099745">
        <ele>29</ele>
        <time>2019-11-26T16:23:10Z</time>
      </trkpt>
      <trkpt lat="59.249065" lon="18.099692">
        <ele>29</ele>
        <time>2019-11-26T16:23:11Z</time>
      </trkpt>
      <trkpt lat="59.249133" lon="18.099646">
        <ele>29</ele>
        <time>2019-11-26T16:23:12Z</time>
      </trkpt>
      <trkpt lat="59.249203" lon="18.099608">
        <ele>29</ele>
        <time>2019-11-26T16:23:14Z</time>
      </trkpt>
      <trkpt lat="59.249274" lon="18.099574">
        <ele>29</ele>
        <time>2019-11-26T16:23:15Z</time>
      </trkpt>
      <trkpt lat="59.249347" lon="18.099542">
        <ele>29</ele>
        <time>2019-11-26T16:23:15Z</time>
      </trkpt>
      <trkpt lat="59.249421" lon="18.099512">
        <ele>29</ele>
        <time>2019-11-26T16:23:16Z</time>
      </trkpt>
      <trkpt lat="59.249495" lon="18.099483">
        <ele>29</ele>
        <time>2019-11-26T16:23:17Z</time>
      </trkpt>
      <trkpt lat="59.24957" lon="18.099457">
        <ele>29</ele>
        <time>2019-11-26T16:23:18Z</time>
      </trkpt>
      <trkpt lat="59.249645" lon="18.099443">
        <ele>29</ele>
        <time>2019-11-26T16:23:19Z</time>
      </trkpt>
      <trkpt lat="59.249719" lon="18.099445">
        <ele>29</ele>
        <time>2019-11-26T16:23:21Z</time>
      </trkpt>
      <trkpt lat="59.249791" lon="18.099465">
        <ele>29</ele>
        <time>2019-11-26T16:23:21Z</time>
      </trkpt>
      <trkpt lat="59.249858" lon="18.099491">
        <ele>29</ele>
        <time>2019-11-26T16:23:22Z</time>
      </trkpt>
      <trkpt lat="59.249921" lon="18.099519">
        <ele>29</ele>
        <time>2019-11-26T16:23:23Z</time>
      </trkpt>
      <trkpt lat="59.24998" lon="18.099549">
        <ele>29</ele>
        <time>2019-11-26T16:23:24Z</time>
      </trkpt>
      <trkpt lat="59.250035" lon="18.099577">
        <ele>29</ele>
        <time>2019-11-26T16:23:25Z</time>
      </trkpt>
      <trkpt lat="59.250089" lon="18.099601">
        <ele>29</ele>
        <time>2019-11-26T16:23:26Z</time>
      </trkpt>
      <trkpt lat="59.250142" lon="18.099625">
        <ele>29</ele>
        <time>2019-11-26T16:23:27Z</time>
      </trkpt>
      <trkpt lat="59.250193" lon="18.099649">
        <ele>29</ele>
        <time>2019-11-26T16:23:28Z</time>
      </trkpt>
      <trkpt lat="59.250244" lon="18.099674">
        <ele>29</ele>
        <time>2019-11-26T16:23:30Z</time>
      </trkpt>
      <trkpt lat="59.250293" lon="18.0997">
        <ele>29</ele>
        <time>2019-11-26T16:23:30Z</time>
      </trkpt>
      <trkpt lat="59.250341" lon="18.099722">
        <ele>29</ele>
        <time>2019-11-26T16:23:31Z</time>
      </trkpt>
      <trkpt lat="59.250388" lon="18.099746">
        <ele>29</ele>
        <time>2019-11-26T16:23:33Z</time>
      </trkpt>
      <trkpt lat="59.250434" lon="18.099775">
        <ele>29</ele>
        <time>2019-11-26T16:23:33Z</time>
      </trkpt>
      <trkpt lat="59.250479" lon="18.099808">
        <ele>29</ele>
        <time>2019-11-26T16:23:34Z</time>
      </trkpt>
      <trkpt lat="59.250523" lon="18.099852">
        <ele>29</ele>
        <time>2019-11-26T16:23:35Z</time>
      </trkpt>
      <trkpt lat="59.250564" lon="18.099905">
        <ele>29</ele>
        <time>2019-11-26T16:23:36Z</time>
      </trkpt>
      <trkpt lat="59.250602" lon="18.099963">
        <ele>30</ele>
        <time>2019-11-26T16:23:37Z</time>
      </trkpt>
      <trkpt lat="59.25064" lon="18.100021">
        <ele>30</ele>
        <time>2019-11-26T16:23:38Z</time>
      </trkpt>
      <trkpt lat="59.250677" lon="18.100083">
        <ele>30</ele>
        <time>2019-11-26T16:23:40Z</time>
      </trkpt>
      <trkpt lat="59.250712" lon="18.100157">
        <ele>30</ele>
        <time>2019-11-26T16:23:40Z</time>
      </trkpt>
      <trkpt lat="59.250745" lon="18.100239">
        <ele>30</ele>
        <time>2019-11-26T16:23:41Z</time>
      </trkpt>
      <trkpt lat="59.250777" lon="18.100324">
        <ele>30</ele>
        <time>2019-11-26T16:23:42Z</time>
      </trkpt>
      <trkpt lat="59.250812" lon="18.100407">
        <ele>30</ele>
        <time>2019-11-26T16:23:43Z</time>
      </trkpt>
      <trkpt lat="59.250851" lon="18.100486">
        <ele>29</ele>
        <time>2019-11-26T16:23:44Z</time>
      </trkpt>
      <trkpt lat="59.250896" lon="18.100566">
        <ele>29</ele>
        <time>2019-11-26T16:23:45Z</time>
      </trkpt>
      <trkpt lat="59.250947" lon="18.100639">
        <ele>29</ele>
        <time>2019-11-26T16:23:46Z</time>
      </trkpt>
      <trkpt lat="59.251" lon="18.100705">
        <ele>29</ele>
        <time>2019-11-26T16:23:48Z</time>
      </trkpt>
      <trkpt lat="59.251057" lon="18.100766">
        <ele>29</ele>
        <time>2019-11-26T16:23:48Z</time>
      </trkpt>
      <trkpt lat="59.251117" lon="18.100822">
        <ele>29</ele>
        <time>2019-11-26T16:23:49Z</time>
      </trkpt>
      <trkpt lat="59.25118" lon="18.100876">
        <ele>28</ele>
        <time>2019-11-26T16:23:50Z</time>
      </trkpt>
      <trkpt lat="59.251245" lon="18.100921">
        <ele>28</ele>
        <time>2019-11-26T16:23:52Z</time>
      </trkpt>
      <trkpt lat="59.251311" lon="18.100956">
        <ele>28</ele>
        <time>2019-11-26T16:23:52Z</time>
      </trkpt>
      <trkpt lat="59.251381" lon="18.100969">
        <ele>28</ele>
        <time>2019-11-26T16:23:53Z</time>
      </trkpt>
      <trkpt lat="59.251451" lon="18.100959">
        <ele>28</ele>
        <time>2019-11-26T16:23:54Z</time>
      </trkpt>
      <trkpt lat="59.251522" lon="18.100928">
        <ele>27</ele>
        <time>2019-11-26T16:23:56Z</time>
      </trkpt>
      <trkpt lat="59.251592" lon="18.100887">
        <ele>27</ele>
        <time>2019-11-26T16:23:56Z</time>
      </trkpt>
      <trkpt lat="59.251663" lon="18.100843">
        <ele>27</ele>
        <time>2019-11-26T16:23:57Z</time>
      </trkpt>
      <trkpt lat="59.251735" lon="18.100794">
        <ele>27</ele>
        <time>2019-11-26T16:23:58Z</time>
      </trkpt>
      <trkpt lat="59.251809" lon="18.100746">
        <ele>26</ele>
        <time>2019-11-26T16:23:59Z</time>
      </trkpt>
      <trkpt lat="59.251885" lon="18.100698">
        <ele>26</ele>
        <time>2019-11-26T16:24:00Z</time>
      </trkpt>
      <trkpt lat="59.251963" lon="18.100647">
        <ele>26</ele>
        <time>2019-11-26T16:24:02Z</time>
      </trkpt>
      <trkpt lat="59.252044" lon="18.100597">
        <ele>25</ele>
        <time>2019-11-26T16:24:02Z</time>
      </trkpt>
      <trkpt lat="59.252128" lon="18.100545">
        <ele>25</ele>
        <time>2019-11-26T16:24:03Z</time>
      </trkpt>
      <trkpt lat="59.252212" lon="18.100492">
        <ele>25</ele>
        <time>2019-11-26T16:24:04Z</time>
      </trkpt>
      <trkpt lat="59.252297" lon="18.100438">
        <ele>25</ele>
        <time>2019-11-26T16:24:05Z</time>
      </trkpt>
      <trkpt lat="59.252384" lon="18.100385">
        <ele>24</ele>
        <time>2019-11-26T16:24:06Z</time>
      </trkpt>
      <trkpt lat="59.252473" lon="18.100335">
        <ele>24</ele>
        <time>2019-11-26T16:24:08Z</time>
      </trkpt>
      <trkpt lat="59.252562" lon="18.10029">
        <ele>24</ele>
        <time>2019-11-26T16:24:08Z</time>
      </trkpt>
      <trkpt lat="59.25265" lon="18.100249">
        <ele>24</ele>
        <time>2019-11-26T16:24:09Z</time>
      </trkpt>
      <trkpt lat="59.252738" lon="18.100216">
        <ele>24</ele>
        <time>2019-11-26T16:24:11Z</time>
      </trkpt>
      <trkpt lat="59.252824" lon="18.100191">
        <ele>23</ele>
        <time>2019-11-26T16:24:11Z</time>
      </trkpt>
      <trkpt lat="59.252908" lon="18.100173">
        <ele>23</ele>
        <time>2019-11-26T16:24:13Z</time>
      </trkpt>
      <trkpt lat="59.252992" lon="18.100162">
        <ele>23</ele>
        <time>2019-11-26T16:24:13Z</time>
      </trkpt>
      <trkpt lat="59.253074" lon="18.100156">
        <ele>23</ele>
        <time>2019-11-26T16:24:14Z</time>
      </trkpt>
      <trkpt lat="59.253154" lon="18.100166">
        <ele>23</ele>
        <time>2019-11-26T16:24:15Z</time>
      </trkpt>
      <trkpt lat="59.253228" lon="18.100195">
        <ele>23</ele>
        <time>2019-11-26T16:24:16Z</time>
      </trkpt>
      <trkpt lat="59.253298" lon="18.100241">
        <ele>23</ele>
        <time>2019-11-26T16:24:17Z</time>
      </trkpt>
      <trkpt lat="59.253364" lon="18.100295">
        <ele>23</ele>
        <time>2019-11-26T16:24:18Z</time>
      </trkpt>
      <trkpt lat="59.25343" lon="18.100349">
        <ele>23</ele>
        <time>2019-11-26T16:24:20Z</time>
      </trkpt>
      <trkpt lat="59.253498" lon="18.100397">
        <ele>23</ele>
        <time>2019-11-26T16:24:20Z</time>
      </trkpt>
      <trkpt lat="59.253566" lon="18.10044">
        <ele>23</ele>
        <time>2019-11-26T16:24:21Z</time>
      </trkpt>
      <trkpt lat="59.253634" lon="18.10048">
        <ele>23</ele>
        <time>2019-11-26T16:24:22Z</time>
      </trkpt>
      <trkpt lat="59.2537" lon="18.100513">
        <ele>23</ele>
        <time>2019-11-26T16:24:23Z</time>
      </trkpt>
      <trkpt lat="59.253766" lon="18.100539">
        <ele>23</ele>
        <time>2019-11-26T16:24:24Z</time>
      </trkpt>
      <trkpt lat="59.253831" lon="18.100561">
        <ele>23</ele>
        <time>2019-11-26T16:24:25Z</time>
      </trkpt>
      <trkpt lat="59.253894" lon="18.100583">
        <ele>23</ele>
        <time>2019-11-26T16:24:27Z</time>
      </trkpt>
      <trkpt lat="59.253955" lon="18.100606">
        <ele>23</ele>
        <time>2019-11-26T16:24:27Z</time>
      </trkpt>
      <trkpt lat="59.254015" lon="18.10063">
        <ele>23</ele>
        <time>2019-11-26T16:24:28Z</time>
      </trkpt>
      <trkpt lat="59.254074" lon="18.100642">
        <ele>23</ele>
        <time>2019-11-26T16:24:30Z</time>
      </trkpt>
      <trkpt lat="59.254132" lon="18.100646">
        <ele>23</ele>
        <time>2019-11-26T16:24:30Z</time>
      </trkpt>
      <trkpt lat="59.254187" lon="18.100651">
        <ele>23</ele>
        <time>2019-11-26T16:24:31Z</time>
      </trkpt>
      <trkpt lat="59.254242" lon="18.100664">
        <ele>23</ele>
        <time>2019-11-26T16:24:32Z</time>
      </trkpt>
      <trkpt lat="59.254301" lon="18.10069">
        <ele>22</ele>
        <time>2019-11-26T16:24:33Z</time>
      </trkpt>
      <trkpt lat="59.254364" lon="18.100717">
        <ele>22</ele>
        <time>2019-11-26T16:24:34Z</time>
      </trkpt>
      <trkpt lat="59.254425" lon="18.10074">
        <ele>23</ele>
        <time>2019-11-26T16:24:36Z</time>
      </trkpt>
      <trkpt lat="59.254481" lon="18.100761">
        <ele>23</ele>
        <time>2019-11-26T16:24:36Z</time>
      </trkpt>
      <trkpt lat="59.254542" lon="18.100782">
        <ele>23</ele>
        <time>2019-11-26T16:24:37Z</time>
      </trkpt>
      <trkpt lat="59.254608" lon="18.100801">
        <ele>23</ele>
        <time>2019-11-26T16:24:38Z</time>
      </trkpt>
      <trkpt lat="59.254675" lon="18.10082">
        <ele>23</ele>
        <time>2019-11-26T16:24:39Z</time>
      </trkpt>
      <trkpt lat="59.25474" lon="18.100842">
        <ele>23</ele>
        <time>2019-11-26T16:24:40Z</time>
      </trkpt>
      <trkpt lat="59.2548" lon="18.100861">
        <ele>23</ele>
        <time>2019-11-26T16:24:41Z</time>
      </trkpt>
      <trkpt lat="59.254856" lon="18.100876">
        <ele>23</ele>
        <time>2019-11-26T16:24:42Z</time>
      </trkpt>
      <trkpt lat="59.254908" lon="18.100891">
        <ele>23</ele>
        <time>2019-11-26T16:24:44Z</time>
      </trkpt>
      <trkpt lat="59.254963" lon="18.100908">
        <ele>23</ele>
        <time>2019-11-26T16:24:44Z</time>
      </trkpt>
      <trkpt lat="59.255025" lon="18.100924">
        <ele>23</ele>
        <time>2019-11-26T16:24:45Z</time>
      </trkpt>
      <trkpt lat="59.255089" lon="18.100939">
        <ele>23</ele>
        <time>2019-11-26T16:24:46Z</time>
      </trkpt>
      <trkpt lat="59.255155" lon="18.100954">
        <ele>23</ele>
        <time>2019-11-26T16:24:47Z</time>
      </trkpt>
      <trkpt lat="59.255218" lon="18.100967">
        <ele>23</ele>
        <time>2019-11-26T16:24:49Z</time>
      </trkpt>
      <trkpt lat="59.255281" lon="18.100978">
        <ele>23</ele>
        <time>2019-11-26T16:24:49Z</time>
      </trkpt>
      <trkpt lat="59.255343" lon="18.100988">
        <ele>23</ele>
        <time>2019-11-26T16:24:50Z</time>
      </trkpt>
      <trkpt lat="59.255415" lon="18.101003">
        <ele>24</ele>
        <time>2019-11-26T16:24:52Z</time>
      </trkpt>
      <trkpt lat="59.255479" lon="18.101015">
        <ele>24</ele>
        <time>2019-11-26T16:24:52Z</time>
      </trkpt>
      <trkpt lat="59.255543" lon="18.101027">
        <ele>24</ele>
        <time>2019-11-26T16:24:53Z</time>
      </trkpt>
      <trkpt lat="59.255603" lon="18.101038">
        <ele>24</ele>
        <time>2019-11-26T16:24:54Z</time>
      </trkpt>
      <trkpt lat="59.255665" lon="18.101049">
        <ele>24</ele>
        <time>2019-11-26T16:24:55Z</time>
      </trkpt>
      <trkpt lat="59.255728" lon="18.101061">
        <ele>24</ele>
        <time>2019-11-26T16:24:56Z</time>
      </trkpt>
      <trkpt lat="59.255788" lon="18.101074">
        <ele>24</ele>
        <time>2019-11-26T16:24:57Z</time>
      </trkpt>
      <trkpt lat="59.255845" lon="18.101084">
        <ele>24</ele>
        <time>2019-11-26T16:24:58Z</time>
      </trkpt>
      <trkpt lat="59.255904" lon="18.101091">
        <ele>24</ele>
        <time>2019-11-26T16:25:00Z</time>
      </trkpt>
      <trkpt lat="59.255969" lon="18.101094">
        <ele>24</ele>
        <time>2019-11-26T16:25:00Z</time>
      </trkpt>
      <trkpt lat="59.255928" lon="18.101098">
        <ele>24</ele>
        <time>2019-11-26T16:25:01Z</time>
      </trkpt>
      <trkpt lat="59.25596" lon="18.101105">
        <ele>24</ele>
        <time>2019-11-26T16:25:02Z</time>
      </trkpt>
      <trkpt lat="59.256023" lon="18.10111">
        <ele>24</ele>
        <time>2019-11-26T16:25:03Z</time>
      </trkpt>
      <trkpt lat="59.256095" lon="18.101114">
        <ele>24</ele>
        <time>2019-11-26T16:25:04Z</time>
      </trkpt>
      <trkpt lat="59.256183" lon="18.101121">
        <ele>24</ele>
        <time>2019-11-26T16:25:05Z</time>
      </trkpt>
      <trkpt lat="59.256269" lon="18.101125">
        <ele>24</ele>
        <time>2019-11-26T16:25:07Z</time>
      </trkpt>
      <trkpt lat="59.256344" lon="18.101126">
        <ele>24</ele>
        <time>2019-11-26T16:25:08Z</time>
      </trkpt>
      <trkpt lat="59.256416" lon="18.101129">
        <ele>24</ele>
        <time>2019-11-26T16:25:08Z</time>
      </trkpt>
      <trkpt lat="59.256486" lon="18.101133">
        <ele>24</ele>
        <time>2019-11-26T16:25:09Z</time>
      </trkpt>
      <trkpt lat="59.256559" lon="18.10114">
        <ele>24</ele>
        <time>2019-11-26T16:25:10Z</time>
      </trkpt>
      <trkpt lat="59.256627" lon="18.101148">
        <ele>24</ele>
        <time>2019-11-26T16:25:11Z</time>
      </trkpt>
      <trkpt lat="59.256688" lon="18.101156">
        <ele>24</ele>
        <time>2019-11-26T16:25:12Z</time>
      </trkpt>
      <trkpt lat="59.25675" lon="18.101157">
        <ele>24</ele>
        <time>2019-11-26T16:25:13Z</time>
      </trkpt>
      <trkpt lat="59.256813" lon="18.101154">
        <ele>24</ele>
        <time>2019-11-26T16:25:15Z</time>
      </trkpt>
      <trkpt lat="59.256873" lon="18.101142">
        <ele>24</ele>
        <time>2019-11-26T16:25:15Z</time>
      </trkpt>
      <trkpt lat="59.256925" lon="18.101107">
        <ele>24</ele>
        <time>2019-11-26T16:25:16Z</time>
      </trkpt>
      <trkpt lat="59.256967" lon="18.101037">
        <ele>24</ele>
        <time>2019-11-26T16:25:17Z</time>
      </trkpt>
      <trkpt lat="59.256997" lon="18.10095">
        <ele>25</ele>
        <time>2019-11-26T16:25:18Z</time>
      </trkpt>
      <trkpt lat="59.257027" lon="18.100841">
        <ele>25</ele>
        <time>2019-11-26T16:25:19Z</time>
      </trkpt>
      <trkpt lat="59.257053" lon="18.100732">
        <ele>25</ele>
        <time>2019-11-26T16:25:20Z</time>
      </trkpt>
      <trkpt lat="59.25717" lon="18.100149">
        <ele>25</ele>
        <time>2019-11-26T16:25:25Z</time>
      </trkpt>
      <trkpt lat="59.257263" lon="18.099893">
        <ele>25</ele>
        <time>2019-11-26T16:25:27Z</time>
      </trkpt>
      <trkpt lat="59.257344" lon="18.099727">
        <ele>27</ele>
        <time>2019-11-26T16:25:29Z</time>
      </trkpt>
      <trkpt lat="59.257375" lon="18.099628">
        <ele>27</ele>
        <time>2019-11-26T16:25:31Z</time>
      </trkpt>
      <trkpt lat="59.257412" lon="18.099538">
        <ele>27</ele>
        <time>2019-11-26T16:25:31Z</time>
      </trkpt>
      <trkpt lat="59.25744" lon="18.099464">
        <ele>28</ele>
        <time>2019-11-26T16:25:32Z</time>
      </trkpt>
      <trkpt lat="59.257476" lon="18.099393">
        <ele>28</ele>
        <time>2019-11-26T16:25:33Z</time>
      </trkpt>
      <trkpt lat="59.257516" lon="18.099334">
        <ele>29</ele>
        <time>2019-11-26T16:25:34Z</time>
      </trkpt>
      <trkpt lat="59.257558" lon="18.099282">
        <ele>29</ele>
        <time>2019-11-26T16:25:35Z</time>
      </trkpt>
      <trkpt lat="59.257606" lon="18.099243">
        <ele>29</ele>
        <time>2019-11-26T16:25:36Z</time>
      </trkpt>
      <trkpt lat="59.257656" lon="18.099223">
        <ele>29</ele>
        <time>2019-11-26T16:25:37Z</time>
      </trkpt>
      <trkpt lat="59.25771" lon="18.099209">
        <ele>29</ele>
        <time>2019-11-26T16:25:38Z</time>
      </trkpt>
      <trkpt lat="59.257763" lon="18.099207">
        <ele>30</ele>
        <time>2019-11-26T16:25:40Z</time>
      </trkpt>
      <trkpt lat="59.257815" lon="18.099214">
        <ele>30</ele>
        <time>2019-11-26T16:25:40Z</time>
      </trkpt>
      <trkpt lat="59.257864" lon="18.099223">
        <ele>30</ele>
        <time>2019-11-26T16:25:41Z</time>
      </trkpt>
      <trkpt lat="59.257913" lon="18.099234">
        <ele>30</ele>
        <time>2019-11-26T16:25:42Z</time>
      </trkpt>
      <trkpt lat="59.257957" lon="18.099251">
        <ele>31</ele>
        <time>2019-11-26T16:25:43Z</time>
      </trkpt>
      <trkpt lat="59.257997" lon="18.099269">
        <ele>32</ele>
        <time>2019-11-26T16:25:44Z</time>
      </trkpt>
      <trkpt lat="59.258035" lon="18.09928">
        <ele>34</ele>
        <time>2019-11-26T16:25:46Z</time>
      </trkpt>
      <trkpt lat="59.258078" lon="18.099284">
        <ele>35</ele>
        <time>2019-11-26T16:25:46Z</time>
      </trkpt>
      <trkpt lat="59.25812" lon="18.099282">
        <ele>36</ele>
        <time>2019-11-26T16:25:47Z</time>
      </trkpt>
      <trkpt lat="59.258176" lon="18.099278">
        <ele>37</ele>
        <time>2019-11-26T16:25:48Z</time>
      </trkpt>
      <trkpt lat="59.258236" lon="18.099266">
        <ele>37</ele>
        <time>2019-11-26T16:25:49Z</time>
      </trkpt>
      <trkpt lat="59.258295" lon="18.099261">
        <ele>37</ele>
        <time>2019-11-26T16:25:51Z</time>
      </trkpt>
      <trkpt lat="59.258352" lon="18.09926">
        <ele>38</ele>
        <time>2019-11-26T16:25:51Z</time>
      </trkpt>
      <trkpt lat="59.258408" lon="18.099257">
        <ele>38</ele>
        <time>2019-11-26T16:25:52Z</time>
      </trkpt>
      <trkpt lat="59.258467" lon="18.09926">
        <ele>39</ele>
        <time>2019-11-26T16:25:53Z</time>
      </trkpt>
      <trkpt lat="59.258523" lon="18.099255">
        <ele>39</ele>
        <time>2019-11-26T16:25:54Z</time>
      </trkpt>
      <trkpt lat="59.258581" lon="18.099248">
        <ele>38</ele>
        <time>2019-11-26T16:25:55Z</time>
      </trkpt>
      <trkpt lat="59.258642" lon="18.099245">
        <ele>38</ele>
        <time>2019-11-26T16:25:56Z</time>
      </trkpt>
      <trkpt lat="59.258703" lon="18.099247">
        <ele>37</ele>
        <time>2019-11-26T16:25:57Z</time>
      </trkpt>
      <trkpt lat="59.258762" lon="18.099245">
        <ele>37</ele>
        <time>2019-11-26T16:25:59Z</time>
      </trkpt>
      <trkpt lat="59.258821" lon="18.099238">
        <ele>37</ele>
        <time>2019-11-26T16:25:59Z</time>
      </trkpt>
      <trkpt lat="59.258879" lon="18.099232">
        <ele>37</ele>
        <time>2019-11-26T16:26:00Z</time>
      </trkpt>
      <trkpt lat="59.258937" lon="18.099226">
        <ele>37</ele>
        <time>2019-11-26T16:26:01Z</time>
      </trkpt>
      <trkpt lat="59.258996" lon="18.099223">
        <ele>37</ele>
        <time>2019-11-26T16:26:02Z</time>
      </trkpt>
      <trkpt lat="59.259056" lon="18.099219">
        <ele>36</ele>
        <time>2019-11-26T16:26:03Z</time>
      </trkpt>
      <trkpt lat="59.25912" lon="18.099213">
        <ele>35</ele>
        <time>2019-11-26T16:26:05Z</time>
      </trkpt>
      <trkpt lat="59.259186" lon="18.099205">
        <ele>35</ele>
        <time>2019-11-26T16:26:05Z</time>
      </trkpt>
      <trkpt lat="59.259252" lon="18.099187">
        <ele>34</ele>
        <time>2019-11-26T16:26:07Z</time>
      </trkpt>
      <trkpt lat="59.259317" lon="18.09915">
        <ele>34</ele>
        <time>2019-11-26T16:26:07Z</time>
      </trkpt>
      <trkpt lat="59.259379" lon="18.099098">
        <ele>33</ele>
        <time>2019-11-26T16:26:08Z</time>
      </trkpt>
      <trkpt lat="59.259436" lon="18.099037">
        <ele>33</ele>
        <time>2019-11-26T16:26:09Z</time>
      </trkpt>
      <trkpt lat="59.259488" lon="18.098962">
        <ele>33</ele>
        <time>2019-11-26T16:26:10Z</time>
      </trkpt>
      <trkpt lat="59.259533" lon="18.098874">
        <ele>32</ele>
        <time>2019-11-26T16:26:11Z</time>
      </trkpt>
      <trkpt lat="59.25957" lon="18.098775">
        <ele>32</ele>
        <time>2019-11-26T16:26:12Z</time>
      </trkpt>
      <trkpt lat="59.259598" lon="18.098666">
        <ele>32</ele>
        <time>2019-11-26T16:26:13Z</time>
      </trkpt>
      <trkpt lat="59.259619" lon="18.098552">
        <ele>32</ele>
        <time>2019-11-26T16:26:15Z</time>
      </trkpt>
      <trkpt lat="59.259634" lon="18.098436">
        <ele>32</ele>
        <time>2019-11-26T16:26:15Z</time>
      </trkpt>
      <trkpt lat="59.259644" lon="18.098321">
        <ele>32</ele>
        <time>2019-11-26T16:26:16Z</time>
      </trkpt>
      <trkpt lat="59.259653" lon="18.098205">
        <ele>32</ele>
        <time>2019-11-26T16:26:17Z</time>
      </trkpt>
      <trkpt lat="59.25966" lon="18.098092">
        <ele>32</ele>
        <time>2019-11-26T16:26:18Z</time>
      </trkpt>
      <trkpt lat="59.259668" lon="18.097981">
        <ele>32</ele>
        <time>2019-11-26T16:26:19Z</time>
      </trkpt>
      <trkpt lat="59.259677" lon="18.097872">
        <ele>32</ele>
        <time>2019-11-26T16:26:20Z</time>
      </trkpt>
      <trkpt lat="59.259688" lon="18.097764">
        <ele>32</ele>
        <time>2019-11-26T16:26:22Z</time>
      </trkpt>
      <trkpt lat="59.259699" lon="18.097657">
        <ele>32</ele>
        <time>2019-11-26T16:26:23Z</time>
      </trkpt>
      <trkpt lat="59.25972" lon="18.097445">
        <ele>32</ele>
        <time>2019-11-26T16:26:24Z</time>
      </trkpt>
      <trkpt lat="59.259735" lon="18.097341">
        <ele>32</ele>
        <time>2019-11-26T16:26:25Z</time>
      </trkpt>
      <trkpt lat="59.259758" lon="18.097246">
        <ele>32</ele>
        <time>2019-11-26T16:26:26Z</time>
      </trkpt>
      <trkpt lat="59.259788" lon="18.097157">
        <ele>32</ele>
        <time>2019-11-26T16:26:27Z</time>
      </trkpt>
      <trkpt lat="59.259827" lon="18.097074">
        <ele>31</ele>
        <time>2019-11-26T16:26:28Z</time>
      </trkpt>
      <trkpt lat="59.259875" lon="18.097001">
        <ele>31</ele>
        <time>2019-11-26T16:26:29Z</time>
      </trkpt>
      <trkpt lat="59.259929" lon="18.096934">
        <ele>31</ele>
        <time>2019-11-26T16:26:30Z</time>
      </trkpt>
      <trkpt lat="59.259987" lon="18.096871">
        <ele>30</ele>
        <time>2019-11-26T16:26:32Z</time>
      </trkpt>
      <trkpt lat="59.260051" lon="18.096812">
        <ele>30</ele>
        <time>2019-11-26T16:26:32Z</time>
      </trkpt>
      <trkpt lat="59.260118" lon="18.096759">
        <ele>30</ele>
        <time>2019-11-26T16:26:33Z</time>
      </trkpt>
      <trkpt lat="59.260186" lon="18.096712">
        <ele>30</ele>
        <time>2019-11-26T16:26:34Z</time>
      </trkpt>
      <trkpt lat="59.260323" lon="18.096627">
        <ele>29</ele>
        <time>2019-11-26T16:26:36Z</time>
      </trkpt>
      <trkpt lat="59.260404" lon="18.096578">
        <ele>29</ele>
        <time>2019-11-26T16:26:37Z</time>
      </trkpt>
      <trkpt lat="59.260554" lon="18.096532">
        <ele>29</ele>
        <time>2019-11-26T16:26:39Z</time>
      </trkpt>
      <trkpt lat="59.260611" lon="18.096532">
        <ele>29</ele>
        <time>2019-11-26T16:26:40Z</time>
      </trkpt>
      <trkpt lat="59.260666" lon="18.096524">
        <ele>29</ele>
        <time>2019-11-26T16:26:42Z</time>
      </trkpt>
      <trkpt lat="59.26072" lon="18.096518">
        <ele>29</ele>
        <time>2019-11-26T16:26:43Z</time>
      </trkpt>
      <trkpt lat="59.260772" lon="18.096511">
        <ele>29</ele>
        <time>2019-11-26T16:26:43Z</time>
      </trkpt>
      <trkpt lat="59.260824" lon="18.096501">
        <ele>29</ele>
        <time>2019-11-26T16:26:44Z</time>
      </trkpt>
      <trkpt lat="59.260875" lon="18.09649">
        <ele>29</ele>
        <time>2019-11-26T16:26:45Z</time>
      </trkpt>
      <trkpt lat="59.260925" lon="18.096482">
        <ele>29</ele>
        <time>2019-11-26T16:26:46Z</time>
      </trkpt>
      <trkpt lat="59.260975" lon="18.096483">
        <ele>29</ele>
        <time>2019-11-26T16:26:48Z</time>
      </trkpt>
      <trkpt lat="59.261027" lon="18.096494">
        <ele>29</ele>
        <time>2019-11-26T16:26:48Z</time>
      </trkpt>
      <trkpt lat="59.261078" lon="18.096514">
        <ele>29</ele>
        <time>2019-11-26T16:26:49Z</time>
      </trkpt>
      <trkpt lat="59.261128" lon="18.09654">
        <ele>29</ele>
        <time>2019-11-26T16:26:50Z</time>
      </trkpt>
      <trkpt lat="59.261179" lon="18.096572">
        <ele>29</ele>
        <time>2019-11-26T16:26:51Z</time>
      </trkpt>
      <trkpt lat="59.26123" lon="18.096609">
        <ele>29</ele>
        <time>2019-11-26T16:26:52Z</time>
      </trkpt>
      <trkpt lat="59.261283" lon="18.096651">
        <ele>29</ele>
        <time>2019-11-26T16:26:53Z</time>
      </trkpt>
      <trkpt lat="59.261337" lon="18.096697">
        <ele>29</ele>
        <time>2019-11-26T16:26:54Z</time>
      </trkpt>
      <trkpt lat="59.261389" lon="18.096749">
        <ele>29</ele>
        <time>2019-11-26T16:26:55Z</time>
      </trkpt>
      <trkpt lat="59.261441" lon="18.09681">
        <ele>29</ele>
        <time>2019-11-26T16:26:57Z</time>
      </trkpt>
      <trkpt lat="59.261491" lon="18.096876">
        <ele>29</ele>
        <time>2019-11-26T16:26:57Z</time>
      </trkpt>
      <trkpt lat="59.26154" lon="18.096946">
        <ele>29</ele>
        <time>2019-11-26T16:26:58Z</time>
      </trkpt>
      <trkpt lat="59.261587" lon="18.09702">
        <ele>29</ele>
        <time>2019-11-26T16:26:59Z</time>
      </trkpt>
      <trkpt lat="59.261633" lon="18.097094">
        <ele>29</ele>
        <time>2019-11-26T16:27:00Z</time>
      </trkpt>
      <trkpt lat="59.261679" lon="18.09717">
        <ele>29</ele>
        <time>2019-11-26T16:27:02Z</time>
      </trkpt>
      <trkpt lat="59.261724" lon="18.097245">
        <ele>29</ele>
        <time>2019-11-26T16:27:02Z</time>
      </trkpt>
      <trkpt lat="59.261769" lon="18.09732">
        <ele>29</ele>
        <time>2019-11-26T16:27:03Z</time>
      </trkpt>
      <trkpt lat="59.261814" lon="18.097394">
        <ele>29</ele>
        <time>2019-11-26T16:27:05Z</time>
      </trkpt>
      <trkpt lat="59.261859" lon="18.097466">
        <ele>29</ele>
        <time>2019-11-26T16:27:05Z</time>
      </trkpt>
      <trkpt lat="59.261905" lon="18.097539">
        <ele>29</ele>
        <time>2019-11-26T16:27:06Z</time>
      </trkpt>
      <trkpt lat="59.26195" lon="18.097612">
        <ele>29</ele>
        <time>2019-11-26T16:27:07Z</time>
      </trkpt>
      <trkpt lat="59.261996" lon="18.097684">
        <ele>29</ele>
        <time>2019-11-26T16:27:08Z</time>
      </trkpt>
      <trkpt lat="59.262041" lon="18.097753">
        <ele>29</ele>
        <time>2019-11-26T16:27:09Z</time>
      </trkpt>
      <trkpt lat="59.262086" lon="18.097823">
        <ele>29</ele>
        <time>2019-11-26T16:27:10Z</time>
      </trkpt>
      <trkpt lat="59.26213" lon="18.097891">
        <ele>29</ele>
        <time>2019-11-26T16:27:11Z</time>
      </trkpt>
      <trkpt lat="59.262174" lon="18.097956">
        <ele>29</ele>
        <time>2019-11-26T16:27:12Z</time>
      </trkpt>
      <trkpt lat="59.26222" lon="18.098018">
        <ele>29</ele>
        <time>2019-11-26T16:27:14Z</time>
      </trkpt>
      <trkpt lat="59.262269" lon="18.098071">
        <ele>29</ele>
        <time>2019-11-26T16:27:14Z</time>
      </trkpt>
      <trkpt lat="59.262319" lon="18.098114">
        <ele>29</ele>
        <time>2019-11-26T16:27:15Z</time>
      </trkpt>
      <trkpt lat="59.26237" lon="18.098148">
        <ele>29</ele>
        <time>2019-11-26T16:27:16Z</time>
      </trkpt>
      <trkpt lat="59.262422" lon="18.098172">
        <ele>29</ele>
        <time>2019-11-26T16:27:17Z</time>
      </trkpt>
      <trkpt lat="59.262475" lon="18.098186">
        <ele>29</ele>
        <time>2019-11-26T16:27:18Z</time>
      </trkpt>
      <trkpt lat="59.262526" lon="18.098194">
        <ele>29</ele>
        <time>2019-11-26T16:27:19Z</time>
      </trkpt>
      <trkpt lat="59.262577" lon="18.098198">
        <ele>29</ele>
        <time>2019-11-26T16:27:21Z</time>
      </trkpt>
      <trkpt lat="59.262627" lon="18.098199">
        <ele>29</ele>
        <time>2019-11-26T16:27:21Z</time>
      </trkpt>
      <trkpt lat="59.262677" lon="18.098199">
        <ele>29</ele>
        <time>2019-11-26T16:27:22Z</time>
      </trkpt>
      <trkpt lat="59.262726" lon="18.098199">
        <ele>29</ele>
        <time>2019-11-26T16:27:24Z</time>
      </trkpt>
      <trkpt lat="59.262775" lon="18.098197">
        <ele>30</ele>
        <time>2019-11-26T16:27:24Z</time>
      </trkpt>
      <trkpt lat="59.262823" lon="18.098195">
        <ele>30</ele>
        <time>2019-11-26T16:27:25Z</time>
      </trkpt>
      <trkpt lat="59.262872" lon="18.098194">
        <ele>30</ele>
        <time>2019-11-26T16:27:26Z</time>
      </trkpt>
      <trkpt lat="59.262918" lon="18.098194">
        <ele>30</ele>
        <time>2019-11-26T16:27:27Z</time>
      </trkpt>
      <trkpt lat="59.26296" lon="18.098191">
        <ele>30</ele>
        <time>2019-11-26T16:27:28Z</time>
      </trkpt>
      <trkpt lat="59.263004" lon="18.098186">
        <ele>30</ele>
        <time>2019-11-26T16:27:29Z</time>
      </trkpt>
      <trkpt lat="59.263042" lon="18.098181">
        <ele>31</ele>
        <time>2019-11-26T16:27:30Z</time>
      </trkpt>
      <trkpt lat="59.263087" lon="18.098176">
        <ele>31</ele>
        <time>2019-11-26T16:27:31Z</time>
      </trkpt>
      <trkpt lat="59.263136" lon="18.09817">
        <ele>31</ele>
        <time>2019-11-26T16:27:32Z</time>
      </trkpt>
      <trkpt lat="59.263183" lon="18.09816">
        <ele>31</ele>
        <time>2019-11-26T16:27:33Z</time>
      </trkpt>
      <trkpt lat="59.263227" lon="18.098147">
        <ele>31</ele>
        <time>2019-11-26T16:27:35Z</time>
      </trkpt>
      <trkpt lat="59.263271" lon="18.098132">
        <ele>31</ele>
        <time>2019-11-26T16:27:35Z</time>
      </trkpt>
      <trkpt lat="59.263317" lon="18.098119">
        <ele>32</ele>
        <time>2019-11-26T16:27:36Z</time>
      </trkpt>
      <trkpt lat="59.263362" lon="18.098108">
        <ele>32</ele>
        <time>2019-11-26T16:27:37Z</time>
      </trkpt>
      <trkpt lat="59.263406" lon="18.098095">
        <ele>32</ele>
        <time>2019-11-26T16:27:38Z</time>
      </trkpt>
      <trkpt lat="59.263451" lon="18.09808">
        <ele>32</ele>
        <time>2019-11-26T16:27:40Z</time>
      </trkpt>
      <trkpt lat="59.263494" lon="18.098065">
        <ele>32</ele>
        <time>2019-11-26T16:27:40Z</time>
      </trkpt>
      <trkpt lat="59.263538" lon="18.098052">
        <ele>33</ele>
        <time>2019-11-26T16:27:41Z</time>
      </trkpt>
      <trkpt lat="59.263583" lon="18.098037">
        <ele>33</ele>
        <time>2019-11-26T16:27:42Z</time>
      </trkpt>
      <trkpt lat="59.263625" lon="18.098024">
        <ele>33</ele>
        <time>2019-11-26T16:27:43Z</time>
      </trkpt>
      <trkpt lat="59.263668" lon="18.098011">
        <ele>33</ele>
        <time>2019-11-26T16:27:44Z</time>
      </trkpt>
      <trkpt lat="59.263708" lon="18.097995">
        <ele>33</ele>
        <time>2019-11-26T16:27:46Z</time>
      </trkpt>
      <trkpt lat="59.263751" lon="18.097981">
        <ele>33</ele>
        <time>2019-11-26T16:27:46Z</time>
      </trkpt>
      <trkpt lat="59.263796" lon="18.097969">
        <ele>33</ele>
        <time>2019-11-26T16:27:47Z</time>
      </trkpt>
      <trkpt lat="59.26384" lon="18.097957">
        <ele>33</ele>
        <time>2019-11-26T16:27:48Z</time>
      </trkpt>
      <trkpt lat="59.263883" lon="18.097941">
        <ele>33</ele>
        <time>2019-11-26T16:27:49Z</time>
      </trkpt>
      <trkpt lat="59.263927" lon="18.097925">
        <ele>33</ele>
        <time>2019-11-26T16:27:50Z</time>
      </trkpt>
      <trkpt lat="59.263974" lon="18.097911">
        <ele>34</ele>
        <time>2019-11-26T16:27:51Z</time>
      </trkpt>
      <trkpt lat="59.26402" lon="18.097896">
        <ele>34</ele>
        <time>2019-11-26T16:27:52Z</time>
      </trkpt>
      <trkpt lat="59.264067" lon="18.097878">
        <ele>34</ele>
        <time>2019-11-26T16:27:53Z</time>
      </trkpt>
      <trkpt lat="59.264113" lon="18.09786">
        <ele>34</ele>
        <time>2019-11-26T16:27:54Z</time>
      </trkpt>
      <trkpt lat="59.26416" lon="18.09784">
        <ele>34</ele>
        <time>2019-11-26T16:27:55Z</time>
      </trkpt>
      <trkpt lat="59.264207" lon="18.097818">
        <ele>34</ele>
        <time>2019-11-26T16:27:57Z</time>
      </trkpt>
      <trkpt lat="59.264255" lon="18.097796">
        <ele>35</ele>
        <time>2019-11-26T16:27:57Z</time>
      </trkpt>
      <trkpt lat="59.264302" lon="18.097774">
        <ele>35</ele>
        <time>2019-11-26T16:27:59Z</time>
      </trkpt>
      <trkpt lat="59.264351" lon="18.097753">
        <ele>35</ele>
        <time>2019-11-26T16:27:59Z</time>
      </trkpt>
      <trkpt lat="59.264399" lon="18.097729">
        <ele>35</ele>
        <time>2019-11-26T16:28:00Z</time>
      </trkpt>
      <trkpt lat="59.264448" lon="18.097707">
        <ele>35</ele>
        <time>2019-11-26T16:28:01Z</time>
      </trkpt>
      <trkpt lat="59.264498" lon="18.097686">
        <ele>35</ele>
        <time>2019-11-26T16:28:02Z</time>
      </trkpt>
      <trkpt lat="59.264551" lon="18.097663">
        <ele>35</ele>
        <time>2019-11-26T16:28:03Z</time>
      </trkpt>
      <trkpt lat="59.264607" lon="18.097636">
        <ele>35</ele>
        <time>2019-11-26T16:28:04Z</time>
      </trkpt>
      <trkpt lat="59.264667" lon="18.097609">
        <ele>35</ele>
        <time>2019-11-26T16:28:06Z</time>
      </trkpt>
      <trkpt lat="59.264726" lon="18.097582">
        <ele>35</ele>
        <time>2019-11-26T16:28:06Z</time>
      </trkpt>
      <trkpt lat="59.26479" lon="18.097556">
        <ele>35</ele>
        <time>2019-11-26T16:28:07Z</time>
      </trkpt>
      <trkpt lat="59.264853" lon="18.097526">
        <ele>35</ele>
        <time>2019-11-26T16:28:08Z</time>
      </trkpt>
      <trkpt lat="59.26492" lon="18.097495">
        <ele>35</ele>
        <time>2019-11-26T16:28:09Z</time>
      </trkpt>
      <trkpt lat="59.264987" lon="18.097464">
        <ele>35</ele>
        <time>2019-11-26T16:28:10Z</time>
      </trkpt>
      <trkpt lat="59.265058" lon="18.097431">
        <ele>35</ele>
        <time>2019-11-26T16:28:11Z</time>
      </trkpt>
      <trkpt lat="59.265126" lon="18.097396">
        <ele>35</ele>
        <time>2019-11-26T16:28:13Z</time>
      </trkpt>
      <trkpt lat="59.265196" lon="18.097368">
        <ele>35</ele>
        <time>2019-11-26T16:28:13Z</time>
      </trkpt>
      <trkpt lat="59.265256" lon="18.097356">
        <ele>35</ele>
        <time>2019-11-26T16:28:14Z</time>
      </trkpt>
      <trkpt lat="59.265306" lon="18.097374">
        <ele>35</ele>
        <time>2019-11-26T16:28:15Z</time>
      </trkpt>
      <trkpt lat="59.265342" lon="18.097432">
        <ele>35</ele>
        <time>2019-11-26T16:28:16Z</time>
      </trkpt>
      <trkpt lat="59.26536" lon="18.097509">
        <ele>35</ele>
        <time>2019-11-26T16:28:18Z</time>
      </trkpt>
      <trkpt lat="59.265372" lon="18.097592">
        <ele>35</ele>
        <time>2019-11-26T16:28:18Z</time>
      </trkpt>
      <trkpt lat="59.265409" lon="18.097987">
        <ele>35</ele>
        <time>2019-11-26T16:28:22Z</time>
      </trkpt>
      <trkpt lat="59.265462" lon="18.09815">
        <ele>37</ele>
        <time>2019-11-26T16:28:24Z</time>
      </trkpt>
      <trkpt lat="59.265562" lon="18.098191">
        <ele>36</ele>
        <time>2019-11-26T16:28:26Z</time>
      </trkpt>
      <trkpt lat="59.265596" lon="18.098167">
        <ele>35</ele>
        <time>2019-11-26T16:28:27Z</time>
      </trkpt>
      <trkpt lat="59.265634" lon="18.098148">
        <ele>35</ele>
        <time>2019-11-26T16:28:28Z</time>
      </trkpt>
      <trkpt lat="59.265669" lon="18.098122">
        <ele>35</ele>
        <time>2019-11-26T16:28:29Z</time>
      </trkpt>
      <trkpt lat="59.26571" lon="18.098099">
        <ele>35</ele>
        <time>2019-11-26T16:28:30Z</time>
      </trkpt>
      <trkpt lat="59.26575" lon="18.098074">
        <ele>35</ele>
        <time>2019-11-26T16:28:31Z</time>
      </trkpt>
      <trkpt lat="59.265788" lon="18.098047">
        <ele>35</ele>
        <time>2019-11-26T16:28:32Z</time>
      </trkpt>
      <trkpt lat="59.265826" lon="18.09802">
        <ele>35</ele>
        <time>2019-11-26T16:28:33Z</time>
      </trkpt>
      <trkpt lat="59.265863" lon="18.097994">
        <ele>35</ele>
        <time>2019-11-26T16:28:35Z</time>
      </trkpt>
      <trkpt lat="59.2659" lon="18.097969">
        <ele>35</ele>
        <time>2019-11-26T16:28:35Z</time>
      </trkpt>
      <trkpt lat="59.265935" lon="18.097943">
        <ele>35</ele>
        <time>2019-11-26T16:28:37Z</time>
      </trkpt>
      <trkpt lat="59.26597" lon="18.097916">
        <ele>35</ele>
        <time>2019-11-26T16:28:37Z</time>
      </trkpt>
      <trkpt lat="59.266" lon="18.09789">
        <ele>34</ele>
        <time>2019-11-26T16:28:38Z</time>
      </trkpt>
      <trkpt lat="59.266028" lon="18.097868">
        <ele>34</ele>
        <time>2019-11-26T16:28:39Z</time>
      </trkpt>
      <trkpt lat="59.266051" lon="18.097845">
        <ele>34</ele>
        <time>2019-11-26T16:28:40Z</time>
      </trkpt>
      <trkpt lat="59.266076" lon="18.097828">
        <ele>35</ele>
        <time>2019-11-26T16:28:41Z</time>
      </trkpt>
      <trkpt lat="59.266102" lon="18.097822">
        <ele>35</ele>
        <time>2019-11-26T16:28:42Z</time>
      </trkpt>
      <trkpt lat="59.26612" lon="18.097831">
        <ele>35</ele>
        <time>2019-11-26T16:28:43Z</time>
      </trkpt>
      <trkpt lat="59.266135" lon="18.097852">
        <ele>36</ele>
        <time>2019-11-26T16:28:45Z</time>
      </trkpt>
      <trkpt lat="59.266146" lon="18.097882">
        <ele>36</ele>
        <time>2019-11-26T16:28:45Z</time>
      </trkpt>
      <trkpt lat="59.26616" lon="18.097928">
        <ele>36</ele>
        <time>2019-11-26T16:28:46Z</time>
      </trkpt>
      <trkpt lat="59.266174" lon="18.097981">
        <ele>36</ele>
        <time>2019-11-26T16:28:47Z</time>
      </trkpt>
      <trkpt lat="59.266194" lon="18.098019">
        <ele>36</ele>
        <time>2019-11-26T16:28:48Z</time>
      </trkpt>
      <trkpt lat="59.26622" lon="18.098031">
        <ele>37</ele>
        <time>2019-11-26T16:28:49Z</time>
      </trkpt>
      <trkpt lat="59.266256" lon="18.098022">
        <ele>38</ele>
        <time>2019-11-26T16:28:50Z</time>
      </trkpt>
      <trkpt lat="59.266294" lon="18.098003">
        <ele>38</ele>
        <time>2019-11-26T16:28:52Z</time>
      </trkpt>
      <trkpt lat="59.266332" lon="18.097986">
        <ele>38</ele>
        <time>2019-11-26T16:28:52Z</time>
      </trkpt>
      <trkpt lat="59.266374" lon="18.097974">
        <ele>38</ele>
        <time>2019-11-26T16:28:53Z</time>
      </trkpt>
      <trkpt lat="59.266418" lon="18.097964">
        <ele>38</ele>
        <time>2019-11-26T16:28:54Z</time>
      </trkpt>
      <trkpt lat="59.266462" lon="18.097955">
        <ele>38</ele>
        <time>2019-11-26T16:28:56Z</time>
      </trkpt>
      <trkpt lat="59.266505" lon="18.09794">
        <ele>38</ele>
        <time>2019-11-26T16:28:56Z</time>
      </trkpt>
      <trkpt lat="59.266552" lon="18.097918">
        <ele>39</ele>
        <time>2019-11-26T16:28:57Z</time>
      </trkpt>
      <trkpt lat="59.266598" lon="18.097894">
        <ele>39</ele>
        <time>2019-11-26T16:28:58Z</time>
      </trkpt>
      <trkpt lat="59.266645" lon="18.097868">
        <ele>39</ele>
        <time>2019-11-26T16:28:59Z</time>
      </trkpt>
      <trkpt lat="59.26669" lon="18.097844">
        <ele>39</ele>
        <time>2019-11-26T16:29:00Z</time>
      </trkpt>
      <trkpt lat="59.266734" lon="18.097817">
        <ele>39</ele>
        <time>2019-11-26T16:29:01Z</time>
      </trkpt>
      <trkpt lat="59.266772" lon="18.097787">
        <ele>39</ele>
        <time>2019-11-26T16:29:03Z</time>
      </trkpt>
      <trkpt lat="59.266809" lon="18.097756">
        <ele>40</ele>
        <time>2019-11-26T16:29:03Z</time>
      </trkpt>
      <trkpt lat="59.266848" lon="18.097718">
        <ele>40</ele>
        <time>2019-11-26T16:29:04Z</time>
      </trkpt>
      <trkpt lat="59.26689" lon="18.097681">
        <ele>41</ele>
        <time>2019-11-26T16:29:05Z</time>
      </trkpt>
      <trkpt lat="59.266934" lon="18.097646">
        <ele>41</ele>
        <time>2019-11-26T16:29:06Z</time>
      </trkpt>
      <trkpt lat="59.266986" lon="18.097604">
        <ele>41</ele>
        <time>2019-11-26T16:29:07Z</time>
      </trkpt>
      <trkpt lat="59.267039" lon="18.097569">
        <ele>41</ele>
        <time>2019-11-26T16:29:08Z</time>
      </trkpt>
      <trkpt lat="59.267092" lon="18.097536">
        <ele>41</ele>
        <time>2019-11-26T16:29:09Z</time>
      </trkpt>
      <trkpt lat="59.267146" lon="18.097507">
        <ele>41</ele>
        <time>2019-11-26T16:29:10Z</time>
      </trkpt>
      <trkpt lat="59.267208" lon="18.097474">
        <ele>41</ele>
        <time>2019-11-26T16:29:11Z</time>
      </trkpt>
      <trkpt lat="59.267266" lon="18.097436">
        <ele>40</ele>
        <time>2019-11-26T16:29:13Z</time>
      </trkpt>
      <trkpt lat="59.267329" lon="18.097396">
        <ele>40</ele>
        <time>2019-11-26T16:29:13Z</time>
      </trkpt>
      <trkpt lat="59.267389" lon="18.097356">
        <ele>40</ele>
        <time>2019-11-26T16:29:15Z</time>
      </trkpt>
      <trkpt lat="59.267453" lon="18.097314">
        <ele>40</ele>
        <time>2019-11-26T16:29:15Z</time>
      </trkpt>
      <trkpt lat="59.267512" lon="18.097268">
        <ele>40</ele>
        <time>2019-11-26T16:29:16Z</time>
      </trkpt>
      <trkpt lat="59.26757" lon="18.097225">
        <ele>40</ele>
        <time>2019-11-26T16:29:17Z</time>
      </trkpt>
      <trkpt lat="59.267626" lon="18.097188">
        <ele>40</ele>
        <time>2019-11-26T16:29:18Z</time>
      </trkpt>
      <trkpt lat="59.267687" lon="18.097154">
        <ele>40</ele>
        <time>2019-11-26T16:29:20Z</time>
      </trkpt>
      <trkpt lat="59.267748" lon="18.097123">
        <ele>40</ele>
        <time>2019-11-26T16:29:20Z</time>
      </trkpt>
      <trkpt lat="59.26781" lon="18.097095">
        <ele>40</ele>
        <time>2019-11-26T16:29:21Z</time>
      </trkpt>
      <trkpt lat="59.26787" lon="18.09707">
        <ele>40</ele>
        <time>2019-11-26T16:29:22Z</time>
      </trkpt>
      <trkpt lat="59.267928" lon="18.097045">
        <ele>40</ele>
        <time>2019-11-26T16:29:23Z</time>
      </trkpt>
      <trkpt lat="59.267982" lon="18.097024">
        <ele>40</ele>
        <time>2019-11-26T16:29:24Z</time>
      </trkpt>
      <trkpt lat="59.268036" lon="18.096997">
        <ele>40</ele>
        <time>2019-11-26T16:29:25Z</time>
      </trkpt>
      <trkpt lat="59.268086" lon="18.096965">
        <ele>40</ele>
        <time>2019-11-26T16:29:26Z</time>
      </trkpt>
      <trkpt lat="59.268137" lon="18.096929">
        <ele>40</ele>
        <time>2019-11-26T16:29:27Z</time>
      </trkpt>
      <trkpt lat="59.268192" lon="18.096891">
        <ele>40</ele>
        <time>2019-11-26T16:29:29Z</time>
      </trkpt>
      <trkpt lat="59.268246" lon="18.096849">
        <ele>40</ele>
        <time>2019-11-26T16:29:29Z</time>
      </trkpt>
      <trkpt lat="59.268297" lon="18.096805">
        <ele>40</ele>
        <time>2019-11-26T16:29:30Z</time>
      </trkpt>
      <trkpt lat="59.26835" lon="18.09676">
        <ele>40</ele>
        <time>2019-11-26T16:29:31Z</time>
      </trkpt>
      <trkpt lat="59.268404" lon="18.096717">
        <ele>40</ele>
        <time>2019-11-26T16:29:32Z</time>
      </trkpt>
      <trkpt lat="59.268462" lon="18.096679">
        <ele>40</ele>
        <time>2019-11-26T16:29:34Z</time>
      </trkpt>
      <trkpt lat="59.268517" lon="18.096646">
        <ele>40</ele>
        <time>2019-11-26T16:29:34Z</time>
      </trkpt>
      <trkpt lat="59.268572" lon="18.096616">
        <ele>40</ele>
        <time>2019-11-26T16:29:35Z</time>
      </trkpt>
      <trkpt lat="59.268628" lon="18.096576">
        <ele>39</ele>
        <time>2019-11-26T16:29:36Z</time>
      </trkpt>
      <trkpt lat="59.268688" lon="18.096536">
        <ele>39</ele>
        <time>2019-11-26T16:29:38Z</time>
      </trkpt>
      <trkpt lat="59.268748" lon="18.096498">
        <ele>39</ele>
        <time>2019-11-26T16:29:38Z</time>
      </trkpt>
      <trkpt lat="59.268809" lon="18.096456">
        <ele>39</ele>
        <time>2019-11-26T16:29:39Z</time>
      </trkpt>
      <trkpt lat="59.268866" lon="18.096427">
        <ele>39</ele>
        <time>2019-11-26T16:29:40Z</time>
      </trkpt>
      <trkpt lat="59.268925" lon="18.096407">
        <ele>39</ele>
        <time>2019-11-26T16:29:41Z</time>
      </trkpt>
      <trkpt lat="59.268986" lon="18.096388">
        <ele>39</ele>
        <time>2019-11-26T16:29:42Z</time>
      </trkpt>
      <trkpt lat="59.269044" lon="18.096365">
        <ele>39</ele>
        <time>2019-11-26T16:29:43Z</time>
      </trkpt>
      <trkpt lat="59.2691" lon="18.096339">
        <ele>39</ele>
        <time>2019-11-26T16:29:44Z</time>
      </trkpt>
      <trkpt lat="59.269154" lon="18.09631">
        <ele>39</ele>
        <time>2019-11-26T16:29:46Z</time>
      </trkpt>
      <trkpt lat="59.269207" lon="18.09628">
        <ele>39</ele>
        <time>2019-11-26T16:29:46Z</time>
      </trkpt>
      <trkpt lat="59.269262" lon="18.096252">
        <ele>39</ele>
        <time>2019-11-26T16:29:47Z</time>
      </trkpt>
      <trkpt lat="59.269316" lon="18.096225">
        <ele>39</ele>
        <time>2019-11-26T16:29:48Z</time>
      </trkpt>
      <trkpt lat="59.269372" lon="18.096199">
        <ele>39</ele>
        <time>2019-11-26T16:29:49Z</time>
      </trkpt>
      <trkpt lat="59.269428" lon="18.096174">
        <ele>39</ele>
        <time>2019-11-26T16:29:50Z</time>
      </trkpt>
      <trkpt lat="59.269484" lon="18.096151">
        <ele>39</ele>
        <time>2019-11-26T16:29:51Z</time>
      </trkpt>
      <trkpt lat="59.269538" lon="18.096125">
        <ele>39</ele>
        <time>2019-11-26T16:29:53Z</time>
      </trkpt>
      <trkpt lat="59.269592" lon="18.096095">
        <ele>39</ele>
        <time>2019-11-26T16:29:53Z</time>
      </trkpt>
      <trkpt lat="59.26964" lon="18.096064">
        <ele>39</ele>
        <time>2019-11-26T16:29:55Z</time>
      </trkpt>
      <trkpt lat="59.269692" lon="18.096027">
        <ele>39</ele>
        <time>2019-11-26T16:29:55Z</time>
      </trkpt>
      <trkpt lat="59.269746" lon="18.095987">
        <ele>39</ele>
        <time>2019-11-26T16:29:56Z</time>
      </trkpt>
      <trkpt lat="59.269802" lon="18.095946">
        <ele>39</ele>
        <time>2019-11-26T16:29:57Z</time>
      </trkpt>
      <trkpt lat="59.26986" lon="18.095906">
        <ele>39</ele>
        <time>2019-11-26T16:29:58Z</time>
      </trkpt>
      <trkpt lat="59.26992" lon="18.095869">
        <ele>39</ele>
        <time>2019-11-26T16:29:59Z</time>
      </trkpt>
      <trkpt lat="59.269978" lon="18.095833">
        <ele>39</ele>
        <time>2019-11-26T16:30:00Z</time>
      </trkpt>
      <trkpt lat="59.270033" lon="18.095798">
        <ele>39</ele>
        <time>2019-11-26T16:30:01Z</time>
      </trkpt>
      <trkpt lat="59.270085" lon="18.095766">
        <ele>39</ele>
        <time>2019-11-26T16:30:03Z</time>
      </trkpt>
      <trkpt lat="59.270138" lon="18.09574">
        <ele>39</ele>
        <time>2019-11-26T16:30:03Z</time>
      </trkpt>
      <trkpt lat="59.270199" lon="18.095714">
        <ele>39</ele>
        <time>2019-11-26T16:30:04Z</time>
      </trkpt>
      <trkpt lat="59.270259" lon="18.095692">
        <ele>39</ele>
        <time>2019-11-26T16:30:05Z</time>
      </trkpt>
      <trkpt lat="59.270322" lon="18.095669">
        <ele>39</ele>
        <time>2019-11-26T16:30:06Z</time>
      </trkpt>
      <trkpt lat="59.270391" lon="18.095647">
        <ele>39</ele>
        <time>2019-11-26T16:30:07Z</time>
      </trkpt>
      <trkpt lat="59.270459" lon="18.095628">
        <ele>39</ele>
        <time>2019-11-26T16:30:08Z</time>
      </trkpt>
      <trkpt lat="59.270523" lon="18.095611">
        <ele>39</ele>
        <time>2019-11-26T16:30:09Z</time>
      </trkpt>
      <trkpt lat="59.270585" lon="18.09559">
        <ele>39</ele>
        <time>2019-11-26T16:30:11Z</time>
      </trkpt>
      <trkpt lat="59.270641" lon="18.09556">
        <ele>39</ele>
        <time>2019-11-26T16:30:12Z</time>
      </trkpt>
      <trkpt lat="59.270694" lon="18.095524">
        <ele>39</ele>
        <time>2019-11-26T16:30:12Z</time>
      </trkpt>
      <trkpt lat="59.27075" lon="18.095482">
        <ele>39</ele>
        <time>2019-11-26T16:30:13Z</time>
      </trkpt>
      <trkpt lat="59.27081" lon="18.095438">
        <ele>39</ele>
        <time>2019-11-26T16:30:14Z</time>
      </trkpt>
      <trkpt lat="59.270873" lon="18.095395">
        <ele>39</ele>
        <time>2019-11-26T16:30:15Z</time>
      </trkpt>
      <trkpt lat="59.270935" lon="18.095354">
        <ele>39</ele>
        <time>2019-11-26T16:30:16Z</time>
      </trkpt>
      <trkpt lat="59.270998" lon="18.095319">
        <ele>39</ele>
        <time>2019-11-26T16:30:17Z</time>
      </trkpt>
      <trkpt lat="59.27106" lon="18.095288">
        <ele>39</ele>
        <time>2019-11-26T16:30:19Z</time>
      </trkpt>
      <trkpt lat="59.27112" lon="18.095256">
        <ele>39</ele>
        <time>2019-11-26T16:30:19Z</time>
      </trkpt>
      <trkpt lat="59.271179" lon="18.095225">
        <ele>39</ele>
        <time>2019-11-26T16:30:20Z</time>
      </trkpt>
      <trkpt lat="59.27124" lon="18.095192">
        <ele>39</ele>
        <time>2019-11-26T16:30:21Z</time>
      </trkpt>
      <trkpt lat="59.271304" lon="18.095161">
        <ele>39</ele>
        <time>2019-11-26T16:30:22Z</time>
      </trkpt>
      <trkpt lat="59.271366" lon="18.095138">
        <ele>39</ele>
        <time>2019-11-26T16:30:23Z</time>
      </trkpt>
      <trkpt lat="59.271424" lon="18.09512">
        <ele>39</ele>
        <time>2019-11-26T16:30:24Z</time>
      </trkpt>
      <trkpt lat="59.271477" lon="18.0951">
        <ele>39</ele>
        <time>2019-11-26T16:30:25Z</time>
      </trkpt>
      <trkpt lat="59.271528" lon="18.095079">
        <ele>39</ele>
        <time>2019-11-26T16:30:26Z</time>
      </trkpt>
      <trkpt lat="59.271581" lon="18.09506">
        <ele>39</ele>
        <time>2019-11-26T16:30:28Z</time>
      </trkpt>
      <trkpt lat="59.271632" lon="18.095041">
        <ele>39</ele>
        <time>2019-11-26T16:30:28Z</time>
      </trkpt>
      <trkpt lat="59.271676" lon="18.095018">
        <ele>39</ele>
        <time>2019-11-26T16:30:29Z</time>
      </trkpt>
      <trkpt lat="59.271728" lon="18.094994">
        <ele>39</ele>
        <time>2019-11-26T16:30:31Z</time>
      </trkpt>
      <trkpt lat="59.271782" lon="18.094964">
        <ele>39</ele>
        <time>2019-11-26T16:30:31Z</time>
      </trkpt>
      <trkpt lat="59.271827" lon="18.094926">
        <ele>39</ele>
        <time>2019-11-26T16:30:32Z</time>
      </trkpt>
      <trkpt lat="59.271875" lon="18.094883">
        <ele>39</ele>
        <time>2019-11-26T16:30:33Z</time>
      </trkpt>
      <trkpt lat="59.271927" lon="18.094839">
        <ele>39</ele>
        <time>2019-11-26T16:30:34Z</time>
      </trkpt>
      <trkpt lat="59.271979" lon="18.094809">
        <ele>39</ele>
        <time>2019-11-26T16:30:35Z</time>
      </trkpt>
      <trkpt lat="59.272031" lon="18.094789">
        <ele>39</ele>
        <time>2019-11-26T16:30:37Z</time>
      </trkpt>
      <trkpt lat="59.27208" lon="18.094772">
        <ele>39</ele>
        <time>2019-11-26T16:30:37Z</time>
      </trkpt>
      <trkpt lat="59.27213" lon="18.094756">
        <ele>39</ele>
        <time>2019-11-26T16:30:38Z</time>
      </trkpt>
      <trkpt lat="59.272179" lon="18.094744">
        <ele>40</ele>
        <time>2019-11-26T16:30:39Z</time>
      </trkpt>
      <trkpt lat="59.272228" lon="18.094734">
        <ele>40</ele>
        <time>2019-11-26T16:30:40Z</time>
      </trkpt>
      <trkpt lat="59.272277" lon="18.094723">
        <ele>40</ele>
        <time>2019-11-26T16:30:41Z</time>
      </trkpt>
      <trkpt lat="59.272326" lon="18.09471">
        <ele>40</ele>
        <time>2019-11-26T16:30:42Z</time>
      </trkpt>
      <trkpt lat="59.272376" lon="18.094697">
        <ele>40</ele>
        <time>2019-11-26T16:30:43Z</time>
      </trkpt>
      <trkpt lat="59.272426" lon="18.094682">
        <ele>40</ele>
        <time>2019-11-26T16:30:44Z</time>
      </trkpt>
      <trkpt lat="59.272478" lon="18.094672">
        <ele>40</ele>
        <time>2019-11-26T16:30:45Z</time>
      </trkpt>
      <trkpt lat="59.27253" lon="18.094662">
        <ele>40</ele>
        <time>2019-11-26T16:30:47Z</time>
      </trkpt>
      <trkpt lat="59.272583" lon="18.09465">
        <ele>41</ele>
        <time>2019-11-26T16:30:47Z</time>
      </trkpt>
      <trkpt lat="59.272636" lon="18.094638">
        <ele>41</ele>
        <time>2019-11-26T16:30:48Z</time>
      </trkpt>
      <trkpt lat="59.272688" lon="18.094624">
        <ele>41</ele>
        <time>2019-11-26T16:30:50Z</time>
      </trkpt>
      <trkpt lat="59.272739" lon="18.094609">
        <ele>41</ele>
        <time>2019-11-26T16:30:50Z</time>
      </trkpt>
      <trkpt lat="59.272788" lon="18.09459">
        <ele>41</ele>
        <time>2019-11-26T16:30:51Z</time>
      </trkpt>
      <trkpt lat="59.272837" lon="18.094568">
        <ele>42</ele>
        <time>2019-11-26T16:30:52Z</time>
      </trkpt>
      <trkpt lat="59.272888" lon="18.094545">
        <ele>42</ele>
        <time>2019-11-26T16:30:53Z</time>
      </trkpt>
      <trkpt lat="59.27294" lon="18.094525">
        <ele>42</ele>
        <time>2019-11-26T16:30:54Z</time>
      </trkpt>
      <trkpt lat="59.272993" lon="18.094505">
        <ele>42</ele>
        <time>2019-11-26T16:30:55Z</time>
      </trkpt>
      <trkpt lat="59.273047" lon="18.094485">
        <ele>42</ele>
        <time>2019-11-26T16:30:57Z</time>
      </trkpt>
      <trkpt lat="59.273103" lon="18.094465">
        <ele>42</ele>
        <time>2019-11-26T16:30:57Z</time>
      </trkpt>
      <trkpt lat="59.273161" lon="18.094447">
        <ele>41</ele>
        <time>2019-11-26T16:30:58Z</time>
      </trkpt>
      <trkpt lat="59.273224" lon="18.094434">
        <ele>41</ele>
        <time>2019-11-26T16:30:59Z</time>
      </trkpt>
      <trkpt lat="59.273289" lon="18.094421">
        <ele>41</ele>
        <time>2019-11-26T16:31:00Z</time>
      </trkpt>
      <trkpt lat="59.273356" lon="18.094401">
        <ele>41</ele>
        <time>2019-11-26T16:31:01Z</time>
      </trkpt>
      <trkpt lat="59.273424" lon="18.094371">
        <ele>40</ele>
        <time>2019-11-26T16:31:02Z</time>
      </trkpt>
      <trkpt lat="59.273494" lon="18.094334">
        <ele>40</ele>
        <time>2019-11-26T16:31:04Z</time>
      </trkpt>
      <trkpt lat="59.273566" lon="18.094287">
        <ele>40</ele>
        <time>2019-11-26T16:31:04Z</time>
      </trkpt>
      <trkpt lat="59.273638" lon="18.094233">
        <ele>40</ele>
        <time>2019-11-26T16:31:05Z</time>
      </trkpt>
      <trkpt lat="59.273713" lon="18.09418">
        <ele>40</ele>
        <time>2019-11-26T16:31:06Z</time>
      </trkpt>
      <trkpt lat="59.273791" lon="18.094133">
        <ele>39</ele>
        <time>2019-11-26T16:31:07Z</time>
      </trkpt>
      <trkpt lat="59.273871" lon="18.094091">
        <ele>39</ele>
        <time>2019-11-26T16:31:09Z</time>
      </trkpt>
      <trkpt lat="59.273955" lon="18.094053">
        <ele>39</ele>
        <time>2019-11-26T16:31:10Z</time>
      </trkpt>
      <trkpt lat="59.274041" lon="18.094017">
        <ele>38</ele>
        <time>2019-11-26T16:31:10Z</time>
      </trkpt>
      <trkpt lat="59.274128" lon="18.093978">
        <ele>38</ele>
        <time>2019-11-26T16:31:11Z</time>
      </trkpt>
      <trkpt lat="59.274217" lon="18.093938">
        <ele>38</ele>
        <time>2019-11-26T16:31:12Z</time>
      </trkpt>
      <trkpt lat="59.274306" lon="18.093898">
        <ele>37</ele>
        <time>2019-11-26T16:31:13Z</time>
      </trkpt>
      <trkpt lat="59.274397" lon="18.093859">
        <ele>37</ele>
        <time>2019-11-26T16:31:14Z</time>
      </trkpt>
      <trkpt lat="59.274487" lon="18.093821">
        <ele>37</ele>
        <time>2019-11-26T16:31:16Z</time>
      </trkpt>
      <trkpt lat="59.274577" lon="18.093786">
        <ele>37</ele>
        <time>2019-11-26T16:31:16Z</time>
      </trkpt>
      <trkpt lat="59.274665" lon="18.093753">
        <ele>37</ele>
        <time>2019-11-26T16:31:17Z</time>
      </trkpt>
      <trkpt lat="59.274752" lon="18.093721">
        <ele>37</ele>
        <time>2019-11-26T16:31:18Z</time>
      </trkpt>
      <trkpt lat="59.274837" lon="18.093689">
        <ele>36</ele>
        <time>2019-11-26T16:31:19Z</time>
      </trkpt>
      <trkpt lat="59.274921" lon="18.093657">
        <ele>36</ele>
        <time>2019-11-26T16:31:21Z</time>
      </trkpt>
      <trkpt lat="59.275004" lon="18.093623">
        <ele>36</ele>
        <time>2019-11-26T16:31:21Z</time>
      </trkpt>
      <trkpt lat="59.275085" lon="18.093591">
        <ele>36</ele>
        <time>2019-11-26T16:31:22Z</time>
      </trkpt>
      <trkpt lat="59.275165" lon="18.093559">
        <ele>36</ele>
        <time>2019-11-26T16:31:23Z</time>
      </trkpt>
      <trkpt lat="59.275246" lon="18.093525">
        <ele>36</ele>
        <time>2019-11-26T16:31:24Z</time>
      </trkpt>
      <trkpt lat="59.275327" lon="18.093496">
        <ele>36</ele>
        <time>2019-11-26T16:31:25Z</time>
      </trkpt>
      <trkpt lat="59.275406" lon="18.093472">
        <ele>36</ele>
        <time>2019-11-26T16:31:26Z</time>
      </trkpt>
      <trkpt lat="59.275485" lon="18.093453">
        <ele>0</ele>
        <time>2019-11-26T16:31:27Z</time>
      </trkpt>
      <trkpt lat="59.275562" lon="18.093434">
        <ele>36</ele>
        <time>2019-11-26T16:31:28Z</time>
      </trkpt>
      <trkpt lat="59.27564" lon="18.093415">
        <ele>36</ele>
        <time>2019-11-26T16:31:29Z</time>
      </trkpt>
      <trkpt lat="59.275716" lon="18.093397">
        <ele>36</ele>
        <time>2019-11-26T16:31:30Z</time>
      </trkpt>
      <trkpt lat="59.275792" lon="18.093379">
        <ele>36</ele>
        <time>2019-11-26T16:31:31Z</time>
      </trkpt>
      <trkpt lat="59.275868" lon="18.093359">
        <ele>36</ele>
        <time>2019-11-26T16:31:33Z</time>
      </trkpt>
      <trkpt lat="59.275944" lon="18.09334">
        <ele>36</ele>
        <time>2019-11-26T16:31:34Z</time>
      </trkpt>
      <trkpt lat="59.27602" lon="18.093319">
        <ele>36</ele>
        <time>2019-11-26T16:31:34Z</time>
      </trkpt>
      <trkpt lat="59.276095" lon="18.093298">
        <ele>36</ele>
        <time>2019-11-26T16:31:35Z</time>
      </trkpt>
      <trkpt lat="59.27617" lon="18.093283">
        <ele>36</ele>
        <time>2019-11-26T16:31:36Z</time>
      </trkpt>
      <trkpt lat="59.276245" lon="18.093272">
        <ele>36</ele>
        <time>2019-11-26T16:31:37Z</time>
      </trkpt>
      <trkpt lat="59.276321" lon="18.09326">
        <ele>36</ele>
        <time>2019-11-26T16:31:38Z</time>
      </trkpt>
      <trkpt lat="59.276396" lon="18.093248">
        <ele>36</ele>
        <time>2019-11-26T16:31:39Z</time>
      </trkpt>
      <trkpt lat="59.276471" lon="18.093239">
        <ele>36</ele>
        <time>2019-11-26T16:31:41Z</time>
      </trkpt>
      <trkpt lat="59.276545" lon="18.093228">
        <ele>35</ele>
        <time>2019-11-26T16:31:41Z</time>
      </trkpt>
      <trkpt lat="59.27662" lon="18.093215">
        <ele>35</ele>
        <time>2019-11-26T16:31:42Z</time>
      </trkpt>
      <trkpt lat="59.276695" lon="18.093202">
        <ele>35</ele>
        <time>2019-11-26T16:31:43Z</time>
      </trkpt>
      <trkpt lat="59.27677" lon="18.093188">
        <ele>35</ele>
        <time>2019-11-26T16:31:44Z</time>
      </trkpt>
      <trkpt lat="59.276845" lon="18.093172">
        <ele>35</ele>
        <time>2019-11-26T16:31:45Z</time>
      </trkpt>
      <trkpt lat="59.27692" lon="18.093154">
        <ele>0</ele>
        <time>2019-11-26T16:31:46Z</time>
      </trkpt>
      <trkpt lat="59.276996" lon="18.093135">
        <ele>35</ele>
        <time>2019-11-26T16:31:47Z</time>
      </trkpt>
      <trkpt lat="59.277071" lon="18.093115">
        <ele>35</ele>
        <time>2019-11-26T16:31:48Z</time>
      </trkpt>
      <trkpt lat="59.277147" lon="18.093093">
        <ele>35</ele>
        <time>2019-11-26T16:31:49Z</time>
      </trkpt>
      <trkpt lat="59.277222" lon="18.09307">
        <ele>35</ele>
        <time>2019-11-26T16:31:50Z</time>
      </trkpt>
      <trkpt lat="59.277297" lon="18.093043">
        <ele>35</ele>
        <time>2019-11-26T16:31:51Z</time>
      </trkpt>
      <trkpt lat="59.277372" lon="18.093011">
        <ele>35</ele>
        <time>2019-11-26T16:31:52Z</time>
      </trkpt>
      <trkpt lat="59.277446" lon="18.092981">
        <ele>35</ele>
        <time>2019-11-26T16:31:54Z</time>
      </trkpt>
      <trkpt lat="59.277521" lon="18.092952">
        <ele>35</ele>
        <time>2019-11-26T16:31:54Z</time>
      </trkpt>
      <trkpt lat="59.277595" lon="18.092924">
        <ele>35</ele>
        <time>2019-11-26T16:31:55Z</time>
      </trkpt>
      <trkpt lat="59.27767" lon="18.0929">
        <ele>35</ele>
        <time>2019-11-26T16:31:56Z</time>
      </trkpt>
      <trkpt lat="59.277744" lon="18.092871">
        <ele>34</ele>
        <time>2019-11-26T16:31:57Z</time>
      </trkpt>
      <trkpt lat="59.277818" lon="18.092841">
        <ele>34</ele>
        <time>2019-11-26T16:31:58Z</time>
      </trkpt>
      <trkpt lat="59.277892" lon="18.092812">
        <ele>34</ele>
        <time>2019-11-26T16:32:00Z</time>
      </trkpt>
      <trkpt lat="59.277967" lon="18.092784">
        <ele>34</ele>
        <time>2019-11-26T16:32:00Z</time>
      </trkpt>
      <trkpt lat="59.278041" lon="18.092752">
        <ele>34</ele>
        <time>2019-11-26T16:32:01Z</time>
      </trkpt>
      <trkpt lat="59.278115" lon="18.092719">
        <ele>34</ele>
        <time>2019-11-26T16:32:02Z</time>
      </trkpt>
      <trkpt lat="59.278189" lon="18.092691">
        <ele>34</ele>
        <time>2019-11-26T16:32:03Z</time>
      </trkpt>
      <trkpt lat="59.278264" lon="18.092662">
        <ele>34</ele>
        <time>2019-11-26T16:32:04Z</time>
      </trkpt>
      <trkpt lat="59.278338" lon="18.09263">
        <ele>34</ele>
        <time>2019-11-26T16:32:06Z</time>
      </trkpt>
      <trkpt lat="59.278414" lon="18.092599">
        <ele>33</ele>
        <time>2019-11-26T16:32:07Z</time>
      </trkpt>
      <trkpt lat="59.278489" lon="18.092569">
        <ele>33</ele>
        <time>2019-11-26T16:32:07Z</time>
      </trkpt>
      <trkpt lat="59.278565" lon="18.092538">
        <ele>33</ele>
        <time>2019-11-26T16:32:08Z</time>
      </trkpt>
      <trkpt lat="59.278641" lon="18.092506">
        <ele>33</ele>
        <time>2019-11-26T16:32:09Z</time>
      </trkpt>
      <trkpt lat="59.278718" lon="18.092472">
        <ele>33</ele>
        <time>2019-11-26T16:32:10Z</time>
      </trkpt>
      <trkpt lat="59.278794" lon="18.092436">
        <ele>33</ele>
        <time>2019-11-26T16:32:11Z</time>
      </trkpt>
      <trkpt lat="59.278869" lon="18.092398">
        <ele>33</ele>
        <time>2019-11-26T16:32:13Z</time>
      </trkpt>
      <trkpt lat="59.278942" lon="18.092365">
        <ele>33</ele>
        <time>2019-11-26T16:32:13Z</time>
      </trkpt>
      <trkpt lat="59.27901" lon="18.092333">
        <ele>33</ele>
        <time>2019-11-26T16:32:14Z</time>
      </trkpt>
      <trkpt lat="59.279072" lon="18.092308">
        <ele>33</ele>
        <time>2019-11-26T16:32:15Z</time>
      </trkpt>
      <trkpt lat="59.279126" lon="18.092289">
        <ele>33</ele>
        <time>2019-11-26T16:32:16Z</time>
      </trkpt>
      <trkpt lat="59.27917" lon="18.092277">
        <ele>33</ele>
        <time>2019-11-26T16:32:17Z</time>
      </trkpt>
      <trkpt lat="59.279205" lon="18.092273">
        <ele>33</ele>
        <time>2019-11-26T16:32:18Z</time>
      </trkpt>
      <trkpt lat="59.279235" lon="18.092272">
        <ele>33</ele>
        <time>2019-11-26T16:32:19Z</time>
      </trkpt>
      <trkpt lat="59.279263" lon="18.092268">
        <ele>33</ele>
        <time>2019-11-26T16:32:20Z</time>
      </trkpt>
      <trkpt lat="59.279297" lon="18.09226">
        <ele>33</ele>
        <time>2019-11-26T16:32:21Z</time>
      </trkpt>
      <trkpt lat="59.279336" lon="18.092251">
        <ele>33</ele>
        <time>2019-11-26T16:32:22Z</time>
      </trkpt>
      <trkpt lat="59.279376" lon="18.09224">
        <ele>33</ele>
        <time>2019-11-26T16:32:23Z</time>
      </trkpt>
      <trkpt lat="59.279418" lon="18.092226">
        <ele>33</ele>
        <time>2019-11-26T16:32:25Z</time>
      </trkpt>
      <trkpt lat="59.279463" lon="18.092203">
        <ele>33</ele>
        <time>2019-11-26T16:32:25Z</time>
      </trkpt>
      <trkpt lat="59.279511" lon="18.092172">
        <ele>33</ele>
        <time>2019-11-26T16:32:26Z</time>
      </trkpt>
      <trkpt lat="59.279563" lon="18.092145">
        <ele>33</ele>
        <time>2019-11-26T16:32:27Z</time>
      </trkpt>
      <trkpt lat="59.279617" lon="18.09212">
        <ele>34</ele>
        <time>2019-11-26T16:32:28Z</time>
      </trkpt>
      <trkpt lat="59.27967" lon="18.092096">
        <ele>34</ele>
        <time>2019-11-26T16:32:29Z</time>
      </trkpt>
      <trkpt lat="59.27972" lon="18.092068">
        <ele>34</ele>
        <time>2019-11-26T16:32:30Z</time>
      </trkpt>
      <trkpt lat="59.279769" lon="18.092036">
        <ele>34</ele>
        <time>2019-11-26T16:32:31Z</time>
      </trkpt>
      <trkpt lat="59.279816" lon="18.092006">
        <ele>34</ele>
        <time>2019-11-26T16:32:32Z</time>
      </trkpt>
      <trkpt lat="59.279859" lon="18.091982">
        <ele>34</ele>
        <time>2019-11-26T16:32:33Z</time>
      </trkpt>
      <trkpt lat="59.279899" lon="18.091963">
        <ele>34</ele>
        <time>2019-11-26T16:32:35Z</time>
      </trkpt>
      <trkpt lat="59.279938" lon="18.091946">
        <ele>34</ele>
        <time>2019-11-26T16:32:35Z</time>
      </trkpt>
      <trkpt lat="59.279979" lon="18.091925">
        <ele>34</ele>
        <time>2019-11-26T16:32:36Z</time>
      </trkpt>
      <trkpt lat="59.280019" lon="18.091895">
        <ele>34</ele>
        <time>2019-11-26T16:32:37Z</time>
      </trkpt>
      <trkpt lat="59.28006" lon="18.091861">
        <ele>34</ele>
        <time>2019-11-26T16:32:38Z</time>
      </trkpt>
      <trkpt lat="59.280105" lon="18.091835">
        <ele>34</ele>
        <time>2019-11-26T16:32:39Z</time>
      </trkpt>
      <trkpt lat="59.280156" lon="18.091816">
        <ele>34</ele>
        <time>2019-11-26T16:32:40Z</time>
      </trkpt>
      <trkpt lat="59.280208" lon="18.091796">
        <ele>34</ele>
        <time>2019-11-26T16:32:41Z</time>
      </trkpt>
      <trkpt lat="59.280261" lon="18.091776">
        <ele>34</ele>
        <time>2019-11-26T16:32:43Z</time>
      </trkpt>
      <trkpt lat="59.280316" lon="18.091754">
        <ele>34</ele>
        <time>2019-11-26T16:32:44Z</time>
      </trkpt>
      <trkpt lat="59.280369" lon="18.091733">
        <ele>34</ele>
        <time>2019-11-26T16:32:45Z</time>
      </trkpt>
      <trkpt lat="59.280423" lon="18.091715">
        <ele>34</ele>
        <time>2019-11-26T16:32:45Z</time>
      </trkpt>
      <trkpt lat="59.280478" lon="18.091696">
        <ele>34</ele>
        <time>2019-11-26T16:32:46Z</time>
      </trkpt>
      <trkpt lat="59.280532" lon="18.091676">
        <ele>34</ele>
        <time>2019-11-26T16:32:47Z</time>
      </trkpt>
      <trkpt lat="59.280586" lon="18.091658">
        <ele>34</ele>
        <time>2019-11-26T16:32:48Z</time>
      </trkpt>
      <trkpt lat="59.280638" lon="18.091642">
        <ele>35</ele>
        <time>2019-11-26T16:32:49Z</time>
      </trkpt>
      <trkpt lat="59.280691" lon="18.09163">
        <ele>34</ele>
        <time>2019-11-26T16:32:50Z</time>
      </trkpt>
      <trkpt lat="59.280745" lon="18.09162">
        <ele>35</ele>
        <time>2019-11-26T16:32:51Z</time>
      </trkpt>
      <trkpt lat="59.280799" lon="18.091606">
        <ele>35</ele>
        <time>2019-11-26T16:32:53Z</time>
      </trkpt>
      <trkpt lat="59.280855" lon="18.09159">
        <ele>35</ele>
        <time>2019-11-26T16:32:54Z</time>
      </trkpt>
      <trkpt lat="59.280914" lon="18.09157">
        <ele>35</ele>
        <time>2019-11-26T16:32:54Z</time>
      </trkpt>
      <trkpt lat="59.280972" lon="18.091551">
        <ele>35</ele>
        <time>2019-11-26T16:32:55Z</time>
      </trkpt>
      <trkpt lat="59.281032" lon="18.091533">
        <ele>35</ele>
        <time>2019-11-26T16:32:56Z</time>
      </trkpt>
      <trkpt lat="59.281093" lon="18.091517">
        <ele>35</ele>
        <time>2019-11-26T16:32:57Z</time>
      </trkpt>
      <trkpt lat="59.281155" lon="18.0915">
        <ele>35</ele>
        <time>2019-11-26T16:32:58Z</time>
      </trkpt>
      <trkpt lat="59.281218" lon="18.091482">
        <ele>34</ele>
        <time>2019-11-26T16:32:59Z</time>
      </trkpt>
      <trkpt lat="59.281281" lon="18.091462">
        <ele>34</ele>
        <time>2019-11-26T16:33:00Z</time>
      </trkpt>
      <trkpt lat="59.281345" lon="18.091443">
        <ele>34</ele>
        <time>2019-11-26T16:33:02Z</time>
      </trkpt>
      <trkpt lat="59.281408" lon="18.091422">
        <ele>34</ele>
        <time>2019-11-26T16:33:03Z</time>
      </trkpt>
      <trkpt lat="59.281468" lon="18.0914">
        <ele>34</ele>
        <time>2019-11-26T16:33:03Z</time>
      </trkpt>
      <trkpt lat="59.281526" lon="18.091385">
        <ele>34</ele>
        <time>2019-11-26T16:33:04Z</time>
      </trkpt>
      <trkpt lat="59.281579" lon="18.091391">
        <ele>34</ele>
        <time>2019-11-26T16:33:05Z</time>
      </trkpt>
      <trkpt lat="59.281629" lon="18.091402">
        <ele>34</ele>
        <time>2019-11-26T16:33:06Z</time>
      </trkpt>
      <trkpt lat="59.281677" lon="18.091399">
        <ele>35</ele>
        <time>2019-11-26T16:33:07Z</time>
      </trkpt>
      <trkpt lat="59.281732" lon="18.09138">
        <ele>35</ele>
        <time>2019-11-26T16:33:08Z</time>
      </trkpt>
      <trkpt lat="59.281789" lon="18.09136">
        <ele>35</ele>
        <time>2019-11-26T16:33:09Z</time>
      </trkpt>
      <trkpt lat="59.281848" lon="18.09134">
        <ele>35</ele>
        <time>2019-11-26T16:33:11Z</time>
      </trkpt>
      <trkpt lat="59.28191" lon="18.09132">
        <ele>35</ele>
        <time>2019-11-26T16:33:11Z</time>
      </trkpt>
      <trkpt lat="59.281973" lon="18.0913">
        <ele>35</ele>
        <time>2019-11-26T16:33:12Z</time>
      </trkpt>
      <trkpt lat="59.282038" lon="18.09128">
        <ele>35</ele>
        <time>2019-11-26T16:33:13Z</time>
      </trkpt>
      <trkpt lat="59.282103" lon="18.091259">
        <ele>35</ele>
        <time>2019-11-26T16:33:14Z</time>
      </trkpt>
      <trkpt lat="59.282167" lon="18.091236">
        <ele>35</ele>
        <time>2019-11-26T16:33:15Z</time>
      </trkpt>
      <trkpt lat="59.282232" lon="18.091211">
        <ele>35</ele>
        <time>2019-11-26T16:33:16Z</time>
      </trkpt>
      <trkpt lat="59.282296" lon="18.091185">
        <ele>36</ele>
        <time>2019-11-26T16:33:17Z</time>
      </trkpt>
      <trkpt lat="59.282359" lon="18.091154">
        <ele>36</ele>
        <time>2019-11-26T16:33:19Z</time>
      </trkpt>
      <trkpt lat="59.282422" lon="18.091125">
        <ele>36</ele>
        <time>2019-11-26T16:33:19Z</time>
      </trkpt>
      <trkpt lat="59.282486" lon="18.091095">
        <ele>36</ele>
        <time>2019-11-26T16:33:20Z</time>
      </trkpt>
      <trkpt lat="59.282549" lon="18.091062">
        <ele>36</ele>
        <time>2019-11-26T16:33:22Z</time>
      </trkpt>
      <trkpt lat="59.282613" lon="18.091029">
        <ele>36</ele>
        <time>2019-11-26T16:33:22Z</time>
      </trkpt>
      <trkpt lat="59.282675" lon="18.090999">
        <ele>36</ele>
        <time>2019-11-26T16:33:23Z</time>
      </trkpt>
      <trkpt lat="59.28274" lon="18.09097">
        <ele>36</ele>
        <time>2019-11-26T16:33:24Z</time>
      </trkpt>
      <trkpt lat="59.282804" lon="18.09094">
        <ele>36</ele>
        <time>2019-11-26T16:33:26Z</time>
      </trkpt>
      <trkpt lat="59.282867" lon="18.090907">
        <ele>36</ele>
        <time>2019-11-26T16:33:26Z</time>
      </trkpt>
      <trkpt lat="59.282929" lon="18.090874">
        <ele>36</ele>
        <time>2019-11-26T16:33:27Z</time>
      </trkpt>
      <trkpt lat="59.28299" lon="18.090837">
        <ele>36</ele>
        <time>2019-11-26T16:33:28Z</time>
      </trkpt>
      <trkpt lat="59.283053" lon="18.090801">
        <ele>36</ele>
        <time>2019-11-26T16:33:29Z</time>
      </trkpt>
      <trkpt lat="59.283118" lon="18.090769">
        <ele>36</ele>
        <time>2019-11-26T16:33:30Z</time>
      </trkpt>
      <trkpt lat="59.283185" lon="18.090739">
        <ele>36</ele>
        <time>2019-11-26T16:33:31Z</time>
      </trkpt>
      <trkpt lat="59.283251" lon="18.090705">
        <ele>36</ele>
        <time>2019-11-26T16:33:32Z</time>
      </trkpt>
      <trkpt lat="59.283316" lon="18.09067">
        <ele>36</ele>
        <time>2019-11-26T16:33:34Z</time>
      </trkpt>
      <trkpt lat="59.283381" lon="18.090635">
        <ele>36</ele>
        <time>2019-11-26T16:33:34Z</time>
      </trkpt>
      <trkpt lat="59.283445" lon="18.090605">
        <ele>37</ele>
        <time>2019-11-26T16:33:35Z</time>
      </trkpt>
      <trkpt lat="59.283509" lon="18.090575">
        <ele>37</ele>
        <time>2019-11-26T16:33:36Z</time>
      </trkpt>
      <trkpt lat="59.283572" lon="18.090539">
        <ele>37</ele>
        <time>2019-11-26T16:33:37Z</time>
      </trkpt>
      <trkpt lat="59.283634" lon="18.090504">
        <ele>37</ele>
        <time>2019-11-26T16:33:38Z</time>
      </trkpt>
      <trkpt lat="59.283695" lon="18.090469">
        <ele>37</ele>
        <time>2019-11-26T16:33:39Z</time>
      </trkpt>
      <trkpt lat="59.283758" lon="18.090435">
        <ele>37</ele>
        <time>2019-11-26T16:33:41Z</time>
      </trkpt>
      <trkpt lat="59.283822" lon="18.090403">
        <ele>37</ele>
        <time>2019-11-26T16:33:41Z</time>
      </trkpt>
      <trkpt lat="59.283885" lon="18.090377">
        <ele>38</ele>
        <time>2019-11-26T16:33:42Z</time>
      </trkpt>
      <trkpt lat="59.283949" lon="18.090344">
        <ele>38</ele>
        <time>2019-11-26T16:33:43Z</time>
      </trkpt>
      <trkpt lat="59.284013" lon="18.090306">
        <ele>38</ele>
        <time>2019-11-26T16:33:44Z</time>
      </trkpt>
      <trkpt lat="59.284076" lon="18.090266">
        <ele>38</ele>
        <time>2019-11-26T16:33:45Z</time>
      </trkpt>
      <trkpt lat="59.284138" lon="18.090223">
        <ele>38</ele>
        <time>2019-11-26T16:33:46Z</time>
      </trkpt>
      <trkpt lat="59.2842" lon="18.090181">
        <ele>38</ele>
        <time>2019-11-26T16:33:47Z</time>
      </trkpt>
      <trkpt lat="59.284265" lon="18.090164">
        <ele>38</ele>
        <time>2019-11-26T16:33:49Z</time>
      </trkpt>
      <trkpt lat="59.284329" lon="18.090137">
        <ele>38</ele>
        <time>2019-11-26T16:33:49Z</time>
      </trkpt>
      <trkpt lat="59.284392" lon="18.090103">
        <ele>38</ele>
        <time>2019-11-26T16:33:50Z</time>
      </trkpt>
      <trkpt lat="59.284459" lon="18.090062">
        <ele>37</ele>
        <time>2019-11-26T16:33:51Z</time>
      </trkpt>
      <trkpt lat="59.284527" lon="18.090026">
        <ele>37</ele>
        <time>2019-11-26T16:33:52Z</time>
      </trkpt>
      <trkpt lat="59.28459" lon="18.089985">
        <ele>37</ele>
        <time>2019-11-26T16:33:53Z</time>
      </trkpt>
      <trkpt lat="59.284649" lon="18.089945">
        <ele>38</ele>
        <time>2019-11-26T16:33:54Z</time>
      </trkpt>
      <trkpt lat="59.28471" lon="18.089906">
        <ele>38</ele>
        <time>2019-11-26T16:33:55Z</time>
      </trkpt>
      <trkpt lat="59.284774" lon="18.089897">
        <ele>38</ele>
        <time>2019-11-26T16:33:57Z</time>
      </trkpt>
      <trkpt lat="59.284838" lon="18.089885">
        <ele>38</ele>
        <time>2019-11-26T16:33:57Z</time>
      </trkpt>
      <trkpt lat="59.284902" lon="18.089852">
        <ele>38</ele>
        <time>2019-11-26T16:33:58Z</time>
      </trkpt>
      <trkpt lat="59.284964" lon="18.089819">
        <ele>38</ele>
        <time>2019-11-26T16:34:00Z</time>
      </trkpt>
      <trkpt lat="59.285027" lon="18.089777">
        <ele>38</ele>
        <time>2019-11-26T16:34:00Z</time>
      </trkpt>
      <trkpt lat="59.285089" lon="18.089738">
        <ele>38</ele>
        <time>2019-11-26T16:34:01Z</time>
      </trkpt>
      <trkpt lat="59.285153" lon="18.089708">
        <ele>39</ele>
        <time>2019-11-26T16:34:02Z</time>
      </trkpt>
      <trkpt lat="59.285215" lon="18.08968">
        <ele>39</ele>
        <time>2019-11-26T16:34:04Z</time>
      </trkpt>
      <trkpt lat="59.285278" lon="18.089656">
        <ele>39</ele>
        <time>2019-11-26T16:34:04Z</time>
      </trkpt>
      <trkpt lat="59.28534" lon="18.089624">
        <ele>39</ele>
        <time>2019-11-26T16:34:05Z</time>
      </trkpt>
      <trkpt lat="59.285402" lon="18.08959">
        <ele>39</ele>
        <time>2019-11-26T16:34:06Z</time>
      </trkpt>
      <trkpt lat="59.285468" lon="18.089562">
        <ele>39</ele>
        <time>2019-11-26T16:34:07Z</time>
      </trkpt>
      <trkpt lat="59.285532" lon="18.089525">
        <ele>39</ele>
        <time>2019-11-26T16:34:08Z</time>
      </trkpt>
      <trkpt lat="59.285597" lon="18.089489">
        <ele>39</ele>
        <time>2019-11-26T16:34:09Z</time>
      </trkpt>
      <trkpt lat="59.285661" lon="18.089457">
        <ele>39</ele>
        <time>2019-11-26T16:34:10Z</time>
      </trkpt>
      <trkpt lat="59.285723" lon="18.089425">
        <ele>38</ele>
        <time>2019-11-26T16:34:12Z</time>
      </trkpt>
      <trkpt lat="59.285791" lon="18.089399">
        <ele>38</ele>
        <time>2019-11-26T16:34:12Z</time>
      </trkpt>
      <trkpt lat="59.285852" lon="18.089366">
        <ele>38</ele>
        <time>2019-11-26T16:34:13Z</time>
      </trkpt>
      <trkpt lat="59.285913" lon="18.089336">
        <ele>38</ele>
        <time>2019-11-26T16:34:14Z</time>
      </trkpt>
      <trkpt lat="59.285975" lon="18.089308">
        <ele>38</ele>
        <time>2019-11-26T16:34:15Z</time>
      </trkpt>
      <trkpt lat="59.286037" lon="18.089278">
        <ele>38</ele>
        <time>2019-11-26T16:34:16Z</time>
      </trkpt>
      <trkpt lat="59.2861" lon="18.089267">
        <ele>38</ele>
        <time>2019-11-26T16:34:17Z</time>
      </trkpt>
      <trkpt lat="59.286163" lon="18.089242">
        <ele>0</ele>
        <time>2019-11-26T16:34:18Z</time>
      </trkpt>
      <trkpt lat="59.286227" lon="18.089211">
        <ele>37</ele>
        <time>2019-11-26T16:34:19Z</time>
      </trkpt>
      <trkpt lat="59.28629" lon="18.089185">
        <ele>37</ele>
        <time>2019-11-26T16:34:20Z</time>
      </trkpt>
      <trkpt lat="59.286353" lon="18.08916">
        <ele>37</ele>
        <time>2019-11-26T16:34:21Z</time>
      </trkpt>
      <trkpt lat="59.286417" lon="18.089136">
        <ele>37</ele>
        <time>2019-11-26T16:34:22Z</time>
      </trkpt>
      <trkpt lat="59.286481" lon="18.089111">
        <ele>36</ele>
        <time>2019-11-26T16:34:23Z</time>
      </trkpt>
      <trkpt lat="59.286546" lon="18.089099">
        <ele>36</ele>
        <time>2019-11-26T16:34:24Z</time>
      </trkpt>
      <trkpt lat="59.286611" lon="18.089089">
        <ele>36</ele>
        <time>2019-11-26T16:34:25Z</time>
      </trkpt>
      <trkpt lat="59.286674" lon="18.089068">
        <ele>36</ele>
        <time>2019-11-26T16:34:27Z</time>
      </trkpt>
      <trkpt lat="59.286737" lon="18.089045">
        <ele>35</ele>
        <time>2019-11-26T16:34:27Z</time>
      </trkpt>
      <trkpt lat="59.286799" lon="18.089021">
        <ele>35</ele>
        <time>2019-11-26T16:34:28Z</time>
      </trkpt>
      <trkpt lat="59.286861" lon="18.088995">
        <ele>35</ele>
        <time>2019-11-26T16:34:29Z</time>
      </trkpt>
      <trkpt lat="59.286922" lon="18.088961">
        <ele>35</ele>
        <time>2019-11-26T16:34:30Z</time>
      </trkpt>
      <trkpt lat="59.286981" lon="18.088925">
        <ele>35</ele>
        <time>2019-11-26T16:34:31Z</time>
      </trkpt>
      <trkpt lat="59.287039" lon="18.088885">
        <ele>35</ele>
        <time>2019-11-26T16:34:32Z</time>
      </trkpt>
      <trkpt lat="59.287097" lon="18.088846">
        <ele>35</ele>
        <time>2019-11-26T16:34:33Z</time>
      </trkpt>
      <trkpt lat="59.287155" lon="18.088814">
        <ele>35</ele>
        <time>2019-11-26T16:34:35Z</time>
      </trkpt>
      <trkpt lat="59.287211" lon="18.088779">
        <ele>35</ele>
        <time>2019-11-26T16:34:35Z</time>
      </trkpt>
      <trkpt lat="59.287268" lon="18.088747">
        <ele>36</ele>
        <time>2019-11-26T16:34:36Z</time>
      </trkpt>
      <trkpt lat="59.287322" lon="18.088717">
        <ele>36</ele>
        <time>2019-11-26T16:34:38Z</time>
      </trkpt>
      <trkpt lat="59.287373" lon="18.088696">
        <ele>36</ele>
        <time>2019-11-26T16:34:38Z</time>
      </trkpt>
      <trkpt lat="59.287421" lon="18.088692">
        <ele>36</ele>
        <time>2019-11-26T16:34:39Z</time>
      </trkpt>
      <trkpt lat="59.287468" lon="18.088731">
        <ele>36</ele>
        <time>2019-11-26T16:34:40Z</time>
      </trkpt>
      <trkpt lat="59.287505" lon="18.088809">
        <ele>36</ele>
        <time>2019-11-26T16:34:41Z</time>
      </trkpt>
      <trkpt lat="59.287529" lon="18.088903">
        <ele>36</ele>
        <time>2019-11-26T16:34:42Z</time>
      </trkpt>
      <trkpt lat="59.287556" lon="18.088991">
        <ele>36</ele>
        <time>2019-11-26T16:34:44Z</time>
      </trkpt>
      <trkpt lat="59.287594" lon="18.089063">
        <ele>36</ele>
        <time>2019-11-26T16:34:45Z</time>
      </trkpt>
      <trkpt lat="59.287638" lon="18.089105">
        <ele>36</ele>
        <time>2019-11-26T16:34:45Z</time>
      </trkpt>
      <trkpt lat="59.287687" lon="18.089126">
        <ele>37</ele>
        <time>2019-11-26T16:34:46Z</time>
      </trkpt>
      <trkpt lat="59.287739" lon="18.089136">
        <ele>37</ele>
        <time>2019-11-26T16:34:47Z</time>
      </trkpt>
      <trkpt lat="59.287793" lon="18.089144">
        <ele>37</ele>
        <time>2019-11-26T16:34:48Z</time>
      </trkpt>
      <trkpt lat="59.287847" lon="18.089145">
        <ele>37</ele>
        <time>2019-11-26T16:34:49Z</time>
      </trkpt>
      <trkpt lat="59.287899" lon="18.089127">
        <ele>37</ele>
        <time>2019-11-26T16:34:50Z</time>
      </trkpt>
      <trkpt lat="59.28795" lon="18.089099">
        <ele>37</ele>
        <time>2019-11-26T16:34:51Z</time>
      </trkpt>
      <trkpt lat="59.288001" lon="18.089068">
        <ele>38</ele>
        <time>2019-11-26T16:34:52Z</time>
      </trkpt>
      <trkpt lat="59.288051" lon="18.089038">
        <ele>38</ele>
        <time>2019-11-26T16:34:54Z</time>
      </trkpt>
      <trkpt lat="59.288102" lon="18.089009">
        <ele>38</ele>
        <time>2019-11-26T16:34:54Z</time>
      </trkpt>
      <trkpt lat="59.288152" lon="18.088982">
        <ele>38</ele>
        <time>2019-11-26T16:34:55Z</time>
      </trkpt>
      <trkpt lat="59.288203" lon="18.08896">
        <ele>39</ele>
        <time>2019-11-26T16:34:57Z</time>
      </trkpt>
      <trkpt lat="59.288254" lon="18.088937">
        <ele>39</ele>
        <time>2019-11-26T16:34:57Z</time>
      </trkpt>
      <trkpt lat="59.288303" lon="18.088911">
        <ele>39</ele>
        <time>2019-11-26T16:34:58Z</time>
      </trkpt>
      <trkpt lat="59.28835" lon="18.088886">
        <ele>39</ele>
        <time>2019-11-26T16:34:59Z</time>
      </trkpt>
      <trkpt lat="59.288394" lon="18.088863">
        <ele>39</ele>
        <time>2019-11-26T16:35:00Z</time>
      </trkpt>
      <trkpt lat="59.288439" lon="18.088848">
        <ele>39</ele>
        <time>2019-11-26T16:35:01Z</time>
      </trkpt>
      <trkpt lat="59.288478" lon="18.088838">
        <ele>39</ele>
        <time>2019-11-26T16:35:02Z</time>
      </trkpt>
      <trkpt lat="59.288515" lon="18.088826">
        <ele>39</ele>
        <time>2019-11-26T16:35:03Z</time>
      </trkpt>
      <trkpt lat="59.288544" lon="18.088812">
        <ele>39</ele>
        <time>2019-11-26T16:35:04Z</time>
      </trkpt>
      <trkpt lat="59.288564" lon="18.088802">
        <ele>39</ele>
        <time>2019-11-26T16:35:05Z</time>
      </trkpt>
      <trkpt lat="59.288586" lon="18.088797">
        <ele>39</ele>
        <time>2019-11-26T16:35:07Z</time>
      </trkpt>
      <trkpt lat="59.288583" lon="18.088797">
        <ele>0</ele>
        <time>2019-11-26T16:35:13Z</time>
      </trkpt>
      <trkpt lat="59.28866" lon="18.088754">
        <ele>38</ele>
        <time>2019-11-26T16:35:20Z</time>
      </trkpt>
      <trkpt lat="59.288695" lon="18.088742">
        <ele>38</ele>
        <time>2019-11-26T16:35:20Z</time>
      </trkpt>
      <trkpt lat="59.288729" lon="18.088731">
        <ele>38</ele>
        <time>2019-11-26T16:35:21Z</time>
      </trkpt>
      <trkpt lat="59.288757" lon="18.088704">
        <ele>38</ele>
        <time>2019-11-26T16:35:22Z</time>
      </trkpt>
      <trkpt lat="59.288773" lon="18.08865">
        <ele>38</ele>
        <time>2019-11-26T16:35:23Z</time>
      </trkpt>
      <trkpt lat="59.288773" lon="18.088578">
        <ele>38</ele>
        <time>2019-11-26T16:35:24Z</time>
      </trkpt>
      <trkpt lat="59.288773" lon="18.088498">
        <ele>38</ele>
        <time>2019-11-26T16:35:25Z</time>
      </trkpt>
      <trkpt lat="59.288785" lon="18.088418">
        <ele>38</ele>
        <time>2019-11-26T16:35:26Z</time>
      </trkpt>
      <trkpt lat="59.288808" lon="18.088349">
        <ele>38</ele>
        <time>2019-11-26T16:35:27Z</time>
      </trkpt>
      <trkpt lat="59.288847" lon="18.088303">
        <ele>38</ele>
        <time>2019-11-26T16:35:28Z</time>
      </trkpt>
      <trkpt lat="59.288896" lon="18.088276">
        <ele>37</ele>
        <time>2019-11-26T16:35:29Z</time>
      </trkpt>
      <trkpt lat="59.28895" lon="18.088254">
        <ele>37</ele>
        <time>2019-11-26T16:35:30Z</time>
      </trkpt>
      <trkpt lat="59.289003" lon="18.088231">
        <ele>37</ele>
        <time>2019-11-26T16:35:32Z</time>
      </trkpt>
      <trkpt lat="59.289057" lon="18.088204">
        <ele>37</ele>
        <time>2019-11-26T16:35:32Z</time>
      </trkpt>
      <trkpt lat="59.289114" lon="18.088172">
        <ele>37</ele>
        <time>2019-11-26T16:35:33Z</time>
      </trkpt>
      <trkpt lat="59.28917" lon="18.088141">
        <ele>37</ele>
        <time>2019-11-26T16:35:34Z</time>
      </trkpt>
      <trkpt lat="59.289229" lon="18.088112">
        <ele>37</ele>
        <time>2019-11-26T16:35:35Z</time>
      </trkpt>
      <trkpt lat="59.289288" lon="18.088084">
        <ele>36</ele>
        <time>2019-11-26T16:35:36Z</time>
      </trkpt>
      <trkpt lat="59.289347" lon="18.088057">
        <ele>36</ele>
        <time>2019-11-26T16:35:37Z</time>
      </trkpt>
      <trkpt lat="59.289404" lon="18.088026">
        <ele>36</ele>
        <time>2019-11-26T16:35:39Z</time>
      </trkpt>
      <trkpt lat="59.289463" lon="18.087996">
        <ele>36</ele>
        <time>2019-11-26T16:35:40Z</time>
      </trkpt>
      <trkpt lat="59.289522" lon="18.087969">
        <ele>36</ele>
        <time>2019-11-26T16:35:40Z</time>
      </trkpt>
      <trkpt lat="59.289581" lon="18.087941">
        <ele>36</ele>
        <time>2019-11-26T16:35:41Z</time>
      </trkpt>
      <trkpt lat="59.289638" lon="18.08791">
        <ele>36</ele>
        <time>2019-11-26T16:35:42Z</time>
      </trkpt>
      <trkpt lat="59.289695" lon="18.087879">
        <ele>36</ele>
        <time>2019-11-26T16:35:43Z</time>
      </trkpt>
      <trkpt lat="59.289752" lon="18.087847">
        <ele>36</ele>
        <time>2019-11-26T16:35:44Z</time>
      </trkpt>
      <trkpt lat="59.289808" lon="18.087816">
        <ele>36</ele>
        <time>2019-11-26T16:35:45Z</time>
      </trkpt>
      <trkpt lat="59.289864" lon="18.087784">
        <ele>36</ele>
        <time>2019-11-26T16:35:46Z</time>
      </trkpt>
      <trkpt lat="59.28992" lon="18.08775">
        <ele>36</ele>
        <time>2019-11-26T16:35:47Z</time>
      </trkpt>
      <trkpt lat="59.289972" lon="18.087708">
        <ele>36</ele>
        <time>2019-11-26T16:35:49Z</time>
      </trkpt>
      <trkpt lat="59.290022" lon="18.087658">
        <ele>36</ele>
        <time>2019-11-26T16:35:49Z</time>
      </trkpt>
      <trkpt lat="59.29007" lon="18.087605">
        <ele>36</ele>
        <time>2019-11-26T16:35:50Z</time>
      </trkpt>
      <trkpt lat="59.290121" lon="18.087557">
        <ele>36</ele>
        <time>2019-11-26T16:35:51Z</time>
      </trkpt>
      <trkpt lat="59.290172" lon="18.087515">
        <ele>36</ele>
        <time>2019-11-26T16:35:52Z</time>
      </trkpt>
      <trkpt lat="59.290222" lon="18.087475">
        <ele>36</ele>
        <time>2019-11-26T16:35:53Z</time>
      </trkpt>
      <trkpt lat="59.290273" lon="18.087438">
        <ele>36</ele>
        <time>2019-11-26T16:35:54Z</time>
      </trkpt>
      <trkpt lat="59.290323" lon="18.087402">
        <ele>36</ele>
        <time>2019-11-26T16:35:55Z</time>
      </trkpt>
      <trkpt lat="59.290375" lon="18.087367">
        <ele>36</ele>
        <time>2019-11-26T16:35:56Z</time>
      </trkpt>
      <trkpt lat="59.290426" lon="18.087333">
        <ele>0</ele>
        <time>2019-11-26T16:35:57Z</time>
      </trkpt>
      <trkpt lat="59.290478" lon="18.087298">
        <ele>36</ele>
        <time>2019-11-26T16:35:58Z</time>
      </trkpt>
      <trkpt lat="59.290528" lon="18.08726">
        <ele>37</ele>
        <time>2019-11-26T16:35:59Z</time>
      </trkpt>
      <trkpt lat="59.290579" lon="18.087227">
        <ele>37</ele>
        <time>2019-11-26T16:36:00Z</time>
      </trkpt>
      <trkpt lat="59.29063" lon="18.087189">
        <ele>37</ele>
        <time>2019-11-26T16:36:01Z</time>
      </trkpt>
      <trkpt lat="59.290681" lon="18.087151">
        <ele>38</ele>
        <time>2019-11-26T16:36:02Z</time>
      </trkpt>
      <trkpt lat="59.290732" lon="18.08712">
        <ele>38</ele>
        <time>2019-11-26T16:36:03Z</time>
      </trkpt>
      <trkpt lat="59.290785" lon="18.087089">
        <ele>38</ele>
        <time>2019-11-26T16:36:04Z</time>
      </trkpt>
      <trkpt lat="59.290837" lon="18.087057">
        <ele>38</ele>
        <time>2019-11-26T16:36:05Z</time>
      </trkpt>
      <trkpt lat="59.290888" lon="18.087028">
        <ele>38</ele>
        <time>2019-11-26T16:36:07Z</time>
      </trkpt>
      <trkpt lat="59.290941" lon="18.087006">
        <ele>39</ele>
        <time>2019-11-26T16:36:07Z</time>
      </trkpt>
      <trkpt lat="59.290993" lon="18.086985">
        <ele>39</ele>
        <time>2019-11-26T16:36:08Z</time>
      </trkpt>
      <trkpt lat="59.291045" lon="18.086962">
        <ele>39</ele>
        <time>2019-11-26T16:36:09Z</time>
      </trkpt>
      <trkpt lat="59.291098" lon="18.086937">
        <ele>39</ele>
        <time>2019-11-26T16:36:10Z</time>
      </trkpt>
      <trkpt lat="59.29115" lon="18.08691">
        <ele>40</ele>
        <time>2019-11-26T16:36:11Z</time>
      </trkpt>
      <trkpt lat="59.291201" lon="18.086878">
        <ele>40</ele>
        <time>2019-11-26T16:36:12Z</time>
      </trkpt>
      <trkpt lat="59.291251" lon="18.086852">
        <ele>40</ele>
        <time>2019-11-26T16:36:13Z</time>
      </trkpt>
      <trkpt lat="59.291302" lon="18.086829">
        <ele>40</ele>
        <time>2019-11-26T16:36:15Z</time>
      </trkpt>
      <trkpt lat="59.291351" lon="18.086808">
        <ele>40</ele>
        <time>2019-11-26T16:36:15Z</time>
      </trkpt>
      <trkpt lat="59.291399" lon="18.086786">
        <ele>0</ele>
        <time>2019-11-26T16:36:16Z</time>
      </trkpt>
      <trkpt lat="59.291446" lon="18.086762">
        <ele>40</ele>
        <time>2019-11-26T16:36:17Z</time>
      </trkpt>
      <trkpt lat="59.291492" lon="18.08674">
        <ele>40</ele>
        <time>2019-11-26T16:36:18Z</time>
      </trkpt>
      <trkpt lat="59.291538" lon="18.086719">
        <ele>40</ele>
        <time>2019-11-26T16:36:19Z</time>
      </trkpt>
      <trkpt lat="59.291583" lon="18.086694">
        <ele>40</ele>
        <time>2019-11-26T16:36:20Z</time>
      </trkpt>
      <trkpt lat="59.291629" lon="18.08667">
        <ele>40</ele>
        <time>2019-11-26T16:36:21Z</time>
      </trkpt>
      <trkpt lat="59.291675" lon="18.086647">
        <ele>41</ele>
        <time>2019-11-26T16:36:22Z</time>
      </trkpt>
      <trkpt lat="59.29172" lon="18.086619">
        <ele>41</ele>
        <time>2019-11-26T16:36:23Z</time>
      </trkpt>
      <trkpt lat="59.291765" lon="18.086591">
        <ele>41</ele>
        <time>2019-11-26T16:36:24Z</time>
      </trkpt>
      <trkpt lat="59.291811" lon="18.086573">
        <ele>41</ele>
        <time>2019-11-26T16:36:25Z</time>
      </trkpt>
      <trkpt lat="59.291857" lon="18.086553">
        <ele>41</ele>
        <time>2019-11-26T16:36:27Z</time>
      </trkpt>
      <trkpt lat="59.291902" lon="18.086528">
        <ele>41</ele>
        <time>2019-11-26T16:36:27Z</time>
      </trkpt>
      <trkpt lat="59.291947" lon="18.086501">
        <ele>42</ele>
        <time>2019-11-26T16:36:28Z</time>
      </trkpt>
      <trkpt lat="59.291991" lon="18.086474">
        <ele>42</ele>
        <time>2019-11-26T16:36:29Z</time>
      </trkpt>
      <trkpt lat="59.292035" lon="18.08645">
        <ele>42</ele>
        <time>2019-11-26T16:36:30Z</time>
      </trkpt>
      <trkpt lat="59.292079" lon="18.086423">
        <ele>42</ele>
        <time>2019-11-26T16:36:31Z</time>
      </trkpt>
      <trkpt lat="59.292123" lon="18.086389">
        <ele>43</ele>
        <time>2019-11-26T16:36:32Z</time>
      </trkpt>
      <trkpt lat="59.292169" lon="18.086365">
        <ele>43</ele>
        <time>2019-11-26T16:36:33Z</time>
      </trkpt>
      <trkpt lat="59.292214" lon="18.086335">
        <ele>43</ele>
        <time>2019-11-26T16:36:35Z</time>
      </trkpt>
      <trkpt lat="59.292261" lon="18.08631">
        <ele>43</ele>
        <time>2019-11-26T16:36:36Z</time>
      </trkpt>
      <trkpt lat="59.292308" lon="18.08629">
        <ele>43</ele>
        <time>2019-11-26T16:36:36Z</time>
      </trkpt>
      <trkpt lat="59.292355" lon="18.086262">
        <ele>43</ele>
        <time>2019-11-26T16:36:38Z</time>
      </trkpt>
      <trkpt lat="59.292403" lon="18.086237">
        <ele>43</ele>
        <time>2019-11-26T16:36:38Z</time>
      </trkpt>
      <trkpt lat="59.292452" lon="18.086218">
        <ele>43</ele>
        <time>2019-11-26T16:36:39Z</time>
      </trkpt>
      <trkpt lat="59.292502" lon="18.086199">
        <ele>43</ele>
        <time>2019-11-26T16:36:40Z</time>
      </trkpt>
      <trkpt lat="59.292553" lon="18.086178">
        <ele>43</ele>
        <time>2019-11-26T16:36:41Z</time>
      </trkpt>
      <trkpt lat="59.292604" lon="18.086156">
        <ele>43</ele>
        <time>2019-11-26T16:36:42Z</time>
      </trkpt>
      <trkpt lat="59.292655" lon="18.086131">
        <ele>43</ele>
        <time>2019-11-26T16:36:43Z</time>
      </trkpt>
      <trkpt lat="59.292707" lon="18.086107">
        <ele>43</ele>
        <time>2019-11-26T16:36:44Z</time>
      </trkpt>
      <trkpt lat="59.292761" lon="18.086083">
        <ele>43</ele>
        <time>2019-11-26T16:36:45Z</time>
      </trkpt>
      <trkpt lat="59.292815" lon="18.086057">
        <ele>43</ele>
        <time>2019-11-26T16:36:47Z</time>
      </trkpt>
      <trkpt lat="59.29287" lon="18.086032">
        <ele>43</ele>
        <time>2019-11-26T16:36:47Z</time>
      </trkpt>
      <trkpt lat="59.292925" lon="18.086007">
        <ele>43</ele>
        <time>2019-11-26T16:36:48Z</time>
      </trkpt>
      <trkpt lat="59.292981" lon="18.085989">
        <ele>43</ele>
        <time>2019-11-26T16:36:49Z</time>
      </trkpt>
      <trkpt lat="59.293038" lon="18.08596">
        <ele>43</ele>
        <time>2019-11-26T16:36:50Z</time>
      </trkpt>
      <trkpt lat="59.293097" lon="18.085929">
        <ele>43</ele>
        <time>2019-11-26T16:36:51Z</time>
      </trkpt>
      <trkpt lat="59.293157" lon="18.085897">
        <ele>43</ele>
        <time>2019-11-26T16:36:52Z</time>
      </trkpt>
      <trkpt lat="59.293216" lon="18.085863">
        <ele>43</ele>
        <time>2019-11-26T16:36:53Z</time>
      </trkpt>
      <trkpt lat="59.293276" lon="18.085826">
        <ele>43</ele>
        <time>2019-11-26T16:36:55Z</time>
      </trkpt>
      <trkpt lat="59.293335" lon="18.085789">
        <ele>43</ele>
        <time>2019-11-26T16:36:56Z</time>
      </trkpt>
      <trkpt lat="59.293395" lon="18.085751">
        <ele>43</ele>
        <time>2019-11-26T16:36:56Z</time>
      </trkpt>
      <trkpt lat="59.293459" lon="18.085716">
        <ele>43</ele>
        <time>2019-11-26T16:36:57Z</time>
      </trkpt>
      <trkpt lat="59.293522" lon="18.085677">
        <ele>43</ele>
        <time>2019-11-26T16:36:58Z</time>
      </trkpt>
      <trkpt lat="59.293585" lon="18.085629">
        <ele>44</ele>
        <time>2019-11-26T16:36:59Z</time>
      </trkpt>
      <trkpt lat="59.293647" lon="18.08557">
        <ele>44</ele>
        <time>2019-11-26T16:37:00Z</time>
      </trkpt>
      <trkpt lat="59.29371" lon="18.085516">
        <ele>44</ele>
        <time>2019-11-26T16:37:01Z</time>
      </trkpt>
      <trkpt lat="59.293847" lon="18.085432">
        <ele>44</ele>
        <time>2019-11-26T16:37:03Z</time>
      </trkpt>
      <trkpt lat="59.293917" lon="18.085396">
        <ele>44</ele>
        <time>2019-11-26T16:37:04Z</time>
      </trkpt>
      <trkpt lat="59.293985" lon="18.085358">
        <ele>44</ele>
        <time>2019-11-26T16:37:05Z</time>
      </trkpt>
      <trkpt lat="59.29405" lon="18.085328">
        <ele>44</ele>
        <time>2019-11-26T16:37:06Z</time>
      </trkpt>
      <trkpt lat="59.294116" lon="18.085292">
        <ele>45</ele>
        <time>2019-11-26T16:37:07Z</time>
      </trkpt>
      <trkpt lat="59.294182" lon="18.085254">
        <ele>45</ele>
        <time>2019-11-26T16:37:08Z</time>
      </trkpt>
      <trkpt lat="59.294247" lon="18.08522">
        <ele>45</ele>
        <time>2019-11-26T16:37:09Z</time>
      </trkpt>
      <trkpt lat="59.29438" lon="18.08513">
        <ele>45</ele>
        <time>2019-11-26T16:37:11Z</time>
      </trkpt>
      <trkpt lat="59.294528" lon="18.08505">
        <ele>44</ele>
        <time>2019-11-26T16:37:14Z</time>
      </trkpt>
      <trkpt lat="59.294657" lon="18.08498">
        <ele>44</ele>
        <time>2019-11-26T16:37:15Z</time>
      </trkpt>
      <trkpt lat="59.294787" lon="18.085005">
        <ele>44</ele>
        <time>2019-11-26T16:37:17Z</time>
      </trkpt>
      <trkpt lat="59.294841" lon="18.08498">
        <ele>44</ele>
        <time>2019-11-26T16:37:18Z</time>
      </trkpt>
      <trkpt lat="59.294949" lon="18.084919">
        <ele>44</ele>
        <time>2019-11-26T16:37:20Z</time>
      </trkpt>
      <trkpt lat="59.295006" lon="18.084894">
        <ele>44</ele>
        <time>2019-11-26T16:37:21Z</time>
      </trkpt>
      <trkpt lat="59.295063" lon="18.084864">
        <ele>44</ele>
        <time>2019-11-26T16:37:22Z</time>
      </trkpt>
      <trkpt lat="59.29512" lon="18.084836">
        <ele>44</ele>
        <time>2019-11-26T16:37:23Z</time>
      </trkpt>
      <trkpt lat="59.295176" lon="18.084806">
        <ele>44</ele>
        <time>2019-11-26T16:37:24Z</time>
      </trkpt>
      <trkpt lat="59.295233" lon="18.084772">
        <ele>44</ele>
        <time>2019-11-26T16:37:26Z</time>
      </trkpt>
      <trkpt lat="59.295289" lon="18.084734">
        <ele>44</ele>
        <time>2019-11-26T16:37:26Z</time>
      </trkpt>
      <trkpt lat="59.295343" lon="18.084696">
        <ele>44</ele>
        <time>2019-11-26T16:37:27Z</time>
      </trkpt>
      <trkpt lat="59.295399" lon="18.084658">
        <ele>44</ele>
        <time>2019-11-26T16:37:28Z</time>
      </trkpt>
      <trkpt lat="59.295454" lon="18.084622">
        <ele>44</ele>
        <time>2019-11-26T16:37:29Z</time>
      </trkpt>
      <trkpt lat="59.29551" lon="18.084586">
        <ele>44</ele>
        <time>2019-11-26T16:37:30Z</time>
      </trkpt>
      <trkpt lat="59.295566" lon="18.084552">
        <ele>44</ele>
        <time>2019-11-26T16:37:31Z</time>
      </trkpt>
      <trkpt lat="59.295622" lon="18.08452">
        <ele>44</ele>
        <time>2019-11-26T16:37:33Z</time>
      </trkpt>
      <trkpt lat="59.295677" lon="18.084488">
        <ele>44</ele>
        <time>2019-11-26T16:37:34Z</time>
      </trkpt>
      <trkpt lat="59.295732" lon="18.084454">
        <ele>44</ele>
        <time>2019-11-26T16:37:34Z</time>
      </trkpt>
      <trkpt lat="59.295787" lon="18.084421">
        <ele>44</ele>
        <time>2019-11-26T16:37:35Z</time>
      </trkpt>
      <trkpt lat="59.295842" lon="18.084386">
        <ele>44</ele>
        <time>2019-11-26T16:37:36Z</time>
      </trkpt>
      <trkpt lat="59.295897" lon="18.08435">
        <ele>44</ele>
        <time>2019-11-26T16:37:37Z</time>
      </trkpt>
      <trkpt lat="59.295953" lon="18.084316">
        <ele>44</ele>
        <time>2019-11-26T16:37:38Z</time>
      </trkpt>
      <trkpt lat="59.296008" lon="18.08428">
        <ele>44</ele>
        <time>2019-11-26T16:37:39Z</time>
      </trkpt>
      <trkpt lat="59.296064" lon="18.084246">
        <ele>44</ele>
        <time>2019-11-26T16:37:40Z</time>
      </trkpt>
      <trkpt lat="59.296119" lon="18.084212">
        <ele>44</ele>
        <time>2019-11-26T16:37:41Z</time>
      </trkpt>
      <trkpt lat="59.296175" lon="18.084182">
        <ele>44</ele>
        <time>2019-11-26T16:37:43Z</time>
      </trkpt>
      <trkpt lat="59.296232" lon="18.084156">
        <ele>44</ele>
        <time>2019-11-26T16:37:43Z</time>
      </trkpt>
      <trkpt lat="59.29629" lon="18.084141">
        <ele>44</ele>
        <time>2019-11-26T16:37:44Z</time>
      </trkpt>
      <trkpt lat="59.296347" lon="18.084148">
        <ele>45</ele>
        <time>2019-11-26T16:37:45Z</time>
      </trkpt>
      <trkpt lat="59.296396" lon="18.084192">
        <ele>45</ele>
        <time>2019-11-26T16:37:46Z</time>
      </trkpt>
      <trkpt lat="59.296432" lon="18.084278">
        <ele>45</ele>
        <time>2019-11-26T16:37:47Z</time>
      </trkpt>
      <trkpt lat="59.296455" lon="18.084382">
        <ele>45</ele>
        <time>2019-11-26T16:37:48Z</time>
      </trkpt>
      <trkpt lat="59.296473" lon="18.084484">
        <ele>45</ele>
        <time>2019-11-26T16:37:49Z</time>
      </trkpt>
      <trkpt lat="59.296499" lon="18.08457">
        <ele>45</ele>
        <time>2019-11-26T16:37:50Z</time>
      </trkpt>
      <trkpt lat="59.296537" lon="18.084625">
        <ele>0</ele>
        <time>2019-11-26T16:37:51Z</time>
      </trkpt>
      <trkpt lat="59.296582" lon="18.08465">
        <ele>45</ele>
        <time>2019-11-26T16:37:52Z</time>
      </trkpt>
      <trkpt lat="59.296631" lon="18.084656">
        <ele>45</ele>
        <time>2019-11-26T16:37:53Z</time>
      </trkpt>
      <trkpt lat="59.296681" lon="18.084652">
        <ele>45</ele>
        <time>2019-11-26T16:37:54Z</time>
      </trkpt>
      <trkpt lat="59.296731" lon="18.084646">
        <ele>45</ele>
        <time>2019-11-26T16:37:55Z</time>
      </trkpt>
      <trkpt lat="59.296782" lon="18.084646">
        <ele>45</ele>
        <time>2019-11-26T16:37:56Z</time>
      </trkpt>
      <trkpt lat="59.296835" lon="18.08465">
        <ele>44</ele>
        <time>2019-11-26T16:37:57Z</time>
      </trkpt>
      <trkpt lat="59.29689" lon="18.084658">
        <ele>44</ele>
        <time>2019-11-26T16:37:58Z</time>
      </trkpt>
      <trkpt lat="59.296949" lon="18.084664">
        <ele>44</ele>
        <time>2019-11-26T16:37:59Z</time>
      </trkpt>
      <trkpt lat="59.29701" lon="18.084662">
        <ele>44</ele>
        <time>2019-11-26T16:38:01Z</time>
      </trkpt>
      <trkpt lat="59.29707" lon="18.084634">
        <ele>43</ele>
        <time>2019-11-26T16:38:01Z</time>
      </trkpt>
      <trkpt lat="59.297124" lon="18.084572">
        <ele>43</ele>
        <time>2019-11-26T16:38:02Z</time>
      </trkpt>
      <trkpt lat="59.29717" lon="18.084484">
        <ele>43</ele>
        <time>2019-11-26T16:38:03Z</time>
      </trkpt>
      <trkpt lat="59.297211" lon="18.084376">
        <ele>43</ele>
        <time>2019-11-26T16:38:04Z</time>
      </trkpt>
      <trkpt lat="59.297243" lon="18.084248">
        <ele>42</ele>
        <time>2019-11-26T16:38:05Z</time>
      </trkpt>
      <trkpt lat="59.297265" lon="18.084108">
        <ele>42</ele>
        <time>2019-11-26T16:38:06Z</time>
      </trkpt>
      <trkpt lat="59.297274" lon="18.083959">
        <ele>42</ele>
        <time>2019-11-26T16:38:07Z</time>
      </trkpt>
      <trkpt lat="59.297272" lon="18.083812">
        <ele>42</ele>
        <time>2019-11-26T16:38:09Z</time>
      </trkpt>
      <trkpt lat="59.297265" lon="18.083671">
        <ele>42</ele>
        <time>2019-11-26T16:38:09Z</time>
      </trkpt>
      <trkpt lat="59.297264" lon="18.083544">
        <ele>42</ele>
        <time>2019-11-26T16:38:11Z</time>
      </trkpt>
      <trkpt lat="59.297278" lon="18.083437">
        <ele>42</ele>
        <time>2019-11-26T16:38:11Z</time>
      </trkpt>
      <trkpt lat="59.297308" lon="18.083354">
        <ele>43</ele>
        <time>2019-11-26T16:38:12Z</time>
      </trkpt>
      <trkpt lat="59.297356" lon="18.08329">
        <ele>43</ele>
        <time>2019-11-26T16:38:13Z</time>
      </trkpt>
      <trkpt lat="59.29741" lon="18.083247">
        <ele>43</ele>
        <time>2019-11-26T16:38:14Z</time>
      </trkpt>
      <trkpt lat="59.297468" lon="18.083208">
        <ele>43</ele>
        <time>2019-11-26T16:38:15Z</time>
      </trkpt>
      <trkpt lat="59.297529" lon="18.08317">
        <ele>43</ele>
        <time>2019-11-26T16:38:17Z</time>
      </trkpt>
      <trkpt lat="59.297591" lon="18.083128">
        <ele>43</ele>
        <time>2019-11-26T16:38:17Z</time>
      </trkpt>
      <trkpt lat="59.297654" lon="18.083086">
        <ele>43</ele>
        <time>2019-11-26T16:38:18Z</time>
      </trkpt>
      <trkpt lat="59.29772" lon="18.08306">
        <ele>43</ele>
        <time>2019-11-26T16:38:19Z</time>
      </trkpt>
      <trkpt lat="59.297788" lon="18.083055">
        <ele>42</ele>
        <time>2019-11-26T16:38:20Z</time>
      </trkpt>
      <trkpt lat="59.297858" lon="18.083052">
        <ele>42</ele>
        <time>2019-11-26T16:38:21Z</time>
      </trkpt>
      <trkpt lat="59.29793" lon="18.083042">
        <ele>42</ele>
        <time>2019-11-26T16:38:22Z</time>
      </trkpt>
      <trkpt lat="59.298002" lon="18.083019">
        <ele>42</ele>
        <time>2019-11-26T16:38:24Z</time>
      </trkpt>
      <trkpt lat="59.298074" lon="18.082985">
        <ele>41</ele>
        <time>2019-11-26T16:38:24Z</time>
      </trkpt>
      <trkpt lat="59.298146" lon="18.082941">
        <ele>41</ele>
        <time>2019-11-26T16:38:25Z</time>
      </trkpt>
      <trkpt lat="59.298218" lon="18.082889">
        <ele>41</ele>
        <time>2019-11-26T16:38:26Z</time>
      </trkpt>
      <trkpt lat="59.298289" lon="18.082832">
        <ele>41</ele>
        <time>2019-11-26T16:38:27Z</time>
      </trkpt>
      <trkpt lat="59.298358" lon="18.082767">
        <ele>40</ele>
        <time>2019-11-26T16:38:28Z</time>
      </trkpt>
      <trkpt lat="59.298425" lon="18.082696">
        <ele>0</ele>
        <time>2019-11-26T16:38:29Z</time>
      </trkpt>
      <trkpt lat="59.29849" lon="18.082626">
        <ele>40</ele>
        <time>2019-11-26T16:38:30Z</time>
      </trkpt>
      <trkpt lat="59.298557" lon="18.082563">
        <ele>40</ele>
        <time>2019-11-26T16:38:31Z</time>
      </trkpt>
      <trkpt lat="59.298626" lon="18.082511">
        <ele>39</ele>
        <time>2019-11-26T16:38:32Z</time>
      </trkpt>
      <trkpt lat="59.298698" lon="18.082464">
        <ele>39</ele>
        <time>2019-11-26T16:38:33Z</time>
      </trkpt>
      <trkpt lat="59.298771" lon="18.082418">
        <ele>39</ele>
        <time>2019-11-26T16:38:34Z</time>
      </trkpt>
      <trkpt lat="59.298843" lon="18.082372">
        <ele>39</ele>
        <time>2019-11-26T16:38:35Z</time>
      </trkpt>
      <trkpt lat="59.298917" lon="18.082324">
        <ele>39</ele>
        <time>2019-11-26T16:38:37Z</time>
      </trkpt>
      <trkpt lat="59.298991" lon="18.082281">
        <ele>39</ele>
        <time>2019-11-26T16:38:37Z</time>
      </trkpt>
      <trkpt lat="59.299064" lon="18.082247">
        <ele>39</ele>
        <time>2019-11-26T16:38:38Z</time>
      </trkpt>
      <trkpt lat="59.299137" lon="18.082221">
        <ele>39</ele>
        <time>2019-11-26T16:38:39Z</time>
      </trkpt>
      <trkpt lat="59.299209" lon="18.082193">
        <ele>39</ele>
        <time>2019-11-26T16:38:40Z</time>
      </trkpt>
      <trkpt lat="59.299276" lon="18.082186">
        <ele>39</ele>
        <time>2019-11-26T16:38:41Z</time>
      </trkpt>
      <trkpt lat="59.299336" lon="18.082214">
        <ele>39</ele>
        <time>2019-11-26T16:38:42Z</time>
      </trkpt>
      <trkpt lat="59.299402" lon="18.082222">
        <ele>39</ele>
        <time>2019-11-26T16:38:44Z</time>
      </trkpt>
      <trkpt lat="59.299482" lon="18.082196">
        <ele>39</ele>
        <time>2019-11-26T16:38:44Z</time>
      </trkpt>
      <trkpt lat="59.299564" lon="18.082164">
        <ele>39</ele>
        <time>2019-11-26T16:38:45Z</time>
      </trkpt>
      <trkpt lat="59.299647" lon="18.08213">
        <ele>39</ele>
        <time>2019-11-26T16:38:46Z</time>
      </trkpt>
      <trkpt lat="59.299725" lon="18.082091">
        <ele>39</ele>
        <time>2019-11-26T16:38:47Z</time>
      </trkpt>
      <trkpt lat="59.2998" lon="18.082049">
        <ele>39</ele>
        <time>2019-11-26T16:38:49Z</time>
      </trkpt>
      <trkpt lat="59.299873" lon="18.082004">
        <ele>39</ele>
        <time>2019-11-26T16:38:50Z</time>
      </trkpt>
      <trkpt lat="59.299942" lon="18.081955">
        <ele>39</ele>
        <time>2019-11-26T16:38:50Z</time>
      </trkpt>
      <trkpt lat="59.30001" lon="18.081899">
        <ele>39</ele>
        <time>2019-11-26T16:38:51Z</time>
      </trkpt>
      <trkpt lat="59.300075" lon="18.081837">
        <ele>39</ele>
        <time>2019-11-26T16:38:52Z</time>
      </trkpt>
      <trkpt lat="59.300141" lon="18.081779">
        <ele>39</ele>
        <time>2019-11-26T16:38:53Z</time>
      </trkpt>
      <trkpt lat="59.300209" lon="18.081735">
        <ele>39</ele>
        <time>2019-11-26T16:38:54Z</time>
      </trkpt>
      <trkpt lat="59.300279" lon="18.081693">
        <ele>39</ele>
        <time>2019-11-26T16:38:55Z</time>
      </trkpt>
      <trkpt lat="59.30035" lon="18.081653">
        <ele>39</ele>
        <time>2019-11-26T16:38:57Z</time>
      </trkpt>
      <trkpt lat="59.300417" lon="18.081611">
        <ele>39</ele>
        <time>2019-11-26T16:38:57Z</time>
      </trkpt>
      <trkpt lat="59.300483" lon="18.081566">
        <ele>39</ele>
        <time>2019-11-26T16:38:58Z</time>
      </trkpt>
      <trkpt lat="59.300551" lon="18.081522">
        <ele>40</ele>
        <time>2019-11-26T16:38:59Z</time>
      </trkpt>
      <trkpt lat="59.300617" lon="18.081472">
        <ele>40</ele>
        <time>2019-11-26T16:39:00Z</time>
      </trkpt>
      <trkpt lat="59.300684" lon="18.081421">
        <ele>40</ele>
        <time>2019-11-26T16:39:01Z</time>
      </trkpt>
      <trkpt lat="59.30075" lon="18.081369">
        <ele>40</ele>
        <time>2019-11-26T16:39:02Z</time>
      </trkpt>
      <trkpt lat="59.300815" lon="18.081314">
        <ele>40</ele>
        <time>2019-11-26T16:39:04Z</time>
      </trkpt>
      <trkpt lat="59.30088" lon="18.081255">
        <ele>41</ele>
        <time>2019-11-26T16:39:04Z</time>
      </trkpt>
      <trkpt lat="59.300943" lon="18.081192">
        <ele>41</ele>
        <time>2019-11-26T16:39:05Z</time>
      </trkpt>
      <trkpt lat="59.301006" lon="18.081129">
        <ele>41</ele>
        <time>2019-11-26T16:39:06Z</time>
      </trkpt>
      <trkpt lat="59.301067" lon="18.081065">
        <ele>41</ele>
        <time>2019-11-26T16:39:08Z</time>
      </trkpt>
      <trkpt lat="59.301129" lon="18.081001">
        <ele>41</ele>
        <time>2019-11-26T16:39:08Z</time>
      </trkpt>
      <trkpt lat="59.301193" lon="18.08094">
        <ele>41</ele>
        <time>2019-11-26T16:39:09Z</time>
      </trkpt>
      <trkpt lat="59.301256" lon="18.080883">
        <ele>41</ele>
        <time>2019-11-26T16:39:11Z</time>
      </trkpt>
      <trkpt lat="59.301321" lon="18.080828">
        <ele>41</ele>
        <time>2019-11-26T16:39:11Z</time>
      </trkpt>
      <trkpt lat="59.301385" lon="18.080771">
        <ele>41</ele>
        <time>2019-11-26T16:39:12Z</time>
      </trkpt>
      <trkpt lat="59.301448" lon="18.080715">
        <ele>40</ele>
        <time>2019-11-26T16:39:13Z</time>
      </trkpt>
      <trkpt lat="59.301512" lon="18.080663">
        <ele>40</ele>
        <time>2019-11-26T16:39:14Z</time>
      </trkpt>
      <trkpt lat="59.301576" lon="18.080613">
        <ele>40</ele>
        <time>2019-11-26T16:39:16Z</time>
      </trkpt>
      <trkpt lat="59.30164" lon="18.080561">
        <ele>40</ele>
        <time>2019-11-26T16:39:16Z</time>
      </trkpt>
      <trkpt lat="59.301704" lon="18.080511">
        <ele>40</ele>
        <time>2019-11-26T16:39:18Z</time>
      </trkpt>
      <trkpt lat="59.301769" lon="18.080462">
        <ele>40</ele>
        <time>2019-11-26T16:39:18Z</time>
      </trkpt>
      <trkpt lat="59.301835" lon="18.080415">
        <ele>40</ele>
        <time>2019-11-26T16:39:19Z</time>
      </trkpt>
      <trkpt lat="59.3019" lon="18.080368">
        <ele>39</ele>
        <time>2019-11-26T16:39:20Z</time>
      </trkpt>
      <trkpt lat="59.301967" lon="18.080322">
        <ele>39</ele>
        <time>2019-11-26T16:39:21Z</time>
      </trkpt>
      <trkpt lat="59.302034" lon="18.080277">
        <ele>39</ele>
        <time>2019-11-26T16:39:22Z</time>
      </trkpt>
      <trkpt lat="59.302101" lon="18.080234">
        <ele>39</ele>
        <time>2019-11-26T16:39:23Z</time>
      </trkpt>
      <trkpt lat="59.302167" lon="18.080192">
        <ele>38</ele>
        <time>2019-11-26T16:39:24Z</time>
      </trkpt>
      <trkpt lat="59.302234" lon="18.080149">
        <ele>38</ele>
        <time>2019-11-26T16:39:26Z</time>
      </trkpt>
      <trkpt lat="59.302301" lon="18.080106">
        <ele>38</ele>
        <time>2019-11-26T16:39:27Z</time>
      </trkpt>
      <trkpt lat="59.302368" lon="18.080064">
        <ele>38</ele>
        <time>2019-11-26T16:39:27Z</time>
      </trkpt>
      <trkpt lat="59.302436" lon="18.080024">
        <ele>38</ele>
        <time>2019-11-26T16:39:28Z</time>
      </trkpt>
      <trkpt lat="59.302503" lon="18.079984">
        <ele>38</ele>
        <time>2019-11-26T16:39:29Z</time>
      </trkpt>
      <trkpt lat="59.30257" lon="18.079944">
        <ele>37</ele>
        <time>2019-11-26T16:39:30Z</time>
      </trkpt>
      <trkpt lat="59.302637" lon="18.079903">
        <ele>37</ele>
        <time>2019-11-26T16:39:31Z</time>
      </trkpt>
      <trkpt lat="59.302703" lon="18.079864">
        <ele>37</ele>
        <time>2019-11-26T16:39:33Z</time>
      </trkpt>
      <trkpt lat="59.302769" lon="18.079823">
        <ele>37</ele>
        <time>2019-11-26T16:39:33Z</time>
      </trkpt>
      <trkpt lat="59.302835" lon="18.079781">
        <ele>37</ele>
        <time>2019-11-26T16:39:34Z</time>
      </trkpt>
      <trkpt lat="59.302901" lon="18.079737">
        <ele>37</ele>
        <time>2019-11-26T16:39:35Z</time>
      </trkpt>
      <trkpt lat="59.302967" lon="18.079693">
        <ele>37</ele>
        <time>2019-11-26T16:39:36Z</time>
      </trkpt>
      <trkpt lat="59.303034" lon="18.07965">
        <ele>37</ele>
        <time>2019-11-26T16:39:37Z</time>
      </trkpt>
      <trkpt lat="59.3031" lon="18.079608">
        <ele>37</ele>
        <time>2019-11-26T16:39:38Z</time>
      </trkpt>
      <trkpt lat="59.303167" lon="18.079567">
        <ele>36</ele>
        <time>2019-11-26T16:39:40Z</time>
      </trkpt>
      <trkpt lat="59.303235" lon="18.079526">
        <ele>36</ele>
        <time>2019-11-26T16:39:40Z</time>
      </trkpt>
      <trkpt lat="59.303303" lon="18.079484">
        <ele>36</ele>
        <time>2019-11-26T16:39:41Z</time>
      </trkpt>
      <trkpt lat="59.303371" lon="18.079441">
        <ele>36</ele>
        <time>2019-11-26T16:39:42Z</time>
      </trkpt>
      <trkpt lat="59.303441" lon="18.079394">
        <ele>36</ele>
        <time>2019-11-26T16:39:43Z</time>
      </trkpt>
      <trkpt lat="59.303511" lon="18.079347">
        <ele>35</ele>
        <time>2019-11-26T16:39:44Z</time>
      </trkpt>
      <trkpt lat="59.303582" lon="18.079302">
        <ele>35</ele>
        <time>2019-11-26T16:39:46Z</time>
      </trkpt>
      <trkpt lat="59.303654" lon="18.079256">
        <ele>35</ele>
        <time>2019-11-26T16:39:47Z</time>
      </trkpt>
      <trkpt lat="59.303728" lon="18.079209">
        <ele>34</ele>
        <time>2019-11-26T16:39:47Z</time>
      </trkpt>
      <trkpt lat="59.303803" lon="18.079161">
        <ele>34</ele>
        <time>2019-11-26T16:39:48Z</time>
      </trkpt>
      <trkpt lat="59.303879" lon="18.079112">
        <ele>34</ele>
        <time>2019-11-26T16:39:49Z</time>
      </trkpt>
      <trkpt lat="59.303956" lon="18.079062">
        <ele>34</ele>
        <time>2019-11-26T16:39:50Z</time>
      </trkpt>
      <trkpt lat="59.304034" lon="18.079011">
        <ele>34</ele>
        <time>2019-11-26T16:39:51Z</time>
      </trkpt>
      <trkpt lat="59.304112" lon="18.078962">
        <ele>33</ele>
        <time>2019-11-26T16:39:53Z</time>
      </trkpt>
      <trkpt lat="59.304193" lon="18.078913">
        <ele>33</ele>
        <time>2019-11-26T16:39:53Z</time>
      </trkpt>
      <trkpt lat="59.304275" lon="18.078864">
        <ele>33</ele>
        <time>2019-11-26T16:39:54Z</time>
      </trkpt>
      <trkpt lat="59.304358" lon="18.078815">
        <ele>32</ele>
        <time>2019-11-26T16:39:55Z</time>
      </trkpt>
      <trkpt lat="59.304443" lon="18.078765">
        <ele>32</ele>
        <time>2019-11-26T16:39:56Z</time>
      </trkpt>
      <trkpt lat="59.304528" lon="18.078712">
        <ele>31</ele>
        <time>2019-11-26T16:39:57Z</time>
      </trkpt>
      <trkpt lat="59.304615" lon="18.078657">
        <ele>31</ele>
        <time>2019-11-26T16:39:59Z</time>
      </trkpt>
      <trkpt lat="59.304703" lon="18.078602">
        <ele>30</ele>
        <time>2019-11-26T16:39:59Z</time>
      </trkpt>
      <trkpt lat="59.304792" lon="18.078548">
        <ele>30</ele>
        <time>2019-11-26T16:40:00Z</time>
      </trkpt>
      <trkpt lat="59.304881" lon="18.078493">
        <ele>29</ele>
        <time>2019-11-26T16:40:01Z</time>
      </trkpt>
      <trkpt lat="59.304972" lon="18.078438">
        <ele>29</ele>
        <time>2019-11-26T16:40:02Z</time>
      </trkpt>
      <trkpt lat="59.305063" lon="18.078381">
        <ele>29</ele>
        <time>2019-11-26T16:40:04Z</time>
      </trkpt>
      <trkpt lat="59.305155" lon="18.078323">
        <ele>28</ele>
        <time>2019-11-26T16:40:05Z</time>
      </trkpt>
      <trkpt lat="59.305246" lon="18.078264">
        <ele>28</ele>
        <time>2019-11-26T16:40:05Z</time>
      </trkpt>
      <trkpt lat="59.305338" lon="18.078206">
        <ele>28</ele>
        <time>2019-11-26T16:40:06Z</time>
      </trkpt>
      <trkpt lat="59.305429" lon="18.078148">
        <ele>27</ele>
        <time>2019-11-26T16:40:07Z</time>
      </trkpt>
      <trkpt lat="59.30552" lon="18.078091">
        <ele>27</ele>
        <time>2019-11-26T16:40:09Z</time>
      </trkpt>
      <trkpt lat="59.305611" lon="18.078033">
        <ele>27</ele>
        <time>2019-11-26T16:40:09Z</time>
      </trkpt>
      <trkpt lat="59.3057" lon="18.077975">
        <ele>26</ele>
        <time>2019-11-26T16:40:10Z</time>
      </trkpt>
      <trkpt lat="59.305789" lon="18.077919">
        <ele>26</ele>
        <time>2019-11-26T16:40:11Z</time>
      </trkpt>
      <trkpt lat="59.305878" lon="18.077861">
        <ele>26</ele>
        <time>2019-11-26T16:40:12Z</time>
      </trkpt>
      <trkpt lat="59.305965" lon="18.077803">
        <ele>25</ele>
        <time>2019-11-26T16:40:14Z</time>
      </trkpt>
      <trkpt lat="59.306052" lon="18.077745">
        <ele>25</ele>
        <time>2019-11-26T16:40:14Z</time>
      </trkpt>
      <trkpt lat="59.306137" lon="18.077688">
        <ele>25</ele>
        <time>2019-11-26T16:40:15Z</time>
      </trkpt>
      <trkpt lat="59.306221" lon="18.077632">
        <ele>24</ele>
        <time>2019-11-26T16:40:16Z</time>
      </trkpt>
      <trkpt lat="59.306305" lon="18.077576">
        <ele>24</ele>
        <time>2019-11-26T16:40:17Z</time>
      </trkpt>
      <trkpt lat="59.306386" lon="18.077514">
        <ele>24</ele>
        <time>2019-11-26T16:40:18Z</time>
      </trkpt>
      <trkpt lat="59.306466" lon="18.077453">
        <ele>24</ele>
        <time>2019-11-26T16:40:20Z</time>
      </trkpt>
      <trkpt lat="59.306545" lon="18.077396">
        <ele>24</ele>
        <time>2019-11-26T16:40:20Z</time>
      </trkpt>
      <trkpt lat="59.306624" lon="18.077346">
        <ele>24</ele>
        <time>2019-11-26T16:40:21Z</time>
      </trkpt>
      <trkpt lat="59.306702" lon="18.0773">
        <ele>24</ele>
        <time>2019-11-26T16:40:22Z</time>
      </trkpt>
      <trkpt lat="59.306779" lon="18.077259">
        <ele>23</ele>
        <time>2019-11-26T16:40:24Z</time>
      </trkpt>
      <trkpt lat="59.306854" lon="18.07722">
        <ele>23</ele>
        <time>2019-11-26T16:40:24Z</time>
      </trkpt>
      <trkpt lat="59.306927" lon="18.077181">
        <ele>24</ele>
        <time>2019-11-26T16:40:26Z</time>
      </trkpt>
      <trkpt lat="59.306993" lon="18.077144">
        <ele>24</ele>
        <time>2019-11-26T16:40:26Z</time>
      </trkpt>
      <trkpt lat="59.307057" lon="18.077106">
        <ele>24</ele>
        <time>2019-11-26T16:40:27Z</time>
      </trkpt>
      <trkpt lat="59.307116" lon="18.077071">
        <ele>24</ele>
        <time>2019-11-26T16:40:28Z</time>
      </trkpt>
      <trkpt lat="59.307172" lon="18.077037">
        <ele>24</ele>
        <time>2019-11-26T16:40:29Z</time>
      </trkpt>
      <trkpt lat="59.307225" lon="18.077003">
        <ele>24</ele>
        <time>2019-11-26T16:40:30Z</time>
      </trkpt>
      <trkpt lat="59.307273" lon="18.076967">
        <ele>24</ele>
        <time>2019-11-26T16:40:31Z</time>
      </trkpt>
      <trkpt lat="59.307319" lon="18.076931">
        <ele>25</ele>
        <time>2019-11-26T16:40:32Z</time>
      </trkpt>
      <trkpt lat="59.307362" lon="18.076893">
        <ele>25</ele>
        <time>2019-11-26T16:40:33Z</time>
      </trkpt>
      <trkpt lat="59.307402" lon="18.076868">
        <ele>25</ele>
        <time>2019-11-26T16:40:34Z</time>
      </trkpt>
      <trkpt lat="59.307433" lon="18.076848">
        <ele>25</ele>
        <time>2019-11-26T16:40:35Z</time>
      </trkpt>
      <trkpt lat="59.307457" lon="18.076832">
        <ele>25</ele>
        <time>2019-11-26T16:40:37Z</time>
      </trkpt>
      <trkpt lat="59.307478" lon="18.076817">
        <ele>25</ele>
        <time>2019-11-26T16:40:37Z</time>
      </trkpt>
      <trkpt lat="59.307496" lon="18.076802">
        <ele>26</ele>
        <time>2019-11-26T16:40:38Z</time>
      </trkpt>
      <trkpt lat="59.307523" lon="18.076785">
        <ele>26</ele>
        <time>2019-11-26T16:40:40Z</time>
      </trkpt>
      <trkpt lat="59.307538" lon="18.07677">
        <ele>0</ele>
        <time>2019-11-26T16:40:47Z</time>
      </trkpt>
      <trkpt lat="59.307594" lon="18.076688">
        <ele>27</ele>
        <time>2019-11-26T16:41:26Z</time>
      </trkpt>
      <trkpt lat="59.30763" lon="18.076652">
        <ele>27</ele>
        <time>2019-11-26T16:41:26Z</time>
      </trkpt>
      <trkpt lat="59.307676" lon="18.076629">
        <ele>27</ele>
        <time>2019-11-26T16:41:27Z</time>
      </trkpt>
      <trkpt lat="59.307724" lon="18.076598">
        <ele>27</ele>
        <time>2019-11-26T16:41:28Z</time>
      </trkpt>
      <trkpt lat="59.307776" lon="18.07657">
        <ele>26</ele>
        <time>2019-11-26T16:41:29Z</time>
      </trkpt>
      <trkpt lat="59.307833" lon="18.076541">
        <ele>26</ele>
        <time>2019-11-26T16:41:30Z</time>
      </trkpt>
      <trkpt lat="59.30789" lon="18.07651">
        <ele>26</ele>
        <time>2019-11-26T16:41:31Z</time>
      </trkpt>
      <trkpt lat="59.30795" lon="18.076483">
        <ele>27</ele>
        <time>2019-11-26T16:41:32Z</time>
      </trkpt>
      <trkpt lat="59.308007" lon="18.07645">
        <ele>27</ele>
        <time>2019-11-26T16:41:34Z</time>
      </trkpt>
      <trkpt lat="59.308065" lon="18.07641">
        <ele>27</ele>
        <time>2019-11-26T16:41:34Z</time>
      </trkpt>
      <trkpt lat="59.308122" lon="18.076375">
        <ele>28</ele>
        <time>2019-11-26T16:41:35Z</time>
      </trkpt>
      <trkpt lat="59.30818" lon="18.076342">
        <ele>28</ele>
        <time>2019-11-26T16:41:36Z</time>
      </trkpt>
      <trkpt lat="59.308238" lon="18.076308">
        <ele>28</ele>
        <time>2019-11-26T16:41:37Z</time>
      </trkpt>
      <trkpt lat="59.308297" lon="18.076268">
        <ele>28</ele>
        <time>2019-11-26T16:41:38Z</time>
      </trkpt>
      <trkpt lat="59.308358" lon="18.076224">
        <ele>28</ele>
        <time>2019-11-26T16:41:39Z</time>
      </trkpt>
      <trkpt lat="59.30842" lon="18.076187">
        <ele>29</ele>
        <time>2019-11-26T16:41:40Z</time>
      </trkpt>
      <trkpt lat="59.308482" lon="18.07615">
        <ele>29</ele>
        <time>2019-11-26T16:41:42Z</time>
      </trkpt>
      <trkpt lat="59.308542" lon="18.076116">
        <ele>30</ele>
        <time>2019-11-26T16:41:42Z</time>
      </trkpt>
      <trkpt lat="59.30862" lon="18.076117">
        <ele>30</ele>
        <time>2019-11-26T16:41:43Z</time>
      </trkpt>
      <trkpt lat="59.308684" lon="18.076085">
        <ele>30</ele>
        <time>2019-11-26T16:41:45Z</time>
      </trkpt>
      <trkpt lat="59.308739" lon="18.076028">
        <ele>30</ele>
        <time>2019-11-26T16:41:45Z</time>
      </trkpt>
      <trkpt lat="59.308803" lon="18.075983">
        <ele>30</ele>
        <time>2019-11-26T16:41:46Z</time>
      </trkpt>
      <trkpt lat="59.308865" lon="18.075937">
        <ele>30</ele>
        <time>2019-11-26T16:41:47Z</time>
      </trkpt>
      <trkpt lat="59.308925" lon="18.075889">
        <ele>30</ele>
        <time>2019-11-26T16:41:48Z</time>
      </trkpt>
      <trkpt lat="59.308992" lon="18.075845">
        <ele>30</ele>
        <time>2019-11-26T16:41:50Z</time>
      </trkpt>
      <trkpt lat="59.309056" lon="18.075804">
        <ele>31</ele>
        <time>2019-11-26T16:41:50Z</time>
      </trkpt>
      <trkpt lat="59.309119" lon="18.075762">
        <ele>31</ele>
        <time>2019-11-26T16:41:51Z</time>
      </trkpt>
      <trkpt lat="59.309178" lon="18.075716">
        <ele>31</ele>
        <time>2019-11-26T16:41:52Z</time>
      </trkpt>
      <trkpt lat="59.309237" lon="18.075666">
        <ele>31</ele>
        <time>2019-11-26T16:41:53Z</time>
      </trkpt>
      <trkpt lat="59.309292" lon="18.075603">
        <ele>31</ele>
        <time>2019-11-26T16:41:54Z</time>
      </trkpt>
      <trkpt lat="59.309361" lon="18.075568">
        <ele>32</ele>
        <time>2019-11-26T16:41:55Z</time>
      </trkpt>
      <trkpt lat="59.30944" lon="18.07556">
        <ele>32</ele>
        <time>2019-11-26T16:41:57Z</time>
      </trkpt>
      <trkpt lat="59.309506" lon="18.075513">
        <ele>32</ele>
        <time>2019-11-26T16:41:57Z</time>
      </trkpt>
      <trkpt lat="59.309575" lon="18.075459">
        <ele>32</ele>
        <time>2019-11-26T16:41:58Z</time>
      </trkpt>
      <trkpt lat="59.30964" lon="18.075403">
        <ele>33</ele>
        <time>2019-11-26T16:41:59Z</time>
      </trkpt>
      <trkpt lat="59.309772" lon="18.0753">
        <ele>33</ele>
        <time>2019-11-26T16:42:01Z</time>
      </trkpt>
      <trkpt lat="59.309844" lon="18.075266">
        <ele>33</ele>
        <time>2019-11-26T16:42:02Z</time>
      </trkpt>
      <trkpt lat="59.30992" lon="18.075236">
        <ele>0</ele>
        <time>2019-11-26T16:42:03Z</time>
      </trkpt>
      <trkpt lat="59.309991" lon="18.075199">
        <ele>34</ele>
        <time>2019-11-26T16:42:04Z</time>
      </trkpt>
      <trkpt lat="59.310065" lon="18.075168">
        <ele>34</ele>
        <time>2019-11-26T16:42:05Z</time>
      </trkpt>
      <trkpt lat="59.310129" lon="18.075131">
        <ele>35</ele>
        <time>2019-11-26T16:42:06Z</time>
      </trkpt>
      <trkpt lat="59.310194" lon="18.075096">
        <ele>35</ele>
        <time>2019-11-26T16:42:07Z</time>
      </trkpt>
      <trkpt lat="59.310253" lon="18.075055">
        <ele>35</ele>
        <time>2019-11-26T16:42:08Z</time>
      </trkpt>
      <trkpt lat="59.310307" lon="18.075012">
        <ele>36</ele>
        <time>2019-11-26T16:42:09Z</time>
      </trkpt>
      <trkpt lat="59.310363" lon="18.074973">
        <ele>36</ele>
        <time>2019-11-26T16:42:11Z</time>
      </trkpt>
      <trkpt lat="59.310424" lon="18.074949">
        <ele>36</ele>
        <time>2019-11-26T16:42:11Z</time>
      </trkpt>
      <trkpt lat="59.310494" lon="18.074943">
        <ele>36</ele>
        <time>2019-11-26T16:42:12Z</time>
      </trkpt>
      <trkpt lat="59.310568" lon="18.074942">
        <ele>37</ele>
        <time>2019-11-26T16:42:13Z</time>
      </trkpt>
      <trkpt lat="59.310628" lon="18.074906">
        <ele>37</ele>
        <time>2019-11-26T16:42:14Z</time>
      </trkpt>
      <trkpt lat="59.310695" lon="18.074869">
        <ele>38</ele>
        <time>2019-11-26T16:42:15Z</time>
      </trkpt>
      <trkpt lat="59.310765" lon="18.074838">
        <ele>38</ele>
        <time>2019-11-26T16:42:16Z</time>
      </trkpt>
      <trkpt lat="59.310834" lon="18.074803">
        <ele>38</ele>
        <time>2019-11-26T16:42:17Z</time>
      </trkpt>
      <trkpt lat="59.310902" lon="18.074761">
        <ele>39</ele>
        <time>2019-11-26T16:42:19Z</time>
      </trkpt>
      <trkpt lat="59.310977" lon="18.074731">
        <ele>39</ele>
        <time>2019-11-26T16:42:19Z</time>
      </trkpt>
      <trkpt lat="59.311128" lon="18.074664">
        <ele>40</ele>
        <time>2019-11-26T16:42:21Z</time>
      </trkpt>
      <trkpt lat="59.311198" lon="18.074625">
        <ele>40</ele>
        <time>2019-11-26T16:42:23Z</time>
      </trkpt>
      <trkpt lat="59.311269" lon="18.074587">
        <ele>40</ele>
        <time>2019-11-26T16:42:23Z</time>
      </trkpt>
      <trkpt lat="59.311352" lon="18.074566">
        <ele>40</ele>
        <time>2019-11-26T16:42:25Z</time>
      </trkpt>
      <trkpt lat="59.311429" lon="18.07454">
        <ele>40</ele>
        <time>2019-11-26T16:42:25Z</time>
      </trkpt>
      <trkpt lat="59.311507" lon="18.074515">
        <ele>40</ele>
        <time>2019-11-26T16:42:26Z</time>
      </trkpt>
      <trkpt lat="59.311587" lon="18.074506">
        <ele>40</ele>
        <time>2019-11-26T16:42:27Z</time>
      </trkpt>
      <trkpt lat="59.311668" lon="18.074502">
        <ele>40</ele>
        <time>2019-11-26T16:42:28Z</time>
      </trkpt>
      <trkpt lat="59.311739" lon="18.074474">
        <ele>40</ele>
        <time>2019-11-26T16:42:29Z</time>
      </trkpt>
      <trkpt lat="59.311804" lon="18.07443">
        <ele>40</ele>
        <time>2019-11-26T16:42:30Z</time>
      </trkpt>
      <trkpt lat="59.311872" lon="18.074388">
        <ele>40</ele>
        <time>2019-11-26T16:42:32Z</time>
      </trkpt>
      <trkpt lat="59.311943" lon="18.074349">
        <ele>40</ele>
        <time>2019-11-26T16:42:32Z</time>
      </trkpt>
      <trkpt lat="59.312013" lon="18.074314">
        <ele>39</ele>
        <time>2019-11-26T16:42:33Z</time>
      </trkpt>
      <trkpt lat="59.312083" lon="18.074283">
        <ele>39</ele>
        <time>2019-11-26T16:42:34Z</time>
      </trkpt>
      <trkpt lat="59.31215" lon="18.074265">
        <ele>39</ele>
        <time>2019-11-26T16:42:35Z</time>
      </trkpt>
      <trkpt lat="59.312212" lon="18.07425">
        <ele>40</ele>
        <time>2019-11-26T16:42:36Z</time>
      </trkpt>
      <trkpt lat="59.31227" lon="18.074229">
        <ele>41</ele>
        <time>2019-11-26T16:42:37Z</time>
      </trkpt>
      <trkpt lat="59.312321" lon="18.074188">
        <ele>41</ele>
        <time>2019-11-26T16:42:39Z</time>
      </trkpt>
      <trkpt lat="59.312364" lon="18.074135">
        <ele>42</ele>
        <time>2019-11-26T16:42:39Z</time>
      </trkpt>
      <trkpt lat="59.312403" lon="18.074087">
        <ele>42</ele>
        <time>2019-11-26T16:42:40Z</time>
      </trkpt>
      <trkpt lat="59.312437" lon="18.074047">
        <ele>42</ele>
        <time>2019-11-26T16:42:42Z</time>
      </trkpt>
      <trkpt lat="59.312465" lon="18.074003">
        <ele>43</ele>
        <time>2019-11-26T16:42:42Z</time>
      </trkpt>
      <trkpt lat="59.312484" lon="18.073941">
        <ele>43</ele>
        <time>2019-11-26T16:42:43Z</time>
      </trkpt>
      <trkpt lat="59.312502" lon="18.073905">
        <ele>43</ele>
        <time>2019-11-26T16:42:44Z</time>
      </trkpt>
      <trkpt lat="59.312512" lon="18.073869">
        <ele>43</ele>
        <time>2019-11-26T16:42:45Z</time>
      </trkpt>
      <trkpt lat="59.31252" lon="18.073815">
        <ele>43</ele>
        <time>2019-11-26T16:42:47Z</time>
      </trkpt>
      <trkpt lat="59.312514" lon="18.073783">
        <ele>0</ele>
        <time>2019-11-26T16:42:54Z</time>
      </trkpt>
      <trkpt lat="59.312564" lon="18.073688">
        <ele>42</ele>
        <time>2019-11-26T16:43:10Z</time>
      </trkpt>
      <trkpt lat="59.312638" lon="18.07369">
        <ele>42</ele>
        <time>2019-11-26T16:43:11Z</time>
      </trkpt>
      <trkpt lat="59.312715" lon="18.073813">
        <ele>41</ele>
        <time>2019-11-26T16:43:13Z</time>
      </trkpt>
      <trkpt lat="59.312805" lon="18.073868">
        <ele>42</ele>
        <time>2019-11-26T16:43:13Z</time>
      </trkpt>
      <trkpt lat="59.312914" lon="18.073869">
        <ele>42</ele>
        <time>2019-11-26T16:43:14Z</time>
      </trkpt>
      <trkpt lat="59.312993" lon="18.073837">
        <ele>42</ele>
        <time>2019-11-26T16:43:15Z</time>
      </trkpt>
      <trkpt lat="59.313065" lon="18.073802">
        <ele>42</ele>
        <time>2019-11-26T16:43:16Z</time>
      </trkpt>
      <trkpt lat="59.313129" lon="18.07376">
        <ele>42</ele>
        <time>2019-11-26T16:43:17Z</time>
      </trkpt>
      <trkpt lat="59.31319" lon="18.073717">
        <ele>42</ele>
        <time>2019-11-26T16:43:18Z</time>
      </trkpt>
      <trkpt lat="59.313254" lon="18.073679">
        <ele>42</ele>
        <time>2019-11-26T16:43:20Z</time>
      </trkpt>
      <trkpt lat="59.31332" lon="18.073646">
        <ele>42</ele>
        <time>2019-11-26T16:43:20Z</time>
      </trkpt>
      <trkpt lat="59.313387" lon="18.073614">
        <ele>42</ele>
        <time>2019-11-26T16:43:21Z</time>
      </trkpt>
      <trkpt lat="59.313458" lon="18.073598">
        <ele>43</ele>
        <time>2019-11-26T16:43:22Z</time>
      </trkpt>
      <trkpt lat="59.313525" lon="18.073571">
        <ele>43</ele>
        <time>2019-11-26T16:43:23Z</time>
      </trkpt>
      <trkpt lat="59.313585" lon="18.073539">
        <ele>43</ele>
        <time>2019-11-26T16:43:24Z</time>
      </trkpt>
      <trkpt lat="59.313642" lon="18.073506">
        <ele>44</ele>
        <time>2019-11-26T16:43:25Z</time>
      </trkpt>
      <trkpt lat="59.3137" lon="18.073476">
        <ele>44</ele>
        <time>2019-11-26T16:43:27Z</time>
      </trkpt>
      <trkpt lat="59.313755" lon="18.073448">
        <ele>44</ele>
        <time>2019-11-26T16:43:27Z</time>
      </trkpt>
      <trkpt lat="59.313802" lon="18.073428">
        <ele>44</ele>
        <time>2019-11-26T16:43:29Z</time>
      </trkpt>
      <trkpt lat="59.313838" lon="18.073411">
        <ele>45</ele>
        <time>2019-11-26T16:43:29Z</time>
      </trkpt>
      <trkpt lat="59.313866" lon="18.073393">
        <ele>45</ele>
        <time>2019-11-26T16:43:30Z</time>
      </trkpt>
      <trkpt lat="59.313913" lon="18.073354">
        <ele>46</ele>
        <time>2019-11-26T16:43:33Z</time>
      </trkpt>
      <trkpt lat="59.313945" lon="18.073359">
        <ele>46</ele>
        <time>2019-11-26T16:43:35Z</time>
      </trkpt>
      <trkpt lat="59.313967" lon="18.073339">
        <ele>47</ele>
        <time>2019-11-26T16:43:37Z</time>
      </trkpt>
      <trkpt lat="59.313996" lon="18.073339">
        <ele>48</ele>
        <time>2019-11-26T16:43:40Z</time>
      </trkpt>
      <trkpt lat="59.314018" lon="18.073353">
        <ele>48</ele>
        <time>2019-11-26T16:43:41Z</time>
      </trkpt>
      <trkpt lat="59.314019" lon="18.073349">
        <ele>0</ele>
        <time>2019-11-26T16:43:46Z</time>
      </trkpt>
      <trkpt lat="59.314069" lon="18.073229">
        <ele>48</ele>
        <time>2019-11-26T16:43:59Z</time>
      </trkpt>
      <trkpt lat="59.314094" lon="18.073201">
        <ele>48</ele>
        <time>2019-11-26T16:43:59Z</time>
      </trkpt>
      <trkpt lat="59.314127" lon="18.073195">
        <ele>47</ele>
        <time>2019-11-26T16:44:00Z</time>
      </trkpt>
      <trkpt lat="59.314183" lon="18.073219">
        <ele>47</ele>
        <time>2019-11-26T16:44:01Z</time>
      </trkpt>
      <trkpt lat="59.31424" lon="18.073238">
        <ele>46</ele>
        <time>2019-11-26T16:44:02Z</time>
      </trkpt>
      <trkpt lat="59.314292" lon="18.073248">
        <ele>46</ele>
        <time>2019-11-26T16:44:04Z</time>
      </trkpt>
      <trkpt lat="59.314335" lon="18.073235">
        <ele>46</ele>
        <time>2019-11-26T16:44:04Z</time>
      </trkpt>
      <trkpt lat="59.314372" lon="18.073196">
        <ele>46</ele>
        <time>2019-11-26T16:44:05Z</time>
      </trkpt>
      <trkpt lat="59.314413" lon="18.073164">
        <ele>46</ele>
        <time>2019-11-26T16:44:06Z</time>
      </trkpt>
      <trkpt lat="59.314463" lon="18.073128">
        <ele>45</ele>
        <time>2019-11-26T16:44:07Z</time>
      </trkpt>
      <trkpt lat="59.314557" lon="18.073037">
        <ele>45</ele>
        <time>2019-11-26T16:44:09Z</time>
      </trkpt>
      <trkpt lat="59.314633" lon="18.072965">
        <ele>45</ele>
        <time>2019-11-26T16:44:11Z</time>
      </trkpt>
      <trkpt lat="59.314655" lon="18.072952">
        <ele>45</ele>
        <time>2019-11-26T16:44:12Z</time>
      </trkpt>
      <trkpt lat="59.314684" lon="18.072927">
        <ele>45</ele>
        <time>2019-11-26T16:44:13Z</time>
      </trkpt>
      <trkpt lat="59.314714" lon="18.072905">
        <ele>45</ele>
        <time>2019-11-26T16:44:14Z</time>
      </trkpt>
      <trkpt lat="59.314739" lon="18.072892">
        <ele>45</ele>
        <time>2019-11-26T16:44:16Z</time>
      </trkpt>
      <trkpt lat="59.314773" lon="18.072905">
        <ele>45</ele>
        <time>2019-11-26T16:44:16Z</time>
      </trkpt>
      <trkpt lat="59.314824" lon="18.072933">
        <ele>45</ele>
        <time>2019-11-26T16:44:18Z</time>
      </trkpt>
      <trkpt lat="59.314882" lon="18.072943">
        <ele>45</ele>
        <time>2019-11-26T16:44:18Z</time>
      </trkpt>
      <trkpt lat="59.314939" lon="18.072934">
        <ele>44</ele>
        <time>2019-11-26T16:44:19Z</time>
      </trkpt>
      <trkpt lat="59.315006" lon="18.072925">
        <ele>43</ele>
        <time>2019-11-26T16:44:20Z</time>
      </trkpt>
      <trkpt lat="59.315072" lon="18.072919">
        <ele>43</ele>
        <time>2019-11-26T16:44:21Z</time>
      </trkpt>
      <trkpt lat="59.315128" lon="18.072914">
        <ele>42</ele>
        <time>2019-11-26T16:44:22Z</time>
      </trkpt>
      <trkpt lat="59.315184" lon="18.072909">
        <ele>42</ele>
        <time>2019-11-26T16:44:23Z</time>
      </trkpt>
      <trkpt lat="59.315239" lon="18.072898">
        <ele>42</ele>
        <time>2019-11-26T16:44:25Z</time>
      </trkpt>
      <trkpt lat="59.315294" lon="18.072885">
        <ele>41</ele>
        <time>2019-11-26T16:44:25Z</time>
      </trkpt>
      <trkpt lat="59.315347" lon="18.072867">
        <ele>41</ele>
        <time>2019-11-26T16:44:26Z</time>
      </trkpt>
      <trkpt lat="59.315401" lon="18.072848">
        <ele>40</ele>
        <time>2019-11-26T16:44:27Z</time>
      </trkpt>
      <trkpt lat="59.315452" lon="18.072816">
        <ele>40</ele>
        <time>2019-11-26T16:44:28Z</time>
      </trkpt>
      <trkpt lat="59.315502" lon="18.072777">
        <ele>40</ele>
        <time>2019-11-26T16:44:29Z</time>
      </trkpt>
      <trkpt lat="59.315552" lon="18.07273">
        <ele>40</ele>
        <time>2019-11-26T16:44:30Z</time>
      </trkpt>
      <trkpt lat="59.315599" lon="18.072677">
        <ele>40</ele>
        <time>2019-11-26T16:44:31Z</time>
      </trkpt>
      <trkpt lat="59.315645" lon="18.072616">
        <ele>40</ele>
        <time>2019-11-26T16:44:33Z</time>
      </trkpt>
      <trkpt lat="59.315684" lon="18.072549">
        <ele>40</ele>
        <time>2019-11-26T16:44:34Z</time>
      </trkpt>
      <trkpt lat="59.315716" lon="18.072489">
        <ele>40</ele>
        <time>2019-11-26T16:44:34Z</time>
      </trkpt>
      <trkpt lat="59.315754" lon="18.072441">
        <ele>40</ele>
        <time>2019-11-26T16:44:35Z</time>
      </trkpt>
      <trkpt lat="59.315799" lon="18.072401">
        <ele>40</ele>
        <time>2019-11-26T16:44:37Z</time>
      </trkpt>
      <trkpt lat="59.315849" lon="18.072365">
        <ele>40</ele>
        <time>2019-11-26T16:44:37Z</time>
      </trkpt>
      <trkpt lat="59.315899" lon="18.072333">
        <ele>40</ele>
        <time>2019-11-26T16:44:38Z</time>
      </trkpt>
      <trkpt lat="59.315949" lon="18.072309">
        <ele>40</ele>
        <time>2019-11-26T16:44:39Z</time>
      </trkpt>
      <trkpt lat="59.31605" lon="18.072254">
        <ele>40</ele>
        <time>2019-11-26T16:44:41Z</time>
      </trkpt>
      <trkpt lat="59.316146" lon="18.072198">
        <ele>40</ele>
        <time>2019-11-26T16:44:43Z</time>
      </trkpt>
      <trkpt lat="59.316246" lon="18.072155">
        <ele>40</ele>
        <time>2019-11-26T16:44:45Z</time>
      </trkpt>
      <trkpt lat="59.316351" lon="18.072123">
        <ele>40</ele>
        <time>2019-11-26T16:44:47Z</time>
      </trkpt>
      <trkpt lat="59.316444" lon="18.072112">
        <ele>40</ele>
        <time>2019-11-26T16:44:49Z</time>
      </trkpt>
      <trkpt lat="59.316533" lon="18.072064">
        <ele>40</ele>
        <time>2019-11-26T16:44:53Z</time>
      </trkpt>
      <trkpt lat="59.316641" lon="18.072061">
        <ele>40</ele>
        <time>2019-11-26T16:44:56Z</time>
      </trkpt>
      <trkpt lat="59.316741" lon="18.071962">
        <ele>39</ele>
        <time>2019-11-26T16:44:59Z</time>
      </trkpt>
      <trkpt lat="59.31683" lon="18.071908">
        <ele>40</ele>
        <time>2019-11-26T16:45:01Z</time>
      </trkpt>
      <trkpt lat="59.316876" lon="18.071882">
        <ele>40</ele>
        <time>2019-11-26T16:45:02Z</time>
      </trkpt>
      <trkpt lat="59.316922" lon="18.071855">
        <ele>40</ele>
        <time>2019-11-26T16:45:03Z</time>
      </trkpt>
      <trkpt lat="59.316965" lon="18.07183">
        <ele>40</ele>
        <time>2019-11-26T16:45:04Z</time>
      </trkpt>
      <trkpt lat="59.317001" lon="18.071804">
        <ele>40</ele>
        <time>2019-11-26T16:45:05Z</time>
      </trkpt>
      <trkpt lat="59.317035" lon="18.071778">
        <ele>40</ele>
        <time>2019-11-26T16:45:06Z</time>
      </trkpt>
      <trkpt lat="59.31707" lon="18.071754">
        <ele>40</ele>
        <time>2019-11-26T16:45:07Z</time>
      </trkpt>
      <trkpt lat="59.317106" lon="18.071729">
        <ele>40</ele>
        <time>2019-11-26T16:45:09Z</time>
      </trkpt>
      <trkpt lat="59.317147" lon="18.071717">
        <ele>40</ele>
        <time>2019-11-26T16:45:09Z</time>
      </trkpt>
      <trkpt lat="59.317194" lon="18.071714">
        <ele>40</ele>
        <time>2019-11-26T16:45:10Z</time>
      </trkpt>
      <trkpt lat="59.31724" lon="18.071715">
        <ele>40</ele>
        <time>2019-11-26T16:45:11Z</time>
      </trkpt>
      <trkpt lat="59.317279" lon="18.071702">
        <ele>40</ele>
        <time>2019-11-26T16:45:12Z</time>
      </trkpt>
      <trkpt lat="59.317316" lon="18.071675">
        <ele>40</ele>
        <time>2019-11-26T16:45:13Z</time>
      </trkpt>
      <trkpt lat="59.317354" lon="18.071639">
        <ele>41</ele>
        <time>2019-11-26T16:45:15Z</time>
      </trkpt>
      <trkpt lat="59.317397" lon="18.071606">
        <ele>41</ele>
        <time>2019-11-26T16:45:15Z</time>
      </trkpt>
      <trkpt lat="59.31744" lon="18.071576">
        <ele>41</ele>
        <time>2019-11-26T16:45:16Z</time>
      </trkpt>
      <trkpt lat="59.317486" lon="18.071552">
        <ele>41</ele>
        <time>2019-11-26T16:45:17Z</time>
      </trkpt>
      <trkpt lat="59.317529" lon="18.071526">
        <ele>41</ele>
        <time>2019-11-26T16:45:18Z</time>
      </trkpt>
      <trkpt lat="59.317578" lon="18.071499">
        <ele>41</ele>
        <time>2019-11-26T16:45:20Z</time>
      </trkpt>
      <trkpt lat="59.317628" lon="18.071475">
        <ele>41</ele>
        <time>2019-11-26T16:45:20Z</time>
      </trkpt>
      <trkpt lat="59.317674" lon="18.07145">
        <ele>41</ele>
        <time>2019-11-26T16:45:21Z</time>
      </trkpt>
      <trkpt lat="59.317719" lon="18.071427">
        <ele>41</ele>
        <time>2019-11-26T16:45:22Z</time>
      </trkpt>
      <trkpt lat="59.317764" lon="18.071396">
        <ele>42</ele>
        <time>2019-11-26T16:45:23Z</time>
      </trkpt>
      <trkpt lat="59.317806" lon="18.071367">
        <ele>42</ele>
        <time>2019-11-26T16:45:24Z</time>
      </trkpt>
      <trkpt lat="59.317855" lon="18.071354">
        <ele>42</ele>
        <time>2019-11-26T16:45:25Z</time>
      </trkpt>
      <trkpt lat="59.317905" lon="18.071346">
        <ele>42</ele>
        <time>2019-11-26T16:45:26Z</time>
      </trkpt>
      <trkpt lat="59.317939" lon="18.071318">
        <ele>42</ele>
        <time>2019-11-26T16:45:27Z</time>
      </trkpt>
      <trkpt lat="59.317972" lon="18.071288">
        <ele>42</ele>
        <time>2019-11-26T16:45:28Z</time>
      </trkpt>
      <trkpt lat="59.318006" lon="18.071264">
        <ele>43</ele>
        <time>2019-11-26T16:45:29Z</time>
      </trkpt>
      <trkpt lat="59.31804" lon="18.071241">
        <ele>43</ele>
        <time>2019-11-26T16:45:30Z</time>
      </trkpt>
      <trkpt lat="59.318068" lon="18.071227">
        <ele>43</ele>
        <time>2019-11-26T16:45:31Z</time>
      </trkpt>
      <trkpt lat="59.318096" lon="18.071214">
        <ele>43</ele>
        <time>2019-11-26T16:45:33Z</time>
      </trkpt>
      <trkpt lat="59.318136" lon="18.071208">
        <ele>43</ele>
        <time>2019-11-26T16:45:34Z</time>
      </trkpt>
      <trkpt lat="59.318174" lon="18.071197">
        <ele>44</ele>
        <time>2019-11-26T16:45:34Z</time>
      </trkpt>
      <trkpt lat="59.318212" lon="18.071183">
        <ele>44</ele>
        <time>2019-11-26T16:45:35Z</time>
      </trkpt>
      <trkpt lat="59.318251" lon="18.071164">
        <ele>44</ele>
        <time>2019-11-26T16:45:36Z</time>
      </trkpt>
      <trkpt lat="59.318292" lon="18.071143">
        <ele>44</ele>
        <time>2019-11-26T16:45:37Z</time>
      </trkpt>
      <trkpt lat="59.318333" lon="18.071118">
        <ele>44</ele>
        <time>2019-11-26T16:45:38Z</time>
      </trkpt>
      <trkpt lat="59.318376" lon="18.071096">
        <ele>44</ele>
        <time>2019-11-26T16:45:39Z</time>
      </trkpt>
      <trkpt lat="59.318426" lon="18.071076">
        <ele>44</ele>
        <time>2019-11-26T16:45:40Z</time>
      </trkpt>
      <trkpt lat="59.31847" lon="18.071039">
        <ele>44</ele>
        <time>2019-11-26T16:45:41Z</time>
      </trkpt>
      <trkpt lat="59.318532" lon="18.071015">
        <ele>44</ele>
        <time>2019-11-26T16:45:43Z</time>
      </trkpt>
      <trkpt lat="59.318596" lon="18.070998">
        <ele>44</ele>
        <time>2019-11-26T16:45:43Z</time>
      </trkpt>
      <trkpt lat="59.318654" lon="18.070959">
        <ele>44</ele>
        <time>2019-11-26T16:45:44Z</time>
      </trkpt>
      <trkpt lat="59.318712" lon="18.070912">
        <ele>45</ele>
        <time>2019-11-26T16:45:45Z</time>
      </trkpt>
      <trkpt lat="59.318845" lon="18.070852">
        <ele>45</ele>
        <time>2019-11-26T16:45:47Z</time>
      </trkpt>
      <trkpt lat="59.319008" lon="18.070797">
        <ele>44</ele>
        <time>2019-11-26T16:45:50Z</time>
      </trkpt>
      <trkpt lat="59.319084" lon="18.070766">
        <ele>44</ele>
        <time>2019-11-26T16:45:50Z</time>
      </trkpt>
      <trkpt lat="59.319161" lon="18.070757">
        <ele>44</ele>
        <time>2019-11-26T16:45:51Z</time>
      </trkpt>
      <trkpt lat="59.319232" lon="18.070738">
        <ele>43</ele>
        <time>2019-11-26T16:45:53Z</time>
      </trkpt>
      <trkpt lat="59.319306" lon="18.070724">
        <ele>43</ele>
        <time>2019-11-26T16:45:53Z</time>
      </trkpt>
      <trkpt lat="59.319366" lon="18.070705">
        <ele>42</ele>
        <time>2019-11-26T16:45:54Z</time>
      </trkpt>
      <trkpt lat="59.319424" lon="18.070694">
        <ele>42</ele>
        <time>2019-11-26T16:45:55Z</time>
      </trkpt>
      <trkpt lat="59.319474" lon="18.070668">
        <ele>42</ele>
        <time>2019-11-26T16:45:56Z</time>
      </trkpt>
      <trkpt lat="59.319528" lon="18.070639">
        <ele>42</ele>
        <time>2019-11-26T16:45:58Z</time>
      </trkpt>
      <trkpt lat="59.319578" lon="18.070611">
        <ele>41</ele>
        <time>2019-11-26T16:45:58Z</time>
      </trkpt>
      <trkpt lat="59.319621" lon="18.070587">
        <ele>41</ele>
        <time>2019-11-26T16:45:59Z</time>
      </trkpt>
      <trkpt lat="59.31965" lon="18.070562">
        <ele>41</ele>
        <time>2019-11-26T16:46:00Z</time>
      </trkpt>
      <trkpt lat="59.319674" lon="18.070545">
        <ele>41</ele>
        <time>2019-11-26T16:46:01Z</time>
      </trkpt>
      <trkpt lat="59.319693" lon="18.070527">
        <ele>41</ele>
        <time>2019-11-26T16:46:02Z</time>
      </trkpt>
      <trkpt lat="59.319716" lon="18.070507">
        <ele>41</ele>
        <time>2019-11-26T16:46:03Z</time>
      </trkpt>
      <trkpt lat="59.319741" lon="18.070492">
        <ele>41</ele>
        <time>2019-11-26T16:46:04Z</time>
      </trkpt>
      <trkpt lat="59.319758" lon="18.070472">
        <ele>41</ele>
        <time>2019-11-26T16:46:05Z</time>
      </trkpt>
      <trkpt lat="59.319775" lon="18.07046">
        <ele>41</ele>
        <time>2019-11-26T16:46:06Z</time>
      </trkpt>
      <trkpt lat="59.319804" lon="18.070447">
        <ele>41</ele>
        <time>2019-11-26T16:46:08Z</time>
      </trkpt>
      <trkpt lat="59.319821" lon="18.070458">
        <ele>0</ele>
        <time>2019-11-26T16:46:15Z</time>
      </trkpt>
      <trkpt lat="59.319882" lon="18.070436">
        <ele>40</ele>
        <time>2019-11-26T16:46:35Z</time>
      </trkpt>
      <trkpt lat="59.319924" lon="18.070491">
        <ele>39</ele>
        <time>2019-11-26T16:46:36Z</time>
      </trkpt>
      <trkpt lat="59.319968" lon="18.070593">
        <ele>38</ele>
        <time>2019-11-26T16:46:37Z</time>
      </trkpt>
      <trkpt lat="59.319998" lon="18.070703">
        <ele>37</ele>
        <time>2019-11-26T16:46:39Z</time>
      </trkpt>
      <trkpt lat="59.320042" lon="18.070818">
        <ele>37</ele>
        <time>2019-11-26T16:46:39Z</time>
      </trkpt>
      <trkpt lat="59.32007" lon="18.070921">
        <ele>36</ele>
        <time>2019-11-26T16:46:40Z</time>
      </trkpt>
      <trkpt lat="59.320096" lon="18.071013">
        <ele>36</ele>
        <time>2019-11-26T16:46:41Z</time>
      </trkpt>
      <trkpt lat="59.32013" lon="18.071088">
        <ele>35</ele>
        <time>2019-11-26T16:46:42Z</time>
      </trkpt>
      <trkpt lat="59.320168" lon="18.07114">
        <ele>35</ele>
        <time>2019-11-26T16:46:43Z</time>
      </trkpt>
      <trkpt lat="59.320202" lon="18.071171">
        <ele>32</ele>
        <time>2019-11-26T16:46:44Z</time>
      </trkpt>
      <trkpt lat="59.320228" lon="18.071189">
        <ele>30</ele>
        <time>2019-11-26T16:46:45Z</time>
      </trkpt>
      <trkpt lat="59.320253" lon="18.071199">
        <ele>29</ele>
        <time>2019-11-26T16:46:46Z</time>
      </trkpt>
      <trkpt lat="59.320278" lon="18.071218">
        <ele>28</ele>
        <time>2019-11-26T16:46:47Z</time>
      </trkpt>
      <trkpt lat="59.320308" lon="18.071264">
        <ele>27</ele>
        <time>2019-11-26T16:46:48Z</time>
      </trkpt>
      <trkpt lat="59.320341" lon="18.071319">
        <ele>27</ele>
        <time>2019-11-26T16:46:49Z</time>
      </trkpt>
      <trkpt lat="59.32038" lon="18.071366">
        <ele>26</ele>
        <time>2019-11-26T16:46:51Z</time>
      </trkpt>
      <trkpt lat="59.320423" lon="18.071405">
        <ele>26</ele>
        <time>2019-11-26T16:46:51Z</time>
      </trkpt>
      <trkpt lat="59.320465" lon="18.071435">
        <ele>25</ele>
        <time>2019-11-26T16:46:52Z</time>
      </trkpt>
      <trkpt lat="59.320509" lon="18.071457">
        <ele>24</ele>
        <time>2019-11-26T16:46:54Z</time>
      </trkpt>
      <trkpt lat="59.320556" lon="18.071465">
        <ele>24</ele>
        <time>2019-11-26T16:46:54Z</time>
      </trkpt>
      <trkpt lat="59.320604" lon="18.071467">
        <ele>23</ele>
        <time>2019-11-26T16:46:55Z</time>
      </trkpt>
      <trkpt lat="59.320654" lon="18.071469">
        <ele>22</ele>
        <time>2019-11-26T16:46:56Z</time>
      </trkpt>
      <trkpt lat="59.320704" lon="18.071482">
        <ele>22</ele>
        <time>2019-11-26T16:46:57Z</time>
      </trkpt>
      <trkpt lat="59.320752" lon="18.071512">
        <ele>21</ele>
        <time>2019-11-26T16:46:58Z</time>
      </trkpt>
      <trkpt lat="59.320794" lon="18.071567">
        <ele>21</ele>
        <time>2019-11-26T16:46:59Z</time>
      </trkpt>
      <trkpt lat="59.320829" lon="18.071646">
        <ele>20</ele>
        <time>2019-11-26T16:47:01Z</time>
      </trkpt>
      <trkpt lat="59.320854" lon="18.071738">
        <ele>20</ele>
        <time>2019-11-26T16:47:01Z</time>
      </trkpt>
      <trkpt lat="59.320876" lon="18.07184">
        <ele>19</ele>
        <time>2019-11-26T16:47:02Z</time>
      </trkpt>
      <trkpt lat="59.320897" lon="18.071943">
        <ele>19</ele>
        <time>2019-11-26T16:47:03Z</time>
      </trkpt>
      <trkpt lat="59.320922" lon="18.07204">
        <ele>18</ele>
        <time>2019-11-26T16:47:04Z</time>
      </trkpt>
      <trkpt lat="59.320958" lon="18.072118">
        <ele>18</ele>
        <time>2019-11-26T16:47:05Z</time>
      </trkpt>
      <trkpt lat="59.321006" lon="18.072171">
        <ele>18</ele>
        <time>2019-11-26T16:47:06Z</time>
      </trkpt>
      <trkpt lat="59.32106" lon="18.072216">
        <ele>17</ele>
        <time>2019-11-26T16:47:07Z</time>
      </trkpt>
      <trkpt lat="59.321117" lon="18.072259">
        <ele>17</ele>
        <time>2019-11-26T16:47:09Z</time>
      </trkpt>
      <trkpt lat="59.321178" lon="18.072305">
        <ele>16</ele>
        <time>2019-11-26T16:47:10Z</time>
      </trkpt>
      <trkpt lat="59.321242" lon="18.072352">
        <ele>16</ele>
        <time>2019-11-26T16:47:10Z</time>
      </trkpt>
      <trkpt lat="59.321309" lon="18.072401">
        <ele>15</ele>
        <time>2019-11-26T16:47:11Z</time>
      </trkpt>
      <trkpt lat="59.321378" lon="18.072449">
        <ele>14</ele>
        <time>2019-11-26T16:47:13Z</time>
      </trkpt>
      <trkpt lat="59.321448" lon="18.072499">
        <ele>14</ele>
        <time>2019-11-26T16:47:13Z</time>
      </trkpt>
      <trkpt lat="59.32152" lon="18.072549">
        <ele>13</ele>
        <time>2019-11-26T16:47:14Z</time>
      </trkpt>
      <trkpt lat="59.321589" lon="18.072596">
        <ele>13</ele>
        <time>2019-11-26T16:47:15Z</time>
      </trkpt>
      <trkpt lat="59.321655" lon="18.072643">
        <ele>12</ele>
        <time>2019-11-26T16:47:17Z</time>
      </trkpt>
      <trkpt lat="59.321713" lon="18.072692">
        <ele>12</ele>
        <time>2019-11-26T16:47:17Z</time>
      </trkpt>
      <trkpt lat="59.321758" lon="18.072734">
        <ele>12</ele>
        <time>2019-11-26T16:47:18Z</time>
      </trkpt>
      <trkpt lat="59.321792" lon="18.072769">
        <ele>12</ele>
        <time>2019-11-26T16:47:19Z</time>
      </trkpt>
      <trkpt lat="59.321824" lon="18.072799">
        <ele>11</ele>
        <time>2019-11-26T16:47:20Z</time>
      </trkpt>
      <trkpt lat="59.321855" lon="18.072826">
        <ele>11</ele>
        <time>2019-11-26T16:47:21Z</time>
      </trkpt>
      <trkpt lat="59.321886" lon="18.07285">
        <ele>11</ele>
        <time>2019-11-26T16:47:22Z</time>
      </trkpt>
      <trkpt lat="59.321915" lon="18.072872">
        <ele>11</ele>
        <time>2019-11-26T16:47:23Z</time>
      </trkpt>
      <trkpt lat="59.321942" lon="18.072899">
        <ele>11</ele>
        <time>2019-11-26T16:47:24Z</time>
      </trkpt>
      <trkpt lat="59.321966" lon="18.072943">
        <ele>11</ele>
        <time>2019-11-26T16:47:25Z</time>
      </trkpt>
      <trkpt lat="59.321982" lon="18.073">
        <ele>11</ele>
        <time>2019-11-26T16:47:26Z</time>
      </trkpt>
      <trkpt lat="59.321995" lon="18.073068">
        <ele>10</ele>
        <time>2019-11-26T16:47:27Z</time>
      </trkpt>
      <trkpt lat="59.321998" lon="18.07314">
        <ele>11</ele>
        <time>2019-11-26T16:47:28Z</time>
      </trkpt>
      <trkpt lat="59.321994" lon="18.073214">
        <ele>11</ele>
        <time>2019-11-26T16:47:30Z</time>
      </trkpt>
      <trkpt lat="59.32198" lon="18.073284">
        <ele>11</ele>
        <time>2019-11-26T16:47:30Z</time>
      </trkpt>
      <trkpt lat="59.321961" lon="18.07335">
        <ele>11</ele>
        <time>2019-11-26T16:47:32Z</time>
      </trkpt>
      <trkpt lat="59.321944" lon="18.073417">
        <ele>11</ele>
        <time>2019-11-26T16:47:32Z</time>
      </trkpt>
      <trkpt lat="59.321934" lon="18.073495">
        <ele>11</ele>
        <time>2019-11-26T16:47:33Z</time>
      </trkpt>
      <trkpt lat="59.321921" lon="18.073567">
        <ele>11</ele>
        <time>2019-11-26T16:47:34Z</time>
      </trkpt>
      <trkpt lat="59.321906" lon="18.073639">
        <ele>12</ele>
        <time>2019-11-26T16:47:35Z</time>
      </trkpt>
      <trkpt lat="59.3219" lon="18.073714">
        <ele>12</ele>
        <time>2019-11-26T16:47:36Z</time>
      </trkpt>
      <trkpt lat="59.321882" lon="18.073764">
        <ele>12</ele>
        <time>2019-11-26T16:47:37Z</time>
      </trkpt>
      <trkpt lat="59.321886" lon="18.073832">
        <ele>11</ele>
        <time>2019-11-26T16:47:38Z</time>
      </trkpt>
      <trkpt lat="59.321897" lon="18.073898">
        <ele>11</ele>
        <time>2019-11-26T16:47:39Z</time>
      </trkpt>
      <trkpt lat="59.321912" lon="18.073959">
        <ele>11</ele>
        <time>2019-11-26T16:47:40Z</time>
      </trkpt>
      <trkpt lat="59.321931" lon="18.07402">
        <ele>11</ele>
        <time>2019-11-26T16:47:41Z</time>
      </trkpt>
      <trkpt lat="59.321952" lon="18.07408">
        <ele>11</ele>
        <time>2019-11-26T16:47:42Z</time>
      </trkpt>
      <trkpt lat="59.321985" lon="18.074135">
        <ele>11</ele>
        <time>2019-11-26T16:47:44Z</time>
      </trkpt>
      <trkpt lat="59.322026" lon="18.074183">
        <ele>11</ele>
        <time>2019-11-26T16:47:44Z</time>
      </trkpt>
      <trkpt lat="59.322077" lon="18.074226">
        <ele>11</ele>
        <time>2019-11-26T16:47:45Z</time>
      </trkpt>
      <trkpt lat="59.322135" lon="18.074269">
        <ele>11</ele>
        <time>2019-11-26T16:47:46Z</time>
      </trkpt>
      <trkpt lat="59.322195" lon="18.074314">
        <ele>11</ele>
        <time>2019-11-26T16:47:47Z</time>
      </trkpt>
      <trkpt lat="59.322257" lon="18.07436">
        <ele>10</ele>
        <time>2019-11-26T16:47:48Z</time>
      </trkpt>
      <trkpt lat="59.322321" lon="18.07441">
        <ele>10</ele>
        <time>2019-11-26T16:47:49Z</time>
      </trkpt>
      <trkpt lat="59.322387" lon="18.074463">
        <ele>0</ele>
        <time>2019-11-26T16:47:50Z</time>
      </trkpt>
      <trkpt lat="59.322452" lon="18.074517">
        <ele>10</ele>
        <time>2019-11-26T16:47:51Z</time>
      </trkpt>
      <trkpt lat="59.322518" lon="18.074573">
        <ele>9</ele>
        <time>2019-11-26T16:47:52Z</time>
      </trkpt>
      <trkpt lat="59.322583" lon="18.074641">
        <ele>9</ele>
        <time>2019-11-26T16:47:53Z</time>
      </trkpt>
      <trkpt lat="59.322646" lon="18.074717">
        <ele>8</ele>
        <time>2019-11-26T16:47:54Z</time>
      </trkpt>
      <trkpt lat="59.322708" lon="18.074797">
        <ele>8</ele>
        <time>2019-11-26T16:47:55Z</time>
      </trkpt>
      <trkpt lat="59.32277" lon="18.074875">
        <ele>8</ele>
        <time>2019-11-26T16:47:56Z</time>
      </trkpt>
      <trkpt lat="59.322833" lon="18.074948">
        <ele>7</ele>
        <time>2019-11-26T16:47:58Z</time>
      </trkpt>
      <trkpt lat="59.322899" lon="18.075017">
        <ele>7</ele>
        <time>2019-11-26T16:47:58Z</time>
      </trkpt>
      <trkpt lat="59.322967" lon="18.075076">
        <ele>7</ele>
        <time>2019-11-26T16:47:59Z</time>
      </trkpt>
      <trkpt lat="59.323033" lon="18.075127">
        <ele>7</ele>
        <time>2019-11-26T16:48:00Z</time>
      </trkpt>
      <trkpt lat="59.323102" lon="18.075169">
        <ele>6</ele>
        <time>2019-11-26T16:48:01Z</time>
      </trkpt>
      <trkpt lat="59.323174" lon="18.075208">
        <ele>6</ele>
        <time>2019-11-26T16:48:02Z</time>
      </trkpt>
      <trkpt lat="59.323245" lon="18.075242">
        <ele>6</ele>
        <time>2019-11-26T16:48:03Z</time>
      </trkpt>
      <trkpt lat="59.323316" lon="18.075269">
        <ele>5</ele>
        <time>2019-11-26T16:48:05Z</time>
      </trkpt>
      <trkpt lat="59.323388" lon="18.075294">
        <ele>6</ele>
        <time>2019-11-26T16:48:05Z</time>
      </trkpt>
      <trkpt lat="59.32346" lon="18.075317">
        <ele>5</ele>
        <time>2019-11-26T16:48:06Z</time>
      </trkpt>
      <trkpt lat="59.323534" lon="18.075341">
        <ele>5</ele>
        <time>2019-11-26T16:48:07Z</time>
      </trkpt>
      <trkpt lat="59.323606" lon="18.075368">
        <ele>5</ele>
        <time>2019-11-26T16:48:08Z</time>
      </trkpt>
      <trkpt lat="59.323677" lon="18.075398">
        <ele>5</ele>
        <time>2019-11-26T16:48:10Z</time>
      </trkpt>
      <trkpt lat="59.323751" lon="18.075427">
        <ele>5</ele>
        <time>2019-11-26T16:48:10Z</time>
      </trkpt>
      <trkpt lat="59.323822" lon="18.075456">
        <ele>5</ele>
        <time>2019-11-26T16:48:12Z</time>
      </trkpt>
      <trkpt lat="59.323893" lon="18.075483">
        <ele>5</ele>
        <time>2019-11-26T16:48:12Z</time>
      </trkpt>
      <trkpt lat="59.323965" lon="18.075507">
        <ele>5</ele>
        <time>2019-11-26T16:48:13Z</time>
      </trkpt>
      <trkpt lat="59.324035" lon="18.075531">
        <ele>5</ele>
        <time>2019-11-26T16:48:14Z</time>
      </trkpt>
      <trkpt lat="59.324102" lon="18.075556">
        <ele>5</ele>
        <time>2019-11-26T16:48:15Z</time>
      </trkpt>
      <trkpt lat="59.324168" lon="18.075582">
        <ele>5</ele>
        <time>2019-11-26T16:48:16Z</time>
      </trkpt>
      <trkpt lat="59.324234" lon="18.075609">
        <ele>5</ele>
        <time>2019-11-26T16:48:17Z</time>
      </trkpt>
      <trkpt lat="59.324302" lon="18.075636">
        <ele>5</ele>
        <time>2019-11-26T16:48:19Z</time>
      </trkpt>
      <trkpt lat="59.324369" lon="18.075662">
        <ele>4</ele>
        <time>2019-11-26T16:48:19Z</time>
      </trkpt>
      <trkpt lat="59.324438" lon="18.075686">
        <ele>4</ele>
        <time>2019-11-26T16:48:20Z</time>
      </trkpt>
      <trkpt lat="59.324506" lon="18.075713">
        <ele>4</ele>
        <time>2019-11-26T16:48:21Z</time>
      </trkpt>
      <trkpt lat="59.324576" lon="18.075737">
        <ele>4</ele>
        <time>2019-11-26T16:48:22Z</time>
      </trkpt>
      <trkpt lat="59.324646" lon="18.075761">
        <ele>4</ele>
        <time>2019-11-26T16:48:23Z</time>
      </trkpt>
      <trkpt lat="59.324717" lon="18.075784">
        <ele>4</ele>
        <time>2019-11-26T16:48:24Z</time>
      </trkpt>
      <trkpt lat="59.324787" lon="18.075803">
        <ele>3</ele>
        <time>2019-11-26T16:48:26Z</time>
      </trkpt>
      <trkpt lat="59.324856" lon="18.075815">
        <ele>3</ele>
        <time>2019-11-26T16:48:26Z</time>
      </trkpt>
      <trkpt lat="59.324925" lon="18.075821">
        <ele>3</ele>
        <time>2019-11-26T16:48:27Z</time>
      </trkpt>
      <trkpt lat="59.324994" lon="18.07583">
        <ele>3</ele>
        <time>2019-11-26T16:48:29Z</time>
      </trkpt>
      <trkpt lat="59.325062" lon="18.07584">
        <ele>3</ele>
        <time>2019-11-26T16:48:29Z</time>
      </trkpt>
      <trkpt lat="59.32513" lon="18.075838">
        <ele>4</ele>
        <time>2019-11-26T16:48:30Z</time>
      </trkpt>
      <trkpt lat="59.325198" lon="18.075829">
        <ele>4</ele>
        <time>2019-11-26T16:48:31Z</time>
      </trkpt>
      <trkpt lat="59.325266" lon="18.075811">
        <ele>4</ele>
        <time>2019-11-26T16:48:33Z</time>
      </trkpt>
      <trkpt lat="59.325333" lon="18.075796">
        <ele>4</ele>
        <time>2019-11-26T16:48:33Z</time>
      </trkpt>
      <trkpt lat="59.325401" lon="18.075784">
        <ele>4</ele>
        <time>2019-11-26T16:48:34Z</time>
      </trkpt>
      <trkpt lat="59.325469" lon="18.075773">
        <ele>4</ele>
        <time>2019-11-26T16:48:35Z</time>
      </trkpt>
      <trkpt lat="59.325539" lon="18.075761">
        <ele>4</ele>
        <time>2019-11-26T16:48:36Z</time>
      </trkpt>
      <trkpt lat="59.325609" lon="18.075748">
        <ele>4</ele>
        <time>2019-11-26T16:48:37Z</time>
      </trkpt>
      <trkpt lat="59.325676" lon="18.07573">
        <ele>4</ele>
        <time>2019-11-26T16:48:38Z</time>
      </trkpt>
      <trkpt lat="59.325743" lon="18.075703">
        <ele>4</ele>
        <time>2019-11-26T16:48:39Z</time>
      </trkpt>
      <trkpt lat="59.325806" lon="18.075666">
        <ele>4</ele>
        <time>2019-11-26T16:48:41Z</time>
      </trkpt>
      <trkpt lat="59.325863" lon="18.075624">
        <ele>4</ele>
        <time>2019-11-26T16:48:41Z</time>
      </trkpt>
      <trkpt lat="59.32592" lon="18.075581">
        <ele>4</ele>
        <time>2019-11-26T16:48:42Z</time>
      </trkpt>
      <trkpt lat="59.325976" lon="18.075539">
        <ele>4</ele>
        <time>2019-11-26T16:48:43Z</time>
      </trkpt>
      <trkpt lat="59.32603" lon="18.075495">
        <ele>4</ele>
        <time>2019-11-26T16:48:44Z</time>
      </trkpt>
      <trkpt lat="59.326076" lon="18.075449">
        <ele>4</ele>
        <time>2019-11-26T16:48:45Z</time>
      </trkpt>
      <trkpt lat="59.326116" lon="18.075402">
        <ele>4</ele>
        <time>2019-11-26T16:48:46Z</time>
      </trkpt>
      <trkpt lat="59.326153" lon="18.075346">
        <ele>4</ele>
        <time>2019-11-26T16:48:48Z</time>
      </trkpt>
      <trkpt lat="59.326187" lon="18.07528">
        <ele>5</ele>
        <time>2019-11-26T16:48:48Z</time>
      </trkpt>
      <trkpt lat="59.326227" lon="18.075216">
        <ele>5</ele>
        <time>2019-11-26T16:48:50Z</time>
      </trkpt>
      <trkpt lat="59.326272" lon="18.075155">
        <ele>5</ele>
        <time>2019-11-26T16:48:50Z</time>
      </trkpt>
      <trkpt lat="59.326319" lon="18.075094">
        <ele>5</ele>
        <time>2019-11-26T16:48:51Z</time>
      </trkpt>
      <trkpt lat="59.326372" lon="18.075033">
        <ele>4</ele>
        <time>2019-11-26T16:48:52Z</time>
      </trkpt>
      <trkpt lat="59.326427" lon="18.074972">
        <ele>4</ele>
        <time>2019-11-26T16:48:53Z</time>
      </trkpt>
      <trkpt lat="59.326484" lon="18.07491">
        <ele>4</ele>
        <time>2019-11-26T16:48:54Z</time>
      </trkpt>
      <trkpt lat="59.32654" lon="18.074857">
        <ele>4</ele>
        <time>2019-11-26T16:48:55Z</time>
      </trkpt>
      <trkpt lat="59.326598" lon="18.074812">
        <ele>4</ele>
        <time>2019-11-26T16:48:56Z</time>
      </trkpt>
      <trkpt lat="59.326656" lon="18.074764">
        <ele>4</ele>
        <time>2019-11-26T16:48:58Z</time>
      </trkpt>
      <trkpt lat="59.326714" lon="18.07471">
        <ele>4</ele>
        <time>2019-11-26T16:48:58Z</time>
      </trkpt>
      <trkpt lat="59.326771" lon="18.074654">
        <ele>4</ele>
        <time>2019-11-26T16:48:59Z</time>
      </trkpt>
      <trkpt lat="59.326829" lon="18.074593">
        <ele>4</ele>
        <time>2019-11-26T16:49:00Z</time>
      </trkpt>
      <trkpt lat="59.326883" lon="18.074525">
        <ele>4</ele>
        <time>2019-11-26T16:49:01Z</time>
      </trkpt>
      <trkpt lat="59.326936" lon="18.074455">
        <ele>3</ele>
        <time>2019-11-26T16:49:02Z</time>
      </trkpt>
      <trkpt lat="59.326989" lon="18.074385">
        <ele>3</ele>
        <time>2019-11-26T16:49:03Z</time>
      </trkpt>
      <trkpt lat="59.327043" lon="18.074318">
        <ele>3</ele>
        <time>2019-11-26T16:49:04Z</time>
      </trkpt>
      <trkpt lat="59.327098" lon="18.07425">
        <ele>3</ele>
        <time>2019-11-26T16:49:06Z</time>
      </trkpt>
      <trkpt lat="59.327152" lon="18.074178">
        <ele>3</ele>
        <time>2019-11-26T16:49:07Z</time>
      </trkpt>
      <trkpt lat="59.327207" lon="18.074108">
        <ele>3</ele>
        <time>2019-11-26T16:49:07Z</time>
      </trkpt>
      <trkpt lat="59.327265" lon="18.074041">
        <ele>3</ele>
        <time>2019-11-26T16:49:08Z</time>
      </trkpt>
      <trkpt lat="59.327323" lon="18.073975">
        <ele>3</ele>
        <time>2019-11-26T16:49:09Z</time>
      </trkpt>
      <trkpt lat="59.32738" lon="18.073907">
        <ele>3</ele>
        <time>2019-11-26T16:49:10Z</time>
      </trkpt>
      <trkpt lat="59.327438" lon="18.073836">
        <ele>3</ele>
        <time>2019-11-26T16:49:11Z</time>
      </trkpt>
      <trkpt lat="59.327497" lon="18.073766">
        <ele>3</ele>
        <time>2019-11-26T16:49:13Z</time>
      </trkpt>
      <trkpt lat="59.327555" lon="18.073697">
        <ele>3</ele>
        <time>2019-11-26T16:49:13Z</time>
      </trkpt>
      <trkpt lat="59.327613" lon="18.073629">
        <ele>3</ele>
        <time>2019-11-26T16:49:14Z</time>
      </trkpt>
      <trkpt lat="59.32767" lon="18.073563">
        <ele>3</ele>
        <time>2019-11-26T16:49:15Z</time>
      </trkpt>
      <trkpt lat="59.327728" lon="18.073496">
        <ele>3</ele>
        <time>2019-11-26T16:49:16Z</time>
      </trkpt>
      <trkpt lat="59.327785" lon="18.073429">
        <ele>3</ele>
        <time>2019-11-26T16:49:17Z</time>
      </trkpt>
      <trkpt lat="59.327842" lon="18.073366">
        <ele>3</ele>
        <time>2019-11-26T16:49:18Z</time>
      </trkpt>
      <trkpt lat="59.3279" lon="18.073307">
        <ele>3</ele>
        <time>2019-11-26T16:49:19Z</time>
      </trkpt>
      <trkpt lat="59.32796" lon="18.073249">
        <ele>2</ele>
        <time>2019-11-26T16:49:21Z</time>
      </trkpt>
      <trkpt lat="59.328021" lon="18.073197">
        <ele>2</ele>
        <time>2019-11-26T16:49:21Z</time>
      </trkpt>
      <trkpt lat="59.328084" lon="18.073154">
        <ele>2</ele>
        <time>2019-11-26T16:49:22Z</time>
      </trkpt>
      <trkpt lat="59.32815" lon="18.073122">
        <ele>2</ele>
        <time>2019-11-26T16:49:23Z</time>
      </trkpt>
      <trkpt lat="59.328216" lon="18.073103">
        <ele>2</ele>
        <time>2019-11-26T16:49:24Z</time>
      </trkpt>
      <trkpt lat="59.328282" lon="18.0731">
        <ele>2</ele>
        <time>2019-11-26T16:49:26Z</time>
      </trkpt>
      <trkpt lat="59.328347" lon="18.073108">
        <ele>2</ele>
        <time>2019-11-26T16:49:26Z</time>
      </trkpt>
      <trkpt lat="59.328411" lon="18.073121">
        <ele>2</ele>
        <time>2019-11-26T16:49:28Z</time>
      </trkpt>
      <trkpt lat="59.328474" lon="18.073133">
        <ele>2</ele>
        <time>2019-11-26T16:49:28Z</time>
      </trkpt>
      <trkpt lat="59.328536" lon="18.073144">
        <ele>2</ele>
        <time>2019-11-26T16:49:29Z</time>
      </trkpt>
      <trkpt lat="59.328599" lon="18.073157">
        <ele>2</ele>
        <time>2019-11-26T16:49:30Z</time>
      </trkpt>
      <trkpt lat="59.328664" lon="18.073169">
        <ele>2</ele>
        <time>2019-11-26T16:49:31Z</time>
      </trkpt>
      <trkpt lat="59.328728" lon="18.07318">
        <ele>2</ele>
        <time>2019-11-26T16:49:32Z</time>
      </trkpt>
      <trkpt lat="59.328794" lon="18.073193">
        <ele>2</ele>
        <time>2019-11-26T16:49:33Z</time>
      </trkpt>
      <trkpt lat="59.328859" lon="18.073207">
        <ele>1</ele>
        <time>2019-11-26T16:49:34Z</time>
      </trkpt>
      <trkpt lat="59.328927" lon="18.073225">
        <ele>1</ele>
        <time>2019-11-26T16:49:36Z</time>
      </trkpt>
      <trkpt lat="59.328996" lon="18.073244">
        <ele>1</ele>
        <time>2019-11-26T16:49:36Z</time>
      </trkpt>
      <trkpt lat="59.329065" lon="18.07326">
        <ele>1</ele>
        <time>2019-11-26T16:49:37Z</time>
      </trkpt>
      <trkpt lat="59.329135" lon="18.073274">
        <ele>1</ele>
        <time>2019-11-26T16:49:38Z</time>
      </trkpt>
      <trkpt lat="59.329205" lon="18.07329">
        <ele>1</ele>
        <time>2019-11-26T16:49:39Z</time>
      </trkpt>
      <trkpt lat="59.329274" lon="18.073308">
        <ele>1</ele>
        <time>2019-11-26T16:49:40Z</time>
      </trkpt>
      <trkpt lat="59.329342" lon="18.073327">
        <ele>1</ele>
        <time>2019-11-26T16:49:41Z</time>
      </trkpt>
      <trkpt lat="59.329406" lon="18.073348">
        <ele>1</ele>
        <time>2019-11-26T16:49:43Z</time>
      </trkpt>
      <trkpt lat="59.329468" lon="18.073381">
        <ele>1</ele>
        <time>2019-11-26T16:49:43Z</time>
      </trkpt>
      <trkpt lat="59.329526" lon="18.073442">
        <ele>1</ele>
        <time>2019-11-26T16:49:45Z</time>
      </trkpt>
      <trkpt lat="59.329575" lon="18.073533">
        <ele>1</ele>
        <time>2019-11-26T16:49:45Z</time>
      </trkpt>
      <trkpt lat="59.329613" lon="18.073638">
        <ele>1</ele>
        <time>2019-11-26T16:49:46Z</time>
      </trkpt>
      <trkpt lat="59.329644" lon="18.073751">
        <ele>1</ele>
        <time>2019-11-26T16:49:47Z</time>
      </trkpt>
      <trkpt lat="59.329669" lon="18.073871">
        <ele>1</ele>
        <time>2019-11-26T16:49:48Z</time>
      </trkpt>
      <trkpt lat="59.329689" lon="18.073998">
        <ele>1</ele>
        <time>2019-11-26T16:49:49Z</time>
      </trkpt>
      <trkpt lat="59.329704" lon="18.07413">
        <ele>1</ele>
        <time>2019-11-26T16:49:51Z</time>
      </trkpt>
      <trkpt lat="59.329717" lon="18.074263">
        <ele>2</ele>
        <time>2019-11-26T16:49:51Z</time>
      </trkpt>
      <trkpt lat="59.32973" lon="18.074394">
        <ele>1</ele>
        <time>2019-11-26T16:49:52Z</time>
      </trkpt>
      <trkpt lat="59.329747" lon="18.074522">
        <ele>2</ele>
        <time>2019-11-26T16:49:53Z</time>
      </trkpt>
      <trkpt lat="59.329774" lon="18.074634">
        <ele>2</ele>
        <time>2019-11-26T16:49:54Z</time>
      </trkpt>
      <trkpt lat="59.329811" lon="18.074729">
        <ele>2</ele>
        <time>2019-11-26T16:49:55Z</time>
      </trkpt>
      <trkpt lat="59.329853" lon="18.074807">
        <ele>2</ele>
        <time>2019-11-26T16:49:56Z</time>
      </trkpt>
      <trkpt lat="59.329899" lon="18.074881">
        <ele>2</ele>
        <time>2019-11-26T16:49:57Z</time>
      </trkpt>
      <trkpt lat="59.329947" lon="18.074963">
        <ele>2</ele>
        <time>2019-11-26T16:49:59Z</time>
      </trkpt>
      <trkpt lat="59.329996" lon="18.075041">
        <ele>1</ele>
        <time>2019-11-26T16:49:59Z</time>
      </trkpt>
      <trkpt lat="59.330046" lon="18.075114">
        <ele>1</ele>
        <time>2019-11-26T16:50:00Z</time>
      </trkpt>
      <trkpt lat="59.330094" lon="18.075176">
        <ele>1</ele>
        <time>2019-11-26T16:50:01Z</time>
      </trkpt>
      <trkpt lat="59.330136" lon="18.075235">
        <ele>2</ele>
        <time>2019-11-26T16:50:02Z</time>
      </trkpt>
      <trkpt lat="59.330179" lon="18.075296">
        <ele>2</ele>
        <time>2019-11-26T16:50:04Z</time>
      </trkpt>
      <trkpt lat="59.330253" lon="18.075417">
        <ele>2</ele>
        <time>2019-11-26T16:50:05Z</time>
      </trkpt>
      <trkpt lat="59.330357" lon="18.075568">
        <ele>2</ele>
        <time>2019-11-26T16:50:08Z</time>
      </trkpt>
      <trkpt lat="59.330453" lon="18.075717">
        <ele>2</ele>
        <time>2019-11-26T16:50:11Z</time>
      </trkpt>
      <trkpt lat="59.330538" lon="18.075831">
        <ele>2</ele>
        <time>2019-11-26T16:50:13Z</time>
      </trkpt>
      <trkpt lat="59.330646" lon="18.075939">
        <ele>3</ele>
        <time>2019-11-26T16:50:15Z</time>
      </trkpt>
      <trkpt lat="59.330766" lon="18.076085">
        <ele>3</ele>
        <time>2019-11-26T16:50:17Z</time>
      </trkpt>
      <trkpt lat="59.330917" lon="18.076283">
        <ele>3</ele>
        <time>2019-11-26T16:50:19Z</time>
      </trkpt>
      <trkpt lat="59.331033" lon="18.076444">
        <ele>3</ele>
        <time>2019-11-26T16:50:21Z</time>
      </trkpt>
      <trkpt lat="59.331125" lon="18.076624">
        <ele>3</ele>
        <time>2019-11-26T16:50:23Z</time>
      </trkpt>
      <trkpt lat="59.331229" lon="18.076646">
        <ele>3</ele>
        <time>2019-11-26T16:50:25Z</time>
      </trkpt>
      <trkpt lat="59.331278" lon="18.076597">
        <ele>3</ele>
        <time>2019-11-26T16:50:26Z</time>
      </trkpt>
      <trkpt lat="59.331327" lon="18.076512">
        <ele>3</ele>
        <time>2019-11-26T16:50:27Z</time>
      </trkpt>
      <trkpt lat="59.331382" lon="18.076417">
        <ele>3</ele>
        <time>2019-11-26T16:50:28Z</time>
      </trkpt>
      <trkpt lat="59.331436" lon="18.076331">
        <ele>3</ele>
        <time>2019-11-26T16:50:29Z</time>
      </trkpt>
      <trkpt lat="59.331496" lon="18.076257">
        <ele>3</ele>
        <time>2019-11-26T16:50:30Z</time>
      </trkpt>
      <trkpt lat="59.331556" lon="18.076199">
        <ele>3</ele>
        <time>2019-11-26T16:50:32Z</time>
      </trkpt>
      <trkpt lat="59.331618" lon="18.076154">
        <ele>4</ele>
        <time>2019-11-26T16:50:32Z</time>
      </trkpt>
      <trkpt lat="59.331683" lon="18.076123">
        <ele>4</ele>
        <time>2019-11-26T16:50:33Z</time>
      </trkpt>
      <trkpt lat="59.331743" lon="18.076106">
        <ele>3</ele>
        <time>2019-11-26T16:50:34Z</time>
      </trkpt>
      <trkpt lat="59.331803" lon="18.076107">
        <ele>3</ele>
        <time>2019-11-26T16:50:35Z</time>
      </trkpt>
      <trkpt lat="59.33186" lon="18.076124">
        <ele>3</ele>
        <time>2019-11-26T16:50:36Z</time>
      </trkpt>
      <trkpt lat="59.331919" lon="18.076143">
        <ele>3</ele>
        <time>2019-11-26T16:50:37Z</time>
      </trkpt>
      <trkpt lat="59.331976" lon="18.076167">
        <ele>3</ele>
        <time>2019-11-26T16:50:38Z</time>
      </trkpt>
      <trkpt lat="59.332031" lon="18.076197">
        <ele>3</ele>
        <time>2019-11-26T16:50:40Z</time>
      </trkpt>
      <trkpt lat="59.332083" lon="18.076235">
        <ele>3</ele>
        <time>2019-11-26T16:50:40Z</time>
      </trkpt>
      <trkpt lat="59.332134" lon="18.076276">
        <ele>3</ele>
        <time>2019-11-26T16:50:42Z</time>
      </trkpt>
      <trkpt lat="59.33218" lon="18.076325">
        <ele>3</ele>
        <time>2019-11-26T16:50:42Z</time>
      </trkpt>
      <trkpt lat="59.332218" lon="18.07638">
        <ele>3</ele>
        <time>2019-11-26T16:50:43Z</time>
      </trkpt>
      <trkpt lat="59.332255" lon="18.076437">
        <ele>3</ele>
        <time>2019-11-26T16:50:44Z</time>
      </trkpt>
      <trkpt lat="59.332283" lon="18.076494">
        <ele>4</ele>
        <time>2019-11-26T16:50:45Z</time>
      </trkpt>
      <trkpt lat="59.332309" lon="18.076545">
        <ele>4</ele>
        <time>2019-11-26T16:50:46Z</time>
      </trkpt>
      <trkpt lat="59.332329" lon="18.076589">
        <ele>4</ele>
        <time>2019-11-26T16:50:47Z</time>
      </trkpt>
      <trkpt lat="59.332345" lon="18.076623">
        <ele>4</ele>
        <time>2019-11-26T16:50:48Z</time>
      </trkpt>
      <trkpt lat="59.332366" lon="18.07667">
        <ele>4</ele>
        <time>2019-11-26T16:50:50Z</time>
      </trkpt>
      <trkpt lat="59.332382" lon="18.076703">
        <ele>5</ele>
        <time>2019-11-26T16:50:52Z</time>
      </trkpt>
      <trkpt lat="59.332392" lon="18.076735">
        <ele>5</ele>
        <time>2019-11-26T16:50:55Z</time>
      </trkpt>
      <trkpt lat="59.332397" lon="18.076758">
        <ele>0</ele>
        <time>2019-11-26T16:50:59Z</time>
      </trkpt>
      <trkpt lat="59.332415" lon="18.076814">
        <ele>5</ele>
        <time>2019-11-26T16:51:03Z</time>
      </trkpt>
      <trkpt lat="59.332431" lon="18.076864">
        <ele>5</ele>
        <time>2019-11-26T16:51:03Z</time>
      </trkpt>
      <trkpt lat="59.332452" lon="18.07693">
        <ele>5</ele>
        <time>2019-11-26T16:51:04Z</time>
      </trkpt>
      <trkpt lat="59.332479" lon="18.077005">
        <ele>6</ele>
        <time>2019-11-26T16:51:06Z</time>
      </trkpt>
      <trkpt lat="59.332513" lon="18.077077">
        <ele>6</ele>
        <time>2019-11-26T16:51:06Z</time>
      </trkpt>
      <trkpt lat="59.332556" lon="18.077137">
        <ele>6</ele>
        <time>2019-11-26T16:51:07Z</time>
      </trkpt>
      <trkpt lat="59.332607" lon="18.077184">
        <ele>6</ele>
        <time>2019-11-26T16:51:08Z</time>
      </trkpt>
      <trkpt lat="59.332663" lon="18.077227">
        <ele>6</ele>
        <time>2019-11-26T16:51:09Z</time>
      </trkpt>
      <trkpt lat="59.33272" lon="18.077267">
        <ele>6</ele>
        <time>2019-11-26T16:51:10Z</time>
      </trkpt>
      <trkpt lat="59.332776" lon="18.077305">
        <ele>6</ele>
        <time>2019-11-26T16:51:11Z</time>
      </trkpt>
      <trkpt lat="59.332835" lon="18.077348">
        <ele>6</ele>
        <time>2019-11-26T16:51:12Z</time>
      </trkpt>
      <trkpt lat="59.332895" lon="18.077396">
        <ele>6</ele>
        <time>2019-11-26T16:51:14Z</time>
      </trkpt>
      <trkpt lat="59.332956" lon="18.077436">
        <ele>7</ele>
        <time>2019-11-26T16:51:15Z</time>
      </trkpt>
      <trkpt lat="59.333023" lon="18.077475">
        <ele>7</ele>
        <time>2019-11-26T16:51:15Z</time>
      </trkpt>
      <trkpt lat="59.333086" lon="18.077518">
        <ele>7</ele>
        <time>2019-11-26T16:51:16Z</time>
      </trkpt>
      <trkpt lat="59.333147" lon="18.077564">
        <ele>7</ele>
        <time>2019-11-26T16:51:17Z</time>
      </trkpt>
      <trkpt lat="59.333205" lon="18.077612">
        <ele>8</ele>
        <time>2019-11-26T16:51:18Z</time>
      </trkpt>
      <trkpt lat="59.333261" lon="18.077657">
        <ele>8</ele>
        <time>2019-11-26T16:51:19Z</time>
      </trkpt>
      <trkpt lat="59.333314" lon="18.077701">
        <ele>8</ele>
        <time>2019-11-26T16:51:20Z</time>
      </trkpt>
      <trkpt lat="59.33337" lon="18.077728">
        <ele>0</ele>
        <time>2019-11-26T16:51:21Z</time>
      </trkpt>
      <trkpt lat="59.333431" lon="18.07774">
        <ele>8</ele>
        <time>2019-11-26T16:51:22Z</time>
      </trkpt>
      <trkpt lat="59.333489" lon="18.077757">
        <ele>9</ele>
        <time>2019-11-26T16:51:23Z</time>
      </trkpt>
      <trkpt lat="59.333545" lon="18.077777">
        <ele>9</ele>
        <time>2019-11-26T16:51:24Z</time>
      </trkpt>
      <trkpt lat="59.333602" lon="18.077801">
        <ele>9</ele>
        <time>2019-11-26T16:51:25Z</time>
      </trkpt>
      <trkpt lat="59.333708" lon="18.077863">
        <ele>9</ele>
        <time>2019-11-26T16:51:27Z</time>
      </trkpt>
      <trkpt lat="59.333808" lon="18.077931">
        <ele>9</ele>
        <time>2019-11-26T16:51:29Z</time>
      </trkpt>
      <trkpt lat="59.333899" lon="18.077995">
        <ele>9</ele>
        <time>2019-11-26T16:51:31Z</time>
      </trkpt>
      <trkpt lat="59.333943" lon="18.078028">
        <ele>9</ele>
        <time>2019-11-26T16:51:32Z</time>
      </trkpt>
      <trkpt lat="59.333988" lon="18.078058">
        <ele>9</ele>
        <time>2019-11-26T16:51:33Z</time>
      </trkpt>
      <trkpt lat="59.334032" lon="18.078088">
        <ele>10</ele>
        <time>2019-11-26T16:51:34Z</time>
      </trkpt>
      <trkpt lat="59.334077" lon="18.078114">
        <ele>10</ele>
        <time>2019-11-26T16:51:35Z</time>
      </trkpt>
      <trkpt lat="59.334153" lon="18.078238">
        <ele>10</ele>
        <time>2019-11-26T16:51:37Z</time>
      </trkpt>
      <trkpt lat="59.334189" lon="18.07827">
        <ele>11</ele>
        <time>2019-11-26T16:51:38Z</time>
      </trkpt>
      <trkpt lat="59.334279" lon="18.078337">
        <ele>11</ele>
        <time>2019-11-26T16:51:41Z</time>
      </trkpt>
      <trkpt lat="59.334379" lon="18.078429">
        <ele>11</ele>
        <time>2019-11-26T16:51:42Z</time>
      </trkpt>
      <trkpt lat="59.334484" lon="18.07854">
        <ele>11</ele>
        <time>2019-11-26T16:51:44Z</time>
      </trkpt>
      <trkpt lat="59.334588" lon="18.078636">
        <ele>11</ele>
        <time>2019-11-26T16:51:46Z</time>
      </trkpt>
      <trkpt lat="59.33469" lon="18.078721">
        <ele>12</ele>
        <time>2019-11-26T16:51:48Z</time>
      </trkpt>
      <trkpt lat="59.334804" lon="18.07877">
        <ele>12</ele>
        <time>2019-11-26T16:51:50Z</time>
      </trkpt>
      <trkpt lat="59.334908" lon="18.078875">
        <ele>12</ele>
        <time>2019-11-26T16:51:52Z</time>
      </trkpt>
      <trkpt lat="59.334999" lon="18.079017">
        <ele>12</ele>
        <time>2019-11-26T16:51:54Z</time>
      </trkpt>
      <trkpt lat="59.335084" lon="18.079126">
        <ele>12</ele>
        <time>2019-11-26T16:51:56Z</time>
      </trkpt>
      <trkpt lat="59.335125" lon="18.079169">
        <ele>13</ele>
        <time>2019-11-26T16:51:58Z</time>
      </trkpt>
      <trkpt lat="59.335165" lon="18.079204">
        <ele>13</ele>
        <time>2019-11-26T16:51:58Z</time>
      </trkpt>
      <trkpt lat="59.335208" lon="18.079239">
        <ele>13</ele>
        <time>2019-11-26T16:52:00Z</time>
      </trkpt>
      <trkpt lat="59.335293" lon="18.079304">
        <ele>13</ele>
        <time>2019-11-26T16:52:01Z</time>
      </trkpt>
      <trkpt lat="59.335332" lon="18.079351">
        <ele>13</ele>
        <time>2019-11-26T16:52:02Z</time>
      </trkpt>
      <trkpt lat="59.335448" lon="18.079464">
        <ele>14</ele>
        <time>2019-11-26T16:52:05Z</time>
      </trkpt>
      <trkpt lat="59.335525" lon="18.079534">
        <ele>14</ele>
        <time>2019-11-26T16:52:07Z</time>
      </trkpt>
      <trkpt lat="59.335566" lon="18.079575">
        <ele>14</ele>
        <time>2019-11-26T16:52:08Z</time>
      </trkpt>
      <trkpt lat="59.335603" lon="18.079618">
        <ele>15</ele>
        <time>2019-11-26T16:52:09Z</time>
      </trkpt>
      <trkpt lat="59.33564" lon="18.079654">
        <ele>15</ele>
        <time>2019-11-26T16:52:11Z</time>
      </trkpt>
      <trkpt lat="59.335681" lon="18.079684">
        <ele>15</ele>
        <time>2019-11-26T16:52:11Z</time>
      </trkpt>
      <trkpt lat="59.335717" lon="18.079715">
        <ele>16</ele>
        <time>2019-11-26T16:52:12Z</time>
      </trkpt>
      <trkpt lat="59.335752" lon="18.079744">
        <ele>16</ele>
        <time>2019-11-26T16:52:13Z</time>
      </trkpt>
      <trkpt lat="59.335782" lon="18.079767">
        <ele>16</ele>
        <time>2019-11-26T16:52:14Z</time>
      </trkpt>
      <trkpt lat="59.335808" lon="18.079787">
        <ele>16</ele>
        <time>2019-11-26T16:52:15Z</time>
      </trkpt>
      <trkpt lat="59.335834" lon="18.079799">
        <ele>16</ele>
        <time>2019-11-26T16:52:16Z</time>
      </trkpt>
      <trkpt lat="59.335856" lon="18.079808">
        <ele>16</ele>
        <time>2019-11-26T16:52:17Z</time>
      </trkpt>
      <trkpt lat="59.33588" lon="18.079818">
        <ele>16</ele>
        <time>2019-11-26T16:52:19Z</time>
      </trkpt>
      <trkpt lat="59.335908" lon="18.079829">
        <ele>16</ele>
        <time>2019-11-26T16:52:19Z</time>
      </trkpt>
      <trkpt lat="59.335938" lon="18.079838">
        <ele>16</ele>
        <time>2019-11-26T16:52:20Z</time>
      </trkpt>
      <trkpt lat="59.335969" lon="18.079846">
        <ele>16</ele>
        <time>2019-11-26T16:52:21Z</time>
      </trkpt>
      <trkpt lat="59.335997" lon="18.079852">
        <ele>17</ele>
        <time>2019-11-26T16:52:22Z</time>
      </trkpt>
      <trkpt lat="59.336026" lon="18.079865">
        <ele>17</ele>
        <time>2019-11-26T16:52:23Z</time>
      </trkpt>
      <trkpt lat="59.336054" lon="18.079893">
        <ele>17</ele>
        <time>2019-11-26T16:52:24Z</time>
      </trkpt>
      <trkpt lat="59.336118" lon="18.079969">
        <ele>17</ele>
        <time>2019-11-26T16:52:26Z</time>
      </trkpt>
      <trkpt lat="59.336227" lon="18.080074">
        <ele>18</ele>
        <time>2019-11-26T16:52:29Z</time>
      </trkpt>
      <trkpt lat="59.336334" lon="18.080109">
        <ele>18</ele>
        <time>2019-11-26T16:52:31Z</time>
      </trkpt>
      <trkpt lat="59.336462" lon="18.080191">
        <ele>19</ele>
        <time>2019-11-26T16:52:34Z</time>
      </trkpt>
      <trkpt lat="59.336555" lon="18.080249">
        <ele>19</ele>
        <time>2019-11-26T16:52:36Z</time>
      </trkpt>
      <trkpt lat="59.336665" lon="18.080368">
        <ele>20</ele>
        <time>2019-11-26T16:52:39Z</time>
      </trkpt>
      <trkpt lat="59.336777" lon="18.080461">
        <ele>20</ele>
        <time>2019-11-26T16:52:42Z</time>
      </trkpt>
      <trkpt lat="59.336873" lon="18.080489">
        <ele>20</ele>
        <time>2019-11-26T16:52:45Z</time>
      </trkpt>
      <trkpt lat="59.336913" lon="18.080507">
        <ele>21</ele>
        <time>2019-11-26T16:52:51Z</time>
      </trkpt>
      <trkpt lat="59.336913" lon="18.080507">
        <ele>0</ele>
        <time>2019-11-26T16:52:53Z</time>
      </trkpt>
      <trkpt lat="59.337005" lon="18.080717">
        <ele>23</ele>
        <time>2019-11-26T16:53:11Z</time>
      </trkpt>
      <trkpt lat="59.337046" lon="18.080775">
        <ele>24</ele>
        <time>2019-11-26T16:53:11Z</time>
      </trkpt>
      <trkpt lat="59.337089" lon="18.080803">
        <ele>24</ele>
        <time>2019-11-26T16:53:12Z</time>
      </trkpt>
      <trkpt lat="59.337128" lon="18.080829">
        <ele>24</ele>
        <time>2019-11-26T16:53:13Z</time>
      </trkpt>
      <trkpt lat="59.33717" lon="18.080859">
        <ele>25</ele>
        <time>2019-11-26T16:53:14Z</time>
      </trkpt>
      <trkpt lat="59.337243" lon="18.080912">
        <ele>25</ele>
        <time>2019-11-26T16:53:16Z</time>
      </trkpt>
      <trkpt lat="59.337317" lon="18.080952">
        <ele>26</ele>
        <time>2019-11-26T16:53:18Z</time>
      </trkpt>
      <trkpt lat="59.337401" lon="18.080985">
        <ele>26</ele>
        <time>2019-11-26T16:53:20Z</time>
      </trkpt>
      <trkpt lat="59.337497" lon="18.081038">
        <ele>27</ele>
        <time>2019-11-26T16:53:22Z</time>
      </trkpt>
      <trkpt lat="59.33761" lon="18.081092">
        <ele>27</ele>
        <time>2019-11-26T16:53:24Z</time>
      </trkpt>
      <trkpt lat="59.33775" lon="18.081178">
        <ele>28</ele>
        <time>2019-11-26T16:53:26Z</time>
      </trkpt>
      <trkpt lat="59.337881" lon="18.081261">
        <ele>28</ele>
        <time>2019-11-26T16:53:28Z</time>
      </trkpt>
      <trkpt lat="59.337997" lon="18.081339">
        <ele>28</ele>
        <time>2019-11-26T16:53:30Z</time>
      </trkpt>
      <trkpt lat="59.338103" lon="18.081492">
        <ele>29</ele>
        <time>2019-11-26T16:53:32Z</time>
      </trkpt>
      <trkpt lat="59.338149" lon="18.081542">
        <ele>29</ele>
        <time>2019-11-26T16:53:33Z</time>
      </trkpt>
      <trkpt lat="59.338238" lon="18.081593">
        <ele>29</ele>
        <time>2019-11-26T16:53:35Z</time>
      </trkpt>
      <trkpt lat="59.338335" lon="18.081659">
        <ele>29</ele>
        <time>2019-11-26T16:53:37Z</time>
      </trkpt>
      <trkpt lat="59.338436" lon="18.08172">
        <ele>29</ele>
        <time>2019-11-26T16:53:39Z</time>
      </trkpt>
      <trkpt lat="59.338534" lon="18.081763">
        <ele>30</ele>
        <time>2019-11-26T16:53:41Z</time>
      </trkpt>
      <trkpt lat="59.338663" lon="18.081834">
        <ele>30</ele>
        <time>2019-11-26T16:53:44Z</time>
      </trkpt>
      <trkpt lat="59.338761" lon="18.081892">
        <ele>31</ele>
        <time>2019-11-26T16:53:46Z</time>
      </trkpt>
      <trkpt lat="59.338858" lon="18.081917">
        <ele>31</ele>
        <time>2019-11-26T16:53:49Z</time>
      </trkpt>
      <trkpt lat="59.338958" lon="18.081989">
        <ele>30</ele>
        <time>2019-11-26T16:53:51Z</time>
      </trkpt>
      <trkpt lat="59.339014" lon="18.08221">
        <ele>29</ele>
        <time>2019-11-26T16:53:53Z</time>
      </trkpt>
      <trkpt lat="59.339009" lon="18.082394">
        <ele>29</ele>
        <time>2019-11-26T16:53:56Z</time>
      </trkpt>
      <trkpt lat="59.339022" lon="18.082429">
        <ele>29</ele>
        <time>2019-11-26T16:53:58Z</time>
      </trkpt>
      <trkpt lat="59.339048" lon="18.082447">
        <ele>29</ele>
        <time>2019-11-26T16:53:59Z</time>
      </trkpt>
      <trkpt lat="59.339077" lon="18.082465">
        <ele>29</ele>
        <time>2019-11-26T16:54:00Z</time>
      </trkpt>
      <trkpt lat="59.339116" lon="18.082492">
        <ele>29</ele>
        <time>2019-11-26T16:54:01Z</time>
      </trkpt>
      <trkpt lat="59.339155" lon="18.082523">
        <ele>29</ele>
        <time>2019-11-26T16:54:02Z</time>
      </trkpt>
      <trkpt lat="59.339188" lon="18.082543">
        <ele>29</ele>
        <time>2019-11-26T16:54:03Z</time>
      </trkpt>
      <trkpt lat="59.33922" lon="18.082561">
        <ele>29</ele>
        <time>2019-11-26T16:54:04Z</time>
      </trkpt>
      <trkpt lat="59.339254" lon="18.082583">
        <ele>29</ele>
        <time>2019-11-26T16:54:05Z</time>
      </trkpt>
      <trkpt lat="59.33929" lon="18.082601">
        <ele>29</ele>
        <time>2019-11-26T16:54:06Z</time>
      </trkpt>
      <trkpt lat="59.339325" lon="18.082621">
        <ele>29</ele>
        <time>2019-11-26T16:54:08Z</time>
      </trkpt>
      <trkpt lat="59.339358" lon="18.082641">
        <ele>29</ele>
        <time>2019-11-26T16:54:08Z</time>
      </trkpt>
      <trkpt lat="59.339393" lon="18.082669">
        <ele>29</ele>
        <time>2019-11-26T16:54:09Z</time>
      </trkpt>
      <trkpt lat="59.339503" lon="18.082776">
        <ele>29</ele>
        <time>2019-11-26T16:54:12Z</time>
      </trkpt>
      <trkpt lat="59.339622" lon="18.08286">
        <ele>29</ele>
        <time>2019-11-26T16:54:15Z</time>
      </trkpt>
      <trkpt lat="59.339748" lon="18.082966">
        <ele>29</ele>
        <time>2019-11-26T16:54:18Z</time>
      </trkpt>
      <trkpt lat="59.339866" lon="18.083003">
        <ele>29</ele>
        <time>2019-11-26T16:54:20Z</time>
      </trkpt>
      <trkpt lat="59.339966" lon="18.083054">
        <ele>29</ele>
        <time>2019-11-26T16:54:22Z</time>
      </trkpt>
      <trkpt lat="59.340069" lon="18.083092">
        <ele>29</ele>
        <time>2019-11-26T16:54:24Z</time>
      </trkpt>
      <trkpt lat="59.340151" lon="18.083182">
        <ele>29</ele>
        <time>2019-11-26T16:54:27Z</time>
      </trkpt>
      <trkpt lat="59.340262" lon="18.083316">
        <ele>30</ele>
        <time>2019-11-26T16:54:29Z</time>
      </trkpt>
      <trkpt lat="59.340356" lon="18.083364">
        <ele>30</ele>
        <time>2019-11-26T16:54:31Z</time>
      </trkpt>
      <trkpt lat="59.340456" lon="18.083527">
        <ele>31</ele>
        <time>2019-11-26T16:54:33Z</time>
      </trkpt>
      <trkpt lat="59.340482" lon="18.083746">
        <ele>32</ele>
        <time>2019-11-26T16:54:35Z</time>
      </trkpt>
      <trkpt lat="59.340487" lon="18.083946">
        <ele>32</ele>
        <time>2019-11-26T16:54:37Z</time>
      </trkpt>
      <trkpt lat="59.340476" lon="18.084146">
        <ele>32</ele>
        <time>2019-11-26T16:54:39Z</time>
      </trkpt>
      <trkpt lat="59.340439" lon="18.084343">
        <ele>32</ele>
        <time>2019-11-26T16:54:41Z</time>
      </trkpt>
      <trkpt lat="59.340419" lon="18.084542">
        <ele>32</ele>
        <time>2019-11-26T16:54:43Z</time>
      </trkpt>
      <trkpt lat="59.340435" lon="18.084642">
        <ele>32</ele>
        <time>2019-11-26T16:54:44Z</time>
      </trkpt>
      <trkpt lat="59.340453" lon="18.084822">
        <ele>31</ele>
        <time>2019-11-26T16:54:46Z</time>
      </trkpt>
      <trkpt lat="59.340448" lon="18.084967">
        <ele>31</ele>
        <time>2019-11-26T16:54:48Z</time>
      </trkpt>
      <trkpt lat="59.340439" lon="18.085022">
        <ele>31</ele>
        <time>2019-11-26T16:54:49Z</time>
      </trkpt>
      <trkpt lat="59.340438" lon="18.085093">
        <ele>0</ele>
        <time>2019-11-26T16:54:51Z</time>
      </trkpt>
    </trkseg>
  </trk>
</gpx>